<?xml version='1.0' encoding='UTF-8'?><gpx version="1.1" creator="JPX - https://github.com/jenetics/jpx" xmlns="http://www.topografix.com/GPX/1/1"><trk><trkseg><trkpt lat="41.4237221" lon="12.7874859"><ele>1.0</ele><time>2026-03-28T12:04:03.281Z</time></trkpt><trkpt lat="41.4237008" lon="12.7873937"><ele>1.0</ele><time>2026-03-28T12:04:09.252Z</time></trkpt><trkpt lat="41.4235343" lon="12.7872004"><ele>1.0</ele><time>2026-03-28T12:04:48.252Z</time></trkpt><trkpt lat="41.4234468" lon="12.7871822"><ele>1.0</ele><time>2026-03-28T12:04:49.253Z</time></trkpt><trkpt lat="41.4233473" lon="12.7871518"><ele>1.0</ele><time>2026-03-28T12:04:50.252Z</time></trkpt><trkpt lat="41.4232407" lon="12.7871233"><ele>1.0</ele><time>2026-03-28T12:04:51.252Z</time></trkpt><trkpt lat="41.4231344" lon="12.7870961"><ele>1.0</ele><time>2026-03-28T12:04:52.253Z</time></trkpt><trkpt lat="41.4230308" lon="12.7870702"><ele>1.0</ele><time>2026-03-28T12:04:53.252Z</time></trkpt><trkpt lat="41.4229348" lon="12.7870272"><ele>1.0</ele><time>2026-03-28T12:04:54.253Z</time></trkpt><trkpt lat="41.4228469" lon="12.786992"><ele>0.8333333333333333</ele><time>2026-03-28T12:04:55.253Z</time></trkpt><trkpt lat="41.4227629" lon="12.7869702"><ele>0.6666666666666666</ele><time>2026-03-28T12:04:56.253Z</time></trkpt><trkpt lat="41.4226822" lon="12.7869527"><ele>0.5</ele><time>2026-03-28T12:04:57.252Z</time></trkpt><trkpt lat="41.4226038" lon="12.7869282"><ele>0.3333333333333333</ele><time>2026-03-28T12:04:58.252Z</time></trkpt><trkpt lat="41.4225358" lon="12.78689"><ele>0.16666666666666666</ele><time>2026-03-28T12:04:59.252Z</time></trkpt><trkpt lat="41.4224742" lon="12.7868654"><ele>0.0</ele><time>2026-03-28T12:05:00.252Z</time></trkpt><trkpt lat="41.4223991" lon="12.786835"><ele>0.16666666666666666</ele><time>2026-03-28T12:05:01.253Z</time></trkpt><trkpt lat="41.4223308" lon="12.7867997"><ele>0.3333333333333333</ele><time>2026-03-28T12:05:02.253Z</time></trkpt><trkpt lat="41.4222537" lon="12.7867531"><ele>0.5</ele><time>2026-03-28T12:05:03.252Z</time></trkpt><trkpt lat="41.4221789" lon="12.7867156"><ele>0.6666666666666666</ele><time>2026-03-28T12:05:04.252Z</time></trkpt><trkpt lat="41.4221208" lon="12.7866777"><ele>0.8333333333333333</ele><time>2026-03-28T12:05:05.252Z</time></trkpt><trkpt lat="41.4220504" lon="12.7866325"><ele>1.0</ele><time>2026-03-28T12:05:06.252Z</time></trkpt><trkpt lat="41.4219808" lon="12.7866068"><ele>1.0</ele><time>2026-03-28T12:05:07.252Z</time></trkpt><trkpt lat="41.4219019" lon="12.7865792"><ele>0.9999999999999999</ele><time>2026-03-28T12:05:08.252Z</time></trkpt><trkpt lat="41.4218295" lon="12.7865593"><ele>1.0</ele><time>2026-03-28T12:05:09.252Z</time></trkpt><trkpt lat="41.421759" lon="12.7865326"><ele>1.0</ele><time>2026-03-28T12:05:10.253Z</time></trkpt><trkpt lat="41.4216949" lon="12.7865182"><ele>0.9999999999999999</ele><time>2026-03-28T12:05:11.252Z</time></trkpt><trkpt lat="41.4216274" lon="12.7864994"><ele>1.0</ele><time>2026-03-28T12:05:12.252Z</time></trkpt><trkpt lat="41.4215657" lon="12.7864763"><ele>1.0</ele><time>2026-03-28T12:05:13.252Z</time></trkpt><trkpt lat="41.4215049" lon="12.7864478"><ele>0.9999999999999999</ele><time>2026-03-28T12:05:14.253Z</time></trkpt><trkpt lat="41.4214374" lon="12.7864241"><ele>1.0</ele><time>2026-03-28T12:05:15.252Z</time></trkpt><trkpt lat="41.4213587" lon="12.7864079"><ele>1.0</ele><time>2026-03-28T12:05:16.253Z</time></trkpt><trkpt lat="41.4212776" lon="12.7863933"><ele>1.0</ele><time>2026-03-28T12:05:17.253Z</time></trkpt><trkpt lat="41.4212082" lon="12.7863883"><ele>0.9999999999999999</ele><time>2026-03-28T12:05:18.253Z</time></trkpt><trkpt lat="41.4211475" lon="12.7863606"><ele>1.0</ele><time>2026-03-28T12:05:19.253Z</time></trkpt><trkpt lat="41.4210322" lon="12.7862968"><ele>1.1428571428571428</ele><time>2026-03-28T12:05:21.252Z</time></trkpt><trkpt lat="41.42097" lon="12.7862724"><ele>1.2857142857142856</ele><time>2026-03-28T12:05:22.252Z</time></trkpt><trkpt lat="41.4209069" lon="12.7862581"><ele>1.4285714285714284</ele><time>2026-03-28T12:05:23.253Z</time></trkpt><trkpt lat="41.4208319" lon="12.7862491"><ele>1.5714285714285714</ele><time>2026-03-28T12:05:24.252Z</time></trkpt><trkpt lat="41.4207629" lon="12.786249"><ele>1.714285714285714</ele><time>2026-03-28T12:05:25.253Z</time></trkpt><trkpt lat="41.420694" lon="12.7862396"><ele>1.857142857142857</ele><time>2026-03-28T12:05:26.252Z</time></trkpt><trkpt lat="41.4206156" lon="12.7862065"><ele>2.0</ele><time>2026-03-28T12:05:27.252Z</time></trkpt><trkpt lat="41.4205419" lon="12.7861811"><ele>1.8333333333333333</ele><time>2026-03-28T12:05:28.253Z</time></trkpt><trkpt lat="41.4204634" lon="12.7861502"><ele>1.6666666666666665</ele><time>2026-03-28T12:05:29.253Z</time></trkpt><trkpt lat="41.4203923" lon="12.7861175"><ele>1.5</ele><time>2026-03-28T12:05:30.252Z</time></trkpt><trkpt lat="41.4203247" lon="12.7861013"><ele>1.3333333333333333</ele><time>2026-03-28T12:05:31.252Z</time></trkpt><trkpt lat="41.4202155" lon="12.7860804"><ele>1.1666666666666665</ele><time>2026-03-28T12:05:33.252Z</time></trkpt><trkpt lat="41.4201443" lon="12.7860177"><ele>1.0</ele><time>2026-03-28T12:05:37.252Z</time></trkpt><trkpt lat="41.4200715" lon="12.7860032"><ele>0.8333333333333333</ele><time>2026-03-28T12:05:48.253Z</time></trkpt><trkpt lat="41.4200119" lon="12.7860576"><ele>0.6666666666666666</ele><time>2026-03-28T12:05:52.252Z</time></trkpt><trkpt lat="41.4199756" lon="12.7861804"><ele>0.5</ele><time>2026-03-28T12:05:54.252Z</time></trkpt><trkpt lat="41.4199597" lon="12.7862905"><ele>0.3333333333333333</ele><time>2026-03-28T12:05:55.253Z</time></trkpt><trkpt lat="41.4199474" lon="12.7863937"><ele>0.16666666666666666</ele><time>2026-03-28T12:05:56.252Z</time></trkpt><trkpt lat="41.4199362" lon="12.7864968"><ele>0.0</ele><time>2026-03-28T12:05:57.252Z</time></trkpt><trkpt lat="41.4199305" lon="12.7866101"><ele>0.0</ele><time>2026-03-28T12:05:58.253Z</time></trkpt><trkpt lat="41.4199106" lon="12.7867263"><ele>0.0</ele><time>2026-03-28T12:05:59.252Z</time></trkpt><trkpt lat="41.4198875" lon="12.7868749"><ele>0.0</ele><time>2026-03-28T12:06:00.253Z</time></trkpt><trkpt lat="41.419898" lon="12.7870139"><ele>0.0</ele><time>2026-03-28T12:06:01.253Z</time></trkpt><trkpt lat="41.4198791" lon="12.7871361"><ele>0.0</ele><time>2026-03-28T12:06:02.253Z</time></trkpt><trkpt lat="41.4198612" lon="12.7872573"><ele>0.0</ele><time>2026-03-28T12:06:03.252Z</time></trkpt><trkpt lat="41.419843" lon="12.7873773"><ele>0.0</ele><time>2026-03-28T12:06:04.252Z</time></trkpt><trkpt lat="41.4198438" lon="12.7874814"><ele>0.0</ele><time>2026-03-28T12:06:05.252Z</time></trkpt><trkpt lat="41.4198247" lon="12.787626"><ele>0.0</ele><time>2026-03-28T12:06:06.253Z</time></trkpt><trkpt lat="41.4198118" lon="12.7877982"><ele>0.0</ele><time>2026-03-28T12:06:07.252Z</time></trkpt><trkpt lat="41.4197915" lon="12.7879895"><ele>0.3333333333333333</ele><time>2026-03-28T12:06:08.252Z</time></trkpt><trkpt lat="41.419778" lon="12.7881776"><ele>0.6666666666666666</ele><time>2026-03-28T12:06:09.252Z</time></trkpt><trkpt lat="41.4197598" lon="12.7883916"><ele>1.0</ele><time>2026-03-28T12:06:10.252Z</time></trkpt><trkpt lat="41.4197416" lon="12.7886088"><ele>1.0</ele><time>2026-03-28T12:06:11.252Z</time></trkpt><trkpt lat="41.4197471" lon="12.7888416"><ele>1.0</ele><time>2026-03-28T12:06:12.253Z</time></trkpt><trkpt lat="41.4197145" lon="12.7891622"><ele>1.0</ele><time>2026-03-28T12:06:13.252Z</time></trkpt><trkpt lat="41.4196873" lon="12.7894421"><ele>1.0</ele><time>2026-03-28T12:06:14.252Z</time></trkpt><trkpt lat="41.419659" lon="12.7897212"><ele>1.0</ele><time>2026-03-28T12:06:15.252Z</time></trkpt><trkpt lat="41.4196515" lon="12.7900092"><ele>1.0</ele><time>2026-03-28T12:06:16.252Z</time></trkpt><trkpt lat="41.4196324" lon="12.7902971"><ele>1.0</ele><time>2026-03-28T12:06:17.252Z</time></trkpt><trkpt lat="41.419595" lon="12.7905571"><ele>1.0</ele><time>2026-03-28T12:06:18.252Z</time></trkpt><trkpt lat="41.4195919" lon="12.7907993"><ele>1.0</ele><time>2026-03-28T12:06:19.252Z</time></trkpt><trkpt lat="41.4195306" lon="12.7910329"><ele>0.3333333333333333</ele><time>2026-03-28T12:06:20.252Z</time></trkpt><trkpt lat="41.4195162" lon="12.7912334"><ele>-0.3333333333333333</ele><time>2026-03-28T12:06:21.252Z</time></trkpt><trkpt lat="41.4194852" lon="12.7914793"><ele>-1.0</ele><time>2026-03-28T12:06:22.253Z</time></trkpt><trkpt lat="41.4194539" lon="12.791695"><ele>-0.3333333333333333</ele><time>2026-03-28T12:06:23.253Z</time></trkpt><trkpt lat="41.4194227" lon="12.7919268"><ele>0.3333333333333333</ele><time>2026-03-28T12:06:24.252Z</time></trkpt><trkpt lat="41.4193964" lon="12.792172"><ele>1.0</ele><time>2026-03-28T12:06:25.252Z</time></trkpt><trkpt lat="41.4193642" lon="12.7923877"><ele>1.0</ele><time>2026-03-28T12:06:26.253Z</time></trkpt><trkpt lat="41.4193353" lon="12.7926095"><ele>1.0</ele><time>2026-03-28T12:06:27.252Z</time></trkpt><trkpt lat="41.4193127" lon="12.7928419"><ele>1.0</ele><time>2026-03-28T12:06:28.253Z</time></trkpt><trkpt lat="41.4192774" lon="12.7930414"><ele>1.0</ele><time>2026-03-28T12:06:29.252Z</time></trkpt><trkpt lat="41.4192446" lon="12.7932074"><ele>1.0</ele><time>2026-03-28T12:06:30.252Z</time></trkpt><trkpt lat="41.4192204" lon="12.793385"><ele>1.0</ele><time>2026-03-28T12:06:31.252Z</time></trkpt><trkpt lat="41.4192104" lon="12.7936217"><ele>1.0</ele><time>2026-03-28T12:06:32.252Z</time></trkpt><trkpt lat="41.4191742" lon="12.7937988"><ele>0.75</ele><time>2026-03-28T12:06:33.253Z</time></trkpt><trkpt lat="41.4191295" lon="12.7939836"><ele>0.5</ele><time>2026-03-28T12:06:34.253Z</time></trkpt><trkpt lat="41.419088" lon="12.7941696"><ele>0.25</ele><time>2026-03-28T12:06:35.252Z</time></trkpt><trkpt lat="41.4190422" lon="12.7943251"><ele>0.0</ele><time>2026-03-28T12:06:36.253Z</time></trkpt><trkpt lat="41.4190005" lon="12.7945166"><ele>0.0</ele><time>2026-03-28T12:06:37.252Z</time></trkpt><trkpt lat="41.4189543" lon="12.7946975"><ele>0.0</ele><time>2026-03-28T12:06:38.253Z</time></trkpt><trkpt lat="41.4189084" lon="12.7948846"><ele>0.0</ele><time>2026-03-28T12:06:39.253Z</time></trkpt><trkpt lat="41.4188649" lon="12.7950485"><ele>0.0</ele><time>2026-03-28T12:06:40.252Z</time></trkpt><trkpt lat="41.4188304" lon="12.7952434"><ele>0.25</ele><time>2026-03-28T12:06:41.253Z</time></trkpt><trkpt lat="41.4187883" lon="12.795429"><ele>0.5</ele><time>2026-03-28T12:06:42.253Z</time></trkpt><trkpt lat="41.4187467" lon="12.795624"><ele>0.75</ele><time>2026-03-28T12:06:43.252Z</time></trkpt><trkpt lat="41.4187006" lon="12.7958153"><ele>1.0</ele><time>2026-03-28T12:06:44.252Z</time></trkpt><trkpt lat="41.418657" lon="12.7960179"><ele>1.0</ele><time>2026-03-28T12:06:45.252Z</time></trkpt><trkpt lat="41.4186137" lon="12.7962183"><ele>1.0</ele><time>2026-03-28T12:06:46.252Z</time></trkpt><trkpt lat="41.4185656" lon="12.7964201"><ele>1.0</ele><time>2026-03-28T12:06:47.252Z</time></trkpt><trkpt lat="41.418519" lon="12.7966264"><ele>0.6666666666666666</ele><time>2026-03-28T12:06:48.252Z</time></trkpt><trkpt lat="41.4184671" lon="12.7968371"><ele>0.3333333333333333</ele><time>2026-03-28T12:06:49.252Z</time></trkpt><trkpt lat="41.4184187" lon="12.7970474"><ele>0.0</ele><time>2026-03-28T12:06:50.252Z</time></trkpt><trkpt lat="41.4183679" lon="12.7972637"><ele>0.0</ele><time>2026-03-28T12:06:51.252Z</time></trkpt><trkpt lat="41.4183161" lon="12.7974701"><ele>0.0</ele><time>2026-03-28T12:06:52.252Z</time></trkpt><trkpt lat="41.4182653" lon="12.797676"><ele>0.0</ele><time>2026-03-28T12:06:53.252Z</time></trkpt><trkpt lat="41.4182135" lon="12.7978836"><ele>0.3333333333333333</ele><time>2026-03-28T12:06:54.252Z</time></trkpt><trkpt lat="41.4181627" lon="12.7981016"><ele>0.6666666666666666</ele><time>2026-03-28T12:06:55.252Z</time></trkpt><trkpt lat="41.4181077" lon="12.7983256"><ele>1.0</ele><time>2026-03-28T12:06:56.253Z</time></trkpt><trkpt lat="41.4180567" lon="12.7985403"><ele>1.0</ele><time>2026-03-28T12:06:57.252Z</time></trkpt><trkpt lat="41.418008" lon="12.7987561"><ele>1.0</ele><time>2026-03-28T12:06:58.253Z</time></trkpt><trkpt lat="41.4179682" lon="12.7989581"><ele>1.0</ele><time>2026-03-28T12:06:59.252Z</time></trkpt><trkpt lat="41.4179234" lon="12.7991727"><ele>1.0</ele><time>2026-03-28T12:07:00.252Z</time></trkpt><trkpt lat="41.4178785" lon="12.7993756"><ele>1.0</ele><time>2026-03-28T12:07:01.252Z</time></trkpt><trkpt lat="41.4178478" lon="12.7995788"><ele>1.0</ele><time>2026-03-28T12:07:02.252Z</time></trkpt><trkpt lat="41.4178258" lon="12.7997901"><ele>1.0</ele><time>2026-03-28T12:07:03.252Z</time></trkpt><trkpt lat="41.4178109" lon="12.7999865"><ele>1.0</ele><time>2026-03-28T12:07:04.252Z</time></trkpt><trkpt lat="41.4178036" lon="12.8001982"><ele>1.0</ele><time>2026-03-28T12:07:05.252Z</time></trkpt><trkpt lat="41.4177939" lon="12.8004064"><ele>1.0</ele><time>2026-03-28T12:07:06.253Z</time></trkpt><trkpt lat="41.4177821" lon="12.8006282"><ele>1.0</ele><time>2026-03-28T12:07:07.252Z</time></trkpt><trkpt lat="41.4177735" lon="12.8008404"><ele>1.0</ele><time>2026-03-28T12:07:08.252Z</time></trkpt><trkpt lat="41.4177595" lon="12.8010265"><ele>1.0</ele><time>2026-03-28T12:07:09.252Z</time></trkpt><trkpt lat="41.417744" lon="12.8012002"><ele>1.0</ele><time>2026-03-28T12:07:10.252Z</time></trkpt><trkpt lat="41.4177355" lon="12.8013831"><ele>1.0</ele><time>2026-03-28T12:07:11.252Z</time></trkpt><trkpt lat="41.4177216" lon="12.8015607"><ele>1.0</ele><time>2026-03-28T12:07:12.253Z</time></trkpt><trkpt lat="41.4176701" lon="12.8017155"><ele>1.0</ele><time>2026-03-28T12:07:13.253Z</time></trkpt><trkpt lat="41.4176208" lon="12.8018325"><ele>1.0</ele><time>2026-03-28T12:07:14.253Z</time></trkpt><trkpt lat="41.4175656" lon="12.8019701"><ele>1.0</ele><time>2026-03-28T12:07:15.252Z</time></trkpt><trkpt lat="41.4174506" lon="12.80206"><ele>1.0</ele><time>2026-03-28T12:07:16.252Z</time></trkpt><trkpt lat="41.4173413" lon="12.8021743"><ele>1.0</ele><time>2026-03-28T12:07:17.253Z</time></trkpt><trkpt lat="41.4172243" lon="12.8023109"><ele>1.0</ele><time>2026-03-28T12:07:18.252Z</time></trkpt><trkpt lat="41.4171103" lon="12.8024577"><ele>1.0</ele><time>2026-03-28T12:07:19.253Z</time></trkpt><trkpt lat="41.4170146" lon="12.8026243"><ele>1.0</ele><time>2026-03-28T12:07:20.252Z</time></trkpt><trkpt lat="41.4169247" lon="12.8027839"><ele>1.0</ele><time>2026-03-28T12:07:21.252Z</time></trkpt><trkpt lat="41.4168447" lon="12.8029829"><ele>1.0</ele><time>2026-03-28T12:07:22.252Z</time></trkpt><trkpt lat="41.4167614" lon="12.8031992"><ele>1.0</ele><time>2026-03-28T12:07:23.253Z</time></trkpt><trkpt lat="41.4166775" lon="12.803469"><ele>1.0</ele><time>2026-03-28T12:07:24.252Z</time></trkpt><trkpt lat="41.4166078" lon="12.8037486"><ele>1.0</ele><time>2026-03-28T12:07:25.252Z</time></trkpt><trkpt lat="41.4164641" lon="12.8042134"><ele>0.6666666666666666</ele><time>2026-03-28T12:07:27.252Z</time></trkpt><trkpt lat="41.4163997" lon="12.8044422"><ele>0.3333333333333333</ele><time>2026-03-28T12:07:28.252Z</time></trkpt><trkpt lat="41.416332" lon="12.8046547"><ele>0.0</ele><time>2026-03-28T12:07:29.253Z</time></trkpt><trkpt lat="41.4162009" lon="12.8050843"><ele>0.5</ele><time>2026-03-28T12:07:31.252Z</time></trkpt><trkpt lat="41.4160758" lon="12.8055456"><ele>1.0</ele><time>2026-03-28T12:07:33.253Z</time></trkpt><trkpt lat="41.4159547" lon="12.8060223"><ele>1.5</ele><time>2026-03-28T12:07:35.253Z</time></trkpt><trkpt lat="41.4158387" lon="12.8064696"><ele>2.0</ele><time>2026-03-28T12:07:37.253Z</time></trkpt><trkpt lat="41.4157827" lon="12.8066764"><ele>2.6666666666666665</ele><time>2026-03-28T12:07:38.252Z</time></trkpt><trkpt lat="41.4157529" lon="12.8069298"><ele>3.333333333333333</ele><time>2026-03-28T12:07:39.252Z</time></trkpt><trkpt lat="41.415726" lon="12.8071852"><ele>4.0</ele><time>2026-03-28T12:07:40.253Z</time></trkpt><trkpt lat="41.4156899" lon="12.8076787"><ele>4.0</ele><time>2026-03-28T12:07:42.252Z</time></trkpt><trkpt lat="41.4156751" lon="12.8081936"><ele>4.0</ele><time>2026-03-28T12:07:44.252Z</time></trkpt><trkpt lat="41.4156545" lon="12.8087223"><ele>4.0</ele><time>2026-03-28T12:07:46.253Z</time></trkpt><trkpt lat="41.4156206" lon="12.8092297"><ele>4.0</ele><time>2026-03-28T12:07:48.252Z</time></trkpt><trkpt lat="41.4156161" lon="12.8094875"><ele>4.333333333333333</ele><time>2026-03-28T12:07:49.252Z</time></trkpt><trkpt lat="41.4156152" lon="12.8097494"><ele>4.666666666666667</ele><time>2026-03-28T12:07:50.252Z</time></trkpt><trkpt lat="41.4156101" lon="12.8099835"><ele>5.0</ele><time>2026-03-28T12:07:51.252Z</time></trkpt><trkpt lat="41.4156206" lon="12.8102088"><ele>5.5</ele><time>2026-03-28T12:07:52.252Z</time></trkpt><trkpt lat="41.4156017" lon="12.810448"><ele>6.0</ele><time>2026-03-28T12:07:53.252Z</time></trkpt><trkpt lat="41.4155342" lon="12.8109234"><ele>5.666666666666667</ele><time>2026-03-28T12:07:55.252Z</time></trkpt><trkpt lat="41.4155039" lon="12.8111296"><ele>5.333333333333334</ele><time>2026-03-28T12:07:56.252Z</time></trkpt><trkpt lat="41.4155214" lon="12.8114921"><ele>5.0</ele><time>2026-03-28T12:07:58.252Z</time></trkpt><trkpt lat="41.4155201" lon="12.8118274"><ele>4.0</ele><time>2026-03-28T12:08:00.252Z</time></trkpt><trkpt lat="41.4155831" lon="12.8120368"><ele>3.0</ele><time>2026-03-28T12:08:02.252Z</time></trkpt><trkpt lat="41.4157504" lon="12.8120256"><ele>2.0</ele><time>2026-03-28T12:08:04.253Z</time></trkpt><trkpt lat="41.4158933" lon="12.8120663"><ele>2.0</ele><time>2026-03-28T12:08:06.252Z</time></trkpt><trkpt lat="41.4160731" lon="12.8120509"><ele>2.0</ele><time>2026-03-28T12:08:08.252Z</time></trkpt><trkpt lat="41.4161768" lon="12.8120626"><ele>2.0</ele><time>2026-03-28T12:08:09.252Z</time></trkpt><trkpt lat="41.4164183" lon="12.8120801"><ele>2.0</ele><time>2026-03-28T12:08:11.252Z</time></trkpt><trkpt lat="41.4165396" lon="12.8120904"><ele>2.0</ele><time>2026-03-28T12:08:12.252Z</time></trkpt><trkpt lat="41.4166599" lon="12.8120768"><ele>2.0</ele><time>2026-03-28T12:08:13.252Z</time></trkpt><trkpt lat="41.4167746" lon="12.812081"><ele>2.0</ele><time>2026-03-28T12:08:14.253Z</time></trkpt><trkpt lat="41.4168996" lon="12.8120891"><ele>2.6666666666666665</ele><time>2026-03-28T12:08:15.253Z</time></trkpt><trkpt lat="41.4171919" lon="12.8120825"><ele>3.333333333333333</ele><time>2026-03-28T12:08:17.253Z</time></trkpt><trkpt lat="41.4173282" lon="12.8120919"><ele>4.0</ele><time>2026-03-28T12:08:18.253Z</time></trkpt><trkpt lat="41.4174646" lon="12.8120918"><ele>4.0</ele><time>2026-03-28T12:08:19.252Z</time></trkpt><trkpt lat="41.4177185" lon="12.8120911"><ele>4.0</ele><time>2026-03-28T12:08:21.252Z</time></trkpt><trkpt lat="41.4178466" lon="12.8120969"><ele>4.0</ele><time>2026-03-28T12:08:22.253Z</time></trkpt><trkpt lat="41.4179889" lon="12.8121128"><ele>4.0</ele><time>2026-03-28T12:08:23.252Z</time></trkpt><trkpt lat="41.4182363" lon="12.8121108"><ele>4.0</ele><time>2026-03-28T12:08:25.252Z</time></trkpt><trkpt lat="41.4184626" lon="12.8121145"><ele>4.0</ele><time>2026-03-28T12:08:27.252Z</time></trkpt><trkpt lat="41.4185626" lon="12.8121233"><ele>4.0</ele><time>2026-03-28T12:08:28.252Z</time></trkpt><trkpt lat="41.4186449" lon="12.8121217"><ele>4.0</ele><time>2026-03-28T12:08:29.252Z</time></trkpt><trkpt lat="41.418747" lon="12.8121299"><ele>4.0</ele><time>2026-03-28T12:08:31.252Z</time></trkpt><trkpt lat="41.4187589" lon="12.812275"><ele>4.0</ele><time>2026-03-28T12:08:35.252Z</time></trkpt><trkpt lat="41.4187691" lon="12.8123752"><ele>4.0</ele><time>2026-03-28T12:08:37.253Z</time></trkpt><trkpt lat="41.4188704" lon="12.8124578"><ele>4.0</ele><time>2026-03-28T12:08:40.252Z</time></trkpt><trkpt lat="41.4190029" lon="12.8125164"><ele>4.0</ele><time>2026-03-28T12:08:42.252Z</time></trkpt><trkpt lat="41.4190801" lon="12.8125371"><ele>4.0</ele><time>2026-03-28T12:08:43.253Z</time></trkpt><trkpt lat="41.4191488" lon="12.8125553"><ele>4.0</ele><time>2026-03-28T12:08:44.252Z</time></trkpt><trkpt lat="41.4192258" lon="12.8125711"><ele>4.0</ele><time>2026-03-28T12:08:45.253Z</time></trkpt><trkpt lat="41.41949" lon="12.8125826"><ele>4.0</ele><time>2026-03-28T12:08:48.253Z</time></trkpt><trkpt lat="41.4195741" lon="12.8125824"><ele>4.0</ele><time>2026-03-28T12:08:49.253Z</time></trkpt><trkpt lat="41.4197729" lon="12.8125825"><ele>4.25</ele><time>2026-03-28T12:08:51.253Z</time></trkpt><trkpt lat="41.4198952" lon="12.8125876"><ele>4.5</ele><time>2026-03-28T12:08:52.252Z</time></trkpt><trkpt lat="41.4200167" lon="12.8125894"><ele>4.75</ele><time>2026-03-28T12:08:53.252Z</time></trkpt><trkpt lat="41.4201697" lon="12.8125923"><ele>5.0</ele><time>2026-03-28T12:08:54.252Z</time></trkpt><trkpt lat="41.4205044" lon="12.8126053"><ele>5.5</ele><time>2026-03-28T12:08:56.253Z</time></trkpt><trkpt lat="41.4208376" lon="12.8126079"><ele>6.0</ele><time>2026-03-28T12:08:58.252Z</time></trkpt><trkpt lat="41.4210042" lon="12.8126135"><ele>6.0</ele><time>2026-03-28T12:08:59.253Z</time></trkpt><trkpt lat="41.4211671" lon="12.812616"><ele>6.0</ele><time>2026-03-28T12:09:00.252Z</time></trkpt><trkpt lat="41.4214346" lon="12.8125677"><ele>6.0</ele><time>2026-03-28T12:09:02.252Z</time></trkpt><trkpt lat="41.4216878" lon="12.8125213"><ele>5.5</ele><time>2026-03-28T12:09:04.253Z</time></trkpt><trkpt lat="41.4218044" lon="12.8125267"><ele>5.0</ele><time>2026-03-28T12:09:05.252Z</time></trkpt><trkpt lat="41.4219276" lon="12.8125468"><ele>4.5</ele><time>2026-03-28T12:09:06.252Z</time></trkpt><trkpt lat="41.422042" lon="12.812559"><ele>4.0</ele><time>2026-03-28T12:09:07.253Z</time></trkpt><trkpt lat="41.4222942" lon="12.8125206"><ele>4.0</ele><time>2026-03-28T12:09:09.252Z</time></trkpt><trkpt lat="41.4225577" lon="12.8125242"><ele>4.0</ele><time>2026-03-28T12:09:11.252Z</time></trkpt><trkpt lat="41.4226947" lon="12.8125269"><ele>4.0</ele><time>2026-03-28T12:09:12.253Z</time></trkpt><trkpt lat="41.4228307" lon="12.8125415"><ele>4.0</ele><time>2026-03-28T12:09:13.253Z</time></trkpt><trkpt lat="41.4230999" lon="12.8125469"><ele>4.0</ele><time>2026-03-28T12:09:15.253Z</time></trkpt><trkpt lat="41.4232299" lon="12.8125488"><ele>4.0</ele><time>2026-03-28T12:09:16.253Z</time></trkpt><trkpt lat="41.4233512" lon="12.8125545"><ele>4.0</ele><time>2026-03-28T12:09:17.252Z</time></trkpt><trkpt lat="41.4234644" lon="12.8125637"><ele>4.0</ele><time>2026-03-28T12:09:18.252Z</time></trkpt><trkpt lat="41.4236706" lon="12.8126046"><ele>4.0</ele><time>2026-03-28T12:09:20.253Z</time></trkpt><trkpt lat="41.4238187" lon="12.8126323"><ele>3.8000000000000003</ele><time>2026-03-28T12:09:22.253Z</time></trkpt><trkpt lat="41.4239319" lon="12.8126408"><ele>3.6000000000000005</ele><time>2026-03-28T12:09:24.252Z</time></trkpt><trkpt lat="41.4240143" lon="12.812654"><ele>3.4</ele><time>2026-03-28T12:09:26.252Z</time></trkpt><trkpt lat="41.4241022" lon="12.8126638"><ele>3.2</ele><time>2026-03-28T12:09:28.252Z</time></trkpt><trkpt lat="41.4242162" lon="12.8126709"><ele>3.0</ele><time>2026-03-28T12:09:30.252Z</time></trkpt><trkpt lat="41.4244078" lon="12.8126723"><ele>3.0</ele><time>2026-03-28T12:09:33.252Z</time></trkpt><trkpt lat="41.4244812" lon="12.8126582"><ele>3.0</ele><time>2026-03-28T12:09:34.253Z</time></trkpt><trkpt lat="41.4245593" lon="12.8126461"><ele>3.0</ele><time>2026-03-28T12:09:35.253Z</time></trkpt><trkpt lat="41.4246356" lon="12.8126392"><ele>3.0</ele><time>2026-03-28T12:09:36.252Z</time></trkpt><trkpt lat="41.4247125" lon="12.8126478"><ele>3.0</ele><time>2026-03-28T12:09:37.253Z</time></trkpt><trkpt lat="41.4248473" lon="12.8126584"><ele>3.0</ele><time>2026-03-28T12:09:39.252Z</time></trkpt><trkpt lat="41.425046" lon="12.81267"><ele>2.8333333333333335</ele><time>2026-03-28T12:09:42.253Z</time></trkpt><trkpt lat="41.4251101" lon="12.8126733"><ele>2.6666666666666665</ele><time>2026-03-28T12:09:43.252Z</time></trkpt><trkpt lat="41.4251879" lon="12.8126682"><ele>2.5</ele><time>2026-03-28T12:09:44.252Z</time></trkpt><trkpt lat="41.4252781" lon="12.8126621"><ele>2.333333333333333</ele><time>2026-03-28T12:09:45.252Z</time></trkpt><trkpt lat="41.4253638" lon="12.8126573"><ele>2.1666666666666665</ele><time>2026-03-28T12:09:46.252Z</time></trkpt><trkpt lat="41.4254461" lon="12.8126612"><ele>2.0</ele><time>2026-03-28T12:09:47.253Z</time></trkpt><trkpt lat="41.4255175" lon="12.8126736"><ele>2.0</ele><time>2026-03-28T12:09:48.252Z</time></trkpt><trkpt lat="41.4255962" lon="12.8126865"><ele>2.0</ele><time>2026-03-28T12:09:49.253Z</time></trkpt><trkpt lat="41.4257525" lon="12.8127053"><ele>2.0</ele><time>2026-03-28T12:09:51.252Z</time></trkpt><trkpt lat="41.4258542" lon="12.812717"><ele>2.0</ele><time>2026-03-28T12:09:52.253Z</time></trkpt><trkpt lat="41.4259639" lon="12.8127436"><ele>2.0</ele><time>2026-03-28T12:09:53.253Z</time></trkpt><trkpt lat="41.4260832" lon="12.8127826"><ele>2.0</ele><time>2026-03-28T12:09:54.253Z</time></trkpt><trkpt lat="41.4262003" lon="12.8128234"><ele>2.0</ele><time>2026-03-28T12:09:55.253Z</time></trkpt><trkpt lat="41.4263121" lon="12.8128491"><ele>2.0</ele><time>2026-03-28T12:09:56.252Z</time></trkpt><trkpt lat="41.4264311" lon="12.812879"><ele>2.2</ele><time>2026-03-28T12:09:57.253Z</time></trkpt><trkpt lat="41.4265261" lon="12.8129189"><ele>2.4000000000000004</ele><time>2026-03-28T12:09:58.252Z</time></trkpt><trkpt lat="41.4266264" lon="12.8129504"><ele>2.5999999999999996</ele><time>2026-03-28T12:09:59.252Z</time></trkpt><trkpt lat="41.4267322" lon="12.812992"><ele>2.8</ele><time>2026-03-28T12:10:00.252Z</time></trkpt><trkpt lat="41.4268346" lon="12.8130416"><ele>3.0</ele><time>2026-03-28T12:10:01.252Z</time></trkpt><trkpt lat="41.4270342" lon="12.8131293"><ele>3.0</ele><time>2026-03-28T12:10:03.253Z</time></trkpt><trkpt lat="41.4271262" lon="12.8131941"><ele>3.0</ele><time>2026-03-28T12:10:04.253Z</time></trkpt><trkpt lat="41.4272197" lon="12.8132545"><ele>3.0</ele><time>2026-03-28T12:10:05.253Z</time></trkpt><trkpt lat="41.4273112" lon="12.8133177"><ele>3.0</ele><time>2026-03-28T12:10:06.252Z</time></trkpt><trkpt lat="41.4274875" lon="12.8134561"><ele>3.0</ele><time>2026-03-28T12:10:08.252Z</time></trkpt><trkpt lat="41.4276706" lon="12.8135943"><ele>3.0</ele><time>2026-03-28T12:10:10.252Z</time></trkpt><trkpt lat="41.4277568" lon="12.8136597"><ele>3.0</ele><time>2026-03-28T12:10:11.252Z</time></trkpt><trkpt lat="41.4278339" lon="12.8137339"><ele>3.0</ele><time>2026-03-28T12:10:12.253Z</time></trkpt><trkpt lat="41.4280113" lon="12.8138598"><ele>3.0</ele><time>2026-03-28T12:10:14.252Z</time></trkpt><trkpt lat="41.4281779" lon="12.8139172"><ele>3.0</ele><time>2026-03-28T12:10:16.252Z</time></trkpt><trkpt lat="41.4283298" lon="12.8140114"><ele>3.0</ele><time>2026-03-28T12:10:18.252Z</time></trkpt><trkpt lat="41.4285002" lon="12.8141186"><ele>3.0</ele><time>2026-03-28T12:10:20.252Z</time></trkpt><trkpt lat="41.4286682" lon="12.8142236"><ele>3.0</ele><time>2026-03-28T12:10:22.252Z</time></trkpt><trkpt lat="41.4288268" lon="12.8143247"><ele>3.0</ele><time>2026-03-28T12:10:24.252Z</time></trkpt><trkpt lat="41.4289077" lon="12.8143726"><ele>3.0</ele><time>2026-03-28T12:10:25.252Z</time></trkpt><trkpt lat="41.4289806" lon="12.8144143"><ele>3.0</ele><time>2026-03-28T12:10:26.253Z</time></trkpt><trkpt lat="41.4290546" lon="12.8145115"><ele>3.0</ele><time>2026-03-28T12:10:27.253Z</time></trkpt><trkpt lat="41.4291328" lon="12.8145771"><ele>3.0</ele><time>2026-03-28T12:10:28.253Z</time></trkpt><trkpt lat="41.4292918" lon="12.814684"><ele>3.0</ele><time>2026-03-28T12:10:30.253Z</time></trkpt><trkpt lat="41.4294476" lon="12.8147778"><ele>3.0</ele><time>2026-03-28T12:10:32.252Z</time></trkpt><trkpt lat="41.4295968" lon="12.8148645"><ele>3.0</ele><time>2026-03-28T12:10:34.253Z</time></trkpt><trkpt lat="41.4297542" lon="12.8149485"><ele>3.0</ele><time>2026-03-28T12:10:36.252Z</time></trkpt><trkpt lat="41.4299032" lon="12.8150453"><ele>3.0</ele><time>2026-03-28T12:10:38.253Z</time></trkpt><trkpt lat="41.4299719" lon="12.8150872"><ele>3.0</ele><time>2026-03-28T12:10:39.253Z</time></trkpt><trkpt lat="41.4300567" lon="12.815174"><ele>3.0</ele><time>2026-03-28T12:10:41.252Z</time></trkpt><trkpt lat="41.430169" lon="12.8152494"><ele>3.0</ele><time>2026-03-28T12:10:43.252Z</time></trkpt><trkpt lat="41.4303294" lon="12.8152651"><ele>3.0</ele><time>2026-03-28T12:10:45.252Z</time></trkpt><trkpt lat="41.4305271" lon="12.8153038"><ele>3.0</ele><time>2026-03-28T12:10:47.253Z</time></trkpt><trkpt lat="41.4305934" lon="12.8153431"><ele>3.0</ele><time>2026-03-28T12:10:48.252Z</time></trkpt><trkpt lat="41.4306689" lon="12.8153614"><ele>3.0</ele><time>2026-03-28T12:10:49.252Z</time></trkpt><trkpt lat="41.4307382" lon="12.8153588"><ele>3.0</ele><time>2026-03-28T12:10:50.252Z</time></trkpt><trkpt lat="41.4308658" lon="12.8153413"><ele>3.0</ele><time>2026-03-28T12:10:52.252Z</time></trkpt><trkpt lat="41.4310119" lon="12.8153348"><ele>3.0</ele><time>2026-03-28T12:10:54.253Z</time></trkpt><trkpt lat="41.4311804" lon="12.8153189"><ele>2.3333333333333335</ele><time>2026-03-28T12:10:56.252Z</time></trkpt><trkpt lat="41.4313415" lon="12.8153129"><ele>1.6666666666666665</ele><time>2026-03-28T12:10:58.252Z</time></trkpt><trkpt lat="41.4314331" lon="12.8153347"><ele>1.0</ele><time>2026-03-28T12:10:59.252Z</time></trkpt><trkpt lat="41.4316802" lon="12.8154335"><ele>1.0</ele><time>2026-03-28T12:11:01.252Z</time></trkpt><trkpt lat="41.4319652" lon="12.8154845"><ele>1.0</ele><time>2026-03-28T12:11:03.253Z</time></trkpt><trkpt lat="41.4322445" lon="12.815538"><ele>1.0</ele><time>2026-03-28T12:11:05.253Z</time></trkpt><trkpt lat="41.4324844" lon="12.8155533"><ele>1.0</ele><time>2026-03-28T12:11:07.252Z</time></trkpt><trkpt lat="41.4327277" lon="12.8154968"><ele>1.0</ele><time>2026-03-28T12:11:09.252Z</time></trkpt><trkpt lat="41.4328509" lon="12.8154555"><ele>1.0</ele><time>2026-03-28T12:11:10.253Z</time></trkpt><trkpt lat="41.4329696" lon="12.8154047"><ele>1.0</ele><time>2026-03-28T12:11:11.252Z</time></trkpt><trkpt lat="41.4330852" lon="12.8153487"><ele>1.0</ele><time>2026-03-28T12:11:12.252Z</time></trkpt><trkpt lat="41.4332024" lon="12.8152729"><ele>1.6666666666666665</ele><time>2026-03-28T12:11:13.252Z</time></trkpt><trkpt lat="41.4333219" lon="12.8151915"><ele>2.3333333333333335</ele><time>2026-03-28T12:11:14.252Z</time></trkpt><trkpt lat="41.4334428" lon="12.815104"><ele>3.0</ele><time>2026-03-28T12:11:15.252Z</time></trkpt><trkpt lat="41.4336821" lon="12.814951"><ele>2.5</ele><time>2026-03-28T12:11:17.253Z</time></trkpt><trkpt lat="41.4339074" lon="12.8147542"><ele>2.0</ele><time>2026-03-28T12:11:19.253Z</time></trkpt><trkpt lat="41.4341148" lon="12.8145268"><ele>2.0</ele><time>2026-03-28T12:11:21.253Z</time></trkpt><trkpt lat="41.4342132" lon="12.8144157"><ele>2.0</ele><time>2026-03-28T12:11:22.252Z</time></trkpt><trkpt lat="41.4344539" lon="12.8140608"><ele>2.0</ele><time>2026-03-28T12:11:25.253Z</time></trkpt><trkpt lat="41.4345637" lon="12.8138105"><ele>2.0</ele><time>2026-03-28T12:11:27.252Z</time></trkpt><trkpt lat="41.4346524" lon="12.8135627"><ele>2.0</ele><time>2026-03-28T12:11:29.253Z</time></trkpt><trkpt lat="41.4347152" lon="12.8133388"><ele>2.0</ele><time>2026-03-28T12:11:31.252Z</time></trkpt><trkpt lat="41.4347525" lon="12.8132354"><ele>2.0</ele><time>2026-03-28T12:11:32.253Z</time></trkpt><trkpt lat="41.4347793" lon="12.8131078"><ele>2.0</ele><time>2026-03-28T12:11:33.252Z</time></trkpt><trkpt lat="41.4348029" lon="12.812981"><ele>2.0</ele><time>2026-03-28T12:11:34.253Z</time></trkpt><trkpt lat="41.4348687" lon="12.8127363"><ele>2.0</ele><time>2026-03-28T12:11:36.252Z</time></trkpt><trkpt lat="41.4349037" lon="12.8126088"><ele>2.0</ele><time>2026-03-28T12:11:37.253Z</time></trkpt><trkpt lat="41.4349725" lon="12.8123761"><ele>2.0</ele><time>2026-03-28T12:11:39.253Z</time></trkpt><trkpt lat="41.4350555" lon="12.8121525"><ele>2.0</ele><time>2026-03-28T12:11:41.252Z</time></trkpt><trkpt lat="41.4351358" lon="12.8119258"><ele>2.0</ele><time>2026-03-28T12:11:43.253Z</time></trkpt><trkpt lat="41.4351761" lon="12.8118143"><ele>2.0</ele><time>2026-03-28T12:11:44.252Z</time></trkpt><trkpt lat="41.4352167" lon="12.8116987"><ele>2.0</ele><time>2026-03-28T12:11:45.252Z</time></trkpt><trkpt lat="41.435318" lon="12.8114641"><ele>2.2</ele><time>2026-03-28T12:11:47.252Z</time></trkpt><trkpt lat="41.435347" lon="12.8113552"><ele>2.4000000000000004</ele><time>2026-03-28T12:11:48.252Z</time></trkpt><trkpt lat="41.4353986" lon="12.8112449"><ele>2.5999999999999996</ele><time>2026-03-28T12:11:49.252Z</time></trkpt><trkpt lat="41.4354354" lon="12.8111382"><ele>2.8</ele><time>2026-03-28T12:11:50.252Z</time></trkpt><trkpt lat="41.435481" lon="12.8110258"><ele>3.0</ele><time>2026-03-28T12:11:51.252Z</time></trkpt><trkpt lat="41.4355646" lon="12.8108087"><ele>3.0</ele><time>2026-03-28T12:11:53.253Z</time></trkpt><trkpt lat="41.4355963" lon="12.8106897"><ele>3.0</ele><time>2026-03-28T12:11:54.252Z</time></trkpt><trkpt lat="41.4356823" lon="12.8104628"><ele>3.0</ele><time>2026-03-28T12:11:56.253Z</time></trkpt><trkpt lat="41.4357333" lon="12.8103484"><ele>3.0</ele><time>2026-03-28T12:11:57.252Z</time></trkpt><trkpt lat="41.4357962" lon="12.8101169"><ele>3.0</ele><time>2026-03-28T12:11:59.252Z</time></trkpt><trkpt lat="41.4358694" lon="12.8098714"><ele>3.0</ele><time>2026-03-28T12:12:01.252Z</time></trkpt><trkpt lat="41.435961" lon="12.8096253"><ele>3.0</ele><time>2026-03-28T12:12:03.252Z</time></trkpt><trkpt lat="41.4360389" lon="12.8093916"><ele>3.5</ele><time>2026-03-28T12:12:05.253Z</time></trkpt><trkpt lat="41.4361028" lon="12.8091484"><ele>4.0</ele><time>2026-03-28T12:12:07.253Z</time></trkpt><trkpt lat="41.4361299" lon="12.8090242"><ele>4.5</ele><time>2026-03-28T12:12:08.252Z</time></trkpt><trkpt lat="41.4361466" lon="12.8089199"><ele>5.0</ele><time>2026-03-28T12:12:09.252Z</time></trkpt><trkpt lat="41.436249" lon="12.8087356"><ele>5.0</ele><time>2026-03-28T12:12:11.252Z</time></trkpt><trkpt lat="41.4363473" lon="12.808549"><ele>5.0</ele><time>2026-03-28T12:12:13.252Z</time></trkpt><trkpt lat="41.4364495" lon="12.8083538"><ele>5.0</ele><time>2026-03-28T12:12:15.253Z</time></trkpt><trkpt lat="41.4365519" lon="12.8081352"><ele>5.0</ele><time>2026-03-28T12:12:17.253Z</time></trkpt><trkpt lat="41.4366139" lon="12.8080183"><ele>5.0</ele><time>2026-03-28T12:12:18.252Z</time></trkpt><trkpt lat="41.4367161" lon="12.807813"><ele>5.0</ele><time>2026-03-28T12:12:20.252Z</time></trkpt><trkpt lat="41.4367743" lon="12.8077166"><ele>5.0</ele><time>2026-03-28T12:12:21.252Z</time></trkpt><trkpt lat="41.436836" lon="12.807634"><ele>5.2</ele><time>2026-03-28T12:12:22.252Z</time></trkpt><trkpt lat="41.4368957" lon="12.8075591"><ele>5.4</ele><time>2026-03-28T12:12:23.252Z</time></trkpt><trkpt lat="41.436946" lon="12.807496"><ele>5.6</ele><time>2026-03-28T12:12:24.252Z</time></trkpt><trkpt lat="41.4370058" lon="12.8073643"><ele>5.8</ele><time>2026-03-28T12:12:26.252Z</time></trkpt><trkpt lat="41.4369722" lon="12.8072"><ele>6.0</ele><time>2026-03-28T12:12:28.252Z</time></trkpt><trkpt lat="41.4369634" lon="12.806978"><ele>6.199999999999999</ele><time>2026-03-28T12:12:31.253Z</time></trkpt><trkpt lat="41.4369599" lon="12.8068133"><ele>6.3999999999999995</ele><time>2026-03-28T12:12:33.253Z</time></trkpt><trkpt lat="41.4369552" lon="12.8067097"><ele>6.6</ele><time>2026-03-28T12:12:34.252Z</time></trkpt><trkpt lat="41.4369572" lon="12.8066208"><ele>6.8</ele><time>2026-03-28T12:12:35.252Z</time></trkpt><trkpt lat="41.4369603" lon="12.8064213"><ele>7.0</ele><time>2026-03-28T12:12:37.253Z</time></trkpt><trkpt lat="41.4369533" lon="12.8062159"><ele>7.0</ele><time>2026-03-28T12:12:39.253Z</time></trkpt><trkpt lat="41.4369635" lon="12.806107"><ele>7.0</ele><time>2026-03-28T12:12:40.253Z</time></trkpt><trkpt lat="41.4369657" lon="12.8057718"><ele>7.0</ele><time>2026-03-28T12:12:43.252Z</time></trkpt><trkpt lat="41.4369752" lon="12.8055361"><ele>6.75</ele><time>2026-03-28T12:12:45.252Z</time></trkpt><trkpt lat="41.436967" lon="12.8052885"><ele>6.5</ele><time>2026-03-28T12:12:47.252Z</time></trkpt><trkpt lat="41.4369679" lon="12.805166"><ele>6.25</ele><time>2026-03-28T12:12:48.252Z</time></trkpt><trkpt lat="41.4369604" lon="12.8050299"><ele>6.0</ele><time>2026-03-28T12:12:49.253Z</time></trkpt><trkpt lat="41.4369614" lon="12.804929"><ele>6.0</ele><time>2026-03-28T12:12:50.252Z</time></trkpt><trkpt lat="41.4369491" lon="12.8048129"><ele>6.0</ele><time>2026-03-28T12:12:51.252Z</time></trkpt><trkpt lat="41.4369484" lon="12.8047118"><ele>6.0</ele><time>2026-03-28T12:12:52.253Z</time></trkpt><trkpt lat="41.4370432" lon="12.8046797"><ele>6.0</ele><time>2026-03-28T12:12:54.252Z</time></trkpt><trkpt lat="41.4371082" lon="12.8046033"><ele>6.0</ele><time>2026-03-28T12:12:56.252Z</time></trkpt><trkpt lat="41.4371803" lon="12.8045185"><ele>6.0</ele><time>2026-03-28T12:12:58.252Z</time></trkpt><trkpt lat="41.4372897" lon="12.8045331"><ele>6.0</ele><time>2026-03-28T12:12:59.252Z</time></trkpt><trkpt lat="41.4373818" lon="12.8045503"><ele>6.0</ele><time>2026-03-28T12:13:00.253Z</time></trkpt><trkpt lat="41.4374993" lon="12.8045657"><ele>6.0</ele><time>2026-03-28T12:13:01.253Z</time></trkpt><trkpt lat="41.4376955" lon="12.8045603"><ele>6.0</ele><time>2026-03-28T12:13:02.253Z</time></trkpt><trkpt lat="41.4379751" lon="12.8045652"><ele>6.0</ele><time>2026-03-28T12:13:04.253Z</time></trkpt><trkpt lat="41.4382287" lon="12.8045777"><ele>6.0</ele><time>2026-03-28T12:13:06.253Z</time></trkpt><trkpt lat="41.4384044" lon="12.8045693"><ele>6.0</ele><time>2026-03-28T12:13:08.253Z</time></trkpt><trkpt lat="41.4385182" lon="12.8045965"><ele>6.0</ele><time>2026-03-28T12:13:10.252Z</time></trkpt><trkpt lat="41.4385736" lon="12.8046959"><ele>6.0</ele><time>2026-03-28T12:13:12.252Z</time></trkpt><trkpt lat="41.4386784" lon="12.8047374"><ele>6.0</ele><time>2026-03-28T12:13:14.252Z</time></trkpt><trkpt lat="41.4388233" lon="12.804658"><ele>6.0</ele><time>2026-03-28T12:13:16.252Z</time></trkpt><trkpt lat="41.4390563" lon="12.804528"><ele>6.199999999999999</ele><time>2026-03-28T12:13:19.252Z</time></trkpt><trkpt lat="41.439135" lon="12.8044753"><ele>6.3999999999999995</ele><time>2026-03-28T12:13:20.253Z</time></trkpt><trkpt lat="41.4392697" lon="12.8043373"><ele>6.6</ele><time>2026-03-28T12:13:22.252Z</time></trkpt><trkpt lat="41.4393308" lon="12.8042668"><ele>6.8</ele><time>2026-03-28T12:13:23.252Z</time></trkpt><trkpt lat="41.4394138" lon="12.8041907"><ele>7.0</ele><time>2026-03-28T12:13:24.252Z</time></trkpt><trkpt lat="41.4395663" lon="12.804047"><ele>6.75</ele><time>2026-03-28T12:13:26.252Z</time></trkpt><trkpt lat="41.4397204" lon="12.80393"><ele>6.5</ele><time>2026-03-28T12:13:28.252Z</time></trkpt><trkpt lat="41.4398258" lon="12.8039459"><ele>6.25</ele><time>2026-03-28T12:13:29.252Z</time></trkpt><trkpt lat="41.4399253" lon="12.8039522"><ele>6.0</ele><time>2026-03-28T12:13:30.252Z</time></trkpt><trkpt lat="41.4400952" lon="12.803999"><ele>6.0</ele><time>2026-03-28T12:13:32.252Z</time></trkpt><trkpt lat="41.4401718" lon="12.8040186"><ele>6.0</ele><time>2026-03-28T12:13:33.252Z</time></trkpt><trkpt lat="41.4403301" lon="12.8039714"><ele>6.0</ele><time>2026-03-28T12:13:35.252Z</time></trkpt><trkpt lat="41.4404068" lon="12.804028"><ele>6.0</ele><time>2026-03-28T12:13:37.252Z</time></trkpt><trkpt lat="41.4404472" lon="12.8040938"><ele>6.0</ele><time>2026-03-28T12:13:38.252Z</time></trkpt><trkpt lat="41.4404747" lon="12.8041785"><ele>6.0</ele><time>2026-03-28T12:13:39.253Z</time></trkpt><trkpt lat="41.4405121" lon="12.8042873"><ele>6.0</ele><time>2026-03-28T12:13:40.252Z</time></trkpt><trkpt lat="41.44053" lon="12.804415"><ele>6.0</ele><time>2026-03-28T12:13:41.252Z</time></trkpt><trkpt lat="41.4405494" lon="12.8045317"><ele>6.0</ele><time>2026-03-28T12:13:42.253Z</time></trkpt><trkpt lat="41.4405745" lon="12.8046702"><ele>6.0</ele><time>2026-03-28T12:13:43.253Z</time></trkpt><trkpt lat="41.4405861" lon="12.8047995"><ele>6.166666666666667</ele><time>2026-03-28T12:13:44.252Z</time></trkpt><trkpt lat="41.440605" lon="12.8048905"><ele>6.333333333333334</ele><time>2026-03-28T12:13:45.252Z</time></trkpt><trkpt lat="41.4406315" lon="12.8049875"><ele>6.5</ele><time>2026-03-28T12:13:46.252Z</time></trkpt><trkpt lat="41.4406613" lon="12.8051387"><ele>6.666666666666667</ele><time>2026-03-28T12:13:48.253Z</time></trkpt><trkpt lat="41.4407347" lon="12.8051779"><ele>6.833333333333334</ele><time>2026-03-28T12:13:50.252Z</time></trkpt><trkpt lat="41.4408264" lon="12.8051617"><ele>7.0</ele><time>2026-03-28T12:13:52.252Z</time></trkpt><trkpt lat="41.4409447" lon="12.8051479"><ele>7.0</ele><time>2026-03-28T12:13:54.252Z</time></trkpt><trkpt lat="41.4411204" lon="12.8051322"><ele>7.0</ele><time>2026-03-28T12:13:56.252Z</time></trkpt><trkpt lat="41.4411979" lon="12.8051318"><ele>7.0</ele><time>2026-03-28T12:13:57.252Z</time></trkpt><trkpt lat="41.4413643" lon="12.8051215"><ele>7.0</ele><time>2026-03-28T12:13:59.253Z</time></trkpt><trkpt lat="41.4414511" lon="12.8051147"><ele>6.3999999999999995</ele><time>2026-03-28T12:14:00.252Z</time></trkpt><trkpt lat="41.4415291" lon="12.8051226"><ele>5.799999999999999</ele><time>2026-03-28T12:14:01.252Z</time></trkpt><trkpt lat="41.4416025" lon="12.8051122"><ele>5.2</ele><time>2026-03-28T12:14:02.252Z</time></trkpt><trkpt lat="41.4416836" lon="12.8051162"><ele>4.6</ele><time>2026-03-28T12:14:03.253Z</time></trkpt><trkpt lat="41.4417496" lon="12.8051349"><ele>4.0</ele><time>2026-03-28T12:14:04.252Z</time></trkpt><trkpt lat="41.4419013" lon="12.8051448"><ele>4.0</ele><time>2026-03-28T12:14:06.252Z</time></trkpt><trkpt lat="41.4419751" lon="12.8051451"><ele>4.0</ele><time>2026-03-28T12:14:07.252Z</time></trkpt><trkpt lat="41.4420473" lon="12.8051596"><ele>4.0</ele><time>2026-03-28T12:14:08.253Z</time></trkpt><trkpt lat="41.4421876" lon="12.8051927"><ele>4.0</ele><time>2026-03-28T12:14:10.253Z</time></trkpt><trkpt lat="41.4422826" lon="12.8052349"><ele>4.0</ele><time>2026-03-28T12:14:12.252Z</time></trkpt><trkpt lat="41.442357" lon="12.8053283"><ele>4.0</ele><time>2026-03-28T12:14:14.252Z</time></trkpt><trkpt lat="41.4424329" lon="12.8054195"><ele>4.0</ele><time>2026-03-28T12:14:16.252Z</time></trkpt><trkpt lat="41.4425085" lon="12.8054715"><ele>4.0</ele><time>2026-03-28T12:14:18.253Z</time></trkpt><trkpt lat="41.4425775" lon="12.8055388"><ele>4.0</ele><time>2026-03-28T12:14:20.252Z</time></trkpt><trkpt lat="41.4426454" lon="12.8056122"><ele>4.0</ele><time>2026-03-28T12:14:22.252Z</time></trkpt><trkpt lat="41.442744" lon="12.8056131"><ele>3.9999999999999996</ele><time>2026-03-28T12:14:24.252Z</time></trkpt><trkpt lat="41.4428134" lon="12.8055953"><ele>4.0</ele><time>2026-03-28T12:14:25.252Z</time></trkpt><trkpt lat="41.4428803" lon="12.8055895"><ele>4.0</ele><time>2026-03-28T12:14:26.252Z</time></trkpt><trkpt lat="41.4429964" lon="12.8056102"><ele>4.0</ele><time>2026-03-28T12:14:28.252Z</time></trkpt><trkpt lat="41.4430595" lon="12.8056359"><ele>3.9999999999999996</ele><time>2026-03-28T12:14:29.253Z</time></trkpt><trkpt lat="41.4431169" lon="12.8056729"><ele>4.0</ele><time>2026-03-28T12:14:30.253Z</time></trkpt><trkpt lat="41.4432378" lon="12.8057483"><ele>4.0</ele><time>2026-03-28T12:14:32.252Z</time></trkpt><trkpt lat="41.4433171" lon="12.8057816"><ele>4.0</ele><time>2026-03-28T12:14:33.252Z</time></trkpt><trkpt lat="41.4435013" lon="12.8059025"><ele>4.0</ele><time>2026-03-28T12:14:35.253Z</time></trkpt><trkpt lat="41.443585" lon="12.8059565"><ele>4.0</ele><time>2026-03-28T12:14:36.253Z</time></trkpt><trkpt lat="41.4436741" lon="12.8060077"><ele>4.0</ele><time>2026-03-28T12:14:37.253Z</time></trkpt><trkpt lat="41.4437516" lon="12.8060444"><ele>4.0</ele><time>2026-03-28T12:14:38.252Z</time></trkpt><trkpt lat="41.443834" lon="12.8060492"><ele>4.0</ele><time>2026-03-28T12:14:39.252Z</time></trkpt><trkpt lat="41.4439317" lon="12.8060735"><ele>4.0</ele><time>2026-03-28T12:14:41.252Z</time></trkpt><trkpt lat="41.4440056" lon="12.8061775"><ele>4.0</ele><time>2026-03-28T12:14:43.253Z</time></trkpt><trkpt lat="41.4441148" lon="12.8062882"><ele>4.0</ele><time>2026-03-28T12:14:45.252Z</time></trkpt><trkpt lat="41.444202" lon="12.8063517"><ele>4.0</ele><time>2026-03-28T12:14:46.252Z</time></trkpt><trkpt lat="41.4444118" lon="12.8064724"><ele>4.0</ele><time>2026-03-28T12:14:48.252Z</time></trkpt><trkpt lat="41.444497" lon="12.8065275"><ele>4.0</ele><time>2026-03-28T12:14:49.252Z</time></trkpt><trkpt lat="41.4445749" lon="12.806557"><ele>4.4</ele><time>2026-03-28T12:14:50.252Z</time></trkpt><trkpt lat="41.444655" lon="12.8066014"><ele>4.800000000000001</ele><time>2026-03-28T12:14:51.253Z</time></trkpt><trkpt lat="41.4447511" lon="12.8066542"><ele>5.199999999999999</ele><time>2026-03-28T12:14:52.252Z</time></trkpt><trkpt lat="41.4448463" lon="12.8067392"><ele>5.6</ele><time>2026-03-28T12:14:53.252Z</time></trkpt><trkpt lat="41.444956" lon="12.8067984"><ele>6.0</ele><time>2026-03-28T12:14:54.252Z</time></trkpt><trkpt lat="41.4450596" lon="12.8068645"><ele>6.0</ele><time>2026-03-28T12:14:55.253Z</time></trkpt><trkpt lat="41.4451714" lon="12.8069731"><ele>6.0</ele><time>2026-03-28T12:14:56.252Z</time></trkpt><trkpt lat="41.4453089" lon="12.8070403"><ele>6.0</ele><time>2026-03-28T12:14:57.252Z</time></trkpt><trkpt lat="41.4454289" lon="12.8071317"><ele>6.0</ele><time>2026-03-28T12:14:58.252Z</time></trkpt><trkpt lat="41.4455523" lon="12.8072195"><ele>6.0</ele><time>2026-03-28T12:14:59.253Z</time></trkpt><trkpt lat="41.4458041" lon="12.8073836"><ele>6.0</ele><time>2026-03-28T12:15:01.252Z</time></trkpt><trkpt lat="41.4459271" lon="12.8074655"><ele>6.0</ele><time>2026-03-28T12:15:02.252Z</time></trkpt><trkpt lat="41.4460493" lon="12.8075352"><ele>6.0</ele><time>2026-03-28T12:15:03.252Z</time></trkpt><trkpt lat="41.446167" lon="12.8076088"><ele>6.0</ele><time>2026-03-28T12:15:04.252Z</time></trkpt><trkpt lat="41.4462756" lon="12.807691"><ele>6.0</ele><time>2026-03-28T12:15:05.253Z</time></trkpt><trkpt lat="41.4463908" lon="12.8077631"><ele>6.0</ele><time>2026-03-28T12:15:06.252Z</time></trkpt><trkpt lat="41.4465019" lon="12.8078352"><ele>6.25</ele><time>2026-03-28T12:15:07.252Z</time></trkpt><trkpt lat="41.4466054" lon="12.8078901"><ele>6.5</ele><time>2026-03-28T12:15:08.253Z</time></trkpt><trkpt lat="41.446693" lon="12.8079168"><ele>6.75</ele><time>2026-03-28T12:15:09.252Z</time></trkpt><trkpt lat="41.4467812" lon="12.8079141"><ele>7.0</ele><time>2026-03-28T12:15:10.253Z</time></trkpt><trkpt lat="41.4469343" lon="12.8079782"><ele>7.0</ele><time>2026-03-28T12:15:12.253Z</time></trkpt><trkpt lat="41.4470111" lon="12.8080367"><ele>7.0</ele><time>2026-03-28T12:15:13.253Z</time></trkpt><trkpt lat="41.4471994" lon="12.8081479"><ele>7.0</ele><time>2026-03-28T12:15:15.253Z</time></trkpt><trkpt lat="41.4472893" lon="12.8082005"><ele>7.0</ele><time>2026-03-28T12:15:16.252Z</time></trkpt><trkpt lat="41.4473735" lon="12.8082565"><ele>7.166666666666667</ele><time>2026-03-28T12:15:17.252Z</time></trkpt><trkpt lat="41.4474615" lon="12.808297"><ele>7.333333333333334</ele><time>2026-03-28T12:15:18.252Z</time></trkpt><trkpt lat="41.4475585" lon="12.8083362"><ele>7.5</ele><time>2026-03-28T12:15:19.252Z</time></trkpt><trkpt lat="41.4476466" lon="12.8083788"><ele>7.666666666666666</ele><time>2026-03-28T12:15:20.253Z</time></trkpt><trkpt lat="41.4477306" lon="12.8084156"><ele>7.833333333333333</ele><time>2026-03-28T12:15:21.253Z</time></trkpt><trkpt lat="41.4477996" lon="12.8084379"><ele>8.0</ele><time>2026-03-28T12:15:22.252Z</time></trkpt><trkpt lat="41.4478698" lon="12.8084507"><ele>8.0</ele><time>2026-03-28T12:15:23.252Z</time></trkpt><trkpt lat="41.4479428" lon="12.8084692"><ele>8.0</ele><time>2026-03-28T12:15:24.252Z</time></trkpt><trkpt lat="41.4479721" lon="12.8085554"><ele>8.0</ele><time>2026-03-28T12:15:26.252Z</time></trkpt><trkpt lat="41.4480117" lon="12.8086433"><ele>8.0</ele><time>2026-03-28T12:15:28.252Z</time></trkpt><trkpt lat="41.448123" lon="12.8087331"><ele>8.0</ele><time>2026-03-28T12:15:30.252Z</time></trkpt><trkpt lat="41.4482729" lon="12.8088359"><ele>7.75</ele><time>2026-03-28T12:15:32.253Z</time></trkpt><trkpt lat="41.4483683" lon="12.8089077"><ele>7.5</ele><time>2026-03-28T12:15:33.252Z</time></trkpt><trkpt lat="41.4484677" lon="12.8089748"><ele>7.25</ele><time>2026-03-28T12:15:34.252Z</time></trkpt><trkpt lat="41.4485565" lon="12.8090654"><ele>7.0</ele><time>2026-03-28T12:15:35.252Z</time></trkpt><trkpt lat="41.4486698" lon="12.8091393"><ele>7.0</ele><time>2026-03-28T12:15:36.252Z</time></trkpt><trkpt lat="41.4487733" lon="12.809243"><ele>7.0</ele><time>2026-03-28T12:15:37.252Z</time></trkpt><trkpt lat="41.4488919" lon="12.809341"><ele>7.0</ele><time>2026-03-28T12:15:38.252Z</time></trkpt><trkpt lat="41.4489922" lon="12.8094222"><ele>7.0</ele><time>2026-03-28T12:15:39.252Z</time></trkpt><trkpt lat="41.4491015" lon="12.8094988"><ele>7.0</ele><time>2026-03-28T12:15:40.252Z</time></trkpt><trkpt lat="41.4491972" lon="12.8095763"><ele>7.0</ele><time>2026-03-28T12:15:41.253Z</time></trkpt><trkpt lat="41.4493223" lon="12.8096537"><ele>7.0</ele><time>2026-03-28T12:15:42.252Z</time></trkpt><trkpt lat="41.4494279" lon="12.8097309"><ele>7.0</ele><time>2026-03-28T12:15:43.252Z</time></trkpt><trkpt lat="41.4495304" lon="12.8098052"><ele>8.0</ele><time>2026-03-28T12:15:44.253Z</time></trkpt><trkpt lat="41.4496442" lon="12.8098901"><ele>9.0</ele><time>2026-03-28T12:15:45.252Z</time></trkpt><trkpt lat="41.4497484" lon="12.8099735"><ele>10.0</ele><time>2026-03-28T12:15:46.253Z</time></trkpt><trkpt lat="41.4499289" lon="12.8101377"><ele>9.8</ele><time>2026-03-28T12:15:48.253Z</time></trkpt><trkpt lat="41.4500074" lon="12.8102235"><ele>9.6</ele><time>2026-03-28T12:15:49.252Z</time></trkpt><trkpt lat="41.4500835" lon="12.8102964"><ele>9.4</ele><time>2026-03-28T12:15:50.252Z</time></trkpt><trkpt lat="41.4501621" lon="12.8103555"><ele>9.2</ele><time>2026-03-28T12:15:51.252Z</time></trkpt><trkpt lat="41.4502379" lon="12.8104092"><ele>9.0</ele><time>2026-03-28T12:15:52.252Z</time></trkpt><trkpt lat="41.4503194" lon="12.8104572"><ele>9.0</ele><time>2026-03-28T12:15:53.252Z</time></trkpt><trkpt lat="41.4503895" lon="12.8104907"><ele>9.0</ele><time>2026-03-28T12:15:54.252Z</time></trkpt><trkpt lat="41.450459" lon="12.8105116"><ele>9.0</ele><time>2026-03-28T12:15:55.252Z</time></trkpt><trkpt lat="41.4505279" lon="12.8104784"><ele>9.0</ele><time>2026-03-28T12:15:56.252Z</time></trkpt><trkpt lat="41.4506142" lon="12.8104615"><ele>9.0</ele><time>2026-03-28T12:15:58.252Z</time></trkpt><trkpt lat="41.4507087" lon="12.8105252"><ele>9.0</ele><time>2026-03-28T12:16:01.252Z</time></trkpt><trkpt lat="41.4507677" lon="12.8106054"><ele>9.0</ele><time>2026-03-28T12:16:03.253Z</time></trkpt><trkpt lat="41.450866" lon="12.8106563"><ele>9.0</ele><time>2026-03-28T12:16:05.253Z</time></trkpt><trkpt lat="41.4510063" lon="12.8106873"><ele>9.0</ele><time>2026-03-28T12:16:07.253Z</time></trkpt><trkpt lat="41.4510786" lon="12.8107083"><ele>9.0</ele><time>2026-03-28T12:16:08.252Z</time></trkpt><trkpt lat="41.4511601" lon="12.8107295"><ele>9.0</ele><time>2026-03-28T12:16:09.252Z</time></trkpt><trkpt lat="41.4512396" lon="12.8107493"><ele>9.4</ele><time>2026-03-28T12:16:10.252Z</time></trkpt><trkpt lat="41.4513312" lon="12.8107608"><ele>9.8</ele><time>2026-03-28T12:16:11.252Z</time></trkpt><trkpt lat="41.4514771" lon="12.8107878"><ele>10.200000000000001</ele><time>2026-03-28T12:16:13.252Z</time></trkpt><trkpt lat="41.4515651" lon="12.8108262"><ele>10.600000000000001</ele><time>2026-03-28T12:16:14.252Z</time></trkpt><trkpt lat="41.4516429" lon="12.8108437"><ele>11.0</ele><time>2026-03-28T12:16:15.253Z</time></trkpt><trkpt lat="41.4517311" lon="12.8108601"><ele>11.0</ele><time>2026-03-28T12:16:16.252Z</time></trkpt><trkpt lat="41.4518105" lon="12.8108726"><ele>11.0</ele><time>2026-03-28T12:16:17.252Z</time></trkpt><trkpt lat="41.4518878" lon="12.8108857"><ele>11.0</ele><time>2026-03-28T12:16:18.253Z</time></trkpt><trkpt lat="41.4520694" lon="12.8109208"><ele>11.0</ele><time>2026-03-28T12:16:20.253Z</time></trkpt><trkpt lat="41.4522371" lon="12.8109606"><ele>11.0</ele><time>2026-03-28T12:16:22.252Z</time></trkpt><trkpt lat="41.4523215" lon="12.8109865"><ele>11.0</ele><time>2026-03-28T12:16:23.252Z</time></trkpt><trkpt lat="41.452403" lon="12.810995"><ele>11.0</ele><time>2026-03-28T12:16:24.252Z</time></trkpt><trkpt lat="41.4524798" lon="12.8110083"><ele>11.0</ele><time>2026-03-28T12:16:25.252Z</time></trkpt><trkpt lat="41.4525557" lon="12.8110138"><ele>11.0</ele><time>2026-03-28T12:16:26.252Z</time></trkpt><trkpt lat="41.4526286" lon="12.8110298"><ele>11.0</ele><time>2026-03-28T12:16:27.253Z</time></trkpt><trkpt lat="41.4526964" lon="12.8110343"><ele>10.75</ele><time>2026-03-28T12:16:28.253Z</time></trkpt><trkpt lat="41.4527908" lon="12.8110642"><ele>10.5</ele><time>2026-03-28T12:16:30.252Z</time></trkpt><trkpt lat="41.4528178" lon="12.8111502"><ele>10.25</ele><time>2026-03-28T12:16:32.252Z</time></trkpt><trkpt lat="41.4527818" lon="12.8114542"><ele>10.0</ele><time>2026-03-28T12:16:35.252Z</time></trkpt><trkpt lat="41.4527559" lon="12.8117084"><ele>9.6</ele><time>2026-03-28T12:16:37.252Z</time></trkpt><trkpt lat="41.4527404" lon="12.8118435"><ele>9.2</ele><time>2026-03-28T12:16:38.252Z</time></trkpt><trkpt lat="41.452721" lon="12.8119909"><ele>8.8</ele><time>2026-03-28T12:16:39.253Z</time></trkpt><trkpt lat="41.4526957" lon="12.8121359"><ele>8.4</ele><time>2026-03-28T12:16:40.252Z</time></trkpt><trkpt lat="41.4526783" lon="12.8122824"><ele>8.0</ele><time>2026-03-28T12:16:41.252Z</time></trkpt><trkpt lat="41.4526662" lon="12.8124153"><ele>8.0</ele><time>2026-03-28T12:16:42.252Z</time></trkpt><trkpt lat="41.452632" lon="12.8126801"><ele>8.0</ele><time>2026-03-28T12:16:44.252Z</time></trkpt><trkpt lat="41.4526184" lon="12.8127965"><ele>8.0</ele><time>2026-03-28T12:16:45.252Z</time></trkpt><trkpt lat="41.4526025" lon="12.8128998"><ele>8.0</ele><time>2026-03-28T12:16:46.252Z</time></trkpt><trkpt lat="41.452606" lon="12.8129866"><ele>8.0</ele><time>2026-03-28T12:16:47.252Z</time></trkpt><trkpt lat="41.452617" lon="12.8130824"><ele>8.0</ele><time>2026-03-28T12:16:48.253Z</time></trkpt><trkpt lat="41.4526635" lon="12.8131494"><ele>8.0</ele><time>2026-03-28T12:16:49.252Z</time></trkpt><trkpt lat="41.4528062" lon="12.8133356"><ele>8.0</ele><time>2026-03-28T12:16:51.253Z</time></trkpt><trkpt lat="41.4529007" lon="12.8134239"><ele>8.0</ele><time>2026-03-28T12:16:52.253Z</time></trkpt><trkpt lat="41.4529863" lon="12.8135194"><ele>8.200000000000001</ele><time>2026-03-28T12:16:53.252Z</time></trkpt><trkpt lat="41.4530706" lon="12.8136099"><ele>8.4</ele><time>2026-03-28T12:16:54.252Z</time></trkpt><trkpt lat="41.453157" lon="12.8136886"><ele>8.600000000000001</ele><time>2026-03-28T12:16:55.252Z</time></trkpt><trkpt lat="41.4532347" lon="12.8137691"><ele>8.8</ele><time>2026-03-28T12:16:56.252Z</time></trkpt><trkpt lat="41.4533104" lon="12.8138541"><ele>9.0</ele><time>2026-03-28T12:16:57.252Z</time></trkpt><trkpt lat="41.4533785" lon="12.8139429"><ele>9.000000000000002</ele><time>2026-03-28T12:16:58.252Z</time></trkpt><trkpt lat="41.4534412" lon="12.8140058"><ele>9.0</ele><time>2026-03-28T12:16:59.252Z</time></trkpt><trkpt lat="41.4535077" lon="12.8140476"><ele>9.0</ele><time>2026-03-28T12:17:00.252Z</time></trkpt><trkpt lat="41.4535778" lon="12.8140952"><ele>9.0</ele><time>2026-03-28T12:17:01.253Z</time></trkpt><trkpt lat="41.453637" lon="12.8141439"><ele>9.0</ele><time>2026-03-28T12:17:02.253Z</time></trkpt><trkpt lat="41.4536933" lon="12.8142038"><ele>9.000000000000002</ele><time>2026-03-28T12:17:03.252Z</time></trkpt><trkpt lat="41.4537559" lon="12.8142421"><ele>9.0</ele><time>2026-03-28T12:17:04.252Z</time></trkpt><trkpt lat="41.4538341" lon="12.8142839"><ele>9.5</ele><time>2026-03-28T12:17:05.252Z</time></trkpt><trkpt lat="41.4540072" lon="12.8143787"><ele>10.0</ele><time>2026-03-28T12:17:08.252Z</time></trkpt><trkpt lat="41.4540607" lon="12.8144259"><ele>10.5</ele><time>2026-03-28T12:17:09.252Z</time></trkpt><trkpt lat="41.4541085" lon="12.8146055"><ele>11.0</ele><time>2026-03-28T12:17:12.252Z</time></trkpt><trkpt lat="41.4541295" lon="12.8147685"><ele>11.0</ele><time>2026-03-28T12:17:15.253Z</time></trkpt><trkpt lat="41.4542532" lon="12.8148424"><ele>11.0</ele><time>2026-03-28T12:17:17.252Z</time></trkpt><trkpt lat="41.4543461" lon="12.814908"><ele>11.0</ele><time>2026-03-28T12:17:18.252Z</time></trkpt><trkpt lat="41.4544367" lon="12.8149633"><ele>11.0</ele><time>2026-03-28T12:17:19.252Z</time></trkpt><trkpt lat="41.4545206" lon="12.8150196"><ele>11.0</ele><time>2026-03-28T12:17:20.252Z</time></trkpt><trkpt lat="41.4546011" lon="12.8150634"><ele>11.0</ele><time>2026-03-28T12:17:21.252Z</time></trkpt><trkpt lat="41.4546918" lon="12.815086"><ele>11.0</ele><time>2026-03-28T12:17:22.252Z</time></trkpt><trkpt lat="41.454765" lon="12.8151063"><ele>11.0</ele><time>2026-03-28T12:17:23.252Z</time></trkpt><trkpt lat="41.4548363" lon="12.8151324"><ele>11.0</ele><time>2026-03-28T12:17:24.252Z</time></trkpt><trkpt lat="41.4549014" lon="12.8151841"><ele>11.0</ele><time>2026-03-28T12:17:25.253Z</time></trkpt><trkpt lat="41.4549649" lon="12.8152007"><ele>11.0</ele><time>2026-03-28T12:17:26.253Z</time></trkpt><trkpt lat="41.4550377" lon="12.8152188"><ele>10.714285714285715</ele><time>2026-03-28T12:17:27.252Z</time></trkpt><trkpt lat="41.4551028" lon="12.8152299"><ele>10.428571428571429</ele><time>2026-03-28T12:17:28.252Z</time></trkpt><trkpt lat="41.4551743" lon="12.815232"><ele>10.142857142857142</ele><time>2026-03-28T12:17:29.252Z</time></trkpt><trkpt lat="41.4552466" lon="12.8152325"><ele>9.857142857142858</ele><time>2026-03-28T12:17:30.252Z</time></trkpt><trkpt lat="41.4553163" lon="12.8152466"><ele>9.571428571428571</ele><time>2026-03-28T12:17:31.252Z</time></trkpt><trkpt lat="41.4553912" lon="12.8152533"><ele>9.285714285714286</ele><time>2026-03-28T12:17:32.253Z</time></trkpt><trkpt lat="41.4554679" lon="12.815258"><ele>9.0</ele><time>2026-03-28T12:17:33.253Z</time></trkpt><trkpt lat="41.4555486" lon="12.815264"><ele>9.0</ele><time>2026-03-28T12:17:34.252Z</time></trkpt><trkpt lat="41.455627" lon="12.8152563"><ele>9.0</ele><time>2026-03-28T12:17:35.252Z</time></trkpt><trkpt lat="41.455708" lon="12.8152573"><ele>9.0</ele><time>2026-03-28T12:17:36.252Z</time></trkpt><trkpt lat="41.4557852" lon="12.8152487"><ele>9.0</ele><time>2026-03-28T12:17:37.252Z</time></trkpt><trkpt lat="41.4558623" lon="12.8152309"><ele>9.0</ele><time>2026-03-28T12:17:38.253Z</time></trkpt><trkpt lat="41.4559516" lon="12.8152419"><ele>9.0</ele><time>2026-03-28T12:17:39.252Z</time></trkpt><trkpt lat="41.456032" lon="12.8152357"><ele>9.0</ele><time>2026-03-28T12:17:40.252Z</time></trkpt><trkpt lat="41.4561088" lon="12.8151967"><ele>9.0</ele><time>2026-03-28T12:17:41.253Z</time></trkpt><trkpt lat="41.4562658" lon="12.8151334"><ele>9.0</ele><time>2026-03-28T12:17:43.252Z</time></trkpt><trkpt lat="41.4563274" lon="12.8150751"><ele>9.0</ele><time>2026-03-28T12:17:44.252Z</time></trkpt><trkpt lat="41.4564009" lon="12.815029"><ele>9.0</ele><time>2026-03-28T12:17:45.252Z</time></trkpt><trkpt lat="41.456479" lon="12.8149858"><ele>9.333333333333334</ele><time>2026-03-28T12:17:46.252Z</time></trkpt><trkpt lat="41.4565426" lon="12.8149371"><ele>9.666666666666666</ele><time>2026-03-28T12:17:47.252Z</time></trkpt><trkpt lat="41.4566044" lon="12.814909"><ele>10.0</ele><time>2026-03-28T12:17:48.252Z</time></trkpt><trkpt lat="41.4566656" lon="12.8148785"><ele>10.333333333333332</ele><time>2026-03-28T12:17:49.253Z</time></trkpt><trkpt lat="41.4567575" lon="12.8148078"><ele>10.666666666666666</ele><time>2026-03-28T12:17:51.252Z</time></trkpt><trkpt lat="41.4568099" lon="12.8147113"><ele>11.0</ele><time>2026-03-28T12:17:53.253Z</time></trkpt><trkpt lat="41.4568335" lon="12.8145577"><ele>11.0</ele><time>2026-03-28T12:17:57.253Z</time></trkpt><trkpt lat="41.4569059" lon="12.8144884"><ele>11.0</ele><time>2026-03-28T12:17:59.253Z</time></trkpt><trkpt lat="41.4570487" lon="12.8143729"><ele>11.0</ele><time>2026-03-28T12:18:02.252Z</time></trkpt><trkpt lat="41.4571574" lon="12.8142816"><ele>11.0</ele><time>2026-03-28T12:18:04.252Z</time></trkpt><trkpt lat="41.4572183" lon="12.8142293"><ele>11.75</ele><time>2026-03-28T12:18:05.253Z</time></trkpt><trkpt lat="41.4573119" lon="12.8141701"><ele>12.5</ele><time>2026-03-28T12:18:06.252Z</time></trkpt><trkpt lat="41.4574128" lon="12.8140958"><ele>13.25</ele><time>2026-03-28T12:18:07.252Z</time></trkpt><trkpt lat="41.4575063" lon="12.8140207"><ele>14.0</ele><time>2026-03-28T12:18:08.252Z</time></trkpt><trkpt lat="41.4576185" lon="12.8139292"><ele>14.0</ele><time>2026-03-28T12:18:09.252Z</time></trkpt><trkpt lat="41.4577347" lon="12.8138277"><ele>14.0</ele><time>2026-03-28T12:18:10.253Z</time></trkpt><trkpt lat="41.4578554" lon="12.8137391"><ele>14.0</ele><time>2026-03-28T12:18:11.252Z</time></trkpt><trkpt lat="41.4579594" lon="12.8136575"><ele>14.0</ele><time>2026-03-28T12:18:12.252Z</time></trkpt><trkpt lat="41.4580703" lon="12.8135686"><ele>14.0</ele><time>2026-03-28T12:18:13.253Z</time></trkpt><trkpt lat="41.4581631" lon="12.8134824"><ele>14.0</ele><time>2026-03-28T12:18:14.252Z</time></trkpt><trkpt lat="41.4582711" lon="12.8133932"><ele>14.0</ele><time>2026-03-28T12:18:15.253Z</time></trkpt><trkpt lat="41.4583884" lon="12.8133099"><ele>14.0</ele><time>2026-03-28T12:18:16.252Z</time></trkpt><trkpt lat="41.4585044" lon="12.813225"><ele>14.0</ele><time>2026-03-28T12:18:17.253Z</time></trkpt><trkpt lat="41.4586259" lon="12.813121"><ele>14.0</ele><time>2026-03-28T12:18:18.252Z</time></trkpt><trkpt lat="41.4587406" lon="12.8130349"><ele>14.0</ele><time>2026-03-28T12:18:19.252Z</time></trkpt><trkpt lat="41.4588558" lon="12.8129486"><ele>14.0</ele><time>2026-03-28T12:18:20.253Z</time></trkpt><trkpt lat="41.4589677" lon="12.8128649"><ele>14.0</ele><time>2026-03-28T12:18:21.252Z</time></trkpt><trkpt lat="41.459069" lon="12.812776"><ele>14.0</ele><time>2026-03-28T12:18:22.252Z</time></trkpt><trkpt lat="41.459178" lon="12.8126923"><ele>14.0</ele><time>2026-03-28T12:18:23.252Z</time></trkpt><trkpt lat="41.4592654" lon="12.8126135"><ele>14.0</ele><time>2026-03-28T12:18:24.252Z</time></trkpt><trkpt lat="41.4593678" lon="12.812528"><ele>14.0</ele><time>2026-03-28T12:18:25.252Z</time></trkpt><trkpt lat="41.4594677" lon="12.8124506"><ele>13.999999999999998</ele><time>2026-03-28T12:18:26.252Z</time></trkpt><trkpt lat="41.4595673" lon="12.8123692"><ele>13.999999999999998</ele><time>2026-03-28T12:18:27.252Z</time></trkpt><trkpt lat="41.4596526" lon="12.8122982"><ele>14.0</ele><time>2026-03-28T12:18:28.252Z</time></trkpt><trkpt lat="41.4597398" lon="12.8122265"><ele>14.0</ele><time>2026-03-28T12:18:29.253Z</time></trkpt><trkpt lat="41.4598124" lon="12.8121703"><ele>14.166666666666668</ele><time>2026-03-28T12:18:30.252Z</time></trkpt><trkpt lat="41.4599002" lon="12.8121133"><ele>14.333333333333334</ele><time>2026-03-28T12:18:31.252Z</time></trkpt><trkpt lat="41.4599661" lon="12.8120408"><ele>14.5</ele><time>2026-03-28T12:18:32.252Z</time></trkpt><trkpt lat="41.4600292" lon="12.8119723"><ele>14.666666666666668</ele><time>2026-03-28T12:18:33.252Z</time></trkpt><trkpt lat="41.4600999" lon="12.811893"><ele>14.833333333333334</ele><time>2026-03-28T12:18:34.252Z</time></trkpt><trkpt lat="41.4601564" lon="12.8118249"><ele>15.0</ele><time>2026-03-28T12:18:35.253Z</time></trkpt><trkpt lat="41.4602372" lon="12.8117812"><ele>15.0</ele><time>2026-03-28T12:18:36.252Z</time></trkpt><trkpt lat="41.4603001" lon="12.8117176"><ele>15.0</ele><time>2026-03-28T12:18:37.253Z</time></trkpt><trkpt lat="41.4603726" lon="12.8116513"><ele>15.0</ele><time>2026-03-28T12:18:38.252Z</time></trkpt><trkpt lat="41.4604376" lon="12.8115918"><ele>15.0</ele><time>2026-03-28T12:18:39.253Z</time></trkpt><trkpt lat="41.4605002" lon="12.8115338"><ele>15.0</ele><time>2026-03-28T12:18:40.252Z</time></trkpt><trkpt lat="41.4606125" lon="12.8114689"><ele>15.0</ele><time>2026-03-28T12:18:42.252Z</time></trkpt><trkpt lat="41.4606949" lon="12.8114759"><ele>14.6</ele><time>2026-03-28T12:18:45.253Z</time></trkpt><trkpt lat="41.4608367" lon="12.8114429"><ele>14.2</ele><time>2026-03-28T12:18:52.252Z</time></trkpt><trkpt lat="41.460936" lon="12.8113651"><ele>13.8</ele><time>2026-03-28T12:18:54.252Z</time></trkpt><trkpt lat="41.461004" lon="12.8113147"><ele>13.4</ele><time>2026-03-28T12:18:55.252Z</time></trkpt><trkpt lat="41.4610827" lon="12.811262"><ele>13.0</ele><time>2026-03-28T12:18:56.253Z</time></trkpt><trkpt lat="41.4611489" lon="12.8112073"><ele>12.999999999999998</ele><time>2026-03-28T12:18:57.253Z</time></trkpt><trkpt lat="41.4612129" lon="12.8111582"><ele>13.0</ele><time>2026-03-28T12:18:58.252Z</time></trkpt><trkpt lat="41.461274" lon="12.8111064"><ele>13.0</ele><time>2026-03-28T12:18:59.252Z</time></trkpt><trkpt lat="41.4613476" lon="12.8110652"><ele>13.0</ele><time>2026-03-28T12:19:00.252Z</time></trkpt><trkpt lat="41.4614274" lon="12.8110289"><ele>12.999999999999998</ele><time>2026-03-28T12:19:01.252Z</time></trkpt><trkpt lat="41.4614967" lon="12.8109765"><ele>13.0</ele><time>2026-03-28T12:19:02.252Z</time></trkpt><trkpt lat="41.4615765" lon="12.8109481"><ele>13.666666666666666</ele><time>2026-03-28T12:19:03.253Z</time></trkpt><trkpt lat="41.4616556" lon="12.8109205"><ele>14.333333333333332</ele><time>2026-03-28T12:19:04.253Z</time></trkpt><trkpt lat="41.4617331" lon="12.8108884"><ele>15.0</ele><time>2026-03-28T12:19:05.252Z</time></trkpt><trkpt lat="41.4618077" lon="12.8108594"><ele>15.666666666666668</ele><time>2026-03-28T12:19:06.253Z</time></trkpt><trkpt lat="41.4618875" lon="12.8108327"><ele>16.333333333333336</ele><time>2026-03-28T12:19:07.252Z</time></trkpt><trkpt lat="41.4619631" lon="12.8108081"><ele>17.0</ele><time>2026-03-28T12:19:08.252Z</time></trkpt><trkpt lat="41.4620353" lon="12.8107835"><ele>17.0</ele><time>2026-03-28T12:19:09.252Z</time></trkpt><trkpt lat="41.4621086" lon="12.810761"><ele>17.0</ele><time>2026-03-28T12:19:10.252Z</time></trkpt><trkpt lat="41.4621845" lon="12.8107418"><ele>17.0</ele><time>2026-03-28T12:19:11.252Z</time></trkpt><trkpt lat="41.4623248" lon="12.8107093"><ele>17.0</ele><time>2026-03-28T12:19:13.253Z</time></trkpt><trkpt lat="41.4623921" lon="12.8107012"><ele>17.0</ele><time>2026-03-28T12:19:14.252Z</time></trkpt><trkpt lat="41.4625104" lon="12.8106799"><ele>16.833333333333336</ele><time>2026-03-28T12:19:16.252Z</time></trkpt><trkpt lat="41.4625982" lon="12.8106608"><ele>16.666666666666668</ele><time>2026-03-28T12:19:18.252Z</time></trkpt><trkpt lat="41.4626665" lon="12.8106342"><ele>16.5</ele><time>2026-03-28T12:19:20.252Z</time></trkpt><trkpt lat="41.4627334" lon="12.8106287"><ele>16.333333333333332</ele><time>2026-03-28T12:19:24.252Z</time></trkpt><trkpt lat="41.4628205" lon="12.8106183"><ele>16.166666666666664</ele><time>2026-03-28T12:22:12.252Z</time></trkpt><trkpt lat="41.4628917" lon="12.8106017"><ele>16.0</ele><time>2026-03-28T12:22:14.252Z</time></trkpt><trkpt lat="41.4629651" lon="12.8105681"><ele>15.666666666666666</ele><time>2026-03-28T12:22:18.252Z</time></trkpt><trkpt lat="41.4630167" lon="12.8106528"><ele>15.333333333333332</ele><time>2026-03-28T12:22:23.252Z</time></trkpt><trkpt lat="41.4630458" lon="12.8108108"><ele>15.0</ele><time>2026-03-28T12:22:25.252Z</time></trkpt><trkpt lat="41.4630608" lon="12.811141"><ele>15.0</ele><time>2026-03-28T12:22:27.252Z</time></trkpt><trkpt lat="41.4630794" lon="12.8114002"><ele>15.0</ele><time>2026-03-28T12:22:29.252Z</time></trkpt><trkpt lat="41.4630834" lon="12.8115141"><ele>15.0</ele><time>2026-03-28T12:22:30.252Z</time></trkpt><trkpt lat="41.4630973" lon="12.8116008"><ele>15.0</ele><time>2026-03-28T12:22:31.253Z</time></trkpt><trkpt lat="41.4631869" lon="12.8115362"><ele>15.0</ele><time>2026-03-28T12:22:33.252Z</time></trkpt><trkpt lat="41.4633039" lon="12.8115148"><ele>15.0</ele><time>2026-03-28T12:22:35.252Z</time></trkpt><trkpt lat="41.4634022" lon="12.8114886"><ele>15.0</ele><time>2026-03-28T12:22:36.252Z</time></trkpt><trkpt lat="41.4635056" lon="12.8114644"><ele>15.0</ele><time>2026-03-28T12:22:37.253Z</time></trkpt><trkpt lat="41.4636911" lon="12.8114269"><ele>15.0</ele><time>2026-03-28T12:22:39.252Z</time></trkpt><trkpt lat="41.4638041" lon="12.8114119"><ele>14.8</ele><time>2026-03-28T12:22:40.253Z</time></trkpt><trkpt lat="41.4639061" lon="12.8114192"><ele>14.6</ele><time>2026-03-28T12:22:41.252Z</time></trkpt><trkpt lat="41.4640131" lon="12.8114266"><ele>14.399999999999999</ele><time>2026-03-28T12:22:42.253Z</time></trkpt><trkpt lat="41.4640996" lon="12.8114461"><ele>14.2</ele><time>2026-03-28T12:22:43.253Z</time></trkpt><trkpt lat="41.4641926" lon="12.8114575"><ele>14.0</ele><time>2026-03-28T12:22:44.252Z</time></trkpt><trkpt lat="41.4643644" lon="12.8115127"><ele>14.000000000000002</ele><time>2026-03-28T12:22:46.252Z</time></trkpt><trkpt lat="41.4644412" lon="12.8115607"><ele>14.0</ele><time>2026-03-28T12:22:47.252Z</time></trkpt><trkpt lat="41.464517" lon="12.811604"><ele>14.0</ele><time>2026-03-28T12:22:48.253Z</time></trkpt><trkpt lat="41.4645966" lon="12.8116558"><ele>14.0</ele><time>2026-03-28T12:22:49.253Z</time></trkpt><trkpt lat="41.4646569" lon="12.8117066"><ele>14.000000000000002</ele><time>2026-03-28T12:22:50.253Z</time></trkpt><trkpt lat="41.4647167" lon="12.8117477"><ele>14.0</ele><time>2026-03-28T12:22:51.252Z</time></trkpt><trkpt lat="41.4647774" lon="12.8117951"><ele>14.0</ele><time>2026-03-28T12:22:52.252Z</time></trkpt><trkpt lat="41.4648393" lon="12.8118422"><ele>14.0</ele><time>2026-03-28T12:22:53.252Z</time></trkpt><trkpt lat="41.4649725" lon="12.8119436"><ele>14.0</ele><time>2026-03-28T12:22:55.252Z</time></trkpt><trkpt lat="41.4650784" lon="12.8120442"><ele>14.0</ele><time>2026-03-28T12:22:57.252Z</time></trkpt><trkpt lat="41.4651922" lon="12.8121585"><ele>14.000000000000002</ele><time>2026-03-28T12:22:59.252Z</time></trkpt><trkpt lat="41.4652549" lon="12.8122451"><ele>14.0</ele><time>2026-03-28T12:23:00.253Z</time></trkpt><trkpt lat="41.465317" lon="12.8123074"><ele>14.0</ele><time>2026-03-28T12:23:01.253Z</time></trkpt><trkpt lat="41.4653805" lon="12.8123588"><ele>14.0</ele><time>2026-03-28T12:23:02.252Z</time></trkpt><trkpt lat="41.4654342" lon="12.8124037"><ele>14.000000000000002</ele><time>2026-03-28T12:23:03.252Z</time></trkpt><trkpt lat="41.465487" lon="12.8124584"><ele>14.0</ele><time>2026-03-28T12:23:04.253Z</time></trkpt><trkpt lat="41.4655932" lon="12.8125216"><ele>14.25</ele><time>2026-03-28T12:23:06.252Z</time></trkpt><trkpt lat="41.4657171" lon="12.8125866"><ele>14.5</ele><time>2026-03-28T12:23:08.253Z</time></trkpt><trkpt lat="41.4657919" lon="12.8126358"><ele>14.75</ele><time>2026-03-28T12:23:09.252Z</time></trkpt><trkpt lat="41.465874" lon="12.8126686"><ele>15.0</ele><time>2026-03-28T12:23:10.252Z</time></trkpt><trkpt lat="41.4660568" lon="12.8127184"><ele>15.0</ele><time>2026-03-28T12:23:12.253Z</time></trkpt><trkpt lat="41.4662566" lon="12.8127866"><ele>15.0</ele><time>2026-03-28T12:23:14.252Z</time></trkpt><trkpt lat="41.4664376" lon="12.8128411"><ele>15.0</ele><time>2026-03-28T12:23:16.252Z</time></trkpt><trkpt lat="41.4665249" lon="12.8128336"><ele>15.166666666666666</ele><time>2026-03-28T12:23:17.252Z</time></trkpt><trkpt lat="41.4666127" lon="12.8128621"><ele>15.333333333333332</ele><time>2026-03-28T12:23:18.252Z</time></trkpt><trkpt lat="41.4666966" lon="12.8128741"><ele>15.5</ele><time>2026-03-28T12:23:19.252Z</time></trkpt><trkpt lat="41.4667762" lon="12.8128843"><ele>15.666666666666666</ele><time>2026-03-28T12:23:20.252Z</time></trkpt><trkpt lat="41.4668509" lon="12.8128937"><ele>15.833333333333332</ele><time>2026-03-28T12:23:21.252Z</time></trkpt><trkpt lat="41.4669701" lon="12.8128872"><ele>16.0</ele><time>2026-03-28T12:23:23.253Z</time></trkpt><trkpt lat="41.4670781" lon="12.8128902"><ele>15.999999999999998</ele><time>2026-03-28T12:23:25.252Z</time></trkpt><trkpt lat="41.4671492" lon="12.8129082"><ele>16.0</ele><time>2026-03-28T12:23:27.253Z</time></trkpt><trkpt lat="41.4672165" lon="12.8128997"><ele>16.0</ele><time>2026-03-28T12:23:29.252Z</time></trkpt><trkpt lat="41.4673059" lon="12.8128964"><ele>16.0</ele><time>2026-03-28T12:23:31.252Z</time></trkpt><trkpt lat="41.4674214" lon="12.8128852"><ele>15.999999999999998</ele><time>2026-03-28T12:23:33.252Z</time></trkpt><trkpt lat="41.4674878" lon="12.812887"><ele>16.0</ele><time>2026-03-28T12:23:34.252Z</time></trkpt><trkpt lat="41.4675692" lon="12.8128774"><ele>15.999999999999998</ele><time>2026-03-28T12:23:35.253Z</time></trkpt><trkpt lat="41.4676482" lon="12.812865"><ele>16.0</ele><time>2026-03-28T12:23:36.253Z</time></trkpt><trkpt lat="41.4677318" lon="12.8128558"><ele>16.0</ele><time>2026-03-28T12:23:37.253Z</time></trkpt><trkpt lat="41.4678111" lon="12.8128473"><ele>16.0</ele><time>2026-03-28T12:23:38.252Z</time></trkpt><trkpt lat="41.4678858" lon="12.8128469"><ele>15.999999999999998</ele><time>2026-03-28T12:23:39.252Z</time></trkpt><trkpt lat="41.4679564" lon="12.8128536"><ele>16.0</ele><time>2026-03-28T12:23:40.252Z</time></trkpt><trkpt lat="41.4681048" lon="12.81289"><ele>15.833333333333332</ele><time>2026-03-28T12:23:42.252Z</time></trkpt><trkpt lat="41.4681845" lon="12.8129268"><ele>15.666666666666666</ele><time>2026-03-28T12:23:43.252Z</time></trkpt><trkpt lat="41.4682626" lon="12.812975"><ele>15.5</ele><time>2026-03-28T12:23:44.252Z</time></trkpt><trkpt lat="41.468335" lon="12.8130315"><ele>15.333333333333332</ele><time>2026-03-28T12:23:45.252Z</time></trkpt><trkpt lat="41.4684148" lon="12.8130903"><ele>15.166666666666666</ele><time>2026-03-28T12:23:46.252Z</time></trkpt><trkpt lat="41.4684921" lon="12.8131763"><ele>15.0</ele><time>2026-03-28T12:23:47.252Z</time></trkpt><trkpt lat="41.4685575" lon="12.8132617"><ele>15.0</ele><time>2026-03-28T12:23:48.252Z</time></trkpt><trkpt lat="41.4686183" lon="12.8133558"><ele>15.0</ele><time>2026-03-28T12:23:49.252Z</time></trkpt><trkpt lat="41.4687182" lon="12.8135799"><ele>15.0</ele><time>2026-03-28T12:23:51.252Z</time></trkpt><trkpt lat="41.4687614" lon="12.8136908"><ele>15.0</ele><time>2026-03-28T12:23:52.252Z</time></trkpt><trkpt lat="41.4688075" lon="12.8138118"><ele>15.0</ele><time>2026-03-28T12:23:53.252Z</time></trkpt><trkpt lat="41.4688426" lon="12.8139168"><ele>15.0</ele><time>2026-03-28T12:23:54.252Z</time></trkpt><trkpt lat="41.4688907" lon="12.8140331"><ele>15.0</ele><time>2026-03-28T12:23:55.252Z</time></trkpt><trkpt lat="41.468931" lon="12.8141396"><ele>15.0</ele><time>2026-03-28T12:23:56.253Z</time></trkpt><trkpt lat="41.468952" lon="12.8142501"><ele>15.0</ele><time>2026-03-28T12:23:57.253Z</time></trkpt><trkpt lat="41.468979" lon="12.8143642"><ele>15.0</ele><time>2026-03-28T12:23:58.252Z</time></trkpt><trkpt lat="41.4690648" lon="12.8145647"><ele>15.0</ele><time>2026-03-28T12:24:00.252Z</time></trkpt><trkpt lat="41.4691523" lon="12.8147744"><ele>15.0</ele><time>2026-03-28T12:24:02.253Z</time></trkpt><trkpt lat="41.4691899" lon="12.8149011"><ele>15.0</ele><time>2026-03-28T12:24:03.252Z</time></trkpt><trkpt lat="41.4692642" lon="12.8151243"><ele>15.0</ele><time>2026-03-28T12:24:05.253Z</time></trkpt><trkpt lat="41.4693066" lon="12.8152278"><ele>15.0</ele><time>2026-03-28T12:24:06.252Z</time></trkpt><trkpt lat="41.4693973" lon="12.8154764"><ele>15.666666666666668</ele><time>2026-03-28T12:24:08.253Z</time></trkpt><trkpt lat="41.4694966" lon="12.8157537"><ele>16.333333333333336</ele><time>2026-03-28T12:24:10.253Z</time></trkpt><trkpt lat="41.4695427" lon="12.8158981"><ele>17.0</ele><time>2026-03-28T12:24:11.252Z</time></trkpt><trkpt lat="41.469579" lon="12.8160358"><ele>16.0</ele><time>2026-03-28T12:24:12.252Z</time></trkpt><trkpt lat="41.4696735" lon="12.8163151"><ele>15.0</ele><time>2026-03-28T12:24:14.252Z</time></trkpt><trkpt lat="41.4697774" lon="12.8165537"><ele>14.0</ele><time>2026-03-28T12:24:16.252Z</time></trkpt><trkpt lat="41.4698435" lon="12.8167688"><ele>14.666666666666668</ele><time>2026-03-28T12:24:18.252Z</time></trkpt><trkpt lat="41.4698866" lon="12.8168893"><ele>15.333333333333332</ele><time>2026-03-28T12:24:19.252Z</time></trkpt><trkpt lat="41.4699596" lon="12.8171395"><ele>16.0</ele><time>2026-03-28T12:24:21.252Z</time></trkpt><trkpt lat="41.4700392" lon="12.8173496"><ele>16.0</ele><time>2026-03-28T12:24:23.252Z</time></trkpt><trkpt lat="41.4701187" lon="12.8175742"><ele>16.0</ele><time>2026-03-28T12:24:25.252Z</time></trkpt><trkpt lat="41.4701686" lon="12.8177021"><ele>16.0</ele><time>2026-03-28T12:24:26.252Z</time></trkpt><trkpt lat="41.4702138" lon="12.8178254"><ele>16.0</ele><time>2026-03-28T12:24:27.252Z</time></trkpt><trkpt lat="41.4702662" lon="12.8179366"><ele>16.333333333333332</ele><time>2026-03-28T12:24:28.252Z</time></trkpt><trkpt lat="41.4702945" lon="12.8180416"><ele>16.666666666666664</ele><time>2026-03-28T12:24:29.252Z</time></trkpt><trkpt lat="41.4703297" lon="12.8181504"><ele>17.0</ele><time>2026-03-28T12:24:30.252Z</time></trkpt><trkpt lat="41.470361" lon="12.8182378"><ele>17.333333333333332</ele><time>2026-03-28T12:24:31.253Z</time></trkpt><trkpt lat="41.47038" lon="12.8183185"><ele>17.666666666666668</ele><time>2026-03-28T12:24:32.253Z</time></trkpt><trkpt lat="41.4704062" lon="12.818434"><ele>18.0</ele><time>2026-03-28T12:24:34.252Z</time></trkpt><trkpt lat="41.4703778" lon="12.8185103"><ele>18.4</ele><time>2026-03-28T12:24:36.252Z</time></trkpt><trkpt lat="41.4703208" lon="12.8186069"><ele>18.8</ele><time>2026-03-28T12:24:38.253Z</time></trkpt><trkpt lat="41.4702742" lon="12.818741"><ele>19.2</ele><time>2026-03-28T12:24:40.252Z</time></trkpt><trkpt lat="41.4702728" lon="12.8188647"><ele>19.6</ele><time>2026-03-28T12:24:42.252Z</time></trkpt><trkpt lat="41.4703784" lon="12.8188472"><ele>20.0</ele><time>2026-03-28T12:24:45.252Z</time></trkpt><trkpt lat="41.4704433" lon="12.8188584"><ele>19.666666666666668</ele><time>2026-03-28T12:24:47.253Z</time></trkpt><trkpt lat="41.4705066" lon="12.8188794"><ele>19.333333333333336</ele><time>2026-03-28T12:24:50.253Z</time></trkpt><trkpt lat="41.4705376" lon="12.8188044"><ele>19.0</ele><time>2026-03-28T12:25:03.252Z</time></trkpt><trkpt lat="41.4705325" lon="12.8187101"><ele>18.666666666666668</ele><time>2026-03-28T12:25:12.252Z</time></trkpt><trkpt lat="41.4705403" lon="12.8186139"><ele>18.333333333333332</ele><time>2026-03-28T12:25:27.252Z</time></trkpt><trkpt lat="41.4705032" lon="12.8185283"><ele>18.0</ele><time>2026-03-28T12:25:44.161Z</time></trkpt><trkpt lat="41.470388" lon="12.8182976"><ele>18.0</ele><time>2026-03-28T12:27:27.252Z</time></trkpt><trkpt lat="41.4703616" lon="12.8182195"><ele>18.0</ele><time>2026-03-28T12:27:28.252Z</time></trkpt><trkpt lat="41.4703241" lon="12.8180959"><ele>18.0</ele><time>2026-03-28T12:27:30.252Z</time></trkpt><trkpt lat="41.470275" lon="12.8179662"><ele>18.0</ele><time>2026-03-28T12:27:32.252Z</time></trkpt><trkpt lat="41.4702261" lon="12.817811"><ele>18.0</ele><time>2026-03-28T12:27:34.253Z</time></trkpt><trkpt lat="41.470186" lon="12.8177368"><ele>18.0</ele><time>2026-03-28T12:27:35.253Z</time></trkpt><trkpt lat="41.4701532" lon="12.817653"><ele>18.0</ele><time>2026-03-28T12:27:36.252Z</time></trkpt><trkpt lat="41.4700936" lon="12.8175009"><ele>18.0</ele><time>2026-03-28T12:27:38.252Z</time></trkpt><trkpt lat="41.4700598" lon="12.8174269"><ele>18.0</ele><time>2026-03-28T12:27:39.252Z</time></trkpt><trkpt lat="41.470029" lon="12.8173495"><ele>18.0</ele><time>2026-03-28T12:27:40.253Z</time></trkpt><trkpt lat="41.4699967" lon="12.8172654"><ele>18.0</ele><time>2026-03-28T12:27:41.252Z</time></trkpt><trkpt lat="41.4699731" lon="12.8171797"><ele>17.714285714285715</ele><time>2026-03-28T12:27:42.253Z</time></trkpt><trkpt lat="41.4699491" lon="12.8170948"><ele>17.42857142857143</ele><time>2026-03-28T12:27:43.252Z</time></trkpt><trkpt lat="41.4699224" lon="12.8170076"><ele>17.142857142857142</ele><time>2026-03-28T12:27:44.253Z</time></trkpt><trkpt lat="41.4698937" lon="12.8169121"><ele>16.857142857142858</ele><time>2026-03-28T12:27:45.252Z</time></trkpt><trkpt lat="41.4698594" lon="12.8168238"><ele>16.57142857142857</ele><time>2026-03-28T12:27:46.252Z</time></trkpt><trkpt lat="41.4698247" lon="12.8167428"><ele>16.285714285714285</ele><time>2026-03-28T12:27:47.252Z</time></trkpt><trkpt lat="41.469788" lon="12.816669"><ele>16.0</ele><time>2026-03-28T12:27:48.253Z</time></trkpt><trkpt lat="41.4697348" lon="12.8165113"><ele>16.166666666666664</ele><time>2026-03-28T12:27:50.252Z</time></trkpt><trkpt lat="41.4697049" lon="12.8164286"><ele>16.333333333333332</ele><time>2026-03-28T12:27:51.252Z</time></trkpt><trkpt lat="41.4696766" lon="12.8163352"><ele>16.5</ele><time>2026-03-28T12:27:52.253Z</time></trkpt><trkpt lat="41.4696438" lon="12.8162378"><ele>16.666666666666668</ele><time>2026-03-28T12:27:53.252Z</time></trkpt><trkpt lat="41.4695891" lon="12.8160724"><ele>16.833333333333336</ele><time>2026-03-28T12:27:55.252Z</time></trkpt><trkpt lat="41.469562" lon="12.8159893"><ele>17.0</ele><time>2026-03-28T12:27:56.252Z</time></trkpt><trkpt lat="41.4695057" lon="12.8158192"><ele>17.0</ele><time>2026-03-28T12:27:58.252Z</time></trkpt><trkpt lat="41.4694656" lon="12.8156632"><ele>17.0</ele><time>2026-03-28T12:28:00.253Z</time></trkpt><trkpt lat="41.4694045" lon="12.8155152"><ele>17.0</ele><time>2026-03-28T12:28:02.252Z</time></trkpt><trkpt lat="41.4693433" lon="12.8154031"><ele>17.0</ele><time>2026-03-28T12:28:04.253Z</time></trkpt><trkpt lat="41.4692553" lon="12.8154236"><ele>17.0</ele><time>2026-03-28T12:28:06.252Z</time></trkpt><trkpt lat="41.4691631" lon="12.8154991"><ele>17.0</ele><time>2026-03-28T12:28:08.252Z</time></trkpt><trkpt lat="41.4690717" lon="12.8155862"><ele>17.0</ele><time>2026-03-28T12:28:10.252Z</time></trkpt><trkpt lat="41.4689121" lon="12.8156952"><ele>17.0</ele><time>2026-03-28T12:28:13.252Z</time></trkpt><trkpt lat="41.4688558" lon="12.815742"><ele>17.0</ele><time>2026-03-28T12:28:14.252Z</time></trkpt><trkpt lat="41.4688017" lon="12.8157892"><ele>17.0</ele><time>2026-03-28T12:28:15.252Z</time></trkpt><trkpt lat="41.4687316" lon="12.815824"><ele>17.0</ele><time>2026-03-28T12:28:16.253Z</time></trkpt><trkpt lat="41.4686518" lon="12.8158825"><ele>17.0</ele><time>2026-03-28T12:28:18.253Z</time></trkpt><trkpt lat="41.4686088" lon="12.8160143"><ele>17.0</ele><time>2026-03-28T12:28:21.253Z</time></trkpt><trkpt lat="41.4686331" lon="12.8161329"><ele>17.0</ele><time>2026-03-28T12:28:23.252Z</time></trkpt><trkpt lat="41.4686827" lon="12.8162433"><ele>17.0</ele><time>2026-03-28T12:28:25.253Z</time></trkpt><trkpt lat="41.4687518" lon="12.8163763"><ele>17.0</ele><time>2026-03-28T12:28:27.252Z</time></trkpt><trkpt lat="41.4688065" lon="12.8165024"><ele>17.0</ele><time>2026-03-28T12:28:29.252Z</time></trkpt><trkpt lat="41.4688499" lon="12.8166081"><ele>17.0</ele><time>2026-03-28T12:28:31.253Z</time></trkpt><trkpt lat="41.4688695" lon="12.8167064"><ele>17.0</ele><time>2026-03-28T12:28:33.253Z</time></trkpt><trkpt lat="41.4687961" lon="12.8168023"><ele>17.0</ele><time>2026-03-28T12:28:36.253Z</time></trkpt><trkpt lat="41.4687232" lon="12.8168607"><ele>17.666666666666668</ele><time>2026-03-28T12:28:38.252Z</time></trkpt><trkpt lat="41.4686574" lon="12.8168899"><ele>18.333333333333336</ele><time>2026-03-28T12:28:39.253Z</time></trkpt><trkpt lat="41.4685925" lon="12.8169201"><ele>19.0</ele><time>2026-03-28T12:28:40.252Z</time></trkpt><trkpt lat="41.46852" lon="12.8169604"><ele>19.666666666666668</ele><time>2026-03-28T12:28:41.253Z</time></trkpt><trkpt lat="41.4683891" lon="12.8170406"><ele>20.333333333333332</ele><time>2026-03-28T12:28:43.253Z</time></trkpt><trkpt lat="41.4683328" lon="12.8170893"><ele>21.0</ele><time>2026-03-28T12:28:44.253Z</time></trkpt><trkpt lat="41.468224" lon="12.8171798"><ele>21.0</ele><time>2026-03-28T12:28:46.252Z</time></trkpt><trkpt lat="41.4681679" lon="12.8172202"><ele>21.0</ele><time>2026-03-28T12:28:47.252Z</time></trkpt><trkpt lat="41.4680969" lon="12.8172861"><ele>21.0</ele><time>2026-03-28T12:28:48.252Z</time></trkpt><trkpt lat="41.4679671" lon="12.8173752"><ele>21.0</ele><time>2026-03-28T12:28:50.252Z</time></trkpt><trkpt lat="41.4679068" lon="12.8174176"><ele>21.0</ele><time>2026-03-28T12:28:51.252Z</time></trkpt><trkpt lat="41.4678437" lon="12.8174574"><ele>21.0</ele><time>2026-03-28T12:28:52.253Z</time></trkpt><trkpt lat="41.4677812" lon="12.817509"><ele>21.142857142857142</ele><time>2026-03-28T12:28:53.252Z</time></trkpt><trkpt lat="41.4677111" lon="12.8175411"><ele>21.285714285714285</ele><time>2026-03-28T12:28:54.252Z</time></trkpt><trkpt lat="41.4676509" lon="12.8175726"><ele>21.42857142857143</ele><time>2026-03-28T12:28:55.252Z</time></trkpt><trkpt lat="41.4675875" lon="12.8176063"><ele>21.57142857142857</ele><time>2026-03-28T12:28:56.253Z</time></trkpt><trkpt lat="41.4675221" lon="12.8176467"><ele>21.714285714285715</ele><time>2026-03-28T12:28:57.252Z</time></trkpt><trkpt lat="41.4674432" lon="12.8177018"><ele>21.857142857142858</ele><time>2026-03-28T12:28:58.252Z</time></trkpt><trkpt lat="41.4673801" lon="12.8177476"><ele>22.0</ele><time>2026-03-28T12:28:59.252Z</time></trkpt><trkpt lat="41.4673074" lon="12.8177864"><ele>22.0</ele><time>2026-03-28T12:29:00.252Z</time></trkpt><trkpt lat="41.4672447" lon="12.8178199"><ele>22.0</ele><time>2026-03-28T12:29:01.253Z</time></trkpt><trkpt lat="41.4671873" lon="12.817858"><ele>22.0</ele><time>2026-03-28T12:29:02.253Z</time></trkpt><trkpt lat="41.4671204" lon="12.8178989"><ele>22.0</ele><time>2026-03-28T12:29:03.252Z</time></trkpt><trkpt lat="41.4670295" lon="12.8179346"><ele>22.0</ele><time>2026-03-28T12:29:05.252Z</time></trkpt><trkpt lat="41.466959" lon="12.8179536"><ele>22.0</ele><time>2026-03-28T12:29:06.252Z</time></trkpt><trkpt lat="41.4668767" lon="12.8178941"><ele>22.0</ele><time>2026-03-28T12:29:08.252Z</time></trkpt><trkpt lat="41.4667664" lon="12.8179105"><ele>22.0</ele><time>2026-03-28T12:29:10.252Z</time></trkpt><trkpt lat="41.4666691" lon="12.818004"><ele>22.0</ele><time>2026-03-28T12:29:12.253Z</time></trkpt><trkpt lat="41.466614" lon="12.8180512"><ele>22.0</ele><time>2026-03-28T12:29:13.252Z</time></trkpt><trkpt lat="41.4665519" lon="12.8180962"><ele>22.0</ele><time>2026-03-28T12:29:14.252Z</time></trkpt><trkpt lat="41.4664015" lon="12.8181901"><ele>22.0</ele><time>2026-03-28T12:29:16.252Z</time></trkpt><trkpt lat="41.4663172" lon="12.8182688"><ele>22.0</ele><time>2026-03-28T12:29:18.252Z</time></trkpt><trkpt lat="41.4662472" lon="12.8183181"><ele>22.0</ele><time>2026-03-28T12:29:19.252Z</time></trkpt><trkpt lat="41.4661724" lon="12.8184096"><ele>22.0</ele><time>2026-03-28T12:29:21.253Z</time></trkpt><trkpt lat="41.4661103" lon="12.8184387"><ele>22.0</ele><time>2026-03-28T12:29:22.252Z</time></trkpt><trkpt lat="41.46617" lon="12.818576"><ele>22.200000000000003</ele><time>2026-03-28T12:29:24.253Z</time></trkpt><trkpt lat="41.4662392" lon="12.8187133"><ele>22.4</ele><time>2026-03-28T12:29:26.253Z</time></trkpt><trkpt lat="41.4663012" lon="12.818826"><ele>22.6</ele><time>2026-03-28T12:29:28.253Z</time></trkpt><trkpt lat="41.4662902" lon="12.8189662"><ele>22.799999999999997</ele><time>2026-03-28T12:29:30.252Z</time></trkpt><trkpt lat="41.4662494" lon="12.8190997"><ele>23.0</ele><time>2026-03-28T12:29:32.252Z</time></trkpt><trkpt lat="41.4661896" lon="12.819126"><ele>23.0</ele><time>2026-03-28T12:29:33.252Z</time></trkpt><trkpt lat="41.4661248" lon="12.8191673"><ele>23.0</ele><time>2026-03-28T12:29:34.252Z</time></trkpt><trkpt lat="41.4660285" lon="12.8192161"><ele>23.0</ele><time>2026-03-28T12:29:35.253Z</time></trkpt><trkpt lat="41.4659722" lon="12.8192615"><ele>23.0</ele><time>2026-03-28T12:29:36.252Z</time></trkpt><trkpt lat="41.4659089" lon="12.819313"><ele>23.0</ele><time>2026-03-28T12:29:37.252Z</time></trkpt><trkpt lat="41.4658344" lon="12.8193683"><ele>23.0</ele><time>2026-03-28T12:29:38.252Z</time></trkpt><trkpt lat="41.4657513" lon="12.8194249"><ele>22.833333333333336</ele><time>2026-03-28T12:29:39.252Z</time></trkpt><trkpt lat="41.4656823" lon="12.8194573"><ele>22.666666666666668</ele><time>2026-03-28T12:29:40.252Z</time></trkpt><trkpt lat="41.4656061" lon="12.8194864"><ele>22.5</ele><time>2026-03-28T12:29:41.252Z</time></trkpt><trkpt lat="41.4654687" lon="12.8195641"><ele>22.333333333333332</ele><time>2026-03-28T12:29:43.252Z</time></trkpt><trkpt lat="41.4653943" lon="12.8195931"><ele>22.166666666666664</ele><time>2026-03-28T12:29:44.253Z</time></trkpt><trkpt lat="41.4653331" lon="12.8196391"><ele>22.0</ele><time>2026-03-28T12:29:45.252Z</time></trkpt><trkpt lat="41.4652455" lon="12.819737"><ele>22.0</ele><time>2026-03-28T12:29:47.252Z</time></trkpt><trkpt lat="41.4651556" lon="12.8197815"><ele>22.0</ele><time>2026-03-28T12:29:49.252Z</time></trkpt><trkpt lat="41.4652486" lon="12.8197084"><ele>22.0</ele><time>2026-03-28T12:29:57.253Z</time></trkpt><trkpt lat="41.4653793" lon="12.819639"><ele>22.0</ele><time>2026-03-28T12:29:59.253Z</time></trkpt><trkpt lat="41.4654884" lon="12.8195523"><ele>22.0</ele><time>2026-03-28T12:30:01.252Z</time></trkpt><trkpt lat="41.4655524" lon="12.8195136"><ele>22.0</ele><time>2026-03-28T12:30:02.252Z</time></trkpt><trkpt lat="41.4656999" lon="12.8194256"><ele>22.0</ele><time>2026-03-28T12:30:04.253Z</time></trkpt><trkpt lat="41.465771" lon="12.8193811"><ele>22.0</ele><time>2026-03-28T12:30:05.252Z</time></trkpt><trkpt lat="41.4658397" lon="12.8193337"><ele>22.0</ele><time>2026-03-28T12:30:06.252Z</time></trkpt><trkpt lat="41.4659137" lon="12.8192889"><ele>22.200000000000003</ele><time>2026-03-28T12:30:07.253Z</time></trkpt><trkpt lat="41.465983" lon="12.8192543"><ele>22.4</ele><time>2026-03-28T12:30:08.252Z</time></trkpt><trkpt lat="41.4660432" lon="12.8192113"><ele>22.6</ele><time>2026-03-28T12:30:09.252Z</time></trkpt><trkpt lat="41.4661063" lon="12.8191586"><ele>22.799999999999997</ele><time>2026-03-28T12:30:10.252Z</time></trkpt><trkpt lat="41.4662094" lon="12.8190686"><ele>23.0</ele><time>2026-03-28T12:30:12.252Z</time></trkpt><trkpt lat="41.4663132" lon="12.8189374"><ele>23.0</ele><time>2026-03-28T12:30:15.252Z</time></trkpt><trkpt lat="41.4662717" lon="12.8188619"><ele>23.0</ele><time>2026-03-28T12:30:16.253Z</time></trkpt><trkpt lat="41.4662211" lon="12.8187115"><ele>23.0</ele><time>2026-03-28T12:30:18.252Z</time></trkpt><trkpt lat="41.4661731" lon="12.8186215"><ele>23.0</ele><time>2026-03-28T12:30:19.253Z</time></trkpt><trkpt lat="41.4660973" lon="12.8184763"><ele>23.0</ele><time>2026-03-28T12:30:21.253Z</time></trkpt><trkpt lat="41.4660839" lon="12.8183641"><ele>23.2</ele><time>2026-03-28T12:30:23.252Z</time></trkpt><trkpt lat="41.4661449" lon="12.8183276"><ele>23.4</ele><time>2026-03-28T12:30:24.253Z</time></trkpt><trkpt lat="41.4662474" lon="12.8182546"><ele>23.599999999999998</ele><time>2026-03-28T12:30:26.252Z</time></trkpt><trkpt lat="41.4663098" lon="12.8182143"><ele>23.799999999999997</ele><time>2026-03-28T12:30:27.252Z</time></trkpt><trkpt lat="41.4663771" lon="12.8181651"><ele>24.0</ele><time>2026-03-28T12:30:28.252Z</time></trkpt><trkpt lat="41.4664895" lon="12.8180842"><ele>23.6</ele><time>2026-03-28T12:30:30.252Z</time></trkpt><trkpt lat="41.4666138" lon="12.8180078"><ele>23.2</ele><time>2026-03-28T12:30:32.252Z</time></trkpt><trkpt lat="41.4666749" lon="12.8179711"><ele>22.8</ele><time>2026-03-28T12:30:33.252Z</time></trkpt><trkpt lat="41.4667821" lon="12.8179112"><ele>22.400000000000002</ele><time>2026-03-28T12:30:35.253Z</time></trkpt><trkpt lat="41.4668617" lon="12.8178805"><ele>22.0</ele><time>2026-03-28T12:30:37.252Z</time></trkpt><trkpt lat="41.4669311" lon="12.8179363"><ele>22.0</ele><time>2026-03-28T12:30:39.252Z</time></trkpt><trkpt lat="41.467021" lon="12.8179259"><ele>22.0</ele><time>2026-03-28T12:30:41.252Z</time></trkpt><trkpt lat="41.4671299" lon="12.8178392"><ele>22.0</ele><time>2026-03-28T12:30:43.253Z</time></trkpt><trkpt lat="41.4671989" lon="12.8178065"><ele>22.0</ele><time>2026-03-28T12:30:44.253Z</time></trkpt><trkpt lat="41.4672662" lon="12.8177682"><ele>22.0</ele><time>2026-03-28T12:30:45.253Z</time></trkpt><trkpt lat="41.4673371" lon="12.8177184"><ele>22.0</ele><time>2026-03-28T12:30:46.252Z</time></trkpt><trkpt lat="41.4674012" lon="12.8176739"><ele>22.0</ele><time>2026-03-28T12:30:47.253Z</time></trkpt><trkpt lat="41.4674674" lon="12.8176297"><ele>22.0</ele><time>2026-03-28T12:30:48.252Z</time></trkpt><trkpt lat="41.4675335" lon="12.8175971"><ele>22.0</ele><time>2026-03-28T12:30:49.252Z</time></trkpt><trkpt lat="41.4676088" lon="12.817556"><ele>22.0</ele><time>2026-03-28T12:30:50.252Z</time></trkpt><trkpt lat="41.4676749" lon="12.8175174"><ele>22.0</ele><time>2026-03-28T12:30:51.252Z</time></trkpt><trkpt lat="41.4677428" lon="12.8174782"><ele>22.0</ele><time>2026-03-28T12:30:52.252Z</time></trkpt><trkpt lat="41.467819" lon="12.8174492"><ele>22.0</ele><time>2026-03-28T12:30:53.252Z</time></trkpt><trkpt lat="41.4679332" lon="12.8173759"><ele>22.0</ele><time>2026-03-28T12:30:55.252Z</time></trkpt><trkpt lat="41.4679939" lon="12.8173342"><ele>22.0</ele><time>2026-03-28T12:30:56.253Z</time></trkpt><trkpt lat="41.4680554" lon="12.8173122"><ele>22.0</ele><time>2026-03-28T12:30:57.253Z</time></trkpt><trkpt lat="41.4681197" lon="12.8172651"><ele>22.0</ele><time>2026-03-28T12:30:58.253Z</time></trkpt><trkpt lat="41.4681787" lon="12.8172242"><ele>22.0</ele><time>2026-03-28T12:30:59.252Z</time></trkpt><trkpt lat="41.468249" lon="12.8171947"><ele>21.857142857142858</ele><time>2026-03-28T12:31:00.252Z</time></trkpt><trkpt lat="41.4683235" lon="12.8171527"><ele>21.714285714285715</ele><time>2026-03-28T12:31:01.252Z</time></trkpt><trkpt lat="41.4683803" lon="12.8171119"><ele>21.57142857142857</ele><time>2026-03-28T12:31:02.252Z</time></trkpt><trkpt lat="41.468447" lon="12.8170623"><ele>21.42857142857143</ele><time>2026-03-28T12:31:03.252Z</time></trkpt><trkpt lat="41.4685087" lon="12.8170193"><ele>21.285714285714285</ele><time>2026-03-28T12:31:04.253Z</time></trkpt><trkpt lat="41.468566" lon="12.8169789"><ele>21.142857142857142</ele><time>2026-03-28T12:31:05.252Z</time></trkpt><trkpt lat="41.4686318" lon="12.8169327"><ele>21.0</ele><time>2026-03-28T12:31:06.253Z</time></trkpt><trkpt lat="41.4687169" lon="12.8168644"><ele>20.666666666666668</ele><time>2026-03-28T12:31:08.253Z</time></trkpt><trkpt lat="41.4687834" lon="12.8167966"><ele>20.333333333333332</ele><time>2026-03-28T12:31:10.252Z</time></trkpt><trkpt lat="41.4687887" lon="12.816666"><ele>20.0</ele><time>2026-03-28T12:31:13.252Z</time></trkpt><trkpt lat="41.4687654" lon="12.8165727"><ele>19.666666666666664</ele><time>2026-03-28T12:31:15.252Z</time></trkpt><trkpt lat="41.4687316" lon="12.8164653"><ele>19.333333333333332</ele><time>2026-03-28T12:31:17.252Z</time></trkpt><trkpt lat="41.4686904" lon="12.8163482"><ele>19.0</ele><time>2026-03-28T12:31:19.253Z</time></trkpt><trkpt lat="41.468638" lon="12.8162267"><ele>19.0</ele><time>2026-03-28T12:31:21.252Z</time></trkpt><trkpt lat="41.4686009" lon="12.8161419"><ele>19.0</ele><time>2026-03-28T12:31:22.252Z</time></trkpt><trkpt lat="41.4685781" lon="12.8160612"><ele>19.0</ele><time>2026-03-28T12:31:23.252Z</time></trkpt><trkpt lat="41.4685586" lon="12.8159227"><ele>19.0</ele><time>2026-03-28T12:31:25.252Z</time></trkpt><trkpt lat="41.4686323" lon="12.8158745"><ele>19.0</ele><time>2026-03-28T12:31:27.253Z</time></trkpt><trkpt lat="41.4687349" lon="12.8158176"><ele>19.0</ele><time>2026-03-28T12:31:29.252Z</time></trkpt><trkpt lat="41.4688331" lon="12.8157475"><ele>18.5</ele><time>2026-03-28T12:31:31.253Z</time></trkpt><trkpt lat="41.4689307" lon="12.8156824"><ele>18.0</ele><time>2026-03-28T12:31:33.252Z</time></trkpt><trkpt lat="41.4690267" lon="12.8156153"><ele>17.5</ele><time>2026-03-28T12:31:35.252Z</time></trkpt><trkpt lat="41.4691014" lon="12.8155396"><ele>17.0</ele><time>2026-03-28T12:31:37.252Z</time></trkpt><trkpt lat="41.4692568" lon="12.8154494"><ele>17.0</ele><time>2026-03-28T12:31:40.253Z</time></trkpt><trkpt lat="41.4693234" lon="12.8154225"><ele>17.0</ele><time>2026-03-28T12:31:42.252Z</time></trkpt><trkpt lat="41.4693823" lon="12.8155363"><ele>17.0</ele><time>2026-03-28T12:31:44.252Z</time></trkpt><trkpt lat="41.4694492" lon="12.8156913"><ele>17.0</ele><time>2026-03-28T12:31:46.252Z</time></trkpt><trkpt lat="41.4695035" lon="12.8158603"><ele>17.0</ele><time>2026-03-28T12:31:48.252Z</time></trkpt><trkpt lat="41.4695365" lon="12.8159649"><ele>17.0</ele><time>2026-03-28T12:31:49.252Z</time></trkpt><trkpt lat="41.4695689" lon="12.8160658"><ele>17.0</ele><time>2026-03-28T12:31:50.252Z</time></trkpt><trkpt lat="41.4696082" lon="12.8161621"><ele>17.0</ele><time>2026-03-28T12:31:51.253Z</time></trkpt><trkpt lat="41.4696497" lon="12.8162665"><ele>17.0</ele><time>2026-03-28T12:31:52.253Z</time></trkpt><trkpt lat="41.4696838" lon="12.8163616"><ele>17.0</ele><time>2026-03-28T12:31:53.252Z</time></trkpt><trkpt lat="41.4697222" lon="12.8164524"><ele>17.0</ele><time>2026-03-28T12:31:54.252Z</time></trkpt><trkpt lat="41.4697585" lon="12.8165499"><ele>16.833333333333336</ele><time>2026-03-28T12:31:55.252Z</time></trkpt><trkpt lat="41.4697912" lon="12.816629"><ele>16.666666666666668</ele><time>2026-03-28T12:31:56.252Z</time></trkpt><trkpt lat="41.469827" lon="12.8167146"><ele>16.5</ele><time>2026-03-28T12:31:57.252Z</time></trkpt><trkpt lat="41.4698466" lon="12.816797"><ele>16.333333333333332</ele><time>2026-03-28T12:31:58.252Z</time></trkpt><trkpt lat="41.469876" lon="12.8169093"><ele>16.166666666666664</ele><time>2026-03-28T12:31:59.252Z</time></trkpt><trkpt lat="41.4699407" lon="12.8170532"><ele>16.0</ele><time>2026-03-28T12:32:01.252Z</time></trkpt><trkpt lat="41.4699705" lon="12.8171441"><ele>15.999999999999998</ele><time>2026-03-28T12:32:02.252Z</time></trkpt><trkpt lat="41.4700047" lon="12.817228"><ele>16.0</ele><time>2026-03-28T12:32:03.252Z</time></trkpt><trkpt lat="41.4700425" lon="12.8173338"><ele>16.0</ele><time>2026-03-28T12:32:04.252Z</time></trkpt><trkpt lat="41.4700724" lon="12.8174329"><ele>16.0</ele><time>2026-03-28T12:32:05.252Z</time></trkpt><trkpt lat="41.4701091" lon="12.817538"><ele>15.999999999999998</ele><time>2026-03-28T12:32:06.253Z</time></trkpt><trkpt lat="41.4701484" lon="12.8176287"><ele>16.0</ele><time>2026-03-28T12:32:07.252Z</time></trkpt><trkpt lat="41.4701813" lon="12.8177192"><ele>16.400000000000002</ele><time>2026-03-28T12:32:08.252Z</time></trkpt><trkpt lat="41.4702471" lon="12.8179054"><ele>16.8</ele><time>2026-03-28T12:32:10.252Z</time></trkpt><trkpt lat="41.4702791" lon="12.8179958"><ele>17.200000000000003</ele><time>2026-03-28T12:32:11.252Z</time></trkpt><trkpt lat="41.4703079" lon="12.8181"><ele>17.6</ele><time>2026-03-28T12:32:12.252Z</time></trkpt><trkpt lat="41.4703365" lon="12.818187"><ele>18.0</ele><time>2026-03-28T12:32:13.253Z</time></trkpt><trkpt lat="41.47036" lon="12.8182701"><ele>18.0</ele><time>2026-03-28T12:32:14.252Z</time></trkpt><trkpt lat="41.4704039" lon="12.8183643"><ele>18.0</ele><time>2026-03-28T12:32:16.252Z</time></trkpt><trkpt lat="41.4704289" lon="12.818466"><ele>18.0</ele><time>2026-03-28T12:32:20.253Z</time></trkpt><trkpt lat="41.470493" lon="12.8184804"><ele>18.0</ele><time>2026-03-28T12:36:13.252Z</time></trkpt><trkpt lat="41.4705553" lon="12.8185499"><ele>18.0</ele><time>2026-03-28T12:36:16.252Z</time></trkpt><trkpt lat="41.4705375" lon="12.8186493"><ele>18.0</ele><time>2026-03-28T12:36:19.253Z</time></trkpt><trkpt lat="41.4704574" lon="12.8186907"><ele>17.833333333333332</ele><time>2026-03-28T12:36:22.253Z</time></trkpt><trkpt lat="41.4704584" lon="12.8188026"><ele>17.666666666666668</ele><time>2026-03-28T12:36:25.253Z</time></trkpt><trkpt lat="41.4705007" lon="12.8188858"><ele>17.5</ele><time>2026-03-28T12:36:27.253Z</time></trkpt><trkpt lat="41.4705548" lon="12.8189839"><ele>17.333333333333336</ele><time>2026-03-28T12:36:30.252Z</time></trkpt><trkpt lat="41.4705881" lon="12.8190863"><ele>17.166666666666668</ele><time>2026-03-28T12:36:32.253Z</time></trkpt><trkpt lat="41.4706282" lon="12.8192097"><ele>17.0</ele><time>2026-03-28T12:36:34.252Z</time></trkpt><trkpt lat="41.4706692" lon="12.8193599"><ele>17.0</ele><time>2026-03-28T12:36:36.252Z</time></trkpt><trkpt lat="41.4707181" lon="12.8194902"><ele>17.0</ele><time>2026-03-28T12:36:38.252Z</time></trkpt><trkpt lat="41.4707486" lon="12.8195794"><ele>17.0</ele><time>2026-03-28T12:36:39.252Z</time></trkpt><trkpt lat="41.4707775" lon="12.8196636"><ele>17.0</ele><time>2026-03-28T12:36:40.253Z</time></trkpt><trkpt lat="41.4708143" lon="12.8197354"><ele>17.0</ele><time>2026-03-28T12:36:41.252Z</time></trkpt><trkpt lat="41.4708694" lon="12.8198592"><ele>17.0</ele><time>2026-03-28T12:36:43.253Z</time></trkpt><trkpt lat="41.4709199" lon="12.8200159"><ele>17.0</ele><time>2026-03-28T12:36:45.252Z</time></trkpt><trkpt lat="41.470961" lon="12.8200832"><ele>17.0</ele><time>2026-03-28T12:36:46.252Z</time></trkpt><trkpt lat="41.4710032" lon="12.8202234"><ele>17.0</ele><time>2026-03-28T12:36:48.252Z</time></trkpt><trkpt lat="41.4710322" lon="12.8203183"><ele>17.0</ele><time>2026-03-28T12:36:49.252Z</time></trkpt><trkpt lat="41.4710659" lon="12.8204024"><ele>17.0</ele><time>2026-03-28T12:36:50.252Z</time></trkpt><trkpt lat="41.4710902" lon="12.8204901"><ele>17.0</ele><time>2026-03-28T12:36:51.253Z</time></trkpt><trkpt lat="41.4711121" lon="12.8205823"><ele>16.999999999999996</ele><time>2026-03-28T12:36:52.252Z</time></trkpt><trkpt lat="41.4711388" lon="12.8206687"><ele>17.0</ele><time>2026-03-28T12:36:53.253Z</time></trkpt><trkpt lat="41.4711734" lon="12.820751"><ele>17.0</ele><time>2026-03-28T12:36:54.252Z</time></trkpt><trkpt lat="41.4712139" lon="12.820817"><ele>17.0</ele><time>2026-03-28T12:36:55.252Z</time></trkpt><trkpt lat="41.4712657" lon="12.8208918"><ele>17.0</ele><time>2026-03-28T12:36:56.252Z</time></trkpt><trkpt lat="41.4713193" lon="12.820967"><ele>16.999999999999996</ele><time>2026-03-28T12:36:57.252Z</time></trkpt><trkpt lat="41.4713789" lon="12.8210236"><ele>17.0</ele><time>2026-03-28T12:36:58.252Z</time></trkpt><trkpt lat="41.4714456" lon="12.8210994"><ele>17.0</ele><time>2026-03-28T12:36:59.253Z</time></trkpt><trkpt lat="41.4715141" lon="12.8211783"><ele>17.0</ele><time>2026-03-28T12:37:00.252Z</time></trkpt><trkpt lat="41.471583" lon="12.8212546"><ele>17.0</ele><time>2026-03-28T12:37:01.252Z</time></trkpt><trkpt lat="41.4716515" lon="12.8213316"><ele>17.0</ele><time>2026-03-28T12:37:02.252Z</time></trkpt><trkpt lat="41.4717284" lon="12.8214025"><ele>17.0</ele><time>2026-03-28T12:37:03.252Z</time></trkpt><trkpt lat="41.4718093" lon="12.8214728"><ele>17.0</ele><time>2026-03-28T12:37:04.253Z</time></trkpt><trkpt lat="41.4718939" lon="12.8215177"><ele>17.0</ele><time>2026-03-28T12:37:05.252Z</time></trkpt><trkpt lat="41.4720555" lon="12.8215995"><ele>17.0</ele><time>2026-03-28T12:37:07.252Z</time></trkpt><trkpt lat="41.4721419" lon="12.8216346"><ele>17.0</ele><time>2026-03-28T12:37:08.252Z</time></trkpt><trkpt lat="41.4723078" lon="12.8216851"><ele>16.8</ele><time>2026-03-28T12:37:10.252Z</time></trkpt><trkpt lat="41.4724655" lon="12.8216823"><ele>16.6</ele><time>2026-03-28T12:37:12.253Z</time></trkpt><trkpt lat="41.4725425" lon="12.8216831"><ele>16.400000000000002</ele><time>2026-03-28T12:37:13.252Z</time></trkpt><trkpt lat="41.472647" lon="12.8216809"><ele>16.2</ele><time>2026-03-28T12:37:14.253Z</time></trkpt><trkpt lat="41.4727388" lon="12.8216805"><ele>16.0</ele><time>2026-03-28T12:37:15.252Z</time></trkpt><trkpt lat="41.4728312" lon="12.8216751"><ele>16.0</ele><time>2026-03-28T12:37:16.252Z</time></trkpt><trkpt lat="41.472926" lon="12.8216798"><ele>16.0</ele><time>2026-03-28T12:37:17.252Z</time></trkpt><trkpt lat="41.4730439" lon="12.8216892"><ele>16.0</ele><time>2026-03-28T12:37:18.252Z</time></trkpt><trkpt lat="41.4731812" lon="12.8216658"><ele>16.0</ele><time>2026-03-28T12:37:19.253Z</time></trkpt><trkpt lat="41.4733035" lon="12.8216693"><ele>16.25</ele><time>2026-03-28T12:37:20.252Z</time></trkpt><trkpt lat="41.4734197" lon="12.8216449"><ele>16.5</ele><time>2026-03-28T12:37:21.252Z</time></trkpt><trkpt lat="41.4735413" lon="12.8216275"><ele>16.75</ele><time>2026-03-28T12:37:22.252Z</time></trkpt><trkpt lat="41.4736709" lon="12.8216175"><ele>17.0</ele><time>2026-03-28T12:37:23.253Z</time></trkpt><trkpt lat="41.4738028" lon="12.8216017"><ele>17.0</ele><time>2026-03-28T12:37:24.252Z</time></trkpt><trkpt lat="41.4739209" lon="12.8215987"><ele>17.0</ele><time>2026-03-28T12:37:25.252Z</time></trkpt><trkpt lat="41.4740697" lon="12.8215985"><ele>17.0</ele><time>2026-03-28T12:37:26.252Z</time></trkpt><trkpt lat="41.4741763" lon="12.8215817"><ele>17.0</ele><time>2026-03-28T12:37:27.252Z</time></trkpt><trkpt lat="41.4744312" lon="12.8215384"><ele>17.333333333333336</ele><time>2026-03-28T12:37:29.252Z</time></trkpt><trkpt lat="41.4746256" lon="12.8215104"><ele>17.666666666666668</ele><time>2026-03-28T12:37:31.253Z</time></trkpt><trkpt lat="41.4747536" lon="12.8214978"><ele>18.0</ele><time>2026-03-28T12:37:32.253Z</time></trkpt><trkpt lat="41.4749116" lon="12.8214807"><ele>18.0</ele><time>2026-03-28T12:37:33.253Z</time></trkpt><trkpt lat="41.4750076" lon="12.8214949"><ele>18.0</ele><time>2026-03-28T12:37:34.252Z</time></trkpt><trkpt lat="41.4752347" lon="12.8215359"><ele>18.0</ele><time>2026-03-28T12:37:36.252Z</time></trkpt><trkpt lat="41.4754685" lon="12.8216483"><ele>18.0</ele><time>2026-03-28T12:37:38.252Z</time></trkpt><trkpt lat="41.4755741" lon="12.8217222"><ele>18.0</ele><time>2026-03-28T12:37:39.252Z</time></trkpt><trkpt lat="41.4757938" lon="12.8219002"><ele>18.0</ele><time>2026-03-28T12:37:41.253Z</time></trkpt><trkpt lat="41.4759683" lon="12.8221503"><ele>18.0</ele><time>2026-03-28T12:37:43.252Z</time></trkpt><trkpt lat="41.4760489" lon="12.8222874"><ele>18.0</ele><time>2026-03-28T12:37:44.253Z</time></trkpt><trkpt lat="41.4761087" lon="12.8224379"><ele>18.0</ele><time>2026-03-28T12:37:45.252Z</time></trkpt><trkpt lat="41.4762014" lon="12.8227543"><ele>18.0</ele><time>2026-03-28T12:37:47.253Z</time></trkpt><trkpt lat="41.4762341" lon="12.8228999"><ele>18.0</ele><time>2026-03-28T12:37:48.252Z</time></trkpt><trkpt lat="41.4762765" lon="12.8232145"><ele>18.0</ele><time>2026-03-28T12:37:50.252Z</time></trkpt><trkpt lat="41.4762816" lon="12.8233819"><ele>18.0</ele><time>2026-03-28T12:37:51.252Z</time></trkpt><trkpt lat="41.4762797" lon="12.8235672"><ele>18.0</ele><time>2026-03-28T12:37:52.253Z</time></trkpt><trkpt lat="41.4762702" lon="12.8237508"><ele>18.0</ele><time>2026-03-28T12:37:53.253Z</time></trkpt><trkpt lat="41.4762645" lon="12.8239194"><ele>18.0</ele><time>2026-03-28T12:37:54.252Z</time></trkpt><trkpt lat="41.4762536" lon="12.8240861"><ele>17.8</ele><time>2026-03-28T12:37:55.252Z</time></trkpt><trkpt lat="41.4762385" lon="12.8242399"><ele>17.6</ele><time>2026-03-28T12:37:56.253Z</time></trkpt><trkpt lat="41.4762291" lon="12.8243814"><ele>17.4</ele><time>2026-03-28T12:37:57.252Z</time></trkpt><trkpt lat="41.4762186" lon="12.8245163"><ele>17.2</ele><time>2026-03-28T12:37:58.252Z</time></trkpt><trkpt lat="41.4762189" lon="12.8246271"><ele>17.0</ele><time>2026-03-28T12:37:59.252Z</time></trkpt><trkpt lat="41.4762315" lon="12.8247464"><ele>17.4</ele><time>2026-03-28T12:38:00.253Z</time></trkpt><trkpt lat="41.4762396" lon="12.8248683"><ele>17.799999999999997</ele><time>2026-03-28T12:38:01.253Z</time></trkpt><trkpt lat="41.4762357" lon="12.8249869"><ele>18.2</ele><time>2026-03-28T12:38:02.252Z</time></trkpt><trkpt lat="41.4762258" lon="12.8251081"><ele>18.599999999999998</ele><time>2026-03-28T12:38:03.252Z</time></trkpt><trkpt lat="41.4762195" lon="12.8252332"><ele>19.0</ele><time>2026-03-28T12:38:04.252Z</time></trkpt><trkpt lat="41.4762169" lon="12.825388"><ele>19.0</ele><time>2026-03-28T12:38:05.252Z</time></trkpt><trkpt lat="41.4762129" lon="12.8255237"><ele>19.0</ele><time>2026-03-28T12:38:06.252Z</time></trkpt><trkpt lat="41.4761983" lon="12.8256763"><ele>19.0</ele><time>2026-03-28T12:38:07.252Z</time></trkpt><trkpt lat="41.4761705" lon="12.8259461"><ele>19.0</ele><time>2026-03-28T12:38:09.252Z</time></trkpt><trkpt lat="41.4761573" lon="12.8260772"><ele>19.0</ele><time>2026-03-28T12:38:10.253Z</time></trkpt><trkpt lat="41.4761407" lon="12.8262128"><ele>19.0</ele><time>2026-03-28T12:38:11.252Z</time></trkpt><trkpt lat="41.4761399" lon="12.8263161"><ele>19.0</ele><time>2026-03-28T12:38:12.252Z</time></trkpt><trkpt lat="41.4761305" lon="12.8264449"><ele>19.0</ele><time>2026-03-28T12:38:13.252Z</time></trkpt><trkpt lat="41.4761131" lon="12.8265668"><ele>19.0</ele><time>2026-03-28T12:38:14.252Z</time></trkpt><trkpt lat="41.4760785" lon="12.8267003"><ele>19.0</ele><time>2026-03-28T12:38:15.253Z</time></trkpt><trkpt lat="41.4760467" lon="12.8267909"><ele>19.0</ele><time>2026-03-28T12:38:16.253Z</time></trkpt><trkpt lat="41.4760144" lon="12.8268967"><ele>19.0</ele><time>2026-03-28T12:38:17.252Z</time></trkpt><trkpt lat="41.4759312" lon="12.8271801"><ele>19.0</ele><time>2026-03-28T12:38:19.252Z</time></trkpt><trkpt lat="41.4758918" lon="12.8273198"><ele>19.0</ele><time>2026-03-28T12:38:20.252Z</time></trkpt><trkpt lat="41.4758513" lon="12.827487"><ele>19.0</ele><time>2026-03-28T12:38:21.253Z</time></trkpt><trkpt lat="41.4758078" lon="12.827657"><ele>19.0</ele><time>2026-03-28T12:38:22.252Z</time></trkpt><trkpt lat="41.4757653" lon="12.8278161"><ele>19.0</ele><time>2026-03-28T12:38:23.252Z</time></trkpt><trkpt lat="41.4756403" lon="12.8281497"><ele>19.0</ele><time>2026-03-28T12:38:25.252Z</time></trkpt><trkpt lat="41.4755812" lon="12.8283171"><ele>19.0</ele><time>2026-03-28T12:38:26.253Z</time></trkpt><trkpt lat="41.4755345" lon="12.8284777"><ele>19.0</ele><time>2026-03-28T12:38:27.252Z</time></trkpt><trkpt lat="41.4754823" lon="12.8286309"><ele>19.0</ele><time>2026-03-28T12:38:28.252Z</time></trkpt><trkpt lat="41.4754332" lon="12.8287822"><ele>19.0</ele><time>2026-03-28T12:38:29.252Z</time></trkpt><trkpt lat="41.4753822" lon="12.8289182"><ele>19.0</ele><time>2026-03-28T12:38:30.252Z</time></trkpt><trkpt lat="41.4753453" lon="12.8290526"><ele>19.0</ele><time>2026-03-28T12:38:31.252Z</time></trkpt><trkpt lat="41.4752899" lon="12.8291863"><ele>19.0</ele><time>2026-03-28T12:38:32.252Z</time></trkpt><trkpt lat="41.4752605" lon="12.8293156"><ele>19.0</ele><time>2026-03-28T12:38:33.252Z</time></trkpt><trkpt lat="41.4751801" lon="12.8295491"><ele>18.599999999999998</ele><time>2026-03-28T12:38:35.252Z</time></trkpt><trkpt lat="41.4751429" lon="12.8296495"><ele>18.2</ele><time>2026-03-28T12:38:36.253Z</time></trkpt><trkpt lat="41.4751103" lon="12.8297348"><ele>17.799999999999997</ele><time>2026-03-28T12:38:37.252Z</time></trkpt><trkpt lat="41.4750726" lon="12.8298229"><ele>17.4</ele><time>2026-03-28T12:38:38.252Z</time></trkpt><trkpt lat="41.4749876" lon="12.8300208"><ele>17.0</ele><time>2026-03-28T12:38:40.252Z</time></trkpt><trkpt lat="41.474952" lon="12.8301057"><ele>17.2</ele><time>2026-03-28T12:38:41.253Z</time></trkpt><trkpt lat="41.4748923" lon="12.8302456"><ele>17.4</ele><time>2026-03-28T12:38:43.252Z</time></trkpt><trkpt lat="41.4749021" lon="12.8303495"><ele>17.6</ele><time>2026-03-28T12:38:45.252Z</time></trkpt><trkpt lat="41.4749546" lon="12.8304358"><ele>17.8</ele><time>2026-03-28T12:38:47.253Z</time></trkpt><trkpt lat="41.4749394" lon="12.8305582"><ele>18.0</ele><time>2026-03-28T12:38:49.252Z</time></trkpt><trkpt lat="41.4748986" lon="12.830671"><ele>18.0</ele><time>2026-03-28T12:38:50.252Z</time></trkpt><trkpt lat="41.4748068" lon="12.8309104"><ele>18.0</ele><time>2026-03-28T12:38:52.253Z</time></trkpt><trkpt lat="41.4747534" lon="12.8310682"><ele>18.0</ele><time>2026-03-28T12:38:53.252Z</time></trkpt><trkpt lat="41.4747033" lon="12.831225"><ele>18.0</ele><time>2026-03-28T12:38:54.252Z</time></trkpt><trkpt lat="41.4746579" lon="12.8313718"><ele>18.0</ele><time>2026-03-28T12:38:55.253Z</time></trkpt><trkpt lat="41.4745546" lon="12.8316937"><ele>18.0</ele><time>2026-03-28T12:38:57.252Z</time></trkpt><trkpt lat="41.4744908" lon="12.8318766"><ele>18.0</ele><time>2026-03-28T12:38:58.253Z</time></trkpt><trkpt lat="41.4743943" lon="12.8321463"><ele>18.0</ele><time>2026-03-28T12:39:00.253Z</time></trkpt><trkpt lat="41.4743551" lon="12.8322644"><ele>18.0</ele><time>2026-03-28T12:39:01.252Z</time></trkpt><trkpt lat="41.4742832" lon="12.8325617"><ele>18.0</ele><time>2026-03-28T12:39:03.253Z</time></trkpt><trkpt lat="41.4742702" lon="12.8327009"><ele>18.0</ele><time>2026-03-28T12:39:04.252Z</time></trkpt><trkpt lat="41.4742607" lon="12.832852"><ele>18.0</ele><time>2026-03-28T12:39:05.253Z</time></trkpt><trkpt lat="41.47425" lon="12.8331444"><ele>18.0</ele><time>2026-03-28T12:39:07.252Z</time></trkpt><trkpt lat="41.4742718" lon="12.8334149"><ele>18.75</ele><time>2026-03-28T12:39:09.252Z</time></trkpt><trkpt lat="41.4742883" lon="12.8336542"><ele>19.5</ele><time>2026-03-28T12:39:11.252Z</time></trkpt><trkpt lat="41.474304" lon="12.83375"><ele>20.25</ele><time>2026-03-28T12:39:12.252Z</time></trkpt><trkpt lat="41.4743633" lon="12.8339084"><ele>21.0</ele><time>2026-03-28T12:39:14.253Z</time></trkpt><trkpt lat="41.4744644" lon="12.834121"><ele>21.0</ele><time>2026-03-28T12:39:16.252Z</time></trkpt><trkpt lat="41.474608" lon="12.8343931"><ele>21.0</ele><time>2026-03-28T12:39:18.252Z</time></trkpt><trkpt lat="41.4747012" lon="12.8345196"><ele>21.0</ele><time>2026-03-28T12:39:19.252Z</time></trkpt><trkpt lat="41.4747864" lon="12.8346351"><ele>21.0</ele><time>2026-03-28T12:39:20.252Z</time></trkpt><trkpt lat="41.4748814" lon="12.8347384"><ele>21.0</ele><time>2026-03-28T12:39:21.252Z</time></trkpt><trkpt lat="41.4749726" lon="12.8348269"><ele>21.0</ele><time>2026-03-28T12:39:22.252Z</time></trkpt><trkpt lat="41.4750705" lon="12.8349026"><ele>21.0</ele><time>2026-03-28T12:39:23.253Z</time></trkpt><trkpt lat="41.4751597" lon="12.8349558"><ele>21.0</ele><time>2026-03-28T12:39:24.252Z</time></trkpt><trkpt lat="41.4752562" lon="12.8349998"><ele>20.666666666666668</ele><time>2026-03-28T12:39:25.252Z</time></trkpt><trkpt lat="41.4754476" lon="12.8350777"><ele>20.333333333333336</ele><time>2026-03-28T12:39:27.252Z</time></trkpt><trkpt lat="41.4756382" lon="12.8351545"><ele>20.0</ele><time>2026-03-28T12:39:29.253Z</time></trkpt><trkpt lat="41.4757238" lon="12.8351858"><ele>20.5</ele><time>2026-03-28T12:39:30.253Z</time></trkpt><trkpt lat="41.4758884" lon="12.8352364"><ele>21.0</ele><time>2026-03-28T12:39:32.252Z</time></trkpt><trkpt lat="41.4759735" lon="12.8352702"><ele>21.5</ele><time>2026-03-28T12:39:33.253Z</time></trkpt><trkpt lat="41.4760652" lon="12.8353051"><ele>22.0</ele><time>2026-03-28T12:39:34.252Z</time></trkpt><trkpt lat="41.4762316" lon="12.8353442"><ele>22.25</ele><time>2026-03-28T12:39:36.252Z</time></trkpt><trkpt lat="41.4763155" lon="12.8353729"><ele>22.5</ele><time>2026-03-28T12:39:37.252Z</time></trkpt><trkpt lat="41.4764701" lon="12.8354086"><ele>22.75</ele><time>2026-03-28T12:39:39.252Z</time></trkpt><trkpt lat="41.4766053" lon="12.83547"><ele>23.0</ele><time>2026-03-28T12:39:41.252Z</time></trkpt><trkpt lat="41.4767319" lon="12.835569"><ele>23.0</ele><time>2026-03-28T12:39:43.253Z</time></trkpt><trkpt lat="41.4768339" lon="12.8356137"><ele>23.0</ele><time>2026-03-28T12:39:45.252Z</time></trkpt><trkpt lat="41.4769361" lon="12.8356444"><ele>23.0</ele><time>2026-03-28T12:39:47.252Z</time></trkpt><trkpt lat="41.4770701" lon="12.8356808"><ele>23.0</ele><time>2026-03-28T12:39:49.252Z</time></trkpt><trkpt lat="41.4772096" lon="12.8357422"><ele>23.0</ele><time>2026-03-28T12:39:51.253Z</time></trkpt><trkpt lat="41.4772781" lon="12.8357576"><ele>23.0</ele><time>2026-03-28T12:39:52.252Z</time></trkpt><trkpt lat="41.4773465" lon="12.8357774"><ele>23.0</ele><time>2026-03-28T12:39:53.252Z</time></trkpt><trkpt lat="41.4774227" lon="12.8358054"><ele>23.0</ele><time>2026-03-28T12:39:54.252Z</time></trkpt><trkpt lat="41.4774958" lon="12.8358343"><ele>23.0</ele><time>2026-03-28T12:39:55.253Z</time></trkpt><trkpt lat="41.4775694" lon="12.8358643"><ele>23.0</ele><time>2026-03-28T12:39:56.253Z</time></trkpt><trkpt lat="41.477648" lon="12.8358987"><ele>23.0</ele><time>2026-03-28T12:39:57.252Z</time></trkpt><trkpt lat="41.4777284" lon="12.8359281"><ele>23.0</ele><time>2026-03-28T12:39:58.252Z</time></trkpt><trkpt lat="41.4778022" lon="12.8359625"><ele>23.0</ele><time>2026-03-28T12:39:59.252Z</time></trkpt><trkpt lat="41.4778816" lon="12.8359866"><ele>23.0</ele><time>2026-03-28T12:40:00.253Z</time></trkpt><trkpt lat="41.4779562" lon="12.8360156"><ele>23.0</ele><time>2026-03-28T12:40:01.252Z</time></trkpt><trkpt lat="41.4780234" lon="12.8360449"><ele>23.0</ele><time>2026-03-28T12:40:02.252Z</time></trkpt><trkpt lat="41.4781539" lon="12.8361002"><ele>22.5</ele><time>2026-03-28T12:40:04.253Z</time></trkpt><trkpt lat="41.4782781" lon="12.8361381"><ele>22.0</ele><time>2026-03-28T12:40:06.252Z</time></trkpt><trkpt lat="41.4784074" lon="12.8361768"><ele>21.5</ele><time>2026-03-28T12:40:08.253Z</time></trkpt><trkpt lat="41.4785676" lon="12.8362153"><ele>21.0</ele><time>2026-03-28T12:40:10.252Z</time></trkpt><trkpt lat="41.4787316" lon="12.8362557"><ele>21.333333333333332</ele><time>2026-03-28T12:40:12.252Z</time></trkpt><trkpt lat="41.478878" lon="12.8363065"><ele>21.666666666666664</ele><time>2026-03-28T12:40:14.253Z</time></trkpt><trkpt lat="41.4790417" lon="12.8363405"><ele>22.0</ele><time>2026-03-28T12:40:16.253Z</time></trkpt><trkpt lat="41.4791878" lon="12.8363785"><ele>22.0</ele><time>2026-03-28T12:40:18.252Z</time></trkpt><trkpt lat="41.4793528" lon="12.8364139"><ele>22.0</ele><time>2026-03-28T12:40:20.252Z</time></trkpt><trkpt lat="41.47943" lon="12.8364416"><ele>22.0</ele><time>2026-03-28T12:40:21.252Z</time></trkpt><trkpt lat="41.4795004" lon="12.8364708"><ele>22.0</ele><time>2026-03-28T12:40:22.253Z</time></trkpt><trkpt lat="41.4796328" lon="12.8365174"><ele>22.0</ele><time>2026-03-28T12:40:24.252Z</time></trkpt><trkpt lat="41.4797059" lon="12.836516"><ele>22.0</ele><time>2026-03-28T12:40:25.252Z</time></trkpt><trkpt lat="41.4797762" lon="12.8365072"><ele>22.0</ele><time>2026-03-28T12:40:26.252Z</time></trkpt><trkpt lat="41.4798509" lon="12.8364989"><ele>22.0</ele><time>2026-03-28T12:40:27.253Z</time></trkpt><trkpt lat="41.4800136" lon="12.8364727"><ele>22.0</ele><time>2026-03-28T12:40:29.252Z</time></trkpt><trkpt lat="41.480104" lon="12.8364595"><ele>22.0</ele><time>2026-03-28T12:40:30.252Z</time></trkpt><trkpt lat="41.4801801" lon="12.8364405"><ele>22.0</ele><time>2026-03-28T12:40:31.253Z</time></trkpt><trkpt lat="41.480259" lon="12.836417"><ele>22.0</ele><time>2026-03-28T12:40:32.253Z</time></trkpt><trkpt lat="41.4803371" lon="12.836398"><ele>22.0</ele><time>2026-03-28T12:40:33.253Z</time></trkpt><trkpt lat="41.4804048" lon="12.8363711"><ele>22.0</ele><time>2026-03-28T12:40:34.252Z</time></trkpt><trkpt lat="41.4805719" lon="12.8363218"><ele>21.5</ele><time>2026-03-28T12:40:36.252Z</time></trkpt><trkpt lat="41.4806653" lon="12.8362968"><ele>21.0</ele><time>2026-03-28T12:40:37.252Z</time></trkpt><trkpt lat="41.4807448" lon="12.8362742"><ele>20.5</ele><time>2026-03-28T12:40:38.252Z</time></trkpt><trkpt lat="41.4809054" lon="12.8362279"><ele>20.0</ele><time>2026-03-28T12:40:40.252Z</time></trkpt><trkpt lat="41.4810741" lon="12.8361683"><ele>20.0</ele><time>2026-03-28T12:40:42.253Z</time></trkpt><trkpt lat="41.4811511" lon="12.8361427"><ele>20.0</ele><time>2026-03-28T12:40:43.252Z</time></trkpt><trkpt lat="41.481235" lon="12.8361185"><ele>20.0</ele><time>2026-03-28T12:40:44.253Z</time></trkpt><trkpt lat="41.4813163" lon="12.8360926"><ele>20.0</ele><time>2026-03-28T12:40:45.252Z</time></trkpt><trkpt lat="41.4814743" lon="12.8360374"><ele>20.0</ele><time>2026-03-28T12:40:47.252Z</time></trkpt><trkpt lat="41.4815387" lon="12.8360155"><ele>20.25</ele><time>2026-03-28T12:40:48.252Z</time></trkpt><trkpt lat="41.4816594" lon="12.8359508"><ele>20.5</ele><time>2026-03-28T12:40:50.253Z</time></trkpt><trkpt lat="41.4817902" lon="12.8358579"><ele>20.75</ele><time>2026-03-28T12:40:52.252Z</time></trkpt><trkpt lat="41.4818507" lon="12.835816"><ele>21.0</ele><time>2026-03-28T12:40:53.252Z</time></trkpt><trkpt lat="41.4820083" lon="12.8357203"><ele>21.75</ele><time>2026-03-28T12:40:55.252Z</time></trkpt><trkpt lat="41.4821585" lon="12.835632"><ele>22.5</ele><time>2026-03-28T12:40:57.252Z</time></trkpt><trkpt lat="41.4823089" lon="12.8355348"><ele>23.25</ele><time>2026-03-28T12:40:59.252Z</time></trkpt><trkpt lat="41.4823908" lon="12.835478"><ele>24.0</ele><time>2026-03-28T12:41:00.253Z</time></trkpt><trkpt lat="41.4824822" lon="12.8354379"><ele>24.0</ele><time>2026-03-28T12:41:01.253Z</time></trkpt><trkpt lat="41.4825551" lon="12.8353809"><ele>24.0</ele><time>2026-03-28T12:41:02.252Z</time></trkpt><trkpt lat="41.482645" lon="12.8353271"><ele>24.0</ele><time>2026-03-28T12:41:03.252Z</time></trkpt><trkpt lat="41.4827312" lon="12.8352742"><ele>24.0</ele><time>2026-03-28T12:41:04.252Z</time></trkpt><trkpt lat="41.482816" lon="12.8352248"><ele>24.0</ele><time>2026-03-28T12:41:05.252Z</time></trkpt><trkpt lat="41.4829001" lon="12.8351816"><ele>23.666666666666668</ele><time>2026-03-28T12:41:06.253Z</time></trkpt><trkpt lat="41.4829671" lon="12.8351329"><ele>23.333333333333332</ele><time>2026-03-28T12:41:07.252Z</time></trkpt><trkpt lat="41.483038" lon="12.8350981"><ele>23.0</ele><time>2026-03-28T12:41:08.252Z</time></trkpt><trkpt lat="41.4831277" lon="12.8350533"><ele>22.666666666666664</ele><time>2026-03-28T12:41:10.252Z</time></trkpt><trkpt lat="41.4832149" lon="12.8350154"><ele>22.333333333333332</ele><time>2026-03-28T12:44:29.252Z</time></trkpt><trkpt lat="41.4832829" lon="12.8349721"><ele>22.0</ele><time>2026-03-28T12:44:32.252Z</time></trkpt><trkpt lat="41.4833894" lon="12.8349153"><ele>22.0</ele><time>2026-03-28T12:44:34.252Z</time></trkpt><trkpt lat="41.4835273" lon="12.8348467"><ele>22.0</ele><time>2026-03-28T12:44:37.252Z</time></trkpt><trkpt lat="41.4836331" lon="12.8347872"><ele>22.0</ele><time>2026-03-28T12:44:39.252Z</time></trkpt><trkpt lat="41.4836988" lon="12.8347521"><ele>22.0</ele><time>2026-03-28T12:44:40.253Z</time></trkpt><trkpt lat="41.4837599" lon="12.8347213"><ele>22.0</ele><time>2026-03-28T12:44:41.252Z</time></trkpt><trkpt lat="41.4838736" lon="12.8346595"><ele>22.666666666666664</ele><time>2026-03-28T12:44:43.252Z</time></trkpt><trkpt lat="41.4839433" lon="12.8346223"><ele>23.333333333333332</ele><time>2026-03-28T12:44:44.252Z</time></trkpt><trkpt lat="41.4840067" lon="12.8345865"><ele>24.0</ele><time>2026-03-28T12:44:45.252Z</time></trkpt><trkpt lat="41.4841324" lon="12.8345049"><ele>24.666666666666664</ele><time>2026-03-28T12:44:47.252Z</time></trkpt><trkpt lat="41.4842039" lon="12.8344687"><ele>25.333333333333332</ele><time>2026-03-28T12:44:48.252Z</time></trkpt><trkpt lat="41.484268" lon="12.8344288"><ele>26.0</ele><time>2026-03-28T12:44:49.253Z</time></trkpt><trkpt lat="41.4843379" lon="12.8343856"><ele>25.999999999999996</ele><time>2026-03-28T12:44:50.252Z</time></trkpt><trkpt lat="41.4844055" lon="12.8343527"><ele>26.0</ele><time>2026-03-28T12:44:51.253Z</time></trkpt><trkpt lat="41.4844666" lon="12.8343206"><ele>26.0</ele><time>2026-03-28T12:44:52.253Z</time></trkpt><trkpt lat="41.4845325" lon="12.8342825"><ele>26.0</ele><time>2026-03-28T12:44:53.252Z</time></trkpt><trkpt lat="41.4846571" lon="12.834214"><ele>25.999999999999996</ele><time>2026-03-28T12:44:55.252Z</time></trkpt><trkpt lat="41.4847225" lon="12.8341776"><ele>26.0</ele><time>2026-03-28T12:44:56.252Z</time></trkpt><trkpt lat="41.4847846" lon="12.8341487"><ele>25.6</ele><time>2026-03-28T12:44:57.253Z</time></trkpt><trkpt lat="41.4848442" lon="12.8341176"><ele>25.200000000000003</ele><time>2026-03-28T12:44:58.252Z</time></trkpt><trkpt lat="41.4849756" lon="12.8340594"><ele>24.799999999999997</ele><time>2026-03-28T12:45:00.252Z</time></trkpt><trkpt lat="41.485105" lon="12.8340059"><ele>24.4</ele><time>2026-03-28T12:45:02.252Z</time></trkpt><trkpt lat="41.4852083" lon="12.8339611"><ele>24.0</ele><time>2026-03-28T12:45:04.252Z</time></trkpt><trkpt lat="41.4853136" lon="12.8338888"><ele>24.0</ele><time>2026-03-28T12:45:06.252Z</time></trkpt><trkpt lat="41.4853972" lon="12.8338191"><ele>24.0</ele><time>2026-03-28T12:45:08.252Z</time></trkpt><trkpt lat="41.485519" lon="12.8337409"><ele>24.0</ele><time>2026-03-28T12:45:10.253Z</time></trkpt><trkpt lat="41.4856401" lon="12.8336746"><ele>24.0</ele><time>2026-03-28T12:45:12.252Z</time></trkpt><trkpt lat="41.4858029" lon="12.8335589"><ele>24.4</ele><time>2026-03-28T12:45:15.253Z</time></trkpt><trkpt lat="41.4859162" lon="12.8334858"><ele>24.799999999999997</ele><time>2026-03-28T12:45:17.253Z</time></trkpt><trkpt lat="41.4860459" lon="12.8334155"><ele>25.200000000000003</ele><time>2026-03-28T12:45:19.252Z</time></trkpt><trkpt lat="41.486134" lon="12.8333717"><ele>25.6</ele><time>2026-03-28T12:45:20.253Z</time></trkpt><trkpt lat="41.486219" lon="12.8333385"><ele>26.0</ele><time>2026-03-28T12:45:21.252Z</time></trkpt><trkpt lat="41.4863818" lon="12.8332637"><ele>26.25</ele><time>2026-03-28T12:45:23.253Z</time></trkpt><trkpt lat="41.48646" lon="12.8332291"><ele>26.5</ele><time>2026-03-28T12:45:24.252Z</time></trkpt><trkpt lat="41.4866028" lon="12.8331599"><ele>26.75</ele><time>2026-03-28T12:45:26.253Z</time></trkpt><trkpt lat="41.4867283" lon="12.8331031"><ele>27.0</ele><time>2026-03-28T12:45:28.253Z</time></trkpt><trkpt lat="41.4868573" lon="12.8330445"><ele>27.0</ele><time>2026-03-28T12:45:30.252Z</time></trkpt><trkpt lat="41.4869223" lon="12.8330207"><ele>27.0</ele><time>2026-03-28T12:45:31.252Z</time></trkpt><trkpt lat="41.4869879" lon="12.8330002"><ele>27.0</ele><time>2026-03-28T12:45:32.253Z</time></trkpt><trkpt lat="41.4870532" lon="12.8329929"><ele>27.0</ele><time>2026-03-28T12:45:33.252Z</time></trkpt><trkpt lat="41.4871596" lon="12.8329585"><ele>27.0</ele><time>2026-03-28T12:45:35.252Z</time></trkpt><trkpt lat="41.4872347" lon="12.8329329"><ele>27.0</ele><time>2026-03-28T12:45:37.252Z</time></trkpt><trkpt lat="41.4872991" lon="12.8329001"><ele>26.6</ele><time>2026-03-28T12:45:42.252Z</time></trkpt><trkpt lat="41.4873589" lon="12.8328605"><ele>26.200000000000003</ele><time>2026-03-28T12:45:46.253Z</time></trkpt><trkpt lat="41.4874708" lon="12.8328187"><ele>25.8</ele><time>2026-03-28T12:45:48.252Z</time></trkpt><trkpt lat="41.4875793" lon="12.8327949"><ele>25.4</ele><time>2026-03-28T12:45:50.252Z</time></trkpt><trkpt lat="41.4877071" lon="12.8327719"><ele>25.0</ele><time>2026-03-28T12:45:52.253Z</time></trkpt><trkpt lat="41.4877773" lon="12.8327597"><ele>25.0</ele><time>2026-03-28T12:45:53.252Z</time></trkpt><trkpt lat="41.4878871" lon="12.832737"><ele>25.0</ele><time>2026-03-28T12:45:55.253Z</time></trkpt><trkpt lat="41.4880135" lon="12.8327144"><ele>25.0</ele><time>2026-03-28T12:45:57.252Z</time></trkpt><trkpt lat="41.4881358" lon="12.8326876"><ele>25.0</ele><time>2026-03-28T12:45:59.252Z</time></trkpt><trkpt lat="41.488251" lon="12.8326699"><ele>24.8</ele><time>2026-03-28T12:46:01.253Z</time></trkpt><trkpt lat="41.4883489" lon="12.8326526"><ele>24.6</ele><time>2026-03-28T12:46:03.253Z</time></trkpt><trkpt lat="41.4884602" lon="12.8326167"><ele>24.4</ele><time>2026-03-28T12:46:06.252Z</time></trkpt><trkpt lat="41.4885398" lon="12.8326236"><ele>24.2</ele><time>2026-03-28T12:46:08.252Z</time></trkpt><trkpt lat="41.4886212" lon="12.8326265"><ele>24.0</ele><time>2026-03-28T12:46:10.253Z</time></trkpt><trkpt lat="41.4887099" lon="12.8326219"><ele>23.799999999999997</ele><time>2026-03-28T12:46:12.252Z</time></trkpt><trkpt lat="41.4887875" lon="12.8326264"><ele>23.599999999999998</ele><time>2026-03-28T12:46:14.253Z</time></trkpt><trkpt lat="41.4888693" lon="12.8326345"><ele>23.4</ele><time>2026-03-28T12:46:16.251Z</time></trkpt><trkpt lat="41.4889825" lon="12.8326332"><ele>23.2</ele><time>2026-03-28T12:46:19.253Z</time></trkpt><trkpt lat="41.4890683" lon="12.8326355"><ele>23.0</ele><time>2026-03-28T12:46:21.252Z</time></trkpt><trkpt lat="41.4891657" lon="12.8326374"><ele>23.2</ele><time>2026-03-28T12:46:23.252Z</time></trkpt><trkpt lat="41.4892372" lon="12.8326422"><ele>23.4</ele><time>2026-03-28T12:46:25.252Z</time></trkpt><trkpt lat="41.4893418" lon="12.8326609"><ele>23.599999999999998</ele><time>2026-03-28T12:46:27.252Z</time></trkpt><trkpt lat="41.4894492" lon="12.8326687"><ele>23.799999999999997</ele><time>2026-03-28T12:46:29.252Z</time></trkpt><trkpt lat="41.4895525" lon="12.8326733"><ele>24.0</ele><time>2026-03-28T12:46:31.253Z</time></trkpt><trkpt lat="41.4896682" lon="12.8326846"><ele>24.2</ele><time>2026-03-28T12:46:33.252Z</time></trkpt><trkpt lat="41.4897706" lon="12.8326739"><ele>24.4</ele><time>2026-03-28T12:46:35.252Z</time></trkpt><trkpt lat="41.4898351" lon="12.8326746"><ele>24.6</ele><time>2026-03-28T12:46:36.252Z</time></trkpt><trkpt lat="41.4899541" lon="12.8326904"><ele>24.8</ele><time>2026-03-28T12:46:38.252Z</time></trkpt><trkpt lat="41.4900721" lon="12.8326983"><ele>25.0</ele><time>2026-03-28T12:46:40.252Z</time></trkpt><trkpt lat="41.4901781" lon="12.8326957"><ele>25.0</ele><time>2026-03-28T12:46:42.253Z</time></trkpt><trkpt lat="41.4902757" lon="12.8327041"><ele>25.0</ele><time>2026-03-28T12:46:44.252Z</time></trkpt><trkpt lat="41.4903906" lon="12.8327089"><ele>25.0</ele><time>2026-03-28T12:46:46.252Z</time></trkpt><trkpt lat="41.4904978" lon="12.8327187"><ele>25.0</ele><time>2026-03-28T12:46:48.253Z</time></trkpt><trkpt lat="41.4905945" lon="12.8327244"><ele>25.0</ele><time>2026-03-28T12:46:50.252Z</time></trkpt><trkpt lat="41.4907428" lon="12.8327495"><ele>25.6</ele><time>2026-03-28T12:46:53.252Z</time></trkpt><trkpt lat="41.490854" lon="12.8327562"><ele>26.2</ele><time>2026-03-28T12:46:55.252Z</time></trkpt><trkpt lat="41.4909482" lon="12.8327614"><ele>26.799999999999997</ele><time>2026-03-28T12:46:57.252Z</time></trkpt><trkpt lat="41.4910372" lon="12.832764"><ele>27.4</ele><time>2026-03-28T12:46:59.252Z</time></trkpt><trkpt lat="41.4911297" lon="12.8327814"><ele>28.0</ele><time>2026-03-28T12:47:01.253Z</time></trkpt><trkpt lat="41.4912363" lon="12.8327993"><ele>28.0</ele><time>2026-03-28T12:47:03.253Z</time></trkpt><trkpt lat="41.4913404" lon="12.8328075"><ele>27.999999999999996</ele><time>2026-03-28T12:47:05.252Z</time></trkpt><trkpt lat="41.4914047" lon="12.832815"><ele>27.999999999999996</ele><time>2026-03-28T12:47:06.252Z</time></trkpt><trkpt lat="41.4915243" lon="12.8328238"><ele>28.0</ele><time>2026-03-28T12:47:08.252Z</time></trkpt><trkpt lat="41.4915905" lon="12.8328358"><ele>28.0</ele><time>2026-03-28T12:47:09.252Z</time></trkpt><trkpt lat="41.4917678" lon="12.8328599"><ele>28.0</ele><time>2026-03-28T12:47:12.252Z</time></trkpt><trkpt lat="41.4918896" lon="12.8328775"><ele>28.0</ele><time>2026-03-28T12:47:14.253Z</time></trkpt><trkpt lat="41.492027" lon="12.8328992"><ele>28.0</ele><time>2026-03-28T12:47:16.253Z</time></trkpt><trkpt lat="41.4921267" lon="12.8329158"><ele>28.0</ele><time>2026-03-28T12:47:18.253Z</time></trkpt><trkpt lat="41.4922433" lon="12.8329318"><ele>28.25</ele><time>2026-03-28T12:47:20.253Z</time></trkpt><trkpt lat="41.4923601" lon="12.8329505"><ele>28.5</ele><time>2026-03-28T12:47:22.252Z</time></trkpt><trkpt lat="41.4924204" lon="12.8329133"><ele>28.75</ele><time>2026-03-28T12:47:23.252Z</time></trkpt><trkpt lat="41.4925904" lon="12.8328627"><ele>29.0</ele><time>2026-03-28T12:47:26.252Z</time></trkpt><trkpt lat="41.4927031" lon="12.8328012"><ele>29.0</ele><time>2026-03-28T12:47:28.253Z</time></trkpt><trkpt lat="41.4928736" lon="12.8327831"><ele>29.0</ele><time>2026-03-28T12:47:31.252Z</time></trkpt><trkpt lat="41.4929978" lon="12.8327925"><ele>29.0</ele><time>2026-03-28T12:47:33.252Z</time></trkpt><trkpt lat="41.4931327" lon="12.8327838"><ele>29.0</ele><time>2026-03-28T12:47:35.252Z</time></trkpt><trkpt lat="41.4932575" lon="12.8327761"><ele>28.75</ele><time>2026-03-28T12:47:37.252Z</time></trkpt><trkpt lat="41.4934532" lon="12.8328785"><ele>28.5</ele><time>2026-03-28T12:47:40.253Z</time></trkpt><trkpt lat="41.4935389" lon="12.8328806"><ele>28.25</ele><time>2026-03-28T12:47:41.252Z</time></trkpt><trkpt lat="41.493613" lon="12.8329172"><ele>28.0</ele><time>2026-03-28T12:47:42.252Z</time></trkpt><trkpt lat="41.4937695" lon="12.8329593"><ele>27.666666666666668</ele><time>2026-03-28T12:47:44.252Z</time></trkpt><trkpt lat="41.4939272" lon="12.8330141"><ele>27.333333333333336</ele><time>2026-03-28T12:47:46.252Z</time></trkpt><trkpt lat="41.4940821" lon="12.8330589"><ele>27.0</ele><time>2026-03-28T12:47:48.252Z</time></trkpt><trkpt lat="41.4942314" lon="12.8331044"><ele>27.0</ele><time>2026-03-28T12:47:50.252Z</time></trkpt><trkpt lat="41.4943515" lon="12.8331694"><ele>27.0</ele><time>2026-03-28T12:47:52.252Z</time></trkpt><trkpt lat="41.494513" lon="12.833231"><ele>27.0</ele><time>2026-03-28T12:47:55.252Z</time></trkpt><trkpt lat="41.4946575" lon="12.8332412"><ele>27.0</ele><time>2026-03-28T12:47:57.252Z</time></trkpt><trkpt lat="41.4947366" lon="12.833254"><ele>26.0</ele><time>2026-03-28T12:47:58.252Z</time></trkpt><trkpt lat="41.4948991" lon="12.8332886"><ele>25.0</ele><time>2026-03-28T12:48:00.253Z</time></trkpt><trkpt lat="41.4950614" lon="12.8333402"><ele>24.0</ele><time>2026-03-28T12:48:02.252Z</time></trkpt><trkpt lat="41.4952469" lon="12.8333873"><ele>24.0</ele><time>2026-03-28T12:48:04.252Z</time></trkpt><trkpt lat="41.495355" lon="12.8334251"><ele>24.0</ele><time>2026-03-28T12:48:05.252Z</time></trkpt><trkpt lat="41.4955918" lon="12.8334865"><ele>24.0</ele><time>2026-03-28T12:48:07.252Z</time></trkpt><trkpt lat="41.4957195" lon="12.8335096"><ele>25.0</ele><time>2026-03-28T12:48:08.252Z</time></trkpt><trkpt lat="41.4959769" lon="12.8335733"><ele>26.0</ele><time>2026-03-28T12:48:10.252Z</time></trkpt><trkpt lat="41.4960943" lon="12.8336013"><ele>27.0</ele><time>2026-03-28T12:48:11.252Z</time></trkpt><trkpt lat="41.4962131" lon="12.83363"><ele>27.0</ele><time>2026-03-28T12:48:12.252Z</time></trkpt><trkpt lat="41.4963319" lon="12.8336559"><ele>27.0</ele><time>2026-03-28T12:48:13.252Z</time></trkpt><trkpt lat="41.4964428" lon="12.83368"><ele>27.0</ele><time>2026-03-28T12:48:14.252Z</time></trkpt><trkpt lat="41.4965433" lon="12.8336995"><ele>27.0</ele><time>2026-03-28T12:48:15.253Z</time></trkpt><trkpt lat="41.4967634" lon="12.8337275"><ele>27.0</ele><time>2026-03-28T12:48:17.252Z</time></trkpt><trkpt lat="41.4969708" lon="12.8337758"><ele>27.0</ele><time>2026-03-28T12:48:19.252Z</time></trkpt><trkpt lat="41.497075" lon="12.8337945"><ele>27.0</ele><time>2026-03-28T12:48:20.252Z</time></trkpt><trkpt lat="41.4971779" lon="12.833823"><ele>27.0</ele><time>2026-03-28T12:48:21.252Z</time></trkpt><trkpt lat="41.4972751" lon="12.8338472"><ele>27.0</ele><time>2026-03-28T12:48:22.252Z</time></trkpt><trkpt lat="41.4974631" lon="12.8338702"><ele>27.0</ele><time>2026-03-28T12:48:24.252Z</time></trkpt><trkpt lat="41.4976436" lon="12.8339353"><ele>27.0</ele><time>2026-03-28T12:48:26.252Z</time></trkpt><trkpt lat="41.4977367" lon="12.8339542"><ele>27.0</ele><time>2026-03-28T12:48:27.253Z</time></trkpt><trkpt lat="41.4979024" lon="12.833986"><ele>27.0</ele><time>2026-03-28T12:48:29.253Z</time></trkpt><trkpt lat="41.4980636" lon="12.8340668"><ele>27.0</ele><time>2026-03-28T12:48:31.253Z</time></trkpt><trkpt lat="41.4981594" lon="12.8341167"><ele>27.0</ele><time>2026-03-28T12:48:32.252Z</time></trkpt><trkpt lat="41.4983742" lon="12.8341646"><ele>25.5</ele><time>2026-03-28T12:48:34.252Z</time></trkpt><trkpt lat="41.4986362" lon="12.8342284"><ele>24.0</ele><time>2026-03-28T12:48:36.252Z</time></trkpt><trkpt lat="41.4988695" lon="12.8342889"><ele>24.666666666666664</ele><time>2026-03-28T12:48:38.253Z</time></trkpt><trkpt lat="41.4990929" lon="12.8343364"><ele>25.333333333333332</ele><time>2026-03-28T12:48:40.253Z</time></trkpt><trkpt lat="41.499309" lon="12.8344022"><ele>26.0</ele><time>2026-03-28T12:48:42.252Z</time></trkpt><trkpt lat="41.4994145" lon="12.8344403"><ele>26.0</ele><time>2026-03-28T12:48:43.252Z</time></trkpt><trkpt lat="41.4995189" lon="12.8344683"><ele>26.0</ele><time>2026-03-28T12:48:44.253Z</time></trkpt><trkpt lat="41.499627" lon="12.8344842"><ele>26.0</ele><time>2026-03-28T12:48:45.252Z</time></trkpt><trkpt lat="41.499754" lon="12.8345167"><ele>26.0</ele><time>2026-03-28T12:48:46.252Z</time></trkpt><trkpt lat="41.499883" lon="12.8345504"><ele>26.0</ele><time>2026-03-28T12:48:47.252Z</time></trkpt><trkpt lat="41.5000121" lon="12.8345827"><ele>26.0</ele><time>2026-03-28T12:48:48.252Z</time></trkpt><trkpt lat="41.5002854" lon="12.8346511"><ele>26.0</ele><time>2026-03-28T12:48:50.252Z</time></trkpt><trkpt lat="41.5005813" lon="12.8347294"><ele>26.0</ele><time>2026-03-28T12:48:52.252Z</time></trkpt><trkpt lat="41.5007226" lon="12.8347662"><ele>26.0</ele><time>2026-03-28T12:48:53.252Z</time></trkpt><trkpt lat="41.5008643" lon="12.8348076"><ele>26.0</ele><time>2026-03-28T12:48:54.253Z</time></trkpt><trkpt lat="41.5010036" lon="12.8348447"><ele>26.0</ele><time>2026-03-28T12:48:55.252Z</time></trkpt><trkpt lat="41.5012971" lon="12.8349206"><ele>26.0</ele><time>2026-03-28T12:48:57.252Z</time></trkpt><trkpt lat="41.5014413" lon="12.8349621"><ele>26.0</ele><time>2026-03-28T12:48:58.253Z</time></trkpt><trkpt lat="41.5015923" lon="12.8349961"><ele>26.0</ele><time>2026-03-28T12:48:59.252Z</time></trkpt><trkpt lat="41.5018864" lon="12.8350765"><ele>26.0</ele><time>2026-03-28T12:49:01.253Z</time></trkpt><trkpt lat="41.5022075" lon="12.8351517"><ele>26.0</ele><time>2026-03-28T12:49:03.253Z</time></trkpt><trkpt lat="41.5025035" lon="12.835241"><ele>26.0</ele><time>2026-03-28T12:49:05.252Z</time></trkpt><trkpt lat="41.5026456" lon="12.8352865"><ele>26.0</ele><time>2026-03-28T12:49:06.253Z</time></trkpt><trkpt lat="41.5029247" lon="12.8353577"><ele>26.0</ele><time>2026-03-28T12:49:08.252Z</time></trkpt><trkpt lat="41.5030716" lon="12.8354008"><ele>26.0</ele><time>2026-03-28T12:49:09.252Z</time></trkpt><trkpt lat="41.503366" lon="12.835489"><ele>26.0</ele><time>2026-03-28T12:49:11.253Z</time></trkpt><trkpt lat="41.503711" lon="12.8355836"><ele>26.0</ele><time>2026-03-28T12:49:13.253Z</time></trkpt><trkpt lat="41.5040351" lon="12.8356734"><ele>26.0</ele><time>2026-03-28T12:49:15.252Z</time></trkpt><trkpt lat="41.5041872" lon="12.8357149"><ele>26.0</ele><time>2026-03-28T12:49:16.253Z</time></trkpt><trkpt lat="41.5044773" lon="12.8357815"><ele>26.0</ele><time>2026-03-28T12:49:18.253Z</time></trkpt><trkpt lat="41.5046184" lon="12.8358152"><ele>26.0</ele><time>2026-03-28T12:49:19.252Z</time></trkpt><trkpt lat="41.5047473" lon="12.8358552"><ele>25.666666666666664</ele><time>2026-03-28T12:49:20.252Z</time></trkpt><trkpt lat="41.5048771" lon="12.8359032"><ele>25.333333333333336</ele><time>2026-03-28T12:49:21.252Z</time></trkpt><trkpt lat="41.5050096" lon="12.8359352"><ele>25.0</ele><time>2026-03-28T12:49:22.253Z</time></trkpt><trkpt lat="41.5052821" lon="12.8360159"><ele>26.0</ele><time>2026-03-28T12:49:24.252Z</time></trkpt><trkpt lat="41.5055555" lon="12.8360955"><ele>27.0</ele><time>2026-03-28T12:49:26.252Z</time></trkpt><trkpt lat="41.5058059" lon="12.8361679"><ele>27.0</ele><time>2026-03-28T12:49:28.253Z</time></trkpt><trkpt lat="41.5059335" lon="12.836203"><ele>27.0</ele><time>2026-03-28T12:49:29.252Z</time></trkpt><trkpt lat="41.5063451" lon="12.8362941"><ele>26.666666666666664</ele><time>2026-03-28T12:49:32.252Z</time></trkpt><trkpt lat="41.5064795" lon="12.8363316"><ele>26.333333333333332</ele><time>2026-03-28T12:49:33.253Z</time></trkpt><trkpt lat="41.5067383" lon="12.8364025"><ele>26.0</ele><time>2026-03-28T12:49:35.252Z</time></trkpt><trkpt lat="41.5068693" lon="12.8364368"><ele>26.0</ele><time>2026-03-28T12:49:36.252Z</time></trkpt><trkpt lat="41.5069947" lon="12.8364715"><ele>26.0</ele><time>2026-03-28T12:49:37.253Z</time></trkpt><trkpt lat="41.5072319" lon="12.8365243"><ele>26.0</ele><time>2026-03-28T12:49:39.253Z</time></trkpt><trkpt lat="41.5073484" lon="12.8365552"><ele>26.0</ele><time>2026-03-28T12:49:40.253Z</time></trkpt><trkpt lat="41.5074586" lon="12.836581"><ele>26.0</ele><time>2026-03-28T12:49:41.252Z</time></trkpt><trkpt lat="41.5075614" lon="12.8366077"><ele>26.0</ele><time>2026-03-28T12:49:42.253Z</time></trkpt><trkpt lat="41.5077514" lon="12.8366437"><ele>26.0</ele><time>2026-03-28T12:49:44.252Z</time></trkpt><trkpt lat="41.5079586" lon="12.8367047"><ele>26.0</ele><time>2026-03-28T12:49:46.252Z</time></trkpt><trkpt lat="41.5081593" lon="12.8367584"><ele>26.0</ele><time>2026-03-28T12:49:48.252Z</time></trkpt><trkpt lat="41.5083817" lon="12.8368129"><ele>26.0</ele><time>2026-03-28T12:49:50.253Z</time></trkpt><trkpt lat="41.5086095" lon="12.8368859"><ele>26.75</ele><time>2026-03-28T12:49:52.252Z</time></trkpt><trkpt lat="41.5087186" lon="12.8369214"><ele>27.5</ele><time>2026-03-28T12:49:53.252Z</time></trkpt><trkpt lat="41.5088231" lon="12.8369676"><ele>28.25</ele><time>2026-03-28T12:49:54.252Z</time></trkpt><trkpt lat="41.5089263" lon="12.837028"><ele>29.0</ele><time>2026-03-28T12:49:55.252Z</time></trkpt><trkpt lat="41.5091493" lon="12.8371285"><ele>28.75</ele><time>2026-03-28T12:49:57.252Z</time></trkpt><trkpt lat="41.5093622" lon="12.8371985"><ele>28.5</ele><time>2026-03-28T12:49:59.252Z</time></trkpt><trkpt lat="41.5094654" lon="12.8372305"><ele>28.25</ele><time>2026-03-28T12:50:00.252Z</time></trkpt><trkpt lat="41.5095699" lon="12.8372606"><ele>28.0</ele><time>2026-03-28T12:50:01.252Z</time></trkpt><trkpt lat="41.5096784" lon="12.8372856"><ele>28.0</ele><time>2026-03-28T12:50:02.252Z</time></trkpt><trkpt lat="41.5097727" lon="12.8373273"><ele>28.0</ele><time>2026-03-28T12:50:03.252Z</time></trkpt><trkpt lat="41.5098591" lon="12.8373564"><ele>28.0</ele><time>2026-03-28T12:50:04.253Z</time></trkpt><trkpt lat="41.5100328" lon="12.8374079"><ele>28.0</ele><time>2026-03-28T12:50:06.252Z</time></trkpt><trkpt lat="41.5102061" lon="12.8374439"><ele>28.0</ele><time>2026-03-28T12:50:08.252Z</time></trkpt><trkpt lat="41.5103869" lon="12.8374895"><ele>28.0</ele><time>2026-03-28T12:50:10.252Z</time></trkpt><trkpt lat="41.5104634" lon="12.8375226"><ele>28.0</ele><time>2026-03-28T12:50:11.252Z</time></trkpt><trkpt lat="41.5105511" lon="12.8375514"><ele>28.0</ele><time>2026-03-28T12:50:12.253Z</time></trkpt><trkpt lat="41.5107222" lon="12.8376291"><ele>28.2</ele><time>2026-03-28T12:50:14.253Z</time></trkpt><trkpt lat="41.5108722" lon="12.8377053"><ele>28.4</ele><time>2026-03-28T12:50:16.253Z</time></trkpt><trkpt lat="41.5109307" lon="12.8377501"><ele>28.599999999999998</ele><time>2026-03-28T12:50:17.253Z</time></trkpt><trkpt lat="41.5110225" lon="12.8377778"><ele>28.799999999999997</ele><time>2026-03-28T12:50:19.252Z</time></trkpt><trkpt lat="41.5111096" lon="12.8377778"><ele>29.0</ele><time>2026-03-28T12:50:22.252Z</time></trkpt><trkpt lat="41.5111563" lon="12.8377009"><ele>29.0</ele><time>2026-03-28T12:50:25.253Z</time></trkpt><trkpt lat="41.511198" lon="12.8376209"><ele>29.0</ele><time>2026-03-28T12:50:29.252Z</time></trkpt><trkpt lat="41.5113227" lon="12.8377163"><ele>29.0</ele><time>2026-03-28T12:50:31.252Z</time></trkpt><trkpt lat="41.5113823" lon="12.8377643"><ele>29.0</ele><time>2026-03-28T12:50:33.252Z</time></trkpt><trkpt lat="41.5114656" lon="12.8378128"><ele>29.0</ele><time>2026-03-28T12:50:35.252Z</time></trkpt><trkpt lat="41.5115548" lon="12.8378608"><ele>29.0</ele><time>2026-03-28T12:50:37.252Z</time></trkpt><trkpt lat="41.5116429" lon="12.8379124"><ele>29.0</ele><time>2026-03-28T12:50:39.252Z</time></trkpt><trkpt lat="41.5117404" lon="12.8379793"><ele>29.0</ele><time>2026-03-28T12:50:41.253Z</time></trkpt><trkpt lat="41.5118348" lon="12.8380513"><ele>29.0</ele><time>2026-03-28T12:50:43.252Z</time></trkpt><trkpt lat="41.511929" lon="12.8381245"><ele>29.0</ele><time>2026-03-28T12:50:45.252Z</time></trkpt><trkpt lat="41.5120167" lon="12.8381907"><ele>28.799999999999997</ele><time>2026-03-28T12:50:47.252Z</time></trkpt><trkpt lat="41.512104" lon="12.8382596"><ele>28.599999999999998</ele><time>2026-03-28T12:50:49.252Z</time></trkpt><trkpt lat="41.5121844" lon="12.8383112"><ele>28.4</ele><time>2026-03-28T12:50:51.252Z</time></trkpt><trkpt lat="41.5122563" lon="12.8383658"><ele>28.2</ele><time>2026-03-28T12:50:54.252Z</time></trkpt><trkpt lat="41.5122834" lon="12.8384774"><ele>28.0</ele><time>2026-03-28T12:50:56.253Z</time></trkpt><trkpt lat="41.5123407" lon="12.8385823"><ele>28.0</ele><time>2026-03-28T12:50:58.252Z</time></trkpt><trkpt lat="41.5124612" lon="12.8386857"><ele>28.0</ele><time>2026-03-28T12:51:00.252Z</time></trkpt><trkpt lat="41.5125855" lon="12.8388106"><ele>28.0</ele><time>2026-03-28T12:51:02.252Z</time></trkpt><trkpt lat="41.5127072" lon="12.8389528"><ele>28.0</ele><time>2026-03-28T12:51:04.252Z</time></trkpt><trkpt lat="41.5128366" lon="12.8390872"><ele>28.0</ele><time>2026-03-28T12:51:06.252Z</time></trkpt><trkpt lat="41.5129008" lon="12.8391561"><ele>28.0</ele><time>2026-03-28T12:51:07.252Z</time></trkpt><trkpt lat="41.5129671" lon="12.8392258"><ele>28.0</ele><time>2026-03-28T12:51:08.253Z</time></trkpt><trkpt lat="41.513079" lon="12.8393687"><ele>28.0</ele><time>2026-03-28T12:51:10.252Z</time></trkpt><trkpt lat="41.5131878" lon="12.8395011"><ele>27.999999999999996</ele><time>2026-03-28T12:51:12.253Z</time></trkpt><trkpt lat="41.5132469" lon="12.8395549"><ele>27.999999999999996</ele><time>2026-03-28T12:51:13.253Z</time></trkpt><trkpt lat="41.5133647" lon="12.8396802"><ele>28.0</ele><time>2026-03-28T12:51:15.253Z</time></trkpt><trkpt lat="41.5134167" lon="12.8397397"><ele>28.0</ele><time>2026-03-28T12:51:16.252Z</time></trkpt><trkpt lat="41.5134664" lon="12.8398058"><ele>28.000000000000004</ele><time>2026-03-28T12:51:17.252Z</time></trkpt><trkpt lat="41.5135152" lon="12.8398599"><ele>28.0</ele><time>2026-03-28T12:51:18.252Z</time></trkpt><trkpt lat="41.5136037" lon="12.8399673"><ele>28.0</ele><time>2026-03-28T12:51:20.253Z</time></trkpt><trkpt lat="41.5136676" lon="12.8400485"><ele>28.0</ele><time>2026-03-28T12:51:22.252Z</time></trkpt><trkpt lat="41.513725" lon="12.8400884"><ele>28.000000000000004</ele><time>2026-03-28T12:51:25.252Z</time></trkpt><trkpt lat="41.5137934" lon="12.8400811"><ele>28.0</ele><time>2026-03-28T12:51:28.253Z</time></trkpt><trkpt lat="41.5138533" lon="12.8401445"><ele>28.0</ele><time>2026-03-28T12:51:31.252Z</time></trkpt><trkpt lat="41.5139307" lon="12.8402334"><ele>28.0</ele><time>2026-03-28T12:51:33.252Z</time></trkpt><trkpt lat="41.5140408" lon="12.8403665"><ele>28.0</ele><time>2026-03-28T12:51:36.253Z</time></trkpt><trkpt lat="41.5141159" lon="12.8404613"><ele>28.0</ele><time>2026-03-28T12:51:38.252Z</time></trkpt><trkpt lat="41.5141962" lon="12.840565"><ele>28.0</ele><time>2026-03-28T12:51:40.252Z</time></trkpt><trkpt lat="41.5142493" lon="12.8406356"><ele>28.0</ele><time>2026-03-28T12:51:41.253Z</time></trkpt><trkpt lat="41.5142931" lon="12.8406961"><ele>28.0</ele><time>2026-03-28T12:51:42.252Z</time></trkpt><trkpt lat="41.5143416" lon="12.8407653"><ele>28.0</ele><time>2026-03-28T12:51:43.252Z</time></trkpt><trkpt lat="41.514387" lon="12.8408323"><ele>28.0</ele><time>2026-03-28T12:51:44.252Z</time></trkpt><trkpt lat="41.5144396" lon="12.8408861"><ele>28.0</ele><time>2026-03-28T12:51:45.252Z</time></trkpt><trkpt lat="41.5144806" lon="12.8409561"><ele>28.0</ele><time>2026-03-28T12:51:46.253Z</time></trkpt><trkpt lat="41.514564" lon="12.841059"><ele>27.5</ele><time>2026-03-28T12:51:48.253Z</time></trkpt><trkpt lat="41.5146323" lon="12.8411194"><ele>27.0</ele><time>2026-03-28T12:51:50.252Z</time></trkpt><trkpt lat="41.5147298" lon="12.8412042"><ele>26.5</ele><time>2026-03-28T12:51:54.253Z</time></trkpt><trkpt lat="41.5148432" lon="12.8412269"><ele>26.0</ele><time>2026-03-28T12:51:56.253Z</time></trkpt><trkpt lat="41.5149558" lon="12.8413809"><ele>26.0</ele><time>2026-03-28T12:51:58.252Z</time></trkpt><trkpt lat="41.515041" lon="12.8414781"><ele>26.0</ele><time>2026-03-28T12:51:59.253Z</time></trkpt><trkpt lat="41.5151357" lon="12.841586"><ele>26.0</ele><time>2026-03-28T12:52:00.253Z</time></trkpt><trkpt lat="41.5152328" lon="12.8416967"><ele>26.0</ele><time>2026-03-28T12:52:01.252Z</time></trkpt><trkpt lat="41.5154276" lon="12.841942"><ele>27.0</ele><time>2026-03-28T12:52:03.252Z</time></trkpt><trkpt lat="41.5156039" lon="12.8421756"><ele>28.0</ele><time>2026-03-28T12:52:05.252Z</time></trkpt><trkpt lat="41.5157883" lon="12.8424174"><ele>28.0</ele><time>2026-03-28T12:52:07.252Z</time></trkpt><trkpt lat="41.5159498" lon="12.8426127"><ele>28.0</ele><time>2026-03-28T12:52:09.253Z</time></trkpt><trkpt lat="41.5160196" lon="12.8427112"><ele>28.0</ele><time>2026-03-28T12:52:10.252Z</time></trkpt><trkpt lat="41.5160878" lon="12.8428011"><ele>28.0</ele><time>2026-03-28T12:52:11.252Z</time></trkpt><trkpt lat="41.5162156" lon="12.8429667"><ele>27.75</ele><time>2026-03-28T12:52:13.252Z</time></trkpt><trkpt lat="41.5162713" lon="12.8430369"><ele>27.5</ele><time>2026-03-28T12:52:14.253Z</time></trkpt><trkpt lat="41.5163868" lon="12.8431912"><ele>27.25</ele><time>2026-03-28T12:52:16.253Z</time></trkpt><trkpt lat="41.5164972" lon="12.8433446"><ele>27.0</ele><time>2026-03-28T12:52:18.252Z</time></trkpt><trkpt lat="41.5165585" lon="12.8434291"><ele>27.5</ele><time>2026-03-28T12:52:19.252Z</time></trkpt><trkpt lat="41.5166283" lon="12.8435203"><ele>28.0</ele><time>2026-03-28T12:52:20.252Z</time></trkpt><trkpt lat="41.5167075" lon="12.8436108"><ele>28.5</ele><time>2026-03-28T12:52:21.252Z</time></trkpt><trkpt lat="41.5168595" lon="12.8437702"><ele>29.0</ele><time>2026-03-28T12:52:23.253Z</time></trkpt><trkpt lat="41.5169312" lon="12.8438643"><ele>29.0</ele><time>2026-03-28T12:52:24.252Z</time></trkpt><trkpt lat="41.5170036" lon="12.8439446"><ele>29.0</ele><time>2026-03-28T12:52:25.253Z</time></trkpt><trkpt lat="41.5171514" lon="12.844126"><ele>29.0</ele><time>2026-03-28T12:52:27.252Z</time></trkpt><trkpt lat="41.5173076" lon="12.8443266"><ele>28.333333333333332</ele><time>2026-03-28T12:52:29.252Z</time></trkpt><trkpt lat="41.5174551" lon="12.8445211"><ele>27.666666666666664</ele><time>2026-03-28T12:52:31.253Z</time></trkpt><trkpt lat="41.5176159" lon="12.8447242"><ele>27.0</ele><time>2026-03-28T12:52:33.252Z</time></trkpt><trkpt lat="41.5178461" lon="12.8450444"><ele>27.333333333333336</ele><time>2026-03-28T12:52:36.252Z</time></trkpt><trkpt lat="41.5179766" lon="12.8452529"><ele>27.666666666666668</ele><time>2026-03-28T12:52:38.252Z</time></trkpt><trkpt lat="41.5181149" lon="12.8454128"><ele>28.0</ele><time>2026-03-28T12:52:40.252Z</time></trkpt><trkpt lat="41.5182407" lon="12.8455866"><ele>28.0</ele><time>2026-03-28T12:52:42.252Z</time></trkpt><trkpt lat="41.5183047" lon="12.8456678"><ele>28.0</ele><time>2026-03-28T12:52:43.252Z</time></trkpt><trkpt lat="41.518425" lon="12.8458324"><ele>28.0</ele><time>2026-03-28T12:52:45.253Z</time></trkpt><trkpt lat="41.5185331" lon="12.8459708"><ele>28.0</ele><time>2026-03-28T12:52:47.253Z</time></trkpt><trkpt lat="41.5186242" lon="12.8461482"><ele>27.5</ele><time>2026-03-28T12:52:49.252Z</time></trkpt><trkpt lat="41.5187468" lon="12.846315"><ele>27.0</ele><time>2026-03-28T12:52:51.253Z</time></trkpt><trkpt lat="41.5188186" lon="12.8464034"><ele>26.5</ele><time>2026-03-28T12:52:52.252Z</time></trkpt><trkpt lat="41.518886" lon="12.846489"><ele>26.0</ele><time>2026-03-28T12:52:53.253Z</time></trkpt><trkpt lat="41.5190269" lon="12.8466756"><ele>26.75</ele><time>2026-03-28T12:52:55.252Z</time></trkpt><trkpt lat="41.5191581" lon="12.8468564"><ele>27.5</ele><time>2026-03-28T12:52:57.252Z</time></trkpt><trkpt lat="41.5192268" lon="12.8469373"><ele>28.25</ele><time>2026-03-28T12:52:58.252Z</time></trkpt><trkpt lat="41.5192939" lon="12.847039"><ele>29.0</ele><time>2026-03-28T12:52:59.253Z</time></trkpt><trkpt lat="41.5193552" lon="12.8471246"><ele>29.0</ele><time>2026-03-28T12:53:00.253Z</time></trkpt><trkpt lat="41.5194205" lon="12.8472109"><ele>29.0</ele><time>2026-03-28T12:53:01.252Z</time></trkpt><trkpt lat="41.5195512" lon="12.8473757"><ele>29.0</ele><time>2026-03-28T12:53:03.252Z</time></trkpt><trkpt lat="41.5196772" lon="12.8475337"><ele>29.0</ele><time>2026-03-28T12:53:05.252Z</time></trkpt><trkpt lat="41.5198" lon="12.8476906"><ele>28.6</ele><time>2026-03-28T12:53:07.253Z</time></trkpt><trkpt lat="41.5199162" lon="12.8478261"><ele>28.2</ele><time>2026-03-28T12:53:09.252Z</time></trkpt><trkpt lat="41.5199775" lon="12.8478849"><ele>27.800000000000004</ele><time>2026-03-28T12:53:10.253Z</time></trkpt><trkpt lat="41.5200406" lon="12.8479568"><ele>27.400000000000002</ele><time>2026-03-28T12:53:11.252Z</time></trkpt><trkpt lat="41.5200997" lon="12.8480312"><ele>27.0</ele><time>2026-03-28T12:53:12.252Z</time></trkpt><trkpt lat="41.5201604" lon="12.8480902"><ele>27.0</ele><time>2026-03-28T12:53:13.252Z</time></trkpt><trkpt lat="41.5202725" lon="12.8482324"><ele>27.0</ele><time>2026-03-28T12:53:15.252Z</time></trkpt><trkpt lat="41.5203673" lon="12.8483901"><ele>27.0</ele><time>2026-03-28T12:53:17.252Z</time></trkpt><trkpt lat="41.5204098" lon="12.8484745"><ele>27.0</ele><time>2026-03-28T12:53:18.252Z</time></trkpt><trkpt lat="41.5204862" lon="12.8486045"><ele>27.5</ele><time>2026-03-28T12:53:20.253Z</time></trkpt><trkpt lat="41.52056" lon="12.8487085"><ele>28.0</ele><time>2026-03-28T12:53:22.252Z</time></trkpt><trkpt lat="41.5206563" lon="12.8487834"><ele>28.5</ele><time>2026-03-28T12:53:24.253Z</time></trkpt><trkpt lat="41.5207742" lon="12.8489333"><ele>29.0</ele><time>2026-03-28T12:53:27.252Z</time></trkpt><trkpt lat="41.5209213" lon="12.8490804"><ele>28.999999999999996</ele><time>2026-03-28T12:53:30.253Z</time></trkpt><trkpt lat="41.5209667" lon="12.8491401"><ele>29.0</ele><time>2026-03-28T12:53:31.252Z</time></trkpt><trkpt lat="41.5210163" lon="12.8491994"><ele>29.0</ele><time>2026-03-28T12:53:32.252Z</time></trkpt><trkpt lat="41.5210678" lon="12.8492619"><ele>29.0</ele><time>2026-03-28T12:53:33.253Z</time></trkpt><trkpt lat="41.5211153" lon="12.8493245"><ele>28.999999999999996</ele><time>2026-03-28T12:53:34.252Z</time></trkpt><trkpt lat="41.5212206" lon="12.8494395"><ele>29.0</ele><time>2026-03-28T12:53:36.252Z</time></trkpt><trkpt lat="41.5212813" lon="12.849506"><ele>28.333333333333332</ele><time>2026-03-28T12:53:37.252Z</time></trkpt><trkpt lat="41.5213266" lon="12.8495807"><ele>27.666666666666664</ele><time>2026-03-28T12:53:38.253Z</time></trkpt><trkpt lat="41.5213694" lon="12.8496554"><ele>27.0</ele><time>2026-03-28T12:53:39.252Z</time></trkpt><trkpt lat="41.5214202" lon="12.8497203"><ele>26.333333333333336</ele><time>2026-03-28T12:53:40.252Z</time></trkpt><trkpt lat="41.5215214" lon="12.8498048"><ele>25.666666666666668</ele><time>2026-03-28T12:53:42.253Z</time></trkpt><trkpt lat="41.5215615" lon="12.8498927"><ele>25.0</ele><time>2026-03-28T12:53:43.253Z</time></trkpt><trkpt lat="41.52166" lon="12.8500272"><ele>25.333333333333336</ele><time>2026-03-28T12:53:45.252Z</time></trkpt><trkpt lat="41.5217681" lon="12.8501772"><ele>25.666666666666668</ele><time>2026-03-28T12:53:47.252Z</time></trkpt><trkpt lat="41.5218208" lon="12.8502384"><ele>26.0</ele><time>2026-03-28T12:53:48.252Z</time></trkpt><trkpt lat="41.5218735" lon="12.8503029"><ele>26.333333333333336</ele><time>2026-03-28T12:53:49.252Z</time></trkpt><trkpt lat="41.5219211" lon="12.8503648"><ele>26.666666666666668</ele><time>2026-03-28T12:53:50.253Z</time></trkpt><trkpt lat="41.5219646" lon="12.8504326"><ele>27.0</ele><time>2026-03-28T12:53:51.253Z</time></trkpt><trkpt lat="41.5220546" lon="12.8505537"><ele>27.200000000000003</ele><time>2026-03-28T12:53:53.253Z</time></trkpt><trkpt lat="41.5220917" lon="12.8506253"><ele>27.400000000000002</ele><time>2026-03-28T12:53:54.252Z</time></trkpt><trkpt lat="41.5221608" lon="12.8507676"><ele>27.599999999999998</ele><time>2026-03-28T12:53:56.252Z</time></trkpt><trkpt lat="41.5222216" lon="12.8508883"><ele>27.799999999999997</ele><time>2026-03-28T12:53:58.252Z</time></trkpt><trkpt lat="41.5223136" lon="12.8509995"><ele>28.0</ele><time>2026-03-28T12:54:00.252Z</time></trkpt><trkpt lat="41.5224813" lon="12.8511557"><ele>28.500000000000004</ele><time>2026-03-28T12:54:03.252Z</time></trkpt><trkpt lat="41.5225424" lon="12.8512226"><ele>29.0</ele><time>2026-03-28T12:54:04.252Z</time></trkpt><trkpt lat="41.5226102" lon="12.8512953"><ele>29.5</ele><time>2026-03-28T12:54:05.252Z</time></trkpt><trkpt lat="41.5226728" lon="12.8513779"><ele>30.0</ele><time>2026-03-28T12:54:06.252Z</time></trkpt><trkpt lat="41.5227526" lon="12.8514389"><ele>30.500000000000004</ele><time>2026-03-28T12:54:07.252Z</time></trkpt><trkpt lat="41.5228251" lon="12.8515066"><ele>31.0</ele><time>2026-03-28T12:54:08.252Z</time></trkpt><trkpt lat="41.5228987" lon="12.8515855"><ele>31.0</ele><time>2026-03-28T12:54:09.253Z</time></trkpt><trkpt lat="41.5230167" lon="12.851723"><ele>31.0</ele><time>2026-03-28T12:54:11.252Z</time></trkpt><trkpt lat="41.523114" lon="12.8518821"><ele>31.0</ele><time>2026-03-28T12:54:13.252Z</time></trkpt><trkpt lat="41.5232286" lon="12.8520491"><ele>30.4</ele><time>2026-03-28T12:54:15.253Z</time></trkpt><trkpt lat="41.5233604" lon="12.8522042"><ele>29.8</ele><time>2026-03-28T12:54:17.252Z</time></trkpt><trkpt lat="41.5234151" lon="12.8522735"><ele>29.199999999999996</ele><time>2026-03-28T12:54:18.252Z</time></trkpt><trkpt lat="41.5234715" lon="12.8523467"><ele>28.599999999999998</ele><time>2026-03-28T12:54:19.252Z</time></trkpt><trkpt lat="41.5235183" lon="12.8524248"><ele>28.0</ele><time>2026-03-28T12:54:20.253Z</time></trkpt><trkpt lat="41.5236235" lon="12.8525669"><ele>28.2</ele><time>2026-03-28T12:54:22.252Z</time></trkpt><trkpt lat="41.5237326" lon="12.8527045"><ele>28.4</ele><time>2026-03-28T12:54:24.252Z</time></trkpt><trkpt lat="41.5238389" lon="12.8528471"><ele>28.599999999999998</ele><time>2026-03-28T12:54:26.253Z</time></trkpt><trkpt lat="41.5238935" lon="12.8529106"><ele>28.799999999999997</ele><time>2026-03-28T12:54:27.253Z</time></trkpt><trkpt lat="41.5239335" lon="12.8529919"><ele>29.0</ele><time>2026-03-28T12:54:28.253Z</time></trkpt><trkpt lat="41.5240462" lon="12.8531457"><ele>29.0</ele><time>2026-03-28T12:54:30.253Z</time></trkpt><trkpt lat="41.5241552" lon="12.8532818"><ele>29.0</ele><time>2026-03-28T12:54:32.252Z</time></trkpt><trkpt lat="41.5242084" lon="12.853355"><ele>29.0</ele><time>2026-03-28T12:54:33.252Z</time></trkpt><trkpt lat="41.5242725" lon="12.8534384"><ele>29.0</ele><time>2026-03-28T12:54:34.253Z</time></trkpt><trkpt lat="41.5243233" lon="12.8534972"><ele>29.0</ele><time>2026-03-28T12:54:35.252Z</time></trkpt><trkpt lat="41.5243876" lon="12.8535716"><ele>29.0</ele><time>2026-03-28T12:54:36.252Z</time></trkpt><trkpt lat="41.5245811" lon="12.8537797"><ele>29.0</ele><time>2026-03-28T12:54:39.252Z</time></trkpt><trkpt lat="41.5246423" lon="12.8538586"><ele>29.0</ele><time>2026-03-28T12:54:40.252Z</time></trkpt><trkpt lat="41.5246984" lon="12.8539415"><ele>29.0</ele><time>2026-03-28T12:54:41.252Z</time></trkpt><trkpt lat="41.5247606" lon="12.8540177"><ele>29.0</ele><time>2026-03-28T12:54:42.252Z</time></trkpt><trkpt lat="41.5248236" lon="12.8540994"><ele>29.0</ele><time>2026-03-28T12:54:43.252Z</time></trkpt><trkpt lat="41.5248818" lon="12.8541759"><ele>29.0</ele><time>2026-03-28T12:54:44.253Z</time></trkpt><trkpt lat="41.5249351" lon="12.8542408"><ele>29.0</ele><time>2026-03-28T12:54:45.252Z</time></trkpt><trkpt lat="41.5250461" lon="12.8544065"><ele>29.0</ele><time>2026-03-28T12:54:47.253Z</time></trkpt><trkpt lat="41.5251839" lon="12.8545642"><ele>29.0</ele><time>2026-03-28T12:54:49.252Z</time></trkpt><trkpt lat="41.5252969" lon="12.8547257"><ele>29.0</ele><time>2026-03-28T12:54:51.253Z</time></trkpt><trkpt lat="41.5253526" lon="12.8548012"><ele>29.0</ele><time>2026-03-28T12:54:52.252Z</time></trkpt><trkpt lat="41.5254636" lon="12.8549572"><ele>29.0</ele><time>2026-03-28T12:54:54.252Z</time></trkpt><trkpt lat="41.525579" lon="12.8551123"><ele>29.0</ele><time>2026-03-28T12:54:56.253Z</time></trkpt><trkpt lat="41.5256943" lon="12.8552675"><ele>29.0</ele><time>2026-03-28T12:54:58.252Z</time></trkpt><trkpt lat="41.5258252" lon="12.8553976"><ele>29.0</ele><time>2026-03-28T12:55:00.252Z</time></trkpt><trkpt lat="41.525936" lon="12.8555482"><ele>29.0</ele><time>2026-03-28T12:55:02.252Z</time></trkpt><trkpt lat="41.5260435" lon="12.8557125"><ele>29.0</ele><time>2026-03-28T12:55:04.252Z</time></trkpt><trkpt lat="41.5261584" lon="12.8558739"><ele>29.0</ele><time>2026-03-28T12:55:06.253Z</time></trkpt><trkpt lat="41.5262156" lon="12.8559437"><ele>29.0</ele><time>2026-03-28T12:55:07.252Z</time></trkpt><trkpt lat="41.5262652" lon="12.8560034"><ele>29.4</ele><time>2026-03-28T12:55:08.252Z</time></trkpt><trkpt lat="41.5263462" lon="12.8560978"><ele>29.799999999999997</ele><time>2026-03-28T12:55:10.252Z</time></trkpt><trkpt lat="41.5264463" lon="12.8561831"><ele>30.200000000000003</ele><time>2026-03-28T12:55:13.252Z</time></trkpt><trkpt lat="41.5265034" lon="12.856239"><ele>30.6</ele><time>2026-03-28T12:55:16.253Z</time></trkpt><trkpt lat="41.5265065" lon="12.8563649"><ele>31.0</ele><time>2026-03-28T12:55:18.252Z</time></trkpt><trkpt lat="41.5265165" lon="12.8564517"><ele>31.0</ele><time>2026-03-28T12:55:19.252Z</time></trkpt><trkpt lat="41.5265562" lon="12.8565604"><ele>31.0</ele><time>2026-03-28T12:55:21.253Z</time></trkpt><trkpt lat="41.5266355" lon="12.856655"><ele>31.0</ele><time>2026-03-28T12:55:23.253Z</time></trkpt><trkpt lat="41.5267059" lon="12.8567522"><ele>31.0</ele><time>2026-03-28T12:55:25.252Z</time></trkpt><trkpt lat="41.5267492" lon="12.8568677"><ele>31.0</ele><time>2026-03-28T12:55:28.252Z</time></trkpt><trkpt lat="41.5267679" lon="12.8569888"><ele>31.500000000000004</ele><time>2026-03-28T12:55:30.253Z</time></trkpt><trkpt lat="41.5267909" lon="12.8571161"><ele>32.0</ele><time>2026-03-28T12:55:32.252Z</time></trkpt><trkpt lat="41.5268542" lon="12.8571954"><ele>32.5</ele><time>2026-03-28T12:55:34.253Z</time></trkpt><trkpt lat="41.5269268" lon="12.8572395"><ele>33.0</ele><time>2026-03-28T12:55:35.252Z</time></trkpt><trkpt lat="41.5270057" lon="12.8572822"><ele>33.5</ele><time>2026-03-28T12:55:36.253Z</time></trkpt><trkpt lat="41.5270836" lon="12.8573368"><ele>34.0</ele><time>2026-03-28T12:55:37.252Z</time></trkpt><trkpt lat="41.5271701" lon="12.8573942"><ele>34.0</ele><time>2026-03-28T12:55:38.252Z</time></trkpt><trkpt lat="41.5272589" lon="12.8574497"><ele>34.0</ele><time>2026-03-28T12:55:39.252Z</time></trkpt><trkpt lat="41.5273463" lon="12.8574924"><ele>34.0</ele><time>2026-03-28T12:55:40.253Z</time></trkpt><trkpt lat="41.5274227" lon="12.8575446"><ele>34.0</ele><time>2026-03-28T12:55:41.252Z</time></trkpt><trkpt lat="41.5276039" lon="12.8576667"><ele>34.0</ele><time>2026-03-28T12:55:43.252Z</time></trkpt><trkpt lat="41.5277035" lon="12.8577174"><ele>34.0</ele><time>2026-03-28T12:55:44.252Z</time></trkpt><trkpt lat="41.5277936" lon="12.8577724"><ele>34.0</ele><time>2026-03-28T12:55:45.252Z</time></trkpt><trkpt lat="41.5279861" lon="12.857893"><ele>34.0</ele><time>2026-03-28T12:55:47.253Z</time></trkpt><trkpt lat="41.5281977" lon="12.8580194"><ele>34.0</ele><time>2026-03-28T12:55:49.252Z</time></trkpt><trkpt lat="41.5282963" lon="12.8580834"><ele>34.0</ele><time>2026-03-28T12:55:50.253Z</time></trkpt><trkpt lat="41.5285057" lon="12.8581936"><ele>34.0</ele><time>2026-03-28T12:55:52.252Z</time></trkpt><trkpt lat="41.5286858" lon="12.8582837"><ele>33.333333333333336</ele><time>2026-03-28T12:55:54.252Z</time></trkpt><trkpt lat="41.5288762" lon="12.8583743"><ele>32.666666666666664</ele><time>2026-03-28T12:55:56.253Z</time></trkpt><trkpt lat="41.5290749" lon="12.8584696"><ele>32.0</ele><time>2026-03-28T12:55:58.253Z</time></trkpt><trkpt lat="41.5291662" lon="12.8585215"><ele>32.0</ele><time>2026-03-28T12:55:59.253Z</time></trkpt><trkpt lat="41.5293289" lon="12.8585979"><ele>32.0</ele><time>2026-03-28T12:56:01.252Z</time></trkpt><trkpt lat="41.5294113" lon="12.8586667"><ele>32.0</ele><time>2026-03-28T12:56:02.252Z</time></trkpt><trkpt lat="41.5295016" lon="12.8587106"><ele>32.0</ele><time>2026-03-28T12:56:03.253Z</time></trkpt><trkpt lat="41.5296659" lon="12.8588121"><ele>32.2</ele><time>2026-03-28T12:56:05.253Z</time></trkpt><trkpt lat="41.529768" lon="12.8588626"><ele>32.400000000000006</ele><time>2026-03-28T12:56:06.252Z</time></trkpt><trkpt lat="41.5298786" lon="12.8589277"><ele>32.599999999999994</ele><time>2026-03-28T12:56:07.253Z</time></trkpt><trkpt lat="41.529976" lon="12.8589759"><ele>32.8</ele><time>2026-03-28T12:56:08.253Z</time></trkpt><trkpt lat="41.5300759" lon="12.8590302"><ele>33.0</ele><time>2026-03-28T12:56:09.252Z</time></trkpt><trkpt lat="41.5301814" lon="12.8590603"><ele>33.0</ele><time>2026-03-28T12:56:10.253Z</time></trkpt><trkpt lat="41.5302741" lon="12.8591046"><ele>33.0</ele><time>2026-03-28T12:56:11.253Z</time></trkpt><trkpt lat="41.5303709" lon="12.8591384"><ele>33.0</ele><time>2026-03-28T12:56:12.252Z</time></trkpt><trkpt lat="41.5304577" lon="12.8591781"><ele>33.0</ele><time>2026-03-28T12:56:13.253Z</time></trkpt><trkpt lat="41.5305398" lon="12.8592261"><ele>33.0</ele><time>2026-03-28T12:56:14.252Z</time></trkpt><trkpt lat="41.5306218" lon="12.8592554"><ele>33.0</ele><time>2026-03-28T12:56:15.253Z</time></trkpt><trkpt lat="41.5306919" lon="12.8592945"><ele>33.0</ele><time>2026-03-28T12:56:16.252Z</time></trkpt><trkpt lat="41.5307626" lon="12.8593391"><ele>33.0</ele><time>2026-03-28T12:56:17.252Z</time></trkpt><trkpt lat="41.5308271" lon="12.85937"><ele>33.0</ele><time>2026-03-28T12:56:18.252Z</time></trkpt><trkpt lat="41.5308937" lon="12.8594064"><ele>33.0</ele><time>2026-03-28T12:56:19.253Z</time></trkpt><trkpt lat="41.5310102" lon="12.8594598"><ele>33.0</ele><time>2026-03-28T12:56:21.252Z</time></trkpt><trkpt lat="41.5311636" lon="12.8595393"><ele>32.8</ele><time>2026-03-28T12:56:24.253Z</time></trkpt><trkpt lat="41.5312458" lon="12.8596127"><ele>32.599999999999994</ele><time>2026-03-28T12:56:26.253Z</time></trkpt><trkpt lat="41.5313789" lon="12.8596955"><ele>32.400000000000006</ele><time>2026-03-28T12:56:29.253Z</time></trkpt><trkpt lat="41.5314454" lon="12.8597326"><ele>32.2</ele><time>2026-03-28T12:56:31.252Z</time></trkpt><trkpt lat="41.5315102" lon="12.8597641"><ele>32.0</ele><time>2026-03-28T12:58:24.253Z</time></trkpt><trkpt lat="41.5315636" lon="12.8596912"><ele>32.0</ele><time>2026-03-28T12:58:27.252Z</time></trkpt><trkpt lat="41.5316035" lon="12.8595943"><ele>32.0</ele><time>2026-03-28T12:58:31.253Z</time></trkpt><trkpt lat="41.5316822" lon="12.8594944"><ele>32.0</ele><time>2026-03-28T12:58:34.252Z</time></trkpt><trkpt lat="41.5317074" lon="12.859407"><ele>32.0</ele><time>2026-03-28T12:58:37.252Z</time></trkpt><trkpt lat="41.5317379" lon="12.859485"><ele>32.0</ele><time>2026-03-28T12:58:48.253Z</time></trkpt><trkpt lat="41.5316261" lon="12.8593853"><ele>31.999999999999996</ele><time>2026-03-28T12:58:52.252Z</time></trkpt><trkpt lat="41.5315359" lon="12.8593198"><ele>32.0</ele><time>2026-03-28T12:58:54.252Z</time></trkpt><trkpt lat="41.5314303" lon="12.8592679"><ele>32.0</ele><time>2026-03-28T12:58:56.252Z</time></trkpt><trkpt lat="41.5313374" lon="12.8592356"><ele>32.0</ele><time>2026-03-28T12:58:58.252Z</time></trkpt><trkpt lat="41.5312697" lon="12.8592089"><ele>31.999999999999996</ele><time>2026-03-28T12:59:00.252Z</time></trkpt><trkpt lat="41.5312544" lon="12.8591228"><ele>32.0</ele><time>2026-03-28T12:59:10.252Z</time></trkpt><trkpt lat="41.5312896" lon="12.8590307"><ele>31.833333333333332</ele><time>2026-03-28T12:59:14.252Z</time></trkpt><trkpt lat="41.5313391" lon="12.858971"><ele>31.666666666666664</ele><time>2026-03-28T12:59:17.252Z</time></trkpt><trkpt lat="41.5313988" lon="12.8589288"><ele>31.5</ele><time>2026-03-28T12:59:48.252Z</time></trkpt><trkpt lat="41.5314924" lon="12.8589196"><ele>31.333333333333336</ele><time>2026-03-28T12:59:50.252Z</time></trkpt><trkpt lat="41.5316192" lon="12.858926"><ele>31.166666666666668</ele><time>2026-03-28T12:59:53.252Z</time></trkpt><trkpt lat="41.5316819" lon="12.8589552"><ele>31.0</ele><time>2026-03-28T12:59:56.253Z</time></trkpt><trkpt lat="41.5317114" lon="12.8588533"><ele>31.0</ele><time>2026-03-28T13:00:00.252Z</time></trkpt><trkpt lat="41.5317287" lon="12.8587708"><ele>31.000000000000004</ele><time>2026-03-28T13:00:03.252Z</time></trkpt><trkpt lat="41.5317935" lon="12.8587771"><ele>31.0</ele><time>2026-03-28T13:00:05.252Z</time></trkpt><trkpt lat="41.531862" lon="12.8587777"><ele>31.0</ele><time>2026-03-28T13:00:07.252Z</time></trkpt><trkpt lat="41.5319326" lon="12.8587717"><ele>31.000000000000004</ele><time>2026-03-28T13:00:09.252Z</time></trkpt><trkpt lat="41.5320103" lon="12.8587968"><ele>31.0</ele><time>2026-03-28T13:00:11.252Z</time></trkpt><trkpt lat="41.532092" lon="12.8588199"><ele>31.0</ele><time>2026-03-28T13:00:13.253Z</time></trkpt><trkpt lat="41.5321654" lon="12.8588476"><ele>31.28571428571429</ele><time>2026-03-28T13:00:15.252Z</time></trkpt><trkpt lat="41.5322328" lon="12.8588678"><ele>31.571428571428577</ele><time>2026-03-28T13:00:17.252Z</time></trkpt><trkpt lat="41.5322911" lon="12.8589079"><ele>31.857142857142858</ele><time>2026-03-28T13:00:19.252Z</time></trkpt><trkpt lat="41.5323494" lon="12.8589684"><ele>32.142857142857146</ele><time>2026-03-28T13:00:21.252Z</time></trkpt><trkpt lat="41.5324013" lon="12.8590215"><ele>32.42857142857143</ele><time>2026-03-28T13:00:23.252Z</time></trkpt><trkpt lat="41.5324575" lon="12.8590684"><ele>32.714285714285715</ele><time>2026-03-28T13:00:26.252Z</time></trkpt><trkpt lat="41.5325021" lon="12.8591434"><ele>33.0</ele><time>2026-03-28T13:00:30.252Z</time></trkpt><trkpt lat="41.532424" lon="12.8591647"><ele>33.0</ele><time>2026-03-28T13:00:52.252Z</time></trkpt><trkpt lat="41.5323098" lon="12.859133"><ele>33.0</ele><time>2026-03-28T13:00:54.252Z</time></trkpt><trkpt lat="41.5322076" lon="12.8590706"><ele>33.0</ele><time>2026-03-28T13:00:56.252Z</time></trkpt><trkpt lat="41.532109" lon="12.8590116"><ele>33.0</ele><time>2026-03-28T13:00:58.253Z</time></trkpt><trkpt lat="41.532012" lon="12.858948"><ele>33.0</ele><time>2026-03-28T13:01:00.252Z</time></trkpt><trkpt lat="41.5319239" lon="12.8588899"><ele>32.666666666666664</ele><time>2026-03-28T13:01:02.252Z</time></trkpt><trkpt lat="41.53184" lon="12.8588219"><ele>32.333333333333336</ele><time>2026-03-28T13:01:04.252Z</time></trkpt><trkpt lat="41.5317767" lon="12.8587822"><ele>32.0</ele><time>2026-03-28T13:01:06.253Z</time></trkpt><trkpt lat="41.5317096" lon="12.8587838"><ele>31.666666666666668</ele><time>2026-03-28T13:01:08.252Z</time></trkpt><trkpt lat="41.5316721" lon="12.8588845"><ele>31.333333333333336</ele><time>2026-03-28T13:01:12.252Z</time></trkpt><trkpt lat="41.5316602" lon="12.858973"><ele>31.0</ele><time>2026-03-28T13:01:15.253Z</time></trkpt><trkpt lat="41.5315935" lon="12.8589858"><ele>31.000000000000004</ele><time>2026-03-28T13:01:17.252Z</time></trkpt><trkpt lat="41.5315212" lon="12.8589401"><ele>31.0</ele><time>2026-03-28T13:01:19.252Z</time></trkpt><trkpt lat="41.5314563" lon="12.8589409"><ele>31.0</ele><time>2026-03-28T13:01:21.253Z</time></trkpt><trkpt lat="41.5313872" lon="12.8589498"><ele>31.0</ele><time>2026-03-28T13:01:23.252Z</time></trkpt><trkpt lat="41.5312684" lon="12.8589748"><ele>31.000000000000004</ele><time>2026-03-28T13:01:26.252Z</time></trkpt><trkpt lat="41.5312162" lon="12.8590336"><ele>31.0</ele><time>2026-03-28T13:01:29.252Z</time></trkpt><trkpt lat="41.5311975" lon="12.859155"><ele>31.000000000000004</ele><time>2026-03-28T13:01:32.252Z</time></trkpt><trkpt lat="41.5312448" lon="12.8592295"><ele>31.0</ele><time>2026-03-28T13:01:35.252Z</time></trkpt><trkpt lat="41.5313626" lon="12.8592145"><ele>31.0</ele><time>2026-03-28T13:01:38.253Z</time></trkpt><trkpt lat="41.5314402" lon="12.8592239"><ele>31.0</ele><time>2026-03-28T13:01:40.252Z</time></trkpt><trkpt lat="41.5315197" lon="12.8592554"><ele>31.000000000000004</ele><time>2026-03-28T13:01:42.252Z</time></trkpt><trkpt lat="41.5316094" lon="12.8592854"><ele>31.0</ele><time>2026-03-28T13:01:44.252Z</time></trkpt><trkpt lat="41.5317236" lon="12.8593507"><ele>31.200000000000003</ele><time>2026-03-28T13:01:47.252Z</time></trkpt><trkpt lat="41.5317857" lon="12.8594007"><ele>31.400000000000002</ele><time>2026-03-28T13:01:50.252Z</time></trkpt><trkpt lat="41.5318507" lon="12.8594958"><ele>31.6</ele><time>2026-03-28T13:01:53.252Z</time></trkpt><trkpt lat="41.5319158" lon="12.8596237"><ele>31.8</ele><time>2026-03-28T13:01:55.252Z</time></trkpt><trkpt lat="41.5319627" lon="12.8597243"><ele>32.0</ele><time>2026-03-28T13:01:57.253Z</time></trkpt><trkpt lat="41.531988" lon="12.8598239"><ele>32.0</ele><time>2026-03-28T13:01:59.252Z</time></trkpt><trkpt lat="41.5320133" lon="12.8599065"><ele>31.999999999999996</ele><time>2026-03-28T13:02:01.252Z</time></trkpt><trkpt lat="41.5320363" lon="12.8600076"><ele>32.0</ele><time>2026-03-28T13:02:03.252Z</time></trkpt><trkpt lat="41.5320829" lon="12.8600749"><ele>32.0</ele><time>2026-03-28T13:02:05.252Z</time></trkpt><trkpt lat="41.5321426" lon="12.8601205"><ele>31.999999999999996</ele><time>2026-03-28T13:02:07.252Z</time></trkpt><trkpt lat="41.5322166" lon="12.8601497"><ele>32.0</ele><time>2026-03-28T13:02:11.253Z</time></trkpt><trkpt lat="41.5322561" lon="12.8600527"><ele>32.0</ele><time>2026-03-28T13:02:15.253Z</time></trkpt><trkpt lat="41.5322345" lon="12.859963"><ele>31.999999999999996</ele><time>2026-03-28T13:04:47.253Z</time></trkpt><trkpt lat="41.5322336" lon="12.8598698"><ele>32.0</ele><time>2026-03-28T13:04:51.317Z</time></trkpt><trkpt lat="41.5322232" lon="12.8597578"><ele>32.0</ele><time>2026-03-28T13:04:54.264Z</time></trkpt><trkpt lat="41.5321927" lon="12.8596686"><ele>32.0</ele><time>2026-03-28T13:04:56.253Z</time></trkpt><trkpt lat="41.5321258" lon="12.859617"><ele>31.999999999999996</ele><time>2026-03-28T13:04:58.252Z</time></trkpt><trkpt lat="41.5320423" lon="12.8596097"><ele>32.0</ele><time>2026-03-28T13:05:00.252Z</time></trkpt><trkpt lat="41.5319767" lon="12.8595721"><ele>31.999999999999996</ele><time>2026-03-28T13:05:02.252Z</time></trkpt><trkpt lat="41.5319038" lon="12.8595341"><ele>32.0</ele><time>2026-03-28T13:05:04.252Z</time></trkpt><trkpt lat="41.5318242" lon="12.8595077"><ele>32.0</ele><time>2026-03-28T13:05:06.252Z</time></trkpt><trkpt lat="41.531744" lon="12.8594649"><ele>32.0</ele><time>2026-03-28T13:05:08.252Z</time></trkpt><trkpt lat="41.5316658" lon="12.8594246"><ele>31.999999999999996</ele><time>2026-03-28T13:05:10.252Z</time></trkpt><trkpt lat="41.5315858" lon="12.8593958"><ele>32.0</ele><time>2026-03-28T13:05:12.252Z</time></trkpt><trkpt lat="41.5315142" lon="12.8593499"><ele>31.999999999999996</ele><time>2026-03-28T13:05:14.252Z</time></trkpt><trkpt lat="41.5314419" lon="12.8593028"><ele>32.0</ele><time>2026-03-28T13:05:16.252Z</time></trkpt><trkpt lat="41.5313547" lon="12.859268"><ele>32.0</ele><time>2026-03-28T13:05:18.252Z</time></trkpt><trkpt lat="41.5312717" lon="12.8592479"><ele>32.0</ele><time>2026-03-28T13:05:20.252Z</time></trkpt><trkpt lat="41.53119" lon="12.8592106"><ele>31.999999999999996</ele><time>2026-03-28T13:05:23.253Z</time></trkpt><trkpt lat="41.5312045" lon="12.8591139"><ele>32.0</ele><time>2026-03-28T13:05:29.252Z</time></trkpt><trkpt lat="41.5312374" lon="12.8590187"><ele>31.8</ele><time>2026-03-28T13:05:32.252Z</time></trkpt><trkpt lat="41.5313126" lon="12.8589601"><ele>31.6</ele><time>2026-03-28T13:05:43.253Z</time></trkpt><trkpt lat="41.5314211" lon="12.858986"><ele>31.400000000000002</ele><time>2026-03-28T13:05:45.252Z</time></trkpt><trkpt lat="41.5314805" lon="12.8590142"><ele>31.200000000000003</ele><time>2026-03-28T13:05:46.253Z</time></trkpt><trkpt lat="41.5316054" lon="12.8590714"><ele>31.0</ele><time>2026-03-28T13:05:48.252Z</time></trkpt><trkpt lat="41.531738" lon="12.8591327"><ele>31.0</ele><time>2026-03-28T13:05:50.252Z</time></trkpt><trkpt lat="41.5318504" lon="12.8591939"><ele>31.0</ele><time>2026-03-28T13:05:52.252Z</time></trkpt><trkpt lat="41.5319318" lon="12.8592421"><ele>31.0</ele><time>2026-03-28T13:05:54.252Z</time></trkpt><trkpt lat="41.5320077" lon="12.8592694"><ele>31.0</ele><time>2026-03-28T13:05:56.252Z</time></trkpt><trkpt lat="41.5320947" lon="12.8593188"><ele>31.0</ele><time>2026-03-28T13:05:58.252Z</time></trkpt><trkpt lat="41.53216" lon="12.8593752"><ele>31.000000000000004</ele><time>2026-03-28T13:06:00.252Z</time></trkpt><trkpt lat="41.532289" lon="12.8594304"><ele>31.0</ele><time>2026-03-28T13:06:03.252Z</time></trkpt><trkpt lat="41.532367" lon="12.859464"><ele>31.0</ele><time>2026-03-28T13:06:05.252Z</time></trkpt><trkpt lat="41.532438" lon="12.859498"><ele>31.0</ele><time>2026-03-28T13:06:08.253Z</time></trkpt><trkpt lat="41.5325138" lon="12.8595336"><ele>31.000000000000004</ele><time>2026-03-28T13:06:13.252Z</time></trkpt><trkpt lat="41.5325525" lon="12.8596083"><ele>31.0</ele><time>2026-03-28T13:06:18.253Z</time></trkpt><trkpt lat="41.5326096" lon="12.8596704"><ele>31.0</ele><time>2026-03-28T13:06:38.252Z</time></trkpt><trkpt lat="41.5326693" lon="12.8597079"><ele>31.000000000000004</ele><time>2026-03-28T13:06:41.252Z</time></trkpt><trkpt lat="41.532739" lon="12.8597256"><ele>31.0</ele><time>2026-03-28T13:06:59.252Z</time></trkpt><trkpt lat="41.5328143" lon="12.8597288"><ele>31.0</ele><time>2026-03-28T13:07:01.253Z</time></trkpt><trkpt lat="41.5328898" lon="12.8597072"><ele>31.000000000000004</ele><time>2026-03-28T13:07:03.252Z</time></trkpt><trkpt lat="41.532952" lon="12.8596815"><ele>31.0</ele><time>2026-03-28T13:07:05.252Z</time></trkpt><trkpt lat="41.5330286" lon="12.8596491"><ele>31.0</ele><time>2026-03-28T13:07:09.253Z</time></trkpt><trkpt lat="41.5329588" lon="12.859535"><ele>31.000000000000004</ele><time>2026-03-28T13:07:16.253Z</time></trkpt><trkpt lat="41.5328719" lon="12.8595"><ele>31.0</ele><time>2026-03-28T13:07:19.253Z</time></trkpt><trkpt lat="41.5327952" lon="12.8594707"><ele>31.0</ele><time>2026-03-28T13:07:22.252Z</time></trkpt><trkpt lat="41.5327263" lon="12.8594278"><ele>31.0</ele><time>2026-03-28T13:07:24.252Z</time></trkpt><trkpt lat="41.5326645" lon="12.8593801"><ele>31.000000000000004</ele><time>2026-03-28T13:07:26.252Z</time></trkpt><trkpt lat="41.5326164" lon="12.8593226"><ele>31.0</ele><time>2026-03-28T13:07:29.252Z</time></trkpt><trkpt lat="41.5325593" lon="12.8592627"><ele>31.0</ele><time>2026-03-28T13:08:45.253Z</time></trkpt><trkpt lat="41.5324995" lon="12.8593618"><ele>31.0</ele><time>2026-03-28T13:08:48.252Z</time></trkpt><trkpt lat="41.5324812" lon="12.8594859"><ele>31.0</ele><time>2026-03-28T13:08:50.252Z</time></trkpt><trkpt lat="41.5324445" lon="12.8596105"><ele>31.0</ele><time>2026-03-28T13:08:52.253Z</time></trkpt><trkpt lat="41.5324097" lon="12.8597326"><ele>31.0</ele><time>2026-03-28T13:08:54.252Z</time></trkpt><trkpt lat="41.5323783" lon="12.8598554"><ele>31.0</ele><time>2026-03-28T13:08:56.252Z</time></trkpt><trkpt lat="41.532337" lon="12.8600508"><ele>31.0</ele><time>2026-03-28T13:08:59.252Z</time></trkpt><trkpt lat="41.5324136" lon="12.8600783"><ele>31.0</ele><time>2026-03-28T13:09:01.253Z</time></trkpt><trkpt lat="41.5325229" lon="12.8601307"><ele>31.0</ele><time>2026-03-28T13:09:03.252Z</time></trkpt><trkpt lat="41.5326819" lon="12.8602281"><ele>31.0</ele><time>2026-03-28T13:09:06.252Z</time></trkpt><trkpt lat="41.5328671" lon="12.8602969"><ele>31.0</ele><time>2026-03-28T13:09:09.252Z</time></trkpt><trkpt lat="41.5329808" lon="12.8603503"><ele>31.0</ele><time>2026-03-28T13:09:11.252Z</time></trkpt><trkpt lat="41.5330981" lon="12.8604186"><ele>31.0</ele><time>2026-03-28T13:09:13.253Z</time></trkpt><trkpt lat="41.5332193" lon="12.860476"><ele>31.0</ele><time>2026-03-28T13:09:15.252Z</time></trkpt><trkpt lat="41.5332771" lon="12.8605148"><ele>31.0</ele><time>2026-03-28T13:09:16.252Z</time></trkpt><trkpt lat="41.5333391" lon="12.860545"><ele>31.0</ele><time>2026-03-28T13:09:17.253Z</time></trkpt><trkpt lat="41.5334663" lon="12.8606102"><ele>31.0</ele><time>2026-03-28T13:09:19.252Z</time></trkpt><trkpt lat="41.5335961" lon="12.8606781"><ele>31.0</ele><time>2026-03-28T13:09:21.252Z</time></trkpt><trkpt lat="41.5336595" lon="12.860715"><ele>31.25</ele><time>2026-03-28T13:09:22.252Z</time></trkpt><trkpt lat="41.5338266" lon="12.8607832"><ele>31.5</ele><time>2026-03-28T13:09:25.252Z</time></trkpt><trkpt lat="41.5339441" lon="12.8608482"><ele>31.75</ele><time>2026-03-28T13:09:27.252Z</time></trkpt><trkpt lat="41.5340612" lon="12.8609058"><ele>32.0</ele><time>2026-03-28T13:09:29.252Z</time></trkpt><trkpt lat="41.5341616" lon="12.8609442"><ele>32.0</ele><time>2026-03-28T13:09:31.252Z</time></trkpt><trkpt lat="41.5342743" lon="12.8609915"><ele>32.0</ele><time>2026-03-28T13:09:33.253Z</time></trkpt><trkpt lat="41.5343642" lon="12.8609877"><ele>32.0</ele><time>2026-03-28T13:09:36.253Z</time></trkpt><trkpt lat="41.5344366" lon="12.8610043"><ele>32.0</ele><time>2026-03-28T13:09:39.253Z</time></trkpt><trkpt lat="41.5345212" lon="12.8610231"><ele>32.0</ele><time>2026-03-28T13:09:41.252Z</time></trkpt><trkpt lat="41.5346052" lon="12.8610566"><ele>32.4</ele><time>2026-03-28T13:09:43.253Z</time></trkpt><trkpt lat="41.5346925" lon="12.8611"><ele>32.800000000000004</ele><time>2026-03-28T13:09:45.252Z</time></trkpt><trkpt lat="41.5347731" lon="12.8612127"><ele>33.2</ele><time>2026-03-28T13:09:47.253Z</time></trkpt><trkpt lat="41.5348584" lon="12.8612544"><ele>33.6</ele><time>2026-03-28T13:09:49.252Z</time></trkpt><trkpt lat="41.5349317" lon="12.8612979"><ele>34.0</ele><time>2026-03-28T13:09:51.252Z</time></trkpt><trkpt lat="41.5350267" lon="12.8613481"><ele>34.0</ele><time>2026-03-28T13:09:53.252Z</time></trkpt><trkpt lat="41.5351258" lon="12.8613775"><ele>34.0</ele><time>2026-03-28T13:09:55.252Z</time></trkpt><trkpt lat="41.5352199" lon="12.8614079"><ele>34.0</ele><time>2026-03-28T13:09:57.253Z</time></trkpt><trkpt lat="41.535309" lon="12.8614532"><ele>34.0</ele><time>2026-03-28T13:09:59.252Z</time></trkpt><trkpt lat="41.5354079" lon="12.86144"><ele>34.0</ele><time>2026-03-28T13:10:01.253Z</time></trkpt><trkpt lat="41.5355218" lon="12.8614858"><ele>33.0</ele><time>2026-03-28T13:10:03.253Z</time></trkpt><trkpt lat="41.535632" lon="12.8615533"><ele>32.0</ele><time>2026-03-28T13:10:05.252Z</time></trkpt><trkpt lat="41.5357432" lon="12.8616125"><ele>31.0</ele><time>2026-03-28T13:10:07.252Z</time></trkpt><trkpt lat="41.5358549" lon="12.8616615"><ele>30.0</ele><time>2026-03-28T13:10:09.252Z</time></trkpt><trkpt lat="41.5359682" lon="12.8617139"><ele>30.0</ele><time>2026-03-28T13:10:11.253Z</time></trkpt><trkpt lat="41.5360703" lon="12.8617771"><ele>30.0</ele><time>2026-03-28T13:10:13.252Z</time></trkpt><trkpt lat="41.536216" lon="12.8618507"><ele>30.0</ele><time>2026-03-28T13:10:16.253Z</time></trkpt><trkpt lat="41.5363317" lon="12.8618957"><ele>30.0</ele><time>2026-03-28T13:10:18.252Z</time></trkpt><trkpt lat="41.5364229" lon="12.8619575"><ele>30.25</ele><time>2026-03-28T13:10:20.252Z</time></trkpt><trkpt lat="41.5365329" lon="12.862002"><ele>30.5</ele><time>2026-03-28T13:10:22.252Z</time></trkpt><trkpt lat="41.5366398" lon="12.8620647"><ele>30.75</ele><time>2026-03-28T13:10:24.252Z</time></trkpt><trkpt lat="41.5367587" lon="12.8621121"><ele>31.0</ele><time>2026-03-28T13:10:26.252Z</time></trkpt><trkpt lat="41.5368682" lon="12.862165"><ele>31.0</ele><time>2026-03-28T13:10:28.252Z</time></trkpt><trkpt lat="41.5369728" lon="12.8622344"><ele>31.0</ele><time>2026-03-28T13:10:30.252Z</time></trkpt><trkpt lat="41.5370799" lon="12.862272"><ele>31.0</ele><time>2026-03-28T13:10:32.252Z</time></trkpt><trkpt lat="41.5371834" lon="12.862323"><ele>31.0</ele><time>2026-03-28T13:10:34.252Z</time></trkpt><trkpt lat="41.5372815" lon="12.8623479"><ele>31.0</ele><time>2026-03-28T13:10:36.252Z</time></trkpt><trkpt lat="41.5373818" lon="12.8624132"><ele>31.200000000000003</ele><time>2026-03-28T13:10:38.252Z</time></trkpt><trkpt lat="41.537481" lon="12.8624705"><ele>31.400000000000002</ele><time>2026-03-28T13:10:40.252Z</time></trkpt><trkpt lat="41.5375626" lon="12.8625138"><ele>31.6</ele><time>2026-03-28T13:10:42.252Z</time></trkpt><trkpt lat="41.5376507" lon="12.8625534"><ele>31.8</ele><time>2026-03-28T13:10:44.252Z</time></trkpt><trkpt lat="41.5377487" lon="12.8626337"><ele>32.0</ele><time>2026-03-28T13:10:46.252Z</time></trkpt><trkpt lat="41.5378078" lon="12.8626737"><ele>32.666666666666664</ele><time>2026-03-28T13:10:47.252Z</time></trkpt><trkpt lat="41.5379767" lon="12.8627444"><ele>33.333333333333336</ele><time>2026-03-28T13:10:50.252Z</time></trkpt><trkpt lat="41.5380803" lon="12.8628138"><ele>34.0</ele><time>2026-03-28T13:10:52.252Z</time></trkpt><trkpt lat="41.5382326" lon="12.8628936"><ele>34.0</ele><time>2026-03-28T13:10:55.252Z</time></trkpt><trkpt lat="41.5383384" lon="12.8629518"><ele>34.0</ele><time>2026-03-28T13:10:57.252Z</time></trkpt><trkpt lat="41.5384625" lon="12.8629884"><ele>34.0</ele><time>2026-03-28T13:10:59.252Z</time></trkpt><trkpt lat="41.5385792" lon="12.8630482"><ele>34.0</ele><time>2026-03-28T13:11:01.253Z</time></trkpt><trkpt lat="41.5387585" lon="12.8631247"><ele>33.25</ele><time>2026-03-28T13:11:04.252Z</time></trkpt><trkpt lat="41.5388654" lon="12.8631944"><ele>32.5</ele><time>2026-03-28T13:11:06.253Z</time></trkpt><trkpt lat="41.5389704" lon="12.8632564"><ele>31.75</ele><time>2026-03-28T13:11:08.252Z</time></trkpt><trkpt lat="41.5390744" lon="12.8632871"><ele>31.0</ele><time>2026-03-28T13:11:10.252Z</time></trkpt><trkpt lat="41.5391837" lon="12.8633537"><ele>31.0</ele><time>2026-03-28T13:11:12.252Z</time></trkpt><trkpt lat="41.5392968" lon="12.863399"><ele>31.0</ele><time>2026-03-28T13:11:14.253Z</time></trkpt><trkpt lat="41.5394055" lon="12.863458"><ele>31.0</ele><time>2026-03-28T13:11:16.252Z</time></trkpt><trkpt lat="41.5395045" lon="12.8635292"><ele>31.0</ele><time>2026-03-28T13:11:18.252Z</time></trkpt><trkpt lat="41.5396149" lon="12.8636051"><ele>31.0</ele><time>2026-03-28T13:11:20.252Z</time></trkpt><trkpt lat="41.5397675" lon="12.8637043"><ele>31.0</ele><time>2026-03-28T13:11:23.252Z</time></trkpt><trkpt lat="41.5399178" lon="12.8637858"><ele>31.0</ele><time>2026-03-28T13:11:26.252Z</time></trkpt><trkpt lat="41.5400534" lon="12.8638903"><ele>31.0</ele><time>2026-03-28T13:11:29.252Z</time></trkpt><trkpt lat="41.5401582" lon="12.8639848"><ele>31.0</ele><time>2026-03-28T13:11:31.253Z</time></trkpt><trkpt lat="41.5402583" lon="12.8640596"><ele>31.0</ele><time>2026-03-28T13:11:33.252Z</time></trkpt><trkpt lat="41.5403389" lon="12.864117"><ele>31.0</ele><time>2026-03-28T13:11:35.252Z</time></trkpt><trkpt lat="41.5404287" lon="12.8641742"><ele>31.0</ele><time>2026-03-28T13:11:37.252Z</time></trkpt><trkpt lat="41.5405695" lon="12.8642573"><ele>31.6</ele><time>2026-03-28T13:11:40.252Z</time></trkpt><trkpt lat="41.5406547" lon="12.8643346"><ele>32.2</ele><time>2026-03-28T13:11:42.252Z</time></trkpt><trkpt lat="41.5407497" lon="12.8643888"><ele>32.8</ele><time>2026-03-28T13:11:44.252Z</time></trkpt><trkpt lat="41.5408534" lon="12.8644632"><ele>33.4</ele><time>2026-03-28T13:11:46.252Z</time></trkpt><trkpt lat="41.5409435" lon="12.864544"><ele>34.0</ele><time>2026-03-28T13:11:48.252Z</time></trkpt><trkpt lat="41.5410809" lon="12.8646199"><ele>34.0</ele><time>2026-03-28T13:11:51.252Z</time></trkpt><trkpt lat="41.5411608" lon="12.8646927"><ele>34.0</ele><time>2026-03-28T13:11:53.252Z</time></trkpt><trkpt lat="41.5412318" lon="12.8647763"><ele>34.0</ele><time>2026-03-28T13:11:55.252Z</time></trkpt><trkpt lat="41.541307" lon="12.8648378"><ele>34.0</ele><time>2026-03-28T13:11:57.253Z</time></trkpt><trkpt lat="41.5413476" lon="12.8649087"><ele>34.0</ele><time>2026-03-28T13:11:59.252Z</time></trkpt><trkpt lat="41.5413982" lon="12.86497"><ele>34.0</ele><time>2026-03-28T13:12:01.253Z</time></trkpt><trkpt lat="41.5414496" lon="12.8650186"><ele>33.8</ele><time>2026-03-28T13:12:03.252Z</time></trkpt><trkpt lat="41.5415131" lon="12.8650944"><ele>33.599999999999994</ele><time>2026-03-28T13:12:05.252Z</time></trkpt><trkpt lat="41.5415744" lon="12.8652005"><ele>33.4</ele><time>2026-03-28T13:12:08.253Z</time></trkpt><trkpt lat="41.5416528" lon="12.8652665"><ele>33.199999999999996</ele><time>2026-03-28T13:12:11.252Z</time></trkpt><trkpt lat="41.5417306" lon="12.8653436"><ele>33.0</ele><time>2026-03-28T13:12:13.252Z</time></trkpt><trkpt lat="41.5418184" lon="12.8654007"><ele>33.0</ele><time>2026-03-28T13:12:15.253Z</time></trkpt><trkpt lat="41.5418878" lon="12.8654558"><ele>33.0</ele><time>2026-03-28T13:12:17.252Z</time></trkpt><trkpt lat="41.5419266" lon="12.8655369"><ele>33.0</ele><time>2026-03-28T13:12:18.252Z</time></trkpt><trkpt lat="41.5420172" lon="12.8655467"><ele>33.0</ele><time>2026-03-28T13:12:20.252Z</time></trkpt><trkpt lat="41.5420878" lon="12.865617"><ele>33.0</ele><time>2026-03-28T13:12:22.253Z</time></trkpt><trkpt lat="41.5421635" lon="12.8657008"><ele>33.0</ele><time>2026-03-28T13:12:24.252Z</time></trkpt><trkpt lat="41.5422171" lon="12.865788"><ele>32.833333333333336</ele><time>2026-03-28T13:12:26.252Z</time></trkpt><trkpt lat="41.5422651" lon="12.8658598"><ele>32.666666666666664</ele><time>2026-03-28T13:12:28.252Z</time></trkpt><trkpt lat="41.5423298" lon="12.8659128"><ele>32.5</ele><time>2026-03-28T13:12:30.252Z</time></trkpt><trkpt lat="41.5423922" lon="12.8659927"><ele>32.33333333333333</ele><time>2026-03-28T13:12:32.253Z</time></trkpt><trkpt lat="41.5424485" lon="12.8661075"><ele>32.166666666666664</ele><time>2026-03-28T13:12:34.252Z</time></trkpt><trkpt lat="41.5425096" lon="12.866176"><ele>32.0</ele><time>2026-03-28T13:12:36.252Z</time></trkpt><trkpt lat="41.5425801" lon="12.8662136"><ele>32.4</ele><time>2026-03-28T13:12:38.253Z</time></trkpt><trkpt lat="41.5426585" lon="12.8662779"><ele>32.800000000000004</ele><time>2026-03-28T13:12:40.253Z</time></trkpt><trkpt lat="41.542725" lon="12.8663772"><ele>33.2</ele><time>2026-03-28T13:12:42.252Z</time></trkpt><trkpt lat="41.5427889" lon="12.8664845"><ele>33.6</ele><time>2026-03-28T13:12:44.252Z</time></trkpt><trkpt lat="41.5428196" lon="12.866581"><ele>34.0</ele><time>2026-03-28T13:12:46.252Z</time></trkpt><trkpt lat="41.5428855" lon="12.8666638"><ele>34.0</ele><time>2026-03-28T13:12:48.252Z</time></trkpt><trkpt lat="41.5429489" lon="12.8667654"><ele>34.0</ele><time>2026-03-28T13:12:50.252Z</time></trkpt><trkpt lat="41.5430244" lon="12.8668578"><ele>34.0</ele><time>2026-03-28T13:12:52.252Z</time></trkpt><trkpt lat="41.5431155" lon="12.8669606"><ele>34.0</ele><time>2026-03-28T13:12:54.253Z</time></trkpt><trkpt lat="41.5431733" lon="12.8670264"><ele>34.0</ele><time>2026-03-28T13:12:55.252Z</time></trkpt><trkpt lat="41.5432194" lon="12.8670902"><ele>34.0</ele><time>2026-03-28T13:12:56.252Z</time></trkpt><trkpt lat="41.5432689" lon="12.8671581"><ele>34.0</ele><time>2026-03-28T13:12:57.252Z</time></trkpt><trkpt lat="41.5433196" lon="12.8672208"><ele>34.0</ele><time>2026-03-28T13:12:58.253Z</time></trkpt><trkpt lat="41.5433713" lon="12.8672932"><ele>34.0</ele><time>2026-03-28T13:12:59.252Z</time></trkpt><trkpt lat="41.5434508" lon="12.8674039"><ele>34.0</ele><time>2026-03-28T13:13:01.253Z</time></trkpt><trkpt lat="41.5435017" lon="12.8674601"><ele>34.0</ele><time>2026-03-28T13:13:02.252Z</time></trkpt><trkpt lat="41.543554" lon="12.8675297"><ele>33.5</ele><time>2026-03-28T13:13:03.253Z</time></trkpt><trkpt lat="41.5436408" lon="12.867653"><ele>33.0</ele><time>2026-03-28T13:13:05.252Z</time></trkpt><trkpt lat="41.543688" lon="12.8677452"><ele>32.5</ele><time>2026-03-28T13:13:06.252Z</time></trkpt><trkpt lat="41.5438014" lon="12.867901"><ele>32.0</ele><time>2026-03-28T13:13:08.252Z</time></trkpt><trkpt lat="41.5438615" lon="12.8679782"><ele>31.999999999999996</ele><time>2026-03-28T13:13:09.252Z</time></trkpt><trkpt lat="41.5439095" lon="12.8680374"><ele>32.0</ele><time>2026-03-28T13:13:10.252Z</time></trkpt><trkpt lat="41.5439666" lon="12.8681052"><ele>32.0</ele><time>2026-03-28T13:13:11.252Z</time></trkpt><trkpt lat="41.5440301" lon="12.8681757"><ele>32.0</ele><time>2026-03-28T13:13:12.252Z</time></trkpt><trkpt lat="41.5440945" lon="12.8682476"><ele>31.999999999999996</ele><time>2026-03-28T13:13:13.253Z</time></trkpt><trkpt lat="41.5441445" lon="12.8683294"><ele>32.0</ele><time>2026-03-28T13:13:14.252Z</time></trkpt><trkpt lat="41.5442158" lon="12.8684127"><ele>33.0</ele><time>2026-03-28T13:13:15.252Z</time></trkpt><trkpt lat="41.5443483" lon="12.8686014"><ele>34.0</ele><time>2026-03-28T13:13:17.253Z</time></trkpt><trkpt lat="41.5444856" lon="12.8687545"><ele>35.0</ele><time>2026-03-28T13:13:19.252Z</time></trkpt><trkpt lat="41.5445444" lon="12.8688466"><ele>34.6</ele><time>2026-03-28T13:13:20.253Z</time></trkpt><trkpt lat="41.5446136" lon="12.8689299"><ele>34.2</ele><time>2026-03-28T13:13:21.252Z</time></trkpt><trkpt lat="41.5446804" lon="12.8690135"><ele>33.8</ele><time>2026-03-28T13:13:22.252Z</time></trkpt><trkpt lat="41.5447553" lon="12.8690907"><ele>33.4</ele><time>2026-03-28T13:13:23.252Z</time></trkpt><trkpt lat="41.5448244" lon="12.8691735"><ele>33.0</ele><time>2026-03-28T13:13:24.252Z</time></trkpt><trkpt lat="41.5448926" lon="12.8692563"><ele>33.333333333333336</ele><time>2026-03-28T13:13:25.253Z</time></trkpt><trkpt lat="41.5449624" lon="12.8693326"><ele>33.666666666666664</ele><time>2026-03-28T13:13:26.252Z</time></trkpt><trkpt lat="41.5450387" lon="12.8694274"><ele>34.0</ele><time>2026-03-28T13:13:27.252Z</time></trkpt><trkpt lat="41.5450875" lon="12.8694958"><ele>34.33333333333333</ele><time>2026-03-28T13:13:28.252Z</time></trkpt><trkpt lat="41.5451298" lon="12.8695648"><ele>34.666666666666664</ele><time>2026-03-28T13:13:29.252Z</time></trkpt><trkpt lat="41.545191" lon="12.8696438"><ele>35.0</ele><time>2026-03-28T13:13:30.252Z</time></trkpt><trkpt lat="41.5452632" lon="12.8697343"><ele>35.0</ele><time>2026-03-28T13:13:31.253Z</time></trkpt><trkpt lat="41.5453386" lon="12.8698123"><ele>35.0</ele><time>2026-03-28T13:13:32.253Z</time></trkpt><trkpt lat="41.5454238" lon="12.869894"><ele>35.0</ele><time>2026-03-28T13:13:33.252Z</time></trkpt><trkpt lat="41.5455007" lon="12.869983"><ele>35.0</ele><time>2026-03-28T13:13:34.253Z</time></trkpt><trkpt lat="41.5455708" lon="12.87008"><ele>35.0</ele><time>2026-03-28T13:13:35.252Z</time></trkpt><trkpt lat="41.5456505" lon="12.8701816"><ele>34.8</ele><time>2026-03-28T13:13:36.252Z</time></trkpt><trkpt lat="41.5457181" lon="12.8702775"><ele>34.6</ele><time>2026-03-28T13:13:37.253Z</time></trkpt><trkpt lat="41.5457871" lon="12.8703644"><ele>34.4</ele><time>2026-03-28T13:13:38.252Z</time></trkpt><trkpt lat="41.5458636" lon="12.8704642"><ele>34.2</ele><time>2026-03-28T13:13:39.253Z</time></trkpt><trkpt lat="41.5459352" lon="12.8705578"><ele>34.0</ele><time>2026-03-28T13:13:40.252Z</time></trkpt><trkpt lat="41.5460128" lon="12.8706381"><ele>34.0</ele><time>2026-03-28T13:13:41.253Z</time></trkpt><trkpt lat="41.5461114" lon="12.8708218"><ele>34.0</ele><time>2026-03-28T13:13:43.252Z</time></trkpt><trkpt lat="41.5461894" lon="12.8709094"><ele>34.0</ele><time>2026-03-28T13:13:44.252Z</time></trkpt><trkpt lat="41.5462577" lon="12.8710008"><ele>34.0</ele><time>2026-03-28T13:13:45.252Z</time></trkpt><trkpt lat="41.5463277" lon="12.871099"><ele>33.8</ele><time>2026-03-28T13:13:46.252Z</time></trkpt><trkpt lat="41.5464026" lon="12.8711906"><ele>33.599999999999994</ele><time>2026-03-28T13:13:47.252Z</time></trkpt><trkpt lat="41.5464737" lon="12.8712923"><ele>33.4</ele><time>2026-03-28T13:13:48.252Z</time></trkpt><trkpt lat="41.5465526" lon="12.871379"><ele>33.199999999999996</ele><time>2026-03-28T13:13:49.252Z</time></trkpt><trkpt lat="41.5466133" lon="12.871464"><ele>33.0</ele><time>2026-03-28T13:13:50.252Z</time></trkpt><trkpt lat="41.546762" lon="12.8716559"><ele>33.25</ele><time>2026-03-28T13:13:52.252Z</time></trkpt><trkpt lat="41.5469035" lon="12.8718551"><ele>33.5</ele><time>2026-03-28T13:13:54.253Z</time></trkpt><trkpt lat="41.5469784" lon="12.871947"><ele>33.75</ele><time>2026-03-28T13:13:55.252Z</time></trkpt><trkpt lat="41.5470373" lon="12.8720359"><ele>34.0</ele><time>2026-03-28T13:13:56.252Z</time></trkpt><trkpt lat="41.5471082" lon="12.87213"><ele>34.0</ele><time>2026-03-28T13:13:57.252Z</time></trkpt><trkpt lat="41.5471661" lon="12.8722249"><ele>34.0</ele><time>2026-03-28T13:13:58.252Z</time></trkpt><trkpt lat="41.5472262" lon="12.8723155"><ele>34.0</ele><time>2026-03-28T13:13:59.252Z</time></trkpt><trkpt lat="41.5472736" lon="12.8724113"><ele>34.0</ele><time>2026-03-28T13:14:00.253Z</time></trkpt><trkpt lat="41.5474116" lon="12.8725549"><ele>34.0</ele><time>2026-03-28T13:14:02.252Z</time></trkpt><trkpt lat="41.5475115" lon="12.8726343"><ele>34.333333333333336</ele><time>2026-03-28T13:14:03.253Z</time></trkpt><trkpt lat="41.5475776" lon="12.8726966"><ele>34.66666666666667</ele><time>2026-03-28T13:14:04.252Z</time></trkpt><trkpt lat="41.5476451" lon="12.8727583"><ele>35.0</ele><time>2026-03-28T13:14:05.252Z</time></trkpt><trkpt lat="41.5477204" lon="12.8728262"><ele>35.333333333333336</ele><time>2026-03-28T13:14:06.252Z</time></trkpt><trkpt lat="41.5477848" lon="12.8728997"><ele>35.666666666666664</ele><time>2026-03-28T13:14:07.253Z</time></trkpt><trkpt lat="41.547855" lon="12.8729927"><ele>36.0</ele><time>2026-03-28T13:14:08.252Z</time></trkpt><trkpt lat="41.547918" lon="12.873094"><ele>35.75</ele><time>2026-03-28T13:14:09.253Z</time></trkpt><trkpt lat="41.5479798" lon="12.873187"><ele>35.5</ele><time>2026-03-28T13:14:10.252Z</time></trkpt><trkpt lat="41.5480469" lon="12.8732687"><ele>35.25</ele><time>2026-03-28T13:14:11.253Z</time></trkpt><trkpt lat="41.5481741" lon="12.8734485"><ele>35.0</ele><time>2026-03-28T13:14:13.252Z</time></trkpt><trkpt lat="41.5482437" lon="12.873541"><ele>35.0</ele><time>2026-03-28T13:14:14.253Z</time></trkpt><trkpt lat="41.5482971" lon="12.8736374"><ele>35.0</ele><time>2026-03-28T13:14:15.252Z</time></trkpt><trkpt lat="41.5483749" lon="12.8737629"><ele>35.0</ele><time>2026-03-28T13:14:16.252Z</time></trkpt><trkpt lat="41.5484332" lon="12.8738622"><ele>35.0</ele><time>2026-03-28T13:14:17.252Z</time></trkpt><trkpt lat="41.5485399" lon="12.8740568"><ele>35.0</ele><time>2026-03-28T13:14:19.252Z</time></trkpt><trkpt lat="41.5486649" lon="12.8742679"><ele>35.0</ele><time>2026-03-28T13:14:21.253Z</time></trkpt><trkpt lat="41.5487754" lon="12.8744634"><ele>35.0</ele><time>2026-03-28T13:14:23.252Z</time></trkpt><trkpt lat="41.5488287" lon="12.8745682"><ele>35.0</ele><time>2026-03-28T13:14:24.253Z</time></trkpt><trkpt lat="41.5489005" lon="12.8747273"><ele>35.0</ele><time>2026-03-28T13:14:26.252Z</time></trkpt><trkpt lat="41.5489393" lon="12.8748103"><ele>35.0</ele><time>2026-03-28T13:14:27.252Z</time></trkpt><trkpt lat="41.5490007" lon="12.8748962"><ele>35.0</ele><time>2026-03-28T13:14:28.252Z</time></trkpt><trkpt lat="41.5490416" lon="12.8750086"><ele>35.0</ele><time>2026-03-28T13:14:29.252Z</time></trkpt><trkpt lat="41.5490878" lon="12.8751199"><ele>35.0</ele><time>2026-03-28T13:14:30.253Z</time></trkpt><trkpt lat="41.5491247" lon="12.8752169"><ele>35.0</ele><time>2026-03-28T13:14:31.253Z</time></trkpt><trkpt lat="41.549154" lon="12.8753253"><ele>35.0</ele><time>2026-03-28T13:14:32.252Z</time></trkpt><trkpt lat="41.5491927" lon="12.8754257"><ele>35.0</ele><time>2026-03-28T13:14:33.252Z</time></trkpt><trkpt lat="41.5492129" lon="12.8755348"><ele>35.0</ele><time>2026-03-28T13:14:34.252Z</time></trkpt><trkpt lat="41.5492534" lon="12.8756388"><ele>35.0</ele><time>2026-03-28T13:14:35.253Z</time></trkpt><trkpt lat="41.5492913" lon="12.8757447"><ele>35.0</ele><time>2026-03-28T13:14:36.252Z</time></trkpt><trkpt lat="41.5493204" lon="12.8758441"><ele>35.0</ele><time>2026-03-28T13:14:37.253Z</time></trkpt><trkpt lat="41.5493626" lon="12.8759531"><ele>35.0</ele><time>2026-03-28T13:14:38.252Z</time></trkpt><trkpt lat="41.549392" lon="12.8760526"><ele>35.0</ele><time>2026-03-28T13:14:39.253Z</time></trkpt><trkpt lat="41.5494233" lon="12.8761561"><ele>35.0</ele><time>2026-03-28T13:14:40.252Z</time></trkpt><trkpt lat="41.5494562" lon="12.8762548"><ele>35.0</ele><time>2026-03-28T13:14:41.252Z</time></trkpt><trkpt lat="41.5494814" lon="12.8763485"><ele>35.142857142857146</ele><time>2026-03-28T13:14:42.252Z</time></trkpt><trkpt lat="41.5495097" lon="12.8764451"><ele>35.285714285714285</ele><time>2026-03-28T13:14:43.253Z</time></trkpt><trkpt lat="41.5495337" lon="12.8765317"><ele>35.42857142857143</ele><time>2026-03-28T13:14:44.252Z</time></trkpt><trkpt lat="41.5495608" lon="12.8766493"><ele>35.57142857142857</ele><time>2026-03-28T13:14:46.252Z</time></trkpt><trkpt lat="41.5495991" lon="12.8767214"><ele>35.714285714285715</ele><time>2026-03-28T13:14:48.252Z</time></trkpt><trkpt lat="41.5496415" lon="12.8766511"><ele>35.85714285714286</ele><time>2026-03-28T13:14:52.252Z</time></trkpt><trkpt lat="41.5496387" lon="12.8765665"><ele>36.0</ele><time>2026-03-28T13:14:55.252Z</time></trkpt><trkpt lat="41.549698" lon="12.8765114"><ele>35.666666666666664</ele><time>2026-03-28T13:15:00.252Z</time></trkpt><trkpt lat="41.5497403" lon="12.8765881"><ele>35.333333333333336</ele><time>2026-03-28T13:15:03.252Z</time></trkpt><trkpt lat="41.5497596" lon="12.8766799"><ele>35.0</ele><time>2026-03-28T13:15:05.253Z</time></trkpt><trkpt lat="41.5497731" lon="12.8767776"><ele>34.66666666666667</ele><time>2026-03-28T13:15:07.252Z</time></trkpt><trkpt lat="41.5497971" lon="12.8768911"><ele>34.333333333333336</ele><time>2026-03-28T13:15:09.252Z</time></trkpt><trkpt lat="41.5498462" lon="12.8770552"><ele>34.0</ele><time>2026-03-28T13:15:12.252Z</time></trkpt><trkpt lat="41.5498748" lon="12.8771476"><ele>34.0</ele><time>2026-03-28T13:15:14.253Z</time></trkpt><trkpt lat="41.549903" lon="12.8772619"><ele>34.0</ele><time>2026-03-28T13:15:16.252Z</time></trkpt><trkpt lat="41.5499229" lon="12.8773664"><ele>34.0</ele><time>2026-03-28T13:15:18.252Z</time></trkpt><trkpt lat="41.5499607" lon="12.8774835"><ele>34.0</ele><time>2026-03-28T13:15:20.253Z</time></trkpt><trkpt lat="41.5499978" lon="12.8775819"><ele>34.0</ele><time>2026-03-28T13:15:22.252Z</time></trkpt><trkpt lat="41.5500261" lon="12.8776728"><ele>34.0</ele><time>2026-03-28T13:15:24.253Z</time></trkpt><trkpt lat="41.5500531" lon="12.8777565"><ele>33.99999999999999</ele><time>2026-03-28T13:15:26.252Z</time></trkpt><trkpt lat="41.5500843" lon="12.8778573"><ele>34.0</ele><time>2026-03-28T13:15:29.252Z</time></trkpt><trkpt lat="41.5501067" lon="12.8779377"><ele>34.0</ele><time>2026-03-28T13:15:31.252Z</time></trkpt><trkpt lat="41.5501348" lon="12.8780197"><ele>34.0</ele><time>2026-03-28T13:15:33.253Z</time></trkpt><trkpt lat="41.5501654" lon="12.8780948"><ele>34.0</ele><time>2026-03-28T13:15:35.252Z</time></trkpt><trkpt lat="41.5501988" lon="12.8781711"><ele>33.99999999999999</ele><time>2026-03-28T13:15:37.252Z</time></trkpt><trkpt lat="41.5502331" lon="12.8782422"><ele>34.0</ele><time>2026-03-28T13:15:39.252Z</time></trkpt><trkpt lat="41.5502703" lon="12.8783117"><ele>34.0</ele><time>2026-03-28T13:15:41.252Z</time></trkpt><trkpt lat="41.5503187" lon="12.8784163"><ele>34.0</ele><time>2026-03-28T13:15:44.253Z</time></trkpt><trkpt lat="41.5503539" lon="12.8784869"><ele>34.0</ele><time>2026-03-28T13:15:46.252Z</time></trkpt><trkpt lat="41.5503994" lon="12.8785664"><ele>34.0</ele><time>2026-03-28T13:15:49.253Z</time></trkpt><trkpt lat="41.5504693" lon="12.8786925"><ele>34.0</ele><time>2026-03-28T13:15:53.252Z</time></trkpt><trkpt lat="41.5505221" lon="12.8787782"><ele>34.0</ele><time>2026-03-28T13:15:56.252Z</time></trkpt><trkpt lat="41.5505839" lon="12.8788649"><ele>33.99999999999999</ele><time>2026-03-28T13:15:59.252Z</time></trkpt><trkpt lat="41.5506324" lon="12.8789432"><ele>34.0</ele><time>2026-03-28T13:16:01.252Z</time></trkpt><trkpt lat="41.5506802" lon="12.8790241"><ele>34.0</ele><time>2026-03-28T13:16:03.252Z</time></trkpt><trkpt lat="41.5507204" lon="12.8790937"><ele>34.0</ele><time>2026-03-28T13:16:05.253Z</time></trkpt><trkpt lat="41.5507665" lon="12.8791661"><ele>34.0</ele><time>2026-03-28T13:16:07.252Z</time></trkpt><trkpt lat="41.550817" lon="12.8792365"><ele>33.99999999999999</ele><time>2026-03-28T13:16:09.253Z</time></trkpt><trkpt lat="41.5508703" lon="12.8793156"><ele>34.0</ele><time>2026-03-28T13:16:11.253Z</time></trkpt><trkpt lat="41.550931" lon="12.8793959"><ele>33.833333333333336</ele><time>2026-03-28T13:16:14.252Z</time></trkpt><trkpt lat="41.5509963" lon="12.8794765"><ele>33.66666666666667</ele><time>2026-03-28T13:16:17.252Z</time></trkpt><trkpt lat="41.5510447" lon="12.8795449"><ele>33.5</ele><time>2026-03-28T13:16:19.252Z</time></trkpt><trkpt lat="41.5510929" lon="12.879614"><ele>33.333333333333336</ele><time>2026-03-28T13:16:21.252Z</time></trkpt><trkpt lat="41.5511578" lon="12.8797092"><ele>33.166666666666664</ele><time>2026-03-28T13:16:24.252Z</time></trkpt><trkpt lat="41.5512038" lon="12.8797779"><ele>33.0</ele><time>2026-03-28T13:16:26.252Z</time></trkpt><trkpt lat="41.5512704" lon="12.8798708"><ele>33.0</ele><time>2026-03-28T13:16:29.252Z</time></trkpt><trkpt lat="41.5513407" lon="12.8799741"><ele>33.0</ele><time>2026-03-28T13:16:32.252Z</time></trkpt><trkpt lat="41.5513881" lon="12.8800296"><ele>33.0</ele><time>2026-03-28T13:16:34.253Z</time></trkpt><trkpt lat="41.5514596" lon="12.8801286"><ele>33.0</ele><time>2026-03-28T13:16:37.252Z</time></trkpt><trkpt lat="41.5515169" lon="12.8802033"><ele>33.0</ele><time>2026-03-28T13:16:40.252Z</time></trkpt><trkpt lat="41.551577" lon="12.8802827"><ele>33.0</ele><time>2026-03-28T13:16:43.252Z</time></trkpt><trkpt lat="41.5516402" lon="12.8803659"><ele>33.0</ele><time>2026-03-28T13:16:46.252Z</time></trkpt><trkpt lat="41.5516873" lon="12.8804314"><ele>33.0</ele><time>2026-03-28T13:16:48.252Z</time></trkpt><trkpt lat="41.5517328" lon="12.8804995"><ele>33.0</ele><time>2026-03-28T13:16:50.252Z</time></trkpt><trkpt lat="41.5517779" lon="12.8805729"><ele>33.0</ele><time>2026-03-28T13:16:52.253Z</time></trkpt><trkpt lat="41.5518176" lon="12.8806419"><ele>33.0</ele><time>2026-03-28T13:16:54.253Z</time></trkpt><trkpt lat="41.5518746" lon="12.8807309"><ele>33.0</ele><time>2026-03-28T13:16:57.253Z</time></trkpt><trkpt lat="41.5519311" lon="12.8808097"><ele>33.0</ele><time>2026-03-28T13:17:00.253Z</time></trkpt><trkpt lat="41.551994" lon="12.8808917"><ele>33.333333333333336</ele><time>2026-03-28T13:17:03.252Z</time></trkpt><trkpt lat="41.5520584" lon="12.8809812"><ele>33.666666666666664</ele><time>2026-03-28T13:17:06.252Z</time></trkpt><trkpt lat="41.5521108" lon="12.8810626"><ele>34.0</ele><time>2026-03-28T13:17:09.252Z</time></trkpt><trkpt lat="41.5521597" lon="12.8811289"><ele>34.33333333333333</ele><time>2026-03-28T13:17:12.252Z</time></trkpt><trkpt lat="41.5522284" lon="12.8812162"><ele>34.666666666666664</ele><time>2026-03-28T13:17:15.253Z</time></trkpt><trkpt lat="41.5522753" lon="12.8812776"><ele>35.0</ele><time>2026-03-28T13:17:17.252Z</time></trkpt><trkpt lat="41.5523335" lon="12.8813712"><ele>35.0</ele><time>2026-03-28T13:17:20.252Z</time></trkpt><trkpt lat="41.5523805" lon="12.88144"><ele>35.0</ele><time>2026-03-28T13:17:22.253Z</time></trkpt><trkpt lat="41.552429" lon="12.8815074"><ele>35.0</ele><time>2026-03-28T13:17:24.252Z</time></trkpt><trkpt lat="41.5524768" lon="12.8815724"><ele>35.0</ele><time>2026-03-28T13:17:26.252Z</time></trkpt><trkpt lat="41.5525242" lon="12.8816438"><ele>35.0</ele><time>2026-03-28T13:17:28.252Z</time></trkpt><trkpt lat="41.5525679" lon="12.8817126"><ele>35.0</ele><time>2026-03-28T13:17:30.253Z</time></trkpt><trkpt lat="41.5526125" lon="12.8817801"><ele>35.0</ele><time>2026-03-28T13:17:32.252Z</time></trkpt><trkpt lat="41.5526571" lon="12.8818407"><ele>35.166666666666664</ele><time>2026-03-28T13:17:34.252Z</time></trkpt><trkpt lat="41.5527218" lon="12.8819312"><ele>35.33333333333333</ele><time>2026-03-28T13:17:37.253Z</time></trkpt><trkpt lat="41.5527807" lon="12.882005"><ele>35.5</ele><time>2026-03-28T13:17:40.252Z</time></trkpt><trkpt lat="41.5528455" lon="12.8820863"><ele>35.666666666666664</ele><time>2026-03-28T13:17:43.252Z</time></trkpt><trkpt lat="41.5529135" lon="12.8821698"><ele>35.833333333333336</ele><time>2026-03-28T13:17:46.252Z</time></trkpt><trkpt lat="41.5529576" lon="12.882233"><ele>36.0</ele><time>2026-03-28T13:17:48.253Z</time></trkpt><trkpt lat="41.5530137" lon="12.8823081"><ele>36.0</ele><time>2026-03-28T13:17:51.252Z</time></trkpt><trkpt lat="41.5530561" lon="12.8823964"><ele>36.0</ele><time>2026-03-28T13:17:57.252Z</time></trkpt><trkpt lat="41.5531091" lon="12.8824952"><ele>36.0</ele><time>2026-03-28T13:18:00.252Z</time></trkpt><trkpt lat="41.5531728" lon="12.8825763"><ele>36.0</ele><time>2026-03-28T13:18:03.252Z</time></trkpt><trkpt lat="41.5532194" lon="12.8826397"><ele>36.0</ele><time>2026-03-28T13:18:05.253Z</time></trkpt><trkpt lat="41.5533065" lon="12.8827557"><ele>36.0</ele><time>2026-03-28T13:18:09.252Z</time></trkpt><trkpt lat="41.5533532" lon="12.8828201"><ele>36.166666666666664</ele><time>2026-03-28T13:18:11.252Z</time></trkpt><trkpt lat="41.5534128" lon="12.8828952"><ele>36.333333333333336</ele><time>2026-03-28T13:18:14.252Z</time></trkpt><trkpt lat="41.5534835" lon="12.882975"><ele>36.5</ele><time>2026-03-28T13:18:33.252Z</time></trkpt><trkpt lat="41.5535324" lon="12.8830314"><ele>36.66666666666667</ele><time>2026-03-28T13:18:35.252Z</time></trkpt><trkpt lat="41.5535846" lon="12.8830891"><ele>36.833333333333336</ele><time>2026-03-28T13:18:37.252Z</time></trkpt><trkpt lat="41.5536682" lon="12.8832095"><ele>37.0</ele><time>2026-03-28T13:18:41.252Z</time></trkpt><trkpt lat="41.5537304" lon="12.8832984"><ele>37.0</ele><time>2026-03-28T13:18:44.252Z</time></trkpt><trkpt lat="41.5538166" lon="12.8834042"><ele>37.0</ele><time>2026-03-28T13:18:47.252Z</time></trkpt><trkpt lat="41.5538717" lon="12.8834893"><ele>37.0</ele><time>2026-03-28T13:18:49.253Z</time></trkpt><trkpt lat="41.5539384" lon="12.8835922"><ele>37.0</ele><time>2026-03-28T13:18:52.252Z</time></trkpt><trkpt lat="41.5539838" lon="12.8836574"><ele>37.0</ele><time>2026-03-28T13:18:54.252Z</time></trkpt><trkpt lat="41.5540561" lon="12.8837638"><ele>36.85714285714286</ele><time>2026-03-28T13:18:57.252Z</time></trkpt><trkpt lat="41.5541063" lon="12.8838341"><ele>36.714285714285715</ele><time>2026-03-28T13:18:59.252Z</time></trkpt><trkpt lat="41.5541584" lon="12.883903"><ele>36.57142857142857</ele><time>2026-03-28T13:19:01.253Z</time></trkpt><trkpt lat="41.554213" lon="12.8839731"><ele>36.42857142857143</ele><time>2026-03-28T13:19:03.252Z</time></trkpt><trkpt lat="41.5542639" lon="12.8840418"><ele>36.285714285714285</ele><time>2026-03-28T13:19:05.252Z</time></trkpt><trkpt lat="41.5543129" lon="12.8841066"><ele>36.142857142857146</ele><time>2026-03-28T13:19:07.252Z</time></trkpt><trkpt lat="41.5543686" lon="12.8841814"><ele>36.0</ele><time>2026-03-28T13:19:09.253Z</time></trkpt><trkpt lat="41.5544267" lon="12.8842578"><ele>35.833333333333336</ele><time>2026-03-28T13:19:11.253Z</time></trkpt><trkpt lat="41.5544816" lon="12.8843431"><ele>35.666666666666664</ele><time>2026-03-28T13:19:13.252Z</time></trkpt><trkpt lat="41.5545509" lon="12.8843923"><ele>35.5</ele><time>2026-03-28T13:19:16.252Z</time></trkpt><trkpt lat="41.5545959" lon="12.8844632"><ele>35.33333333333333</ele><time>2026-03-28T13:19:18.252Z</time></trkpt><trkpt lat="41.5546431" lon="12.8845443"><ele>35.166666666666664</ele><time>2026-03-28T13:19:20.252Z</time></trkpt><trkpt lat="41.5547141" lon="12.8846689"><ele>35.0</ele><time>2026-03-28T13:19:22.253Z</time></trkpt><trkpt lat="41.5547544" lon="12.8847345"><ele>35.0</ele><time>2026-03-28T13:19:23.252Z</time></trkpt><trkpt lat="41.5548235" lon="12.8848314"><ele>35.0</ele><time>2026-03-28T13:19:25.252Z</time></trkpt><trkpt lat="41.5548902" lon="12.884939"><ele>35.0</ele><time>2026-03-28T13:19:27.252Z</time></trkpt><trkpt lat="41.5549523" lon="12.8850135"><ele>35.0</ele><time>2026-03-28T13:19:29.252Z</time></trkpt><trkpt lat="41.5550265" lon="12.885081"><ele>35.0</ele><time>2026-03-28T13:19:31.253Z</time></trkpt><trkpt lat="41.5550866" lon="12.8851566"><ele>34.83333333333333</ele><time>2026-03-28T13:19:33.253Z</time></trkpt><trkpt lat="41.5551466" lon="12.8852334"><ele>34.666666666666664</ele><time>2026-03-28T13:19:35.253Z</time></trkpt><trkpt lat="41.5552019" lon="12.8853335"><ele>34.5</ele><time>2026-03-28T13:19:37.253Z</time></trkpt><trkpt lat="41.5552659" lon="12.8854146"><ele>34.333333333333336</ele><time>2026-03-28T13:19:39.252Z</time></trkpt><trkpt lat="41.5553372" lon="12.8854922"><ele>34.16666666666667</ele><time>2026-03-28T13:19:41.252Z</time></trkpt><trkpt lat="41.5554" lon="12.8855478"><ele>34.0</ele><time>2026-03-28T13:19:43.252Z</time></trkpt><trkpt lat="41.5554682" lon="12.8856155"><ele>34.333333333333336</ele><time>2026-03-28T13:19:45.252Z</time></trkpt><trkpt lat="41.5555422" lon="12.8856546"><ele>34.66666666666667</ele><time>2026-03-28T13:19:47.252Z</time></trkpt><trkpt lat="41.5556156" lon="12.8857165"><ele>35.0</ele><time>2026-03-28T13:19:49.252Z</time></trkpt><trkpt lat="41.5556927" lon="12.8857686"><ele>35.333333333333336</ele><time>2026-03-28T13:19:51.253Z</time></trkpt><trkpt lat="41.5557738" lon="12.885832"><ele>35.666666666666664</ele><time>2026-03-28T13:19:53.252Z</time></trkpt><trkpt lat="41.5558508" lon="12.8858953"><ele>36.0</ele><time>2026-03-28T13:19:55.252Z</time></trkpt><trkpt lat="41.5559317" lon="12.8859474"><ele>36.333333333333336</ele><time>2026-03-28T13:19:57.253Z</time></trkpt><trkpt lat="41.5560066" lon="12.8860149"><ele>36.666666666666664</ele><time>2026-03-28T13:19:59.252Z</time></trkpt><trkpt lat="41.5560877" lon="12.8860312"><ele>37.0</ele><time>2026-03-28T13:20:01.253Z</time></trkpt><trkpt lat="41.5561606" lon="12.8860505"><ele>37.33333333333333</ele><time>2026-03-28T13:20:03.252Z</time></trkpt><trkpt lat="41.5562112" lon="12.8861074"><ele>37.666666666666664</ele><time>2026-03-28T13:20:05.253Z</time></trkpt><trkpt lat="41.556273" lon="12.8861659"><ele>38.0</ele><time>2026-03-28T13:20:07.252Z</time></trkpt><trkpt lat="41.5563672" lon="12.8862029"><ele>38.0</ele><time>2026-03-28T13:20:10.252Z</time></trkpt><trkpt lat="41.556598" lon="12.886261"><ele>38.0</ele><time>2026-03-28T13:20:22.252Z</time></trkpt><trkpt lat="41.5566595" lon="12.8863495"><ele>38.0</ele><time>2026-03-28T13:20:25.252Z</time></trkpt><trkpt lat="41.5566994" lon="12.8864258"><ele>38.0</ele><time>2026-03-28T13:20:27.252Z</time></trkpt><trkpt lat="41.5567812" lon="12.8864825"><ele>38.0</ele><time>2026-03-28T13:20:30.252Z</time></trkpt><trkpt lat="41.5567051" lon="12.8864999"><ele>38.0</ele><time>2026-03-28T13:21:12.252Z</time></trkpt><trkpt lat="41.5566751" lon="12.8863913"><ele>38.0</ele><time>2026-03-28T13:21:18.252Z</time></trkpt><trkpt lat="41.5566285" lon="12.8863255"><ele>38.0</ele><time>2026-03-28T13:21:27.314Z</time></trkpt><trkpt lat="41.5565595" lon="12.8863426"><ele>38.0</ele><time>2026-03-28T13:21:35.253Z</time></trkpt><trkpt lat="41.5564947" lon="12.8863241"><ele>38.0</ele><time>2026-03-28T13:21:41.252Z</time></trkpt><trkpt lat="41.5564591" lon="12.886253"><ele>38.0</ele><time>2026-03-28T13:21:52.293Z</time></trkpt><trkpt lat="41.5565155" lon="12.8862137"><ele>38.0</ele><time>2026-03-28T13:22:06.252Z</time></trkpt><trkpt lat="41.5565809" lon="12.8861965"><ele>38.0</ele><time>2026-03-28T13:22:16.252Z</time></trkpt><trkpt lat="41.5566368" lon="12.8862382"><ele>38.0</ele><time>2026-03-28T13:22:53.252Z</time></trkpt><trkpt lat="41.5565683" lon="12.8862415"><ele>38.0</ele><time>2026-03-28T13:25:28.252Z</time></trkpt><trkpt lat="41.5565139" lon="12.8862863"><ele>38.0</ele><time>2026-03-28T13:25:33.348Z</time></trkpt><trkpt lat="41.5565873" lon="12.8862869"><ele>38.0</ele><time>2026-03-28T13:26:20.253Z</time></trkpt><trkpt lat="41.5566752" lon="12.8862709"><ele>38.0</ele><time>2026-03-28T13:27:01.257Z</time></trkpt><trkpt lat="41.5566137" lon="12.8862438"><ele>38.0</ele><time>2026-03-28T13:27:11.154Z</time></trkpt><trkpt lat="41.5566508" lon="12.8863167"><ele>38.0</ele><time>2026-03-28T13:28:10.252Z</time></trkpt><trkpt lat="41.5567137" lon="12.8862676"><ele>38.0</ele><time>2026-03-28T13:28:17.303Z</time></trkpt><trkpt lat="41.556679" lon="12.8861898"><ele>38.0</ele><time>2026-03-28T13:28:30.252Z</time></trkpt><trkpt lat="41.5567017" lon="12.8862852"><ele>38.0</ele><time>2026-03-28T13:30:39.252Z</time></trkpt><trkpt lat="41.5566634" lon="12.8863621"><ele>38.0</ele><time>2026-03-28T13:31:09.252Z</time></trkpt><trkpt lat="41.5566476" lon="12.8864491"><ele>38.0</ele><time>2026-03-28T13:31:18.252Z</time></trkpt><trkpt lat="41.5566917" lon="12.8865169"><ele>38.0</ele><time>2026-03-28T13:31:51.252Z</time></trkpt><trkpt lat="41.5567585" lon="12.8865387"><ele>38.0</ele><time>2026-03-28T13:31:55.252Z</time></trkpt><trkpt lat="41.5568214" lon="12.8865323"><ele>38.0</ele><time>2026-03-28T13:32:00.174Z</time></trkpt><trkpt lat="41.5569029" lon="12.886636"><ele>38.0</ele><time>2026-03-28T13:32:29.253Z</time></trkpt><trkpt lat="41.5569575" lon="12.8867142"><ele>38.0</ele><time>2026-03-28T13:32:33.236Z</time></trkpt><trkpt lat="41.557086" lon="12.8866716"><ele>38.14285714285714</ele><time>2026-03-28T13:32:37.253Z</time></trkpt><trkpt lat="41.5571497" lon="12.8866581"><ele>38.28571428571429</ele><time>2026-03-28T13:32:53.252Z</time></trkpt><trkpt lat="41.5570948" lon="12.8867173"><ele>38.42857142857143</ele><time>2026-03-28T13:35:49.252Z</time></trkpt><trkpt lat="41.5571213" lon="12.8868205"><ele>38.57142857142857</ele><time>2026-03-28T13:35:58.253Z</time></trkpt><trkpt lat="41.557157" lon="12.8867461"><ele>38.71428571428571</ele><time>2026-03-28T13:36:11.252Z</time></trkpt><trkpt lat="41.5572211" lon="12.8867165"><ele>38.85714285714286</ele><time>2026-03-28T13:39:27.252Z</time></trkpt><trkpt lat="41.557158" lon="12.8867454"><ele>39.0</ele><time>2026-03-28T13:39:49.252Z</time></trkpt><trkpt lat="41.5571117" lon="12.88682"><ele>39.0</ele><time>2026-03-28T13:40:27.252Z</time></trkpt><trkpt lat="41.5571808" lon="12.8868084"><ele>39.0</ele><time>2026-03-28T13:40:35.094Z</time></trkpt><trkpt lat="41.5572262" lon="12.8868791"><ele>39.0</ele><time>2026-03-28T13:43:59.262Z</time></trkpt><trkpt lat="41.557203" lon="12.8867886"><ele>39.0</ele><time>2026-03-28T13:44:55.318Z</time></trkpt><trkpt lat="41.5572542" lon="12.8868673"><ele>39.0</ele><time>2026-03-28T13:45:51.308Z</time></trkpt><trkpt lat="41.5573185" lon="12.8868933"><ele>39.0</ele><time>2026-03-28T13:45:55.343Z</time></trkpt><trkpt lat="41.5574075" lon="12.8868985"><ele>39.0</ele><time>2026-03-28T13:45:59.252Z</time></trkpt><trkpt lat="41.5575044" lon="12.8869046"><ele>39.0</ele><time>2026-03-28T13:46:02.252Z</time></trkpt><trkpt lat="41.5575681" lon="12.8869121"><ele>39.0</ele><time>2026-03-28T13:46:07.252Z</time></trkpt><trkpt lat="41.5577893" lon="12.8869705"><ele>39.0</ele><time>2026-03-28T13:46:13.266Z</time></trkpt><trkpt lat="41.558093" lon="12.8870799"><ele>38.833333333333336</ele><time>2026-03-28T13:46:14.307Z</time></trkpt><trkpt lat="41.5581687" lon="12.8871"><ele>38.666666666666664</ele><time>2026-03-28T13:46:15.252Z</time></trkpt><trkpt lat="41.5582649" lon="12.8871518"><ele>38.5</ele><time>2026-03-28T13:46:19.303Z</time></trkpt><trkpt lat="41.5583341" lon="12.8871317"><ele>38.33333333333333</ele><time>2026-03-28T13:46:20.253Z</time></trkpt><trkpt lat="41.5583942" lon="12.8871652"><ele>38.166666666666664</ele><time>2026-03-28T13:46:24.172Z</time></trkpt><trkpt lat="41.5584612" lon="12.8871756"><ele>38.0</ele><time>2026-03-28T13:46:27.306Z</time></trkpt><trkpt lat="41.5585282" lon="12.8871712"><ele>39.0</ele><time>2026-03-28T13:46:32.278Z</time></trkpt><trkpt lat="41.5589203" lon="12.8873612"><ele>40.0</ele><time>2026-03-28T13:46:34.252Z</time></trkpt><trkpt lat="41.5590004" lon="12.8874024"><ele>40.0</ele><time>2026-03-28T13:46:36.252Z</time></trkpt><trkpt lat="41.5590935" lon="12.8874307"><ele>40.0</ele><time>2026-03-28T13:46:38.252Z</time></trkpt><trkpt lat="41.5591669" lon="12.8874615"><ele>40.0</ele><time>2026-03-28T13:46:40.253Z</time></trkpt><trkpt lat="41.5592331" lon="12.8874907"><ele>40.0</ele><time>2026-03-28T13:46:41.252Z</time></trkpt><trkpt lat="41.5592858" lon="12.8875866"><ele>40.0</ele><time>2026-03-28T13:46:43.252Z</time></trkpt><trkpt lat="41.559369" lon="12.8876674"><ele>40.0</ele><time>2026-03-28T13:46:45.253Z</time></trkpt><trkpt lat="41.5595011" lon="12.8877207"><ele>40.0</ele><time>2026-03-28T13:46:48.252Z</time></trkpt><trkpt lat="41.5595689" lon="12.8877578"><ele>40.0</ele><time>2026-03-28T13:46:49.252Z</time></trkpt><trkpt lat="41.5596465" lon="12.8878034"><ele>40.0</ele><time>2026-03-28T13:46:51.252Z</time></trkpt><trkpt lat="41.5597212" lon="12.8878804"><ele>40.0</ele><time>2026-03-28T13:46:53.252Z</time></trkpt><trkpt lat="41.5597916" lon="12.8879343"><ele>40.0</ele><time>2026-03-28T13:46:55.253Z</time></trkpt><trkpt lat="41.5598922" lon="12.8879451"><ele>40.0</ele><time>2026-03-28T13:46:58.252Z</time></trkpt><trkpt lat="41.5599775" lon="12.8879735"><ele>40.0</ele><time>2026-03-28T13:47:01.253Z</time></trkpt><trkpt lat="41.5600588" lon="12.888031"><ele>40.0</ele><time>2026-03-28T13:47:04.253Z</time></trkpt><trkpt lat="41.5601197" lon="12.8880837"><ele>40.0</ele><time>2026-03-28T13:47:06.252Z</time></trkpt><trkpt lat="41.5602692" lon="12.8880929"><ele>40.0</ele><time>2026-03-28T13:47:13.252Z</time></trkpt><trkpt lat="41.5603318" lon="12.888075"><ele>40.0</ele><time>2026-03-28T13:47:22.252Z</time></trkpt><trkpt lat="41.5603743" lon="12.8881497"><ele>40.0</ele><time>2026-03-28T13:47:25.252Z</time></trkpt><trkpt lat="41.5604188" lon="12.8882554"><ele>40.0</ele><time>2026-03-28T13:47:29.252Z</time></trkpt><trkpt lat="41.5604818" lon="12.8883285"><ele>40.0</ele><time>2026-03-28T13:47:32.253Z</time></trkpt><trkpt lat="41.5605362" lon="12.8883722"><ele>40.0</ele><time>2026-03-28T13:47:34.252Z</time></trkpt><trkpt lat="41.5605974" lon="12.888401"><ele>40.0</ele><time>2026-03-28T13:47:36.252Z</time></trkpt><trkpt lat="41.5606645" lon="12.8884148"><ele>40.0</ele><time>2026-03-28T13:47:38.253Z</time></trkpt><trkpt lat="41.560748" lon="12.888442"><ele>40.0</ele><time>2026-03-28T13:47:41.253Z</time></trkpt><trkpt lat="41.5608086" lon="12.8884769"><ele>40.0</ele><time>2026-03-28T13:47:43.253Z</time></trkpt><trkpt lat="41.560616" lon="12.8884656"><ele>40.0</ele><time>2026-03-28T13:47:44.346Z</time></trkpt><trkpt lat="41.5606794" lon="12.8885329"><ele>40.0</ele><time>2026-03-28T13:47:46.271Z</time></trkpt><trkpt lat="41.5607268" lon="12.8885935"><ele>40.0</ele><time>2026-03-28T13:47:48.306Z</time></trkpt><trkpt lat="41.5607371" lon="12.888681"><ele>40.0</ele><time>2026-03-28T13:47:55.212Z</time></trkpt><trkpt lat="41.5609143" lon="12.8887931"><ele>40.0</ele><time>2026-03-28T13:47:59.306Z</time></trkpt><trkpt lat="41.5611344" lon="12.888874"><ele>40.0</ele><time>2026-03-28T13:48:00.253Z</time></trkpt><trkpt lat="41.5611912" lon="12.8889181"><ele>40.0</ele><time>2026-03-28T13:48:05.252Z</time></trkpt><trkpt lat="41.5611118" lon="12.8888808"><ele>40.0</ele><time>2026-03-28T13:50:13.252Z</time></trkpt><trkpt lat="41.5610204" lon="12.8888134"><ele>40.0</ele><time>2026-03-28T13:50:16.305Z</time></trkpt><trkpt lat="41.5609543" lon="12.8887495"><ele>40.0</ele><time>2026-03-28T13:50:18.252Z</time></trkpt><trkpt lat="41.5608937" lon="12.8886692"><ele>40.0</ele><time>2026-03-28T13:50:21.278Z</time></trkpt><trkpt lat="41.560837" lon="12.8885969"><ele>40.0</ele><time>2026-03-28T13:50:23.252Z</time></trkpt><trkpt lat="41.5607582" lon="12.8885178"><ele>40.0</ele><time>2026-03-28T13:50:25.252Z</time></trkpt><trkpt lat="41.5606836" lon="12.8884801"><ele>40.0</ele><time>2026-03-28T13:50:27.284Z</time></trkpt><trkpt lat="41.5605958" lon="12.8884582"><ele>40.0</ele><time>2026-03-28T13:50:29.269Z</time></trkpt><trkpt lat="41.5605089" lon="12.8884527"><ele>40.0</ele><time>2026-03-28T13:50:31.24Z</time></trkpt><trkpt lat="41.560429" lon="12.888471"><ele>40.0</ele><time>2026-03-28T13:50:33.351Z</time></trkpt><trkpt lat="41.5603796" lon="12.8883738"><ele>40.0</ele><time>2026-03-28T13:50:35.294Z</time></trkpt><trkpt lat="41.5603169" lon="12.8883116"><ele>40.0</ele><time>2026-03-28T13:50:37.252Z</time></trkpt><trkpt lat="41.5602073" lon="12.8882713"><ele>40.0</ele><time>2026-03-28T13:50:40.252Z</time></trkpt><trkpt lat="41.5601377" lon="12.8882378"><ele>40.0</ele><time>2026-03-28T13:50:42.252Z</time></trkpt><trkpt lat="41.5600384" lon="12.8881347"><ele>40.0</ele><time>2026-03-28T13:50:44.252Z</time></trkpt><trkpt lat="41.5599424" lon="12.8880562"><ele>40.0</ele><time>2026-03-28T13:50:46.252Z</time></trkpt><trkpt lat="41.5598422" lon="12.8879916"><ele>40.0</ele><time>2026-03-28T13:50:48.252Z</time></trkpt><trkpt lat="41.5597457" lon="12.8879205"><ele>40.0</ele><time>2026-03-28T13:50:50.252Z</time></trkpt><trkpt lat="41.5596416" lon="12.8878443"><ele>40.0</ele><time>2026-03-28T13:50:52.252Z</time></trkpt><trkpt lat="41.5595052" lon="12.8877932"><ele>40.0</ele><time>2026-03-28T13:50:55.253Z</time></trkpt><trkpt lat="41.5594129" lon="12.8877154"><ele>40.0</ele><time>2026-03-28T13:50:57.253Z</time></trkpt><trkpt lat="41.5593376" lon="12.887647"><ele>40.0</ele><time>2026-03-28T13:50:59.252Z</time></trkpt><trkpt lat="41.5592711" lon="12.8875922"><ele>40.0</ele><time>2026-03-28T13:51:01.252Z</time></trkpt><trkpt lat="41.5591927" lon="12.8875191"><ele>40.0</ele><time>2026-03-28T13:51:03.252Z</time></trkpt><trkpt lat="41.5590835" lon="12.8874509"><ele>40.0</ele><time>2026-03-28T13:51:05.252Z</time></trkpt><trkpt lat="41.5589732" lon="12.8874004"><ele>40.0</ele><time>2026-03-28T13:51:07.253Z</time></trkpt><trkpt lat="41.558874" lon="12.8873575"><ele>40.0</ele><time>2026-03-28T13:51:09.252Z</time></trkpt><trkpt lat="41.558807" lon="12.8873491"><ele>40.0</ele><time>2026-03-28T13:51:10.252Z</time></trkpt><trkpt lat="41.5586946" lon="12.8873101"><ele>40.0</ele><time>2026-03-28T13:51:12.252Z</time></trkpt><trkpt lat="41.5585429" lon="12.8872623"><ele>39.5</ele><time>2026-03-28T13:51:15.252Z</time></trkpt><trkpt lat="41.5584059" lon="12.8871947"><ele>39.0</ele><time>2026-03-28T13:51:17.253Z</time></trkpt><trkpt lat="41.5583154" lon="12.8871489"><ele>38.5</ele><time>2026-03-28T13:51:19.253Z</time></trkpt><trkpt lat="41.5581943" lon="12.8871022"><ele>38.0</ele><time>2026-03-28T13:51:21.252Z</time></trkpt><trkpt lat="41.5580972" lon="12.8870763"><ele>38.0</ele><time>2026-03-28T13:51:23.252Z</time></trkpt><trkpt lat="41.5579819" lon="12.8870448"><ele>38.0</ele><time>2026-03-28T13:51:25.252Z</time></trkpt><trkpt lat="41.5579186" lon="12.8869818"><ele>38.0</ele><time>2026-03-28T13:51:27.252Z</time></trkpt><trkpt lat="41.5578568" lon="12.8869601"><ele>38.0</ele><time>2026-03-28T13:51:29.253Z</time></trkpt><trkpt lat="41.5577602" lon="12.8869374"><ele>38.0</ele><time>2026-03-28T13:51:31.253Z</time></trkpt><trkpt lat="41.5576652" lon="12.8869107"><ele>38.166666666666664</ele><time>2026-03-28T13:51:33.252Z</time></trkpt><trkpt lat="41.5575826" lon="12.8869181"><ele>38.33333333333333</ele><time>2026-03-28T13:51:35.252Z</time></trkpt><trkpt lat="41.5574789" lon="12.8868773"><ele>38.5</ele><time>2026-03-28T13:51:37.253Z</time></trkpt><trkpt lat="41.557387" lon="12.8868743"><ele>38.666666666666664</ele><time>2026-03-28T13:51:39.252Z</time></trkpt><trkpt lat="41.5573202" lon="12.8868564"><ele>38.833333333333336</ele><time>2026-03-28T13:51:41.252Z</time></trkpt><trkpt lat="41.5572352" lon="12.8868441"><ele>39.0</ele><time>2026-03-28T13:51:43.253Z</time></trkpt><trkpt lat="41.5571697" lon="12.8868195"><ele>39.0</ele><time>2026-03-28T13:51:45.252Z</time></trkpt><trkpt lat="41.5571351" lon="12.8867273"><ele>39.0</ele><time>2026-03-28T13:51:49.252Z</time></trkpt><trkpt lat="41.5571542" lon="12.8866426"><ele>39.0</ele><time>2026-03-28T13:52:04.252Z</time></trkpt><trkpt lat="41.5570765" lon="12.886647"><ele>39.0</ele><time>2026-03-28T13:52:08.252Z</time></trkpt><trkpt lat="41.5570027" lon="12.8866285"><ele>39.0</ele><time>2026-03-28T13:52:11.252Z</time></trkpt><trkpt lat="41.5569135" lon="12.8865934"><ele>39.0</ele><time>2026-03-28T13:52:14.252Z</time></trkpt><trkpt lat="41.556784" lon="12.8865502"><ele>38.833333333333336</ele><time>2026-03-28T13:52:18.252Z</time></trkpt><trkpt lat="41.5567124" lon="12.8865239"><ele>38.666666666666664</ele><time>2026-03-28T13:52:20.253Z</time></trkpt><trkpt lat="41.5566704" lon="12.8864575"><ele>38.5</ele><time>2026-03-28T13:52:24.252Z</time></trkpt><trkpt lat="41.556618" lon="12.8863429"><ele>38.33333333333333</ele><time>2026-03-28T13:52:29.252Z</time></trkpt><trkpt lat="41.5565537" lon="12.8862937"><ele>38.166666666666664</ele><time>2026-03-28T13:52:31.252Z</time></trkpt><trkpt lat="41.5564897" lon="12.8862502"><ele>38.0</ele><time>2026-03-28T13:52:33.253Z</time></trkpt><trkpt lat="41.556404" lon="12.8862233"><ele>38.0</ele><time>2026-03-28T13:52:36.253Z</time></trkpt><trkpt lat="41.5563169" lon="12.886267"><ele>38.0</ele><time>2026-03-28T13:52:39.253Z</time></trkpt><trkpt lat="41.5562022" lon="12.8861559"><ele>38.0</ele><time>2026-03-28T13:52:42.252Z</time></trkpt><trkpt lat="41.5561132" lon="12.8861199"><ele>38.0</ele><time>2026-03-28T13:52:44.252Z</time></trkpt><trkpt lat="41.5560037" lon="12.8860748"><ele>38.0</ele><time>2026-03-28T13:52:46.252Z</time></trkpt><trkpt lat="41.5558928" lon="12.8859776"><ele>37.6</ele><time>2026-03-28T13:52:49.252Z</time></trkpt><trkpt lat="41.5558013" lon="12.8859119"><ele>37.199999999999996</ele><time>2026-03-28T13:52:51.252Z</time></trkpt><trkpt lat="41.5557029" lon="12.8858441"><ele>36.8</ele><time>2026-03-28T13:52:53.252Z</time></trkpt><trkpt lat="41.5556083" lon="12.8857716"><ele>36.4</ele><time>2026-03-28T13:52:55.252Z</time></trkpt><trkpt lat="41.5555294" lon="12.8856812"><ele>36.0</ele><time>2026-03-28T13:52:57.252Z</time></trkpt><trkpt lat="41.5554449" lon="12.8856041"><ele>36.0</ele><time>2026-03-28T13:52:59.252Z</time></trkpt><trkpt lat="41.555382" lon="12.8855361"><ele>36.0</ele><time>2026-03-28T13:53:01.252Z</time></trkpt><trkpt lat="41.5553055" lon="12.885448"><ele>36.0</ele><time>2026-03-28T13:53:03.252Z</time></trkpt><trkpt lat="41.5552222" lon="12.8853432"><ele>36.0</ele><time>2026-03-28T13:53:05.252Z</time></trkpt><trkpt lat="41.5551486" lon="12.8852462"><ele>36.0</ele><time>2026-03-28T13:53:07.252Z</time></trkpt><trkpt lat="41.555066" lon="12.885154"><ele>35.8</ele><time>2026-03-28T13:53:09.253Z</time></trkpt><trkpt lat="41.5549727" lon="12.8850743"><ele>35.6</ele><time>2026-03-28T13:53:11.252Z</time></trkpt><trkpt lat="41.5549018" lon="12.8849864"><ele>35.4</ele><time>2026-03-28T13:53:13.252Z</time></trkpt><trkpt lat="41.554837" lon="12.8848887"><ele>35.2</ele><time>2026-03-28T13:53:15.253Z</time></trkpt><trkpt lat="41.5547694" lon="12.8848115"><ele>35.0</ele><time>2026-03-28T13:53:17.253Z</time></trkpt><trkpt lat="41.5546949" lon="12.8846897"><ele>35.0</ele><time>2026-03-28T13:53:19.252Z</time></trkpt><trkpt lat="41.5546248" lon="12.8845893"><ele>35.0</ele><time>2026-03-28T13:53:21.253Z</time></trkpt><trkpt lat="41.5545948" lon="12.8845071"><ele>35.0</ele><time>2026-03-28T13:53:23.252Z</time></trkpt><trkpt lat="41.5545346" lon="12.8844435"><ele>35.0</ele><time>2026-03-28T13:53:29.253Z</time></trkpt><trkpt lat="41.5544724" lon="12.8843691"><ele>35.0</ele><time>2026-03-28T13:53:34.252Z</time></trkpt><trkpt lat="41.5544402" lon="12.8842773"><ele>35.0</ele><time>2026-03-28T14:07:43.253Z</time></trkpt><trkpt lat="41.5543735" lon="12.8842608"><ele>35.166666666666664</ele><time>2026-03-28T14:07:46.252Z</time></trkpt><trkpt lat="41.5542992" lon="12.8841827"><ele>35.33333333333333</ele><time>2026-03-28T14:07:49.252Z</time></trkpt><trkpt lat="41.5542574" lon="12.8841116"><ele>35.5</ele><time>2026-03-28T14:07:51.253Z</time></trkpt><trkpt lat="41.554201" lon="12.8840314"><ele>35.666666666666664</ele><time>2026-03-28T14:07:53.253Z</time></trkpt><trkpt lat="41.5541427" lon="12.8839643"><ele>35.833333333333336</ele><time>2026-03-28T14:07:55.253Z</time></trkpt><trkpt lat="41.5540897" lon="12.8838923"><ele>36.0</ele><time>2026-03-28T14:07:57.253Z</time></trkpt><trkpt lat="41.5540389" lon="12.8838005"><ele>36.0</ele><time>2026-03-28T14:07:59.253Z</time></trkpt><trkpt lat="41.5539963" lon="12.8837217"><ele>36.0</ele><time>2026-03-28T14:08:01.252Z</time></trkpt><trkpt lat="41.5539354" lon="12.8836498"><ele>36.0</ele><time>2026-03-28T14:08:03.252Z</time></trkpt><trkpt lat="41.5538684" lon="12.8835596"><ele>36.0</ele><time>2026-03-28T14:08:05.252Z</time></trkpt><trkpt lat="41.5538195" lon="12.8834806"><ele>36.0</ele><time>2026-03-28T14:08:07.252Z</time></trkpt><trkpt lat="41.5537696" lon="12.8833913"><ele>36.0</ele><time>2026-03-28T14:08:10.252Z</time></trkpt><trkpt lat="41.5537233" lon="12.88331"><ele>36.166666666666664</ele><time>2026-03-28T14:08:12.252Z</time></trkpt><trkpt lat="41.5536549" lon="12.8832394"><ele>36.333333333333336</ele><time>2026-03-28T14:08:15.253Z</time></trkpt><trkpt lat="41.5535787" lon="12.883207"><ele>36.5</ele><time>2026-03-28T14:08:17.252Z</time></trkpt><trkpt lat="41.5535259" lon="12.8831142"><ele>36.66666666666667</ele><time>2026-03-28T14:08:20.252Z</time></trkpt><trkpt lat="41.5534839" lon="12.8830398"><ele>36.833333333333336</ele><time>2026-03-28T14:08:22.253Z</time></trkpt><trkpt lat="41.5534321" lon="12.8829717"><ele>37.0</ele><time>2026-03-28T14:08:24.253Z</time></trkpt><trkpt lat="41.5533881" lon="12.882909"><ele>37.0</ele><time>2026-03-28T14:08:26.252Z</time></trkpt><trkpt lat="41.5533437" lon="12.8828412"><ele>37.0</ele><time>2026-03-28T14:08:28.252Z</time></trkpt><trkpt lat="41.5532924" lon="12.8827659"><ele>37.0</ele><time>2026-03-28T14:08:30.252Z</time></trkpt><trkpt lat="41.5532446" lon="12.8826886"><ele>37.0</ele><time>2026-03-28T14:08:32.253Z</time></trkpt><trkpt lat="41.5531956" lon="12.8826162"><ele>37.0</ele><time>2026-03-28T14:08:34.252Z</time></trkpt><trkpt lat="41.5531245" lon="12.8825207"><ele>37.0</ele><time>2026-03-28T14:08:37.253Z</time></trkpt><trkpt lat="41.5530777" lon="12.8824632"><ele>36.833333333333336</ele><time>2026-03-28T14:08:39.252Z</time></trkpt><trkpt lat="41.5530121" lon="12.8823942"><ele>36.66666666666667</ele><time>2026-03-28T14:08:42.252Z</time></trkpt><trkpt lat="41.5529564" lon="12.8823382"><ele>36.5</ele><time>2026-03-28T14:08:45.252Z</time></trkpt><trkpt lat="41.5528962" lon="12.8822495"><ele>36.333333333333336</ele><time>2026-03-28T14:08:48.252Z</time></trkpt><trkpt lat="41.5528183" lon="12.8821643"><ele>36.166666666666664</ele><time>2026-03-28T14:08:51.253Z</time></trkpt><trkpt lat="41.5527738" lon="12.8820984"><ele>36.0</ele><time>2026-03-28T14:08:53.253Z</time></trkpt><trkpt lat="41.5527142" lon="12.8820244"><ele>35.833333333333336</ele><time>2026-03-28T14:08:55.252Z</time></trkpt><trkpt lat="41.55266" lon="12.8819554"><ele>35.666666666666664</ele><time>2026-03-28T14:08:57.252Z</time></trkpt><trkpt lat="41.5526079" lon="12.8818783"><ele>35.5</ele><time>2026-03-28T14:08:59.252Z</time></trkpt><trkpt lat="41.5525606" lon="12.8817961"><ele>35.33333333333333</ele><time>2026-03-28T14:09:01.253Z</time></trkpt><trkpt lat="41.5525051" lon="12.8816888"><ele>35.166666666666664</ele><time>2026-03-28T14:09:03.253Z</time></trkpt><trkpt lat="41.5524459" lon="12.8816254"><ele>35.0</ele><time>2026-03-28T14:09:05.253Z</time></trkpt><trkpt lat="41.5523984" lon="12.8815264"><ele>35.0</ele><time>2026-03-28T14:09:07.252Z</time></trkpt><trkpt lat="41.5523388" lon="12.8814728"><ele>35.0</ele><time>2026-03-28T14:09:09.252Z</time></trkpt><trkpt lat="41.5522928" lon="12.8814"><ele>35.0</ele><time>2026-03-28T14:09:11.252Z</time></trkpt><trkpt lat="41.5522319" lon="12.8813296"><ele>35.0</ele><time>2026-03-28T14:09:13.252Z</time></trkpt><trkpt lat="41.5521813" lon="12.8812483"><ele>35.0</ele><time>2026-03-28T14:09:15.252Z</time></trkpt><trkpt lat="41.5521364" lon="12.8811862"><ele>35.0</ele><time>2026-03-28T14:09:17.252Z</time></trkpt><trkpt lat="41.552092" lon="12.8811162"><ele>35.0</ele><time>2026-03-28T14:09:19.252Z</time></trkpt><trkpt lat="41.5520478" lon="12.8810417"><ele>35.142857142857146</ele><time>2026-03-28T14:09:21.252Z</time></trkpt><trkpt lat="41.5520017" lon="12.880972"><ele>35.285714285714285</ele><time>2026-03-28T14:09:23.252Z</time></trkpt><trkpt lat="41.5519501" lon="12.8808982"><ele>35.42857142857143</ele><time>2026-03-28T14:09:25.252Z</time></trkpt><trkpt lat="41.5518958" lon="12.8808337"><ele>35.57142857142857</ele><time>2026-03-28T14:09:27.252Z</time></trkpt><trkpt lat="41.551845" lon="12.880752"><ele>35.714285714285715</ele><time>2026-03-28T14:09:29.252Z</time></trkpt><trkpt lat="41.551793" lon="12.8806881"><ele>35.85714285714286</ele><time>2026-03-28T14:09:31.252Z</time></trkpt><trkpt lat="41.5517462" lon="12.8806107"><ele>36.0</ele><time>2026-03-28T14:09:33.252Z</time></trkpt><trkpt lat="41.5516791" lon="12.8805278"><ele>35.4</ele><time>2026-03-28T14:09:35.252Z</time></trkpt><trkpt lat="41.5516041" lon="12.8804512"><ele>34.8</ele><time>2026-03-28T14:09:37.252Z</time></trkpt><trkpt lat="41.5515156" lon="12.8803107"><ele>34.199999999999996</ele><time>2026-03-28T14:09:39.252Z</time></trkpt><trkpt lat="41.5514468" lon="12.8802343"><ele>33.6</ele><time>2026-03-28T14:09:41.253Z</time></trkpt><trkpt lat="41.5513704" lon="12.8801321"><ele>33.0</ele><time>2026-03-28T14:09:43.253Z</time></trkpt><trkpt lat="41.5512939" lon="12.8800029"><ele>33.0</ele><time>2026-03-28T14:09:45.253Z</time></trkpt><trkpt lat="41.5512175" lon="12.8798826"><ele>33.0</ele><time>2026-03-28T14:09:47.252Z</time></trkpt><trkpt lat="41.551143" lon="12.8797907"><ele>33.0</ele><time>2026-03-28T14:09:49.252Z</time></trkpt><trkpt lat="41.551066" lon="12.8796967"><ele>33.0</ele><time>2026-03-28T14:09:51.252Z</time></trkpt><trkpt lat="41.5510012" lon="12.8796184"><ele>33.0</ele><time>2026-03-28T14:09:53.252Z</time></trkpt><trkpt lat="41.5509288" lon="12.8795181"><ele>33.25</ele><time>2026-03-28T14:09:55.253Z</time></trkpt><trkpt lat="41.5508586" lon="12.8794096"><ele>33.5</ele><time>2026-03-28T14:09:57.253Z</time></trkpt><trkpt lat="41.550779" lon="12.8792973"><ele>33.75</ele><time>2026-03-28T14:09:59.252Z</time></trkpt><trkpt lat="41.5507" lon="12.8791762"><ele>34.0</ele><time>2026-03-28T14:10:01.252Z</time></trkpt><trkpt lat="41.5506379" lon="12.8790583"><ele>34.0</ele><time>2026-03-28T14:10:03.252Z</time></trkpt><trkpt lat="41.550577" lon="12.8789422"><ele>34.0</ele><time>2026-03-28T14:10:05.252Z</time></trkpt><trkpt lat="41.5504892" lon="12.8788267"><ele>34.0</ele><time>2026-03-28T14:10:07.253Z</time></trkpt><trkpt lat="41.5504239" lon="12.8787272"><ele>34.0</ele><time>2026-03-28T14:10:09.252Z</time></trkpt><trkpt lat="41.5503715" lon="12.8786056"><ele>34.0</ele><time>2026-03-28T14:10:11.252Z</time></trkpt><trkpt lat="41.5503175" lon="12.8784834"><ele>34.0</ele><time>2026-03-28T14:10:13.252Z</time></trkpt><trkpt lat="41.5502574" lon="12.8783577"><ele>34.0</ele><time>2026-03-28T14:10:15.253Z</time></trkpt><trkpt lat="41.5501986" lon="12.8782211"><ele>34.0</ele><time>2026-03-28T14:10:17.252Z</time></trkpt><trkpt lat="41.5501542" lon="12.8781501"><ele>34.0</ele><time>2026-03-28T14:10:18.252Z</time></trkpt><trkpt lat="41.5501143" lon="12.8780757"><ele>34.0</ele><time>2026-03-28T14:10:19.252Z</time></trkpt><trkpt lat="41.5500767" lon="12.8779106"><ele>34.0</ele><time>2026-03-28T14:10:21.253Z</time></trkpt><trkpt lat="41.5500426" lon="12.8778202"><ele>34.0</ele><time>2026-03-28T14:10:22.252Z</time></trkpt><trkpt lat="41.549994" lon="12.8777648"><ele>34.0</ele><time>2026-03-28T14:10:23.252Z</time></trkpt><trkpt lat="41.5499728" lon="12.8776605"><ele>34.0</ele><time>2026-03-28T14:10:24.252Z</time></trkpt><trkpt lat="41.5499545" lon="12.8775719"><ele>34.0</ele><time>2026-03-28T14:10:25.253Z</time></trkpt><trkpt lat="41.5499261" lon="12.8774937"><ele>34.0</ele><time>2026-03-28T14:10:26.253Z</time></trkpt><trkpt lat="41.5498819" lon="12.8773655"><ele>34.0</ele><time>2026-03-28T14:10:27.252Z</time></trkpt><trkpt lat="41.5498283" lon="12.8772031"><ele>34.0</ele><time>2026-03-28T14:10:29.253Z</time></trkpt><trkpt lat="41.5497971" lon="12.877125"><ele>34.0</ele><time>2026-03-28T14:10:30.252Z</time></trkpt><trkpt lat="41.5497521" lon="12.8770101"><ele>34.0</ele><time>2026-03-28T14:10:32.253Z</time></trkpt><trkpt lat="41.5497296" lon="12.8768903"><ele>34.0</ele><time>2026-03-28T14:10:34.252Z</time></trkpt><trkpt lat="41.5496963" lon="12.8767717"><ele>33.857142857142854</ele><time>2026-03-28T14:10:36.253Z</time></trkpt><trkpt lat="41.5496762" lon="12.876685"><ele>33.714285714285715</ele><time>2026-03-28T14:10:38.252Z</time></trkpt><trkpt lat="41.5496522" lon="12.876596"><ele>33.57142857142857</ele><time>2026-03-28T14:10:40.252Z</time></trkpt><trkpt lat="41.5495727" lon="12.876576"><ele>33.42857142857143</ele><time>2026-03-28T14:10:43.253Z</time></trkpt><trkpt lat="41.5495875" lon="12.8766627"><ele>33.285714285714285</ele><time>2026-03-28T14:10:45.252Z</time></trkpt><trkpt lat="41.5495876" lon="12.8767634"><ele>33.14285714285714</ele><time>2026-03-28T14:10:47.252Z</time></trkpt><trkpt lat="41.5495213" lon="12.8766952"><ele>33.0</ele><time>2026-03-28T14:10:51.252Z</time></trkpt><trkpt lat="41.5494817" lon="12.8765579"><ele>33.6</ele><time>2026-03-28T14:10:53.253Z</time></trkpt><trkpt lat="41.5494506" lon="12.8764079"><ele>34.199999999999996</ele><time>2026-03-28T14:10:55.252Z</time></trkpt><trkpt lat="41.5494099" lon="12.8762483"><ele>34.8</ele><time>2026-03-28T14:10:57.253Z</time></trkpt><trkpt lat="41.5493874" lon="12.8761618"><ele>35.4</ele><time>2026-03-28T14:10:58.252Z</time></trkpt><trkpt lat="41.5493623" lon="12.8760683"><ele>36.0</ele><time>2026-03-28T14:10:59.253Z</time></trkpt><trkpt lat="41.5493422" lon="12.8759838"><ele>35.8</ele><time>2026-03-28T14:11:00.252Z</time></trkpt><trkpt lat="41.5493098" lon="12.8758928"><ele>35.6</ele><time>2026-03-28T14:11:01.252Z</time></trkpt><trkpt lat="41.5492765" lon="12.8757924"><ele>35.4</ele><time>2026-03-28T14:11:02.252Z</time></trkpt><trkpt lat="41.5492404" lon="12.8756693"><ele>35.2</ele><time>2026-03-28T14:11:03.252Z</time></trkpt><trkpt lat="41.5491997" lon="12.8755426"><ele>35.0</ele><time>2026-03-28T14:11:04.253Z</time></trkpt><trkpt lat="41.5491559" lon="12.8754125"><ele>35.0</ele><time>2026-03-28T14:11:05.253Z</time></trkpt><trkpt lat="41.5491105" lon="12.8752785"><ele>35.0</ele><time>2026-03-28T14:11:06.252Z</time></trkpt><trkpt lat="41.5490684" lon="12.8751598"><ele>35.0</ele><time>2026-03-28T14:11:07.252Z</time></trkpt><trkpt lat="41.5490292" lon="12.8750354"><ele>35.0</ele><time>2026-03-28T14:11:08.253Z</time></trkpt><trkpt lat="41.5489721" lon="12.8749212"><ele>35.0</ele><time>2026-03-28T14:11:09.252Z</time></trkpt><trkpt lat="41.5489173" lon="12.8748098"><ele>34.8</ele><time>2026-03-28T14:11:10.252Z</time></trkpt><trkpt lat="41.5488652" lon="12.8747053"><ele>34.6</ele><time>2026-03-28T14:11:11.252Z</time></trkpt><trkpt lat="41.5488253" lon="12.8746017"><ele>34.4</ele><time>2026-03-28T14:11:12.252Z</time></trkpt><trkpt lat="41.5487733" lon="12.8744959"><ele>34.2</ele><time>2026-03-28T14:11:13.253Z</time></trkpt><trkpt lat="41.548722" lon="12.8743916"><ele>34.0</ele><time>2026-03-28T14:11:14.252Z</time></trkpt><trkpt lat="41.5486591" lon="12.8742918"><ele>34.2</ele><time>2026-03-28T14:11:15.252Z</time></trkpt><trkpt lat="41.5486043" lon="12.8741887"><ele>34.4</ele><time>2026-03-28T14:11:16.252Z</time></trkpt><trkpt lat="41.5485464" lon="12.8740752"><ele>34.6</ele><time>2026-03-28T14:11:17.252Z</time></trkpt><trkpt lat="41.5484767" lon="12.8739644"><ele>34.8</ele><time>2026-03-28T14:11:18.252Z</time></trkpt><trkpt lat="41.5484058" lon="12.8738377"><ele>35.0</ele><time>2026-03-28T14:11:19.253Z</time></trkpt><trkpt lat="41.5483327" lon="12.8737325"><ele>35.0</ele><time>2026-03-28T14:11:20.252Z</time></trkpt><trkpt lat="41.5482557" lon="12.8736234"><ele>35.0</ele><time>2026-03-28T14:11:21.253Z</time></trkpt><trkpt lat="41.5481766" lon="12.8735143"><ele>35.0</ele><time>2026-03-28T14:11:22.253Z</time></trkpt><trkpt lat="41.5480992" lon="12.8734116"><ele>35.0</ele><time>2026-03-28T14:11:23.252Z</time></trkpt><trkpt lat="41.548031" lon="12.8733415"><ele>35.0</ele><time>2026-03-28T14:11:24.253Z</time></trkpt><trkpt lat="41.5479742" lon="12.8732473"><ele>35.166666666666664</ele><time>2026-03-28T14:11:25.252Z</time></trkpt><trkpt lat="41.5478998" lon="12.8731585"><ele>35.33333333333333</ele><time>2026-03-28T14:11:26.252Z</time></trkpt><trkpt lat="41.5478486" lon="12.8730838"><ele>35.5</ele><time>2026-03-28T14:11:27.252Z</time></trkpt><trkpt lat="41.5477825" lon="12.8730005"><ele>35.666666666666664</ele><time>2026-03-28T14:11:28.253Z</time></trkpt><trkpt lat="41.5477203" lon="12.8729113"><ele>35.833333333333336</ele><time>2026-03-28T14:11:29.252Z</time></trkpt><trkpt lat="41.547664" lon="12.8728496"><ele>36.0</ele><time>2026-03-28T14:11:30.253Z</time></trkpt><trkpt lat="41.5476006" lon="12.8727875"><ele>36.0</ele><time>2026-03-28T14:11:31.253Z</time></trkpt><trkpt lat="41.5475408" lon="12.8727205"><ele>36.0</ele><time>2026-03-28T14:11:32.252Z</time></trkpt><trkpt lat="41.5474854" lon="12.8726734"><ele>36.0</ele><time>2026-03-28T14:11:33.253Z</time></trkpt><trkpt lat="41.5474243" lon="12.8726295"><ele>36.0</ele><time>2026-03-28T14:11:34.253Z</time></trkpt><trkpt lat="41.5473714" lon="12.872553"><ele>36.0</ele><time>2026-03-28T14:11:35.252Z</time></trkpt><trkpt lat="41.5473144" lon="12.8724814"><ele>36.0</ele><time>2026-03-28T14:11:36.253Z</time></trkpt><trkpt lat="41.5472573" lon="12.8723817"><ele>35.8</ele><time>2026-03-28T14:11:37.252Z</time></trkpt><trkpt lat="41.5471862" lon="12.8722681"><ele>35.6</ele><time>2026-03-28T14:11:38.253Z</time></trkpt><trkpt lat="41.5471163" lon="12.8721698"><ele>35.4</ele><time>2026-03-28T14:11:39.253Z</time></trkpt><trkpt lat="41.5470435" lon="12.8720786"><ele>35.2</ele><time>2026-03-28T14:11:40.252Z</time></trkpt><trkpt lat="41.5469757" lon="12.8719735"><ele>35.0</ele><time>2026-03-28T14:11:41.252Z</time></trkpt><trkpt lat="41.546906" lon="12.8718778"><ele>34.6</ele><time>2026-03-28T14:11:42.252Z</time></trkpt><trkpt lat="41.5468282" lon="12.8717724"><ele>34.2</ele><time>2026-03-28T14:11:43.253Z</time></trkpt><trkpt lat="41.5467575" lon="12.8716852"><ele>33.8</ele><time>2026-03-28T14:11:44.252Z</time></trkpt><trkpt lat="41.5466844" lon="12.8715869"><ele>33.4</ele><time>2026-03-28T14:11:45.252Z</time></trkpt><trkpt lat="41.5466261" lon="12.8714825"><ele>33.0</ele><time>2026-03-28T14:11:46.253Z</time></trkpt><trkpt lat="41.54655" lon="12.8713796"><ele>33.0</ele><time>2026-03-28T14:11:47.252Z</time></trkpt><trkpt lat="41.5464782" lon="12.8712881"><ele>33.0</ele><time>2026-03-28T14:11:48.252Z</time></trkpt><trkpt lat="41.5464045" lon="12.8711893"><ele>33.0</ele><time>2026-03-28T14:11:49.252Z</time></trkpt><trkpt lat="41.5463327" lon="12.8710921"><ele>33.0</ele><time>2026-03-28T14:11:50.253Z</time></trkpt><trkpt lat="41.546262" lon="12.8710035"><ele>33.0</ele><time>2026-03-28T14:11:51.252Z</time></trkpt><trkpt lat="41.5461933" lon="12.870919"><ele>33.199999999999996</ele><time>2026-03-28T14:11:52.252Z</time></trkpt><trkpt lat="41.5461256" lon="12.8708358"><ele>33.4</ele><time>2026-03-28T14:11:53.252Z</time></trkpt><trkpt lat="41.5460502" lon="12.870746"><ele>33.599999999999994</ele><time>2026-03-28T14:11:54.252Z</time></trkpt><trkpt lat="41.5459757" lon="12.8706632"><ele>33.8</ele><time>2026-03-28T14:11:55.252Z</time></trkpt><trkpt lat="41.5459111" lon="12.8705782"><ele>34.0</ele><time>2026-03-28T14:11:56.252Z</time></trkpt><trkpt lat="41.5458363" lon="12.8704674"><ele>34.0</ele><time>2026-03-28T14:11:57.252Z</time></trkpt><trkpt lat="41.5457582" lon="12.8703757"><ele>34.0</ele><time>2026-03-28T14:11:58.252Z</time></trkpt><trkpt lat="41.5456747" lon="12.870278"><ele>34.0</ele><time>2026-03-28T14:11:59.252Z</time></trkpt><trkpt lat="41.5455926" lon="12.870186"><ele>34.0</ele><time>2026-03-28T14:12:00.252Z</time></trkpt><trkpt lat="41.5455321" lon="12.8700974"><ele>34.0</ele><time>2026-03-28T14:12:01.253Z</time></trkpt><trkpt lat="41.5454501" lon="12.8699893"><ele>34.2</ele><time>2026-03-28T14:12:02.253Z</time></trkpt><trkpt lat="41.5453735" lon="12.8699001"><ele>34.4</ele><time>2026-03-28T14:12:03.252Z</time></trkpt><trkpt lat="41.5453024" lon="12.8698007"><ele>34.6</ele><time>2026-03-28T14:12:04.253Z</time></trkpt><trkpt lat="41.5452338" lon="12.8697187"><ele>34.8</ele><time>2026-03-28T14:12:05.253Z</time></trkpt><trkpt lat="41.5451602" lon="12.8696362"><ele>35.0</ele><time>2026-03-28T14:12:06.252Z</time></trkpt><trkpt lat="41.5450883" lon="12.8695327"><ele>35.0</ele><time>2026-03-28T14:12:07.252Z</time></trkpt><trkpt lat="41.5450109" lon="12.8694219"><ele>35.0</ele><time>2026-03-28T14:12:08.252Z</time></trkpt><trkpt lat="41.5449354" lon="12.869322"><ele>35.0</ele><time>2026-03-28T14:12:09.253Z</time></trkpt><trkpt lat="41.5448517" lon="12.86922"><ele>35.0</ele><time>2026-03-28T14:12:10.253Z</time></trkpt><trkpt lat="41.5447632" lon="12.8691122"><ele>35.0</ele><time>2026-03-28T14:12:11.252Z</time></trkpt><trkpt lat="41.5446772" lon="12.8690039"><ele>35.0</ele><time>2026-03-28T14:12:12.252Z</time></trkpt><trkpt lat="41.5446021" lon="12.8689034"><ele>35.0</ele><time>2026-03-28T14:12:13.252Z</time></trkpt><trkpt lat="41.5445168" lon="12.8687965"><ele>35.0</ele><time>2026-03-28T14:12:14.253Z</time></trkpt><trkpt lat="41.5444356" lon="12.868691"><ele>35.0</ele><time>2026-03-28T14:12:15.252Z</time></trkpt><trkpt lat="41.5443588" lon="12.8685989"><ele>35.0</ele><time>2026-03-28T14:12:16.253Z</time></trkpt><trkpt lat="41.5442846" lon="12.8685097"><ele>35.0</ele><time>2026-03-28T14:12:17.253Z</time></trkpt><trkpt lat="41.5442206" lon="12.8684124"><ele>35.0</ele><time>2026-03-28T14:12:18.252Z</time></trkpt><trkpt lat="41.5441429" lon="12.8683141"><ele>35.0</ele><time>2026-03-28T14:12:19.252Z</time></trkpt><trkpt lat="41.54407" lon="12.8682318"><ele>35.4</ele><time>2026-03-28T14:12:20.253Z</time></trkpt><trkpt lat="41.5439986" lon="12.8681502"><ele>35.8</ele><time>2026-03-28T14:12:21.252Z</time></trkpt><trkpt lat="41.5439256" lon="12.8680652"><ele>36.2</ele><time>2026-03-28T14:12:22.252Z</time></trkpt><trkpt lat="41.5438501" lon="12.8679688"><ele>36.6</ele><time>2026-03-28T14:12:23.252Z</time></trkpt><trkpt lat="41.5437852" lon="12.8678604"><ele>37.0</ele><time>2026-03-28T14:12:24.252Z</time></trkpt><trkpt lat="41.5437128" lon="12.8677618"><ele>37.0</ele><time>2026-03-28T14:12:25.252Z</time></trkpt><trkpt lat="41.5436325" lon="12.8676707"><ele>37.0</ele><time>2026-03-28T14:12:26.252Z</time></trkpt><trkpt lat="41.5435582" lon="12.8675827"><ele>37.0</ele><time>2026-03-28T14:12:27.252Z</time></trkpt><trkpt lat="41.5434781" lon="12.867483"><ele>37.0</ele><time>2026-03-28T14:12:28.252Z</time></trkpt><trkpt lat="41.5434128" lon="12.8673886"><ele>37.0</ele><time>2026-03-28T14:12:29.253Z</time></trkpt><trkpt lat="41.5433436" lon="12.8673045"><ele>36.4</ele><time>2026-03-28T14:12:30.252Z</time></trkpt><trkpt lat="41.5432777" lon="12.8672148"><ele>35.800000000000004</ele><time>2026-03-28T14:12:31.252Z</time></trkpt><trkpt lat="41.5432075" lon="12.8671325"><ele>35.2</ele><time>2026-03-28T14:12:32.253Z</time></trkpt><trkpt lat="41.5431445" lon="12.8670551"><ele>34.6</ele><time>2026-03-28T14:12:33.253Z</time></trkpt><trkpt lat="41.5430821" lon="12.8669783"><ele>34.0</ele><time>2026-03-28T14:12:34.253Z</time></trkpt><trkpt lat="41.5429839" lon="12.8668844"><ele>34.0</ele><time>2026-03-28T14:12:36.252Z</time></trkpt><trkpt lat="41.5429038" lon="12.866783"><ele>34.0</ele><time>2026-03-28T14:12:38.252Z</time></trkpt><trkpt lat="41.5428171" lon="12.8666797"><ele>34.0</ele><time>2026-03-28T14:12:40.252Z</time></trkpt><trkpt lat="41.5427506" lon="12.8665691"><ele>34.0</ele><time>2026-03-28T14:12:42.252Z</time></trkpt><trkpt lat="41.5426818" lon="12.866469"><ele>34.0</ele><time>2026-03-28T14:12:44.253Z</time></trkpt><trkpt lat="41.5425948" lon="12.8663497"><ele>34.2</ele><time>2026-03-28T14:12:46.253Z</time></trkpt><trkpt lat="41.5425045" lon="12.8662708"><ele>34.4</ele><time>2026-03-28T14:12:48.252Z</time></trkpt><trkpt lat="41.5424247" lon="12.8661788"><ele>34.6</ele><time>2026-03-28T14:12:50.252Z</time></trkpt><trkpt lat="41.5423302" lon="12.8660503"><ele>34.8</ele><time>2026-03-28T14:12:52.252Z</time></trkpt><trkpt lat="41.5422835" lon="12.8659712"><ele>35.0</ele><time>2026-03-28T14:12:53.252Z</time></trkpt><trkpt lat="41.5422369" lon="12.8659101"><ele>34.6</ele><time>2026-03-28T14:12:54.252Z</time></trkpt><trkpt lat="41.542173" lon="12.8658183"><ele>34.2</ele><time>2026-03-28T14:12:56.252Z</time></trkpt><trkpt lat="41.5420763" lon="12.8657172"><ele>33.8</ele><time>2026-03-28T14:12:58.252Z</time></trkpt><trkpt lat="41.5420179" lon="12.865663"><ele>33.4</ele><time>2026-03-28T14:12:59.252Z</time></trkpt><trkpt lat="41.5419256" lon="12.8655828"><ele>33.0</ele><time>2026-03-28T14:13:01.253Z</time></trkpt><trkpt lat="41.5418369" lon="12.8654664"><ele>33.0</ele><time>2026-03-28T14:13:03.252Z</time></trkpt><trkpt lat="41.5417698" lon="12.8654273"><ele>33.0</ele><time>2026-03-28T14:13:04.252Z</time></trkpt><trkpt lat="41.5416656" lon="12.8653499"><ele>33.0</ele><time>2026-03-28T14:13:06.252Z</time></trkpt><trkpt lat="41.5415938" lon="12.8652804"><ele>33.0</ele><time>2026-03-28T14:13:08.253Z</time></trkpt><trkpt lat="41.5415191" lon="12.8651694"><ele>33.0</ele><time>2026-03-28T14:13:10.252Z</time></trkpt><trkpt lat="41.5414351" lon="12.8650927"><ele>33.166666666666664</ele><time>2026-03-28T14:13:12.252Z</time></trkpt><trkpt lat="41.5413715" lon="12.8650536"><ele>33.333333333333336</ele><time>2026-03-28T14:13:14.252Z</time></trkpt><trkpt lat="41.5413057" lon="12.8649531"><ele>33.5</ele><time>2026-03-28T14:13:16.252Z</time></trkpt><trkpt lat="41.5412205" lon="12.8648792"><ele>33.66666666666667</ele><time>2026-03-28T14:13:18.252Z</time></trkpt><trkpt lat="41.5411435" lon="12.8647963"><ele>33.833333333333336</ele><time>2026-03-28T14:13:20.252Z</time></trkpt><trkpt lat="41.541081" lon="12.8647533"><ele>34.0</ele><time>2026-03-28T14:13:21.252Z</time></trkpt><trkpt lat="41.5409847" lon="12.8646917"><ele>34.0</ele><time>2026-03-28T14:13:23.252Z</time></trkpt><trkpt lat="41.5409082" lon="12.8646096"><ele>34.0</ele><time>2026-03-28T14:13:25.252Z</time></trkpt><trkpt lat="41.540851" lon="12.8645679"><ele>34.0</ele><time>2026-03-28T14:13:26.252Z</time></trkpt><trkpt lat="41.5407513" lon="12.8644859"><ele>34.0</ele><time>2026-03-28T14:13:28.252Z</time></trkpt><trkpt lat="41.5407013" lon="12.8644347"><ele>34.0</ele><time>2026-03-28T14:13:29.252Z</time></trkpt><trkpt lat="41.5405961" lon="12.8643383"><ele>33.6</ele><time>2026-03-28T14:13:31.252Z</time></trkpt><trkpt lat="41.5404736" lon="12.8642567"><ele>33.2</ele><time>2026-03-28T14:13:33.252Z</time></trkpt><trkpt lat="41.5404086" lon="12.8642151"><ele>32.800000000000004</ele><time>2026-03-28T14:13:34.252Z</time></trkpt><trkpt lat="41.5402841" lon="12.8641315"><ele>32.4</ele><time>2026-03-28T14:13:36.252Z</time></trkpt><trkpt lat="41.5402171" lon="12.8640784"><ele>32.0</ele><time>2026-03-28T14:13:37.252Z</time></trkpt><trkpt lat="41.5401457" lon="12.8640316"><ele>31.833333333333332</ele><time>2026-03-28T14:13:38.252Z</time></trkpt><trkpt lat="41.5400824" lon="12.8639974"><ele>31.666666666666664</ele><time>2026-03-28T14:13:39.253Z</time></trkpt><trkpt lat="41.5400107" lon="12.8639519"><ele>31.5</ele><time>2026-03-28T14:13:40.253Z</time></trkpt><trkpt lat="41.5399506" lon="12.8639241"><ele>31.333333333333336</ele><time>2026-03-28T14:13:41.252Z</time></trkpt><trkpt lat="41.539895" lon="12.8638801"><ele>31.166666666666668</ele><time>2026-03-28T14:13:42.252Z</time></trkpt><trkpt lat="41.5397851" lon="12.8638296"><ele>31.0</ele><time>2026-03-28T14:13:44.252Z</time></trkpt><trkpt lat="41.5397204" lon="12.8637862"><ele>31.0</ele><time>2026-03-28T14:13:45.252Z</time></trkpt><trkpt lat="41.5396555" lon="12.8637464"><ele>31.000000000000004</ele><time>2026-03-28T14:13:46.252Z</time></trkpt><trkpt lat="41.5395947" lon="12.8637107"><ele>31.0</ele><time>2026-03-28T14:13:47.253Z</time></trkpt><trkpt lat="41.539534" lon="12.86368"><ele>31.0</ele><time>2026-03-28T14:13:48.252Z</time></trkpt><trkpt lat="41.5394709" lon="12.8636423"><ele>31.000000000000004</ele><time>2026-03-28T14:13:49.253Z</time></trkpt><trkpt lat="41.539414" lon="12.8636037"><ele>31.0</ele><time>2026-03-28T14:13:50.252Z</time></trkpt><trkpt lat="41.5393569" lon="12.86356"><ele>31.0</ele><time>2026-03-28T14:13:51.252Z</time></trkpt><trkpt lat="41.5392915" lon="12.8635274"><ele>31.0</ele><time>2026-03-28T14:13:52.253Z</time></trkpt><trkpt lat="41.5392282" lon="12.8634959"><ele>31.000000000000004</ele><time>2026-03-28T14:13:53.252Z</time></trkpt><trkpt lat="41.5391638" lon="12.8634701"><ele>31.0</ele><time>2026-03-28T14:13:54.253Z</time></trkpt><trkpt lat="41.5391077" lon="12.8634279"><ele>31.0</ele><time>2026-03-28T14:13:55.252Z</time></trkpt><trkpt lat="41.5389961" lon="12.8633739"><ele>31.000000000000004</ele><time>2026-03-28T14:13:57.252Z</time></trkpt><trkpt lat="41.538934" lon="12.8633387"><ele>31.0</ele><time>2026-03-28T14:13:58.253Z</time></trkpt><trkpt lat="41.5388731" lon="12.8633151"><ele>31.0</ele><time>2026-03-28T14:13:59.252Z</time></trkpt><trkpt lat="41.5388051" lon="12.8632891"><ele>31.000000000000004</ele><time>2026-03-28T14:14:00.252Z</time></trkpt><trkpt lat="41.5387468" lon="12.863257"><ele>31.0</ele><time>2026-03-28T14:14:01.253Z</time></trkpt><trkpt lat="41.5386802" lon="12.86322"><ele>31.0</ele><time>2026-03-28T14:14:02.252Z</time></trkpt><trkpt lat="41.5386182" lon="12.8631951"><ele>31.0</ele><time>2026-03-28T14:14:03.252Z</time></trkpt><trkpt lat="41.5385573" lon="12.8631496"><ele>31.000000000000004</ele><time>2026-03-28T14:14:04.253Z</time></trkpt><trkpt lat="41.5384332" lon="12.863088"><ele>31.0</ele><time>2026-03-28T14:14:06.252Z</time></trkpt><trkpt lat="41.5383584" lon="12.8630488"><ele>31.42857142857143</ele><time>2026-03-28T14:14:07.252Z</time></trkpt><trkpt lat="41.5382925" lon="12.8630241"><ele>31.85714285714286</ele><time>2026-03-28T14:14:08.252Z</time></trkpt><trkpt lat="41.5381796" lon="12.8629744"><ele>32.285714285714285</ele><time>2026-03-28T14:14:10.253Z</time></trkpt><trkpt lat="41.53812" lon="12.8629389"><ele>32.714285714285715</ele><time>2026-03-28T14:14:11.253Z</time></trkpt><trkpt lat="41.5380609" lon="12.8629032"><ele>33.14285714285714</ele><time>2026-03-28T14:14:12.253Z</time></trkpt><trkpt lat="41.5380004" lon="12.8628652"><ele>33.57142857142857</ele><time>2026-03-28T14:14:13.252Z</time></trkpt><trkpt lat="41.5379423" lon="12.8628266"><ele>34.0</ele><time>2026-03-28T14:14:14.252Z</time></trkpt><trkpt lat="41.5378241" lon="12.8627809"><ele>34.16666666666667</ele><time>2026-03-28T14:14:16.252Z</time></trkpt><trkpt lat="41.5377624" lon="12.8627458"><ele>34.333333333333336</ele><time>2026-03-28T14:14:17.252Z</time></trkpt><trkpt lat="41.5376974" lon="12.8627179"><ele>34.5</ele><time>2026-03-28T14:14:18.252Z</time></trkpt><trkpt lat="41.5375843" lon="12.8626564"><ele>34.666666666666664</ele><time>2026-03-28T14:14:20.253Z</time></trkpt><trkpt lat="41.5374919" lon="12.8626187"><ele>34.83333333333333</ele><time>2026-03-28T14:14:22.252Z</time></trkpt><trkpt lat="41.5374255" lon="12.8625816"><ele>35.0</ele><time>2026-03-28T14:14:24.252Z</time></trkpt><trkpt lat="41.5373438" lon="12.8625487"><ele>34.5</ele><time>2026-03-28T14:14:26.252Z</time></trkpt><trkpt lat="41.5372617" lon="12.8624834"><ele>34.0</ele><time>2026-03-28T14:14:28.253Z</time></trkpt><trkpt lat="41.5371503" lon="12.8624288"><ele>33.5</ele><time>2026-03-28T14:14:30.252Z</time></trkpt><trkpt lat="41.5370906" lon="12.8623968"><ele>33.0</ele><time>2026-03-28T14:14:31.252Z</time></trkpt><trkpt lat="41.5370303" lon="12.8623711"><ele>32.5</ele><time>2026-03-28T14:14:32.253Z</time></trkpt><trkpt lat="41.536932" lon="12.8623178"><ele>32.0</ele><time>2026-03-28T14:14:34.252Z</time></trkpt><trkpt lat="41.5368209" lon="12.8622683"><ele>31.833333333333332</ele><time>2026-03-28T14:14:36.253Z</time></trkpt><trkpt lat="41.5367618" lon="12.8622357"><ele>31.666666666666664</ele><time>2026-03-28T14:14:37.252Z</time></trkpt><trkpt lat="41.5366971" lon="12.8622074"><ele>31.5</ele><time>2026-03-28T14:14:38.252Z</time></trkpt><trkpt lat="41.5366373" lon="12.8621722"><ele>31.333333333333336</ele><time>2026-03-28T14:14:39.252Z</time></trkpt><trkpt lat="41.5365726" lon="12.8621419"><ele>31.166666666666668</ele><time>2026-03-28T14:14:40.252Z</time></trkpt><trkpt lat="41.5364591" lon="12.86208"><ele>31.0</ele><time>2026-03-28T14:14:42.253Z</time></trkpt><trkpt lat="41.5363943" lon="12.862048"><ele>31.000000000000004</ele><time>2026-03-28T14:14:43.252Z</time></trkpt><trkpt lat="41.5363194" lon="12.8620073"><ele>31.0</ele><time>2026-03-28T14:14:44.253Z</time></trkpt><trkpt lat="41.5362493" lon="12.8619763"><ele>31.0</ele><time>2026-03-28T14:14:45.252Z</time></trkpt><trkpt lat="41.5361815" lon="12.8619383"><ele>31.0</ele><time>2026-03-28T14:14:46.253Z</time></trkpt><trkpt lat="41.5361231" lon="12.8619067"><ele>31.000000000000004</ele><time>2026-03-28T14:14:47.253Z</time></trkpt><trkpt lat="41.5360182" lon="12.8618606"><ele>31.0</ele><time>2026-03-28T14:14:49.252Z</time></trkpt><trkpt lat="41.5359152" lon="12.8618079"><ele>30.8</ele><time>2026-03-28T14:14:51.252Z</time></trkpt><trkpt lat="41.5357982" lon="12.8617455"><ele>30.6</ele><time>2026-03-28T14:14:53.253Z</time></trkpt><trkpt lat="41.535688" lon="12.8616924"><ele>30.4</ele><time>2026-03-28T14:14:55.253Z</time></trkpt><trkpt lat="41.5356261" lon="12.8616667"><ele>30.2</ele><time>2026-03-28T14:14:56.252Z</time></trkpt><trkpt lat="41.5355155" lon="12.861614"><ele>30.0</ele><time>2026-03-28T14:14:58.252Z</time></trkpt><trkpt lat="41.5353973" lon="12.8615549"><ele>30.8</ele><time>2026-03-28T14:15:00.252Z</time></trkpt><trkpt lat="41.5352825" lon="12.8615006"><ele>31.6</ele><time>2026-03-28T14:15:02.253Z</time></trkpt><trkpt lat="41.5351731" lon="12.861454"><ele>32.4</ele><time>2026-03-28T14:15:04.252Z</time></trkpt><trkpt lat="41.5351107" lon="12.8614291"><ele>33.2</ele><time>2026-03-28T14:15:05.252Z</time></trkpt><trkpt lat="41.5350143" lon="12.8613911"><ele>34.0</ele><time>2026-03-28T14:15:07.252Z</time></trkpt><trkpt lat="41.5349559" lon="12.8613531"><ele>34.0</ele><time>2026-03-28T14:15:08.252Z</time></trkpt><trkpt lat="41.5348492" lon="12.8612967"><ele>34.0</ele><time>2026-03-28T14:15:10.253Z</time></trkpt><trkpt lat="41.534744" lon="12.8612436"><ele>34.0</ele><time>2026-03-28T14:15:12.252Z</time></trkpt><trkpt lat="41.5346453" lon="12.8611774"><ele>34.0</ele><time>2026-03-28T14:15:14.252Z</time></trkpt><trkpt lat="41.5345413" lon="12.861125"><ele>34.0</ele><time>2026-03-28T14:15:16.252Z</time></trkpt><trkpt lat="41.5344727" lon="12.8610781"><ele>33.66666666666667</ele><time>2026-03-28T14:15:18.252Z</time></trkpt><trkpt lat="41.5344096" lon="12.8610549"><ele>33.333333333333336</ele><time>2026-03-28T14:15:20.252Z</time></trkpt><trkpt lat="41.5343445" lon="12.8610421"><ele>33.0</ele><time>2026-03-28T14:15:28.252Z</time></trkpt><trkpt lat="41.5342453" lon="12.8610294"><ele>32.666666666666664</ele><time>2026-03-28T14:15:31.253Z</time></trkpt><trkpt lat="41.5341227" lon="12.8609906"><ele>32.33333333333333</ele><time>2026-03-28T14:15:33.252Z</time></trkpt><trkpt lat="41.5340573" lon="12.8609751"><ele>32.0</ele><time>2026-03-28T14:15:34.252Z</time></trkpt><trkpt lat="41.5339904" lon="12.8609685"><ele>31.999999999999996</ele><time>2026-03-28T14:15:35.252Z</time></trkpt><trkpt lat="41.5339128" lon="12.8609318"><ele>32.0</ele><time>2026-03-28T14:15:36.253Z</time></trkpt><trkpt lat="41.5338315" lon="12.8608842"><ele>32.0</ele><time>2026-03-28T14:15:37.253Z</time></trkpt><trkpt lat="41.5337577" lon="12.8608435"><ele>32.0</ele><time>2026-03-28T14:15:38.253Z</time></trkpt><trkpt lat="41.5336788" lon="12.8608001"><ele>31.999999999999996</ele><time>2026-03-28T14:15:39.252Z</time></trkpt><trkpt lat="41.5336034" lon="12.8607516"><ele>32.0</ele><time>2026-03-28T14:15:40.252Z</time></trkpt><trkpt lat="41.5335231" lon="12.8607217"><ele>31.833333333333332</ele><time>2026-03-28T14:15:41.252Z</time></trkpt><trkpt lat="41.5334396" lon="12.8606818"><ele>31.666666666666664</ele><time>2026-03-28T14:15:42.253Z</time></trkpt><trkpt lat="41.5333544" lon="12.8606483"><ele>31.5</ele><time>2026-03-28T14:15:43.252Z</time></trkpt><trkpt lat="41.5332832" lon="12.8606151"><ele>31.333333333333336</ele><time>2026-03-28T14:15:44.252Z</time></trkpt><trkpt lat="41.5332171" lon="12.8605763"><ele>31.166666666666668</ele><time>2026-03-28T14:15:45.252Z</time></trkpt><trkpt lat="41.5331326" lon="12.8605343"><ele>31.0</ele><time>2026-03-28T14:15:46.253Z</time></trkpt><trkpt lat="41.5330477" lon="12.8604926"><ele>31.000000000000004</ele><time>2026-03-28T14:15:47.253Z</time></trkpt><trkpt lat="41.5329667" lon="12.8604521"><ele>31.0</ele><time>2026-03-28T14:15:48.252Z</time></trkpt><trkpt lat="41.53289" lon="12.8604061"><ele>31.0</ele><time>2026-03-28T14:15:49.253Z</time></trkpt><trkpt lat="41.5328135" lon="12.8603735"><ele>31.0</ele><time>2026-03-28T14:15:50.253Z</time></trkpt><trkpt lat="41.5327317" lon="12.8603441"><ele>31.000000000000004</ele><time>2026-03-28T14:15:51.253Z</time></trkpt><trkpt lat="41.5326621" lon="12.8602951"><ele>31.0</ele><time>2026-03-28T14:15:52.252Z</time></trkpt><trkpt lat="41.5325946" lon="12.860262"><ele>31.000000000000004</ele><time>2026-03-28T14:15:53.252Z</time></trkpt><trkpt lat="41.5325303" lon="12.860227"><ele>31.0</ele><time>2026-03-28T14:15:54.252Z</time></trkpt><trkpt lat="41.532443" lon="12.8601693"><ele>31.0</ele><time>2026-03-28T14:15:56.252Z</time></trkpt><trkpt lat="41.5323792" lon="12.8601296"><ele>31.0</ele><time>2026-03-28T14:15:58.253Z</time></trkpt><trkpt lat="41.5323287" lon="12.8600588"><ele>31.000000000000004</ele><time>2026-03-28T14:17:02.253Z</time></trkpt><trkpt lat="41.53237" lon="12.8599111"><ele>31.0</ele><time>2026-03-28T14:17:04.252Z</time></trkpt><trkpt lat="41.5324169" lon="12.8597827"><ele>31.000000000000004</ele><time>2026-03-28T14:17:05.252Z</time></trkpt><trkpt lat="41.5324474" lon="12.8596726"><ele>31.0</ele><time>2026-03-28T14:17:06.252Z</time></trkpt><trkpt lat="41.532478" lon="12.8595803"><ele>31.0</ele><time>2026-03-28T14:17:07.253Z</time></trkpt><trkpt lat="41.5325011" lon="12.8594844"><ele>31.0</ele><time>2026-03-28T14:17:08.252Z</time></trkpt><trkpt lat="41.5325417" lon="12.859378"><ele>31.000000000000004</ele><time>2026-03-28T14:17:10.252Z</time></trkpt><trkpt lat="41.5326188" lon="12.8593972"><ele>31.0</ele><time>2026-03-28T14:17:13.252Z</time></trkpt><trkpt lat="41.5327035" lon="12.8594381"><ele>31.000000000000004</ele><time>2026-03-28T14:17:15.252Z</time></trkpt><trkpt lat="41.5328222" lon="12.8594987"><ele>31.0</ele><time>2026-03-28T14:17:18.252Z</time></trkpt><trkpt lat="41.5329051" lon="12.8595437"><ele>31.0</ele><time>2026-03-28T14:17:20.252Z</time></trkpt><trkpt lat="41.5329704" lon="12.859581"><ele>31.0</ele><time>2026-03-28T14:17:22.253Z</time></trkpt><trkpt lat="41.5330283" lon="12.8596256"><ele>31.000000000000004</ele><time>2026-03-28T14:17:24.252Z</time></trkpt><trkpt lat="41.5329699" lon="12.8596766"><ele>31.0</ele><time>2026-03-28T14:17:29.252Z</time></trkpt><trkpt lat="41.5329037" lon="12.8596946"><ele>31.0</ele><time>2026-03-28T14:17:32.253Z</time></trkpt><trkpt lat="41.5327952" lon="12.8597169"><ele>31.0</ele><time>2026-03-28T14:17:37.252Z</time></trkpt><trkpt lat="41.5326859" lon="12.8597137"><ele>31.0</ele><time>2026-03-28T14:17:41.252Z</time></trkpt><trkpt lat="41.5326033" lon="12.8596992"><ele>31.0</ele><time>2026-03-28T14:17:44.252Z</time></trkpt><trkpt lat="41.5325323" lon="12.8596792"><ele>31.0</ele><time>2026-03-28T14:17:48.252Z</time></trkpt><trkpt lat="41.532447" lon="12.8595997"><ele>31.0</ele><time>2026-03-28T14:17:52.252Z</time></trkpt><trkpt lat="41.5323645" lon="12.8595804"><ele>31.0</ele><time>2026-03-28T14:17:54.252Z</time></trkpt><trkpt lat="41.5322696" lon="12.859565"><ele>31.0</ele><time>2026-03-28T14:17:56.252Z</time></trkpt><trkpt lat="41.532129" lon="12.8594966"><ele>31.0</ele><time>2026-03-28T14:17:59.252Z</time></trkpt><trkpt lat="41.5320405" lon="12.859427"><ele>31.0</ele><time>2026-03-28T14:18:01.252Z</time></trkpt><trkpt lat="41.5319394" lon="12.8593783"><ele>31.0</ele><time>2026-03-28T14:18:03.252Z</time></trkpt><trkpt lat="41.5318486" lon="12.8593073"><ele>31.0</ele><time>2026-03-28T14:18:05.253Z</time></trkpt><trkpt lat="41.5317559" lon="12.8592581"><ele>31.0</ele><time>2026-03-28T14:18:07.252Z</time></trkpt><trkpt lat="41.5315948" lon="12.8591423"><ele>31.0</ele><time>2026-03-28T14:18:10.252Z</time></trkpt><trkpt lat="41.5314551" lon="12.8590733"><ele>31.0</ele><time>2026-03-28T14:18:12.252Z</time></trkpt><trkpt lat="41.5313182" lon="12.8589995"><ele>31.0</ele><time>2026-03-28T14:18:14.252Z</time></trkpt><trkpt lat="41.5311606" lon="12.85892"><ele>31.0</ele><time>2026-03-28T14:18:16.253Z</time></trkpt><trkpt lat="41.531024" lon="12.85883"><ele>31.0</ele><time>2026-03-28T14:18:18.252Z</time></trkpt><trkpt lat="41.5308713" lon="12.8587417"><ele>31.0</ele><time>2026-03-28T14:18:20.253Z</time></trkpt><trkpt lat="41.5307173" lon="12.8586658"><ele>31.0</ele><time>2026-03-28T14:18:22.252Z</time></trkpt><trkpt lat="41.5305669" lon="12.8585923"><ele>31.0</ele><time>2026-03-28T14:18:24.252Z</time></trkpt><trkpt lat="41.5304812" lon="12.8585492"><ele>31.0</ele><time>2026-03-28T14:18:25.253Z</time></trkpt><trkpt lat="41.5302747" lon="12.8584327"><ele>31.0</ele><time>2026-03-28T14:18:27.252Z</time></trkpt><trkpt lat="41.5301534" lon="12.8584032"><ele>31.0</ele><time>2026-03-28T14:18:28.253Z</time></trkpt><trkpt lat="41.5300537" lon="12.8583346"><ele>30.5</ele><time>2026-03-28T14:18:29.253Z</time></trkpt><trkpt lat="41.5299541" lon="12.8582776"><ele>30.0</ele><time>2026-03-28T14:18:30.252Z</time></trkpt><trkpt lat="41.5297774" lon="12.8582029"><ele>29.5</ele><time>2026-03-28T14:18:32.252Z</time></trkpt><trkpt lat="41.5296889" lon="12.8581675"><ele>29.0</ele><time>2026-03-28T14:18:33.253Z</time></trkpt><trkpt lat="41.5295997" lon="12.8581257"><ele>29.2</ele><time>2026-03-28T14:18:34.252Z</time></trkpt><trkpt lat="41.5295246" lon="12.8580902"><ele>29.4</ele><time>2026-03-28T14:18:35.252Z</time></trkpt><trkpt lat="41.5294581" lon="12.8580551"><ele>29.6</ele><time>2026-03-28T14:18:36.253Z</time></trkpt><trkpt lat="41.5293306" lon="12.8579874"><ele>29.8</ele><time>2026-03-28T14:18:38.252Z</time></trkpt><trkpt lat="41.5292035" lon="12.8579156"><ele>30.0</ele><time>2026-03-28T14:18:40.252Z</time></trkpt><trkpt lat="41.5291404" lon="12.8578798"><ele>30.0</ele><time>2026-03-28T14:18:41.253Z</time></trkpt><trkpt lat="41.5290126" lon="12.8578097"><ele>30.0</ele><time>2026-03-28T14:18:43.252Z</time></trkpt><trkpt lat="41.5289389" lon="12.857768"><ele>30.0</ele><time>2026-03-28T14:18:44.252Z</time></trkpt><trkpt lat="41.5288569" lon="12.8577269"><ele>30.0</ele><time>2026-03-28T14:18:45.253Z</time></trkpt><trkpt lat="41.5286164" lon="12.8576073"><ele>30.25</ele><time>2026-03-28T14:18:48.253Z</time></trkpt><trkpt lat="41.528466" lon="12.8575283"><ele>30.5</ele><time>2026-03-28T14:18:50.252Z</time></trkpt><trkpt lat="41.5283184" lon="12.8574551"><ele>30.75</ele><time>2026-03-28T14:18:52.252Z</time></trkpt><trkpt lat="41.528248" lon="12.8574131"><ele>31.0</ele><time>2026-03-28T14:18:53.252Z</time></trkpt><trkpt lat="41.5281714" lon="12.8573776"><ele>31.0</ele><time>2026-03-28T14:18:54.252Z</time></trkpt><trkpt lat="41.5281047" lon="12.8573457"><ele>31.0</ele><time>2026-03-28T14:18:55.252Z</time></trkpt><trkpt lat="41.5280384" lon="12.857305"><ele>31.0</ele><time>2026-03-28T14:18:56.252Z</time></trkpt><trkpt lat="41.5279519" lon="12.8572628"><ele>31.0</ele><time>2026-03-28T14:18:57.252Z</time></trkpt><trkpt lat="41.5278036" lon="12.8571767"><ele>31.0</ele><time>2026-03-28T14:18:59.253Z</time></trkpt><trkpt lat="41.527681" lon="12.8571225"><ele>31.6</ele><time>2026-03-28T14:19:01.252Z</time></trkpt><trkpt lat="41.5276081" lon="12.8570846"><ele>32.2</ele><time>2026-03-28T14:19:03.253Z</time></trkpt><trkpt lat="41.5275304" lon="12.8570685"><ele>32.8</ele><time>2026-03-28T14:19:08.252Z</time></trkpt><trkpt lat="41.5274395" lon="12.8570034"><ele>33.4</ele><time>2026-03-28T14:19:10.253Z</time></trkpt><trkpt lat="41.5273461" lon="12.8569345"><ele>34.0</ele><time>2026-03-28T14:19:12.252Z</time></trkpt><trkpt lat="41.5272377" lon="12.8568575"><ele>34.0</ele><time>2026-03-28T14:19:16.252Z</time></trkpt><trkpt lat="41.527148" lon="12.8568045"><ele>34.0</ele><time>2026-03-28T14:19:18.252Z</time></trkpt><trkpt lat="41.5270704" lon="12.856771"><ele>34.0</ele><time>2026-03-28T14:19:21.252Z</time></trkpt><trkpt lat="41.5270168" lon="12.8566946"><ele>34.0</ele><time>2026-03-28T14:19:30.252Z</time></trkpt><trkpt lat="41.5269658" lon="12.8565877"><ele>34.0</ele><time>2026-03-28T14:19:32.252Z</time></trkpt><trkpt lat="41.5268532" lon="12.8564877"><ele>33.5</ele><time>2026-03-28T14:19:34.252Z</time></trkpt><trkpt lat="41.5267475" lon="12.8563823"><ele>33.0</ele><time>2026-03-28T14:19:36.252Z</time></trkpt><trkpt lat="41.5267022" lon="12.8563187"><ele>32.5</ele><time>2026-03-28T14:19:37.252Z</time></trkpt><trkpt lat="41.5266435" lon="12.8562606"><ele>32.0</ele><time>2026-03-28T14:19:38.252Z</time></trkpt><trkpt lat="41.5265907" lon="12.8561865"><ele>31.500000000000004</ele><time>2026-03-28T14:19:39.252Z</time></trkpt><trkpt lat="41.526533" lon="12.8561177"><ele>31.0</ele><time>2026-03-28T14:19:40.253Z</time></trkpt><trkpt lat="41.5264867" lon="12.8560485"><ele>31.200000000000003</ele><time>2026-03-28T14:19:41.252Z</time></trkpt><trkpt lat="41.5263772" lon="12.8559128"><ele>31.400000000000002</ele><time>2026-03-28T14:19:43.252Z</time></trkpt><trkpt lat="41.5263186" lon="12.8558482"><ele>31.6</ele><time>2026-03-28T14:19:44.252Z</time></trkpt><trkpt lat="41.5262584" lon="12.855779"><ele>31.8</ele><time>2026-03-28T14:19:45.253Z</time></trkpt><trkpt lat="41.5262062" lon="12.855707"><ele>32.0</ele><time>2026-03-28T14:19:46.252Z</time></trkpt><trkpt lat="41.526152" lon="12.8556357"><ele>31.400000000000002</ele><time>2026-03-28T14:19:47.252Z</time></trkpt><trkpt lat="41.5260992" lon="12.8555594"><ele>30.800000000000004</ele><time>2026-03-28T14:19:48.253Z</time></trkpt><trkpt lat="41.5260417" lon="12.8554833"><ele>30.2</ele><time>2026-03-28T14:19:49.252Z</time></trkpt><trkpt lat="41.5259799" lon="12.8554115"><ele>29.6</ele><time>2026-03-28T14:19:50.253Z</time></trkpt><trkpt lat="41.5259203" lon="12.8553445"><ele>29.0</ele><time>2026-03-28T14:19:51.253Z</time></trkpt><trkpt lat="41.525807" lon="12.8552009"><ele>28.999999999999996</ele><time>2026-03-28T14:19:53.252Z</time></trkpt><trkpt lat="41.5257525" lon="12.8551331"><ele>29.0</ele><time>2026-03-28T14:19:54.252Z</time></trkpt><trkpt lat="41.5257054" lon="12.8550605"><ele>29.0</ele><time>2026-03-28T14:19:55.252Z</time></trkpt><trkpt lat="41.5256182" lon="12.8549361"><ele>29.0</ele><time>2026-03-28T14:19:57.252Z</time></trkpt><trkpt lat="41.5255615" lon="12.8548608"><ele>28.999999999999996</ele><time>2026-03-28T14:19:58.252Z</time></trkpt><trkpt lat="41.5255052" lon="12.8547777"><ele>29.0</ele><time>2026-03-28T14:19:59.253Z</time></trkpt><trkpt lat="41.5253994" lon="12.8546457"><ele>29.0</ele><time>2026-03-28T14:20:01.252Z</time></trkpt><trkpt lat="41.5253439" lon="12.8545785"><ele>29.0</ele><time>2026-03-28T14:20:02.253Z</time></trkpt><trkpt lat="41.5252924" lon="12.8544894"><ele>29.0</ele><time>2026-03-28T14:20:03.252Z</time></trkpt><trkpt lat="41.525239" lon="12.854433"><ele>29.0</ele><time>2026-03-28T14:20:04.253Z</time></trkpt><trkpt lat="41.5251157" lon="12.8542661"><ele>29.0</ele><time>2026-03-28T14:20:06.252Z</time></trkpt><trkpt lat="41.5249956" lon="12.8541151"><ele>29.0</ele><time>2026-03-28T14:20:08.252Z</time></trkpt><trkpt lat="41.5249426" lon="12.854042"><ele>29.0</ele><time>2026-03-28T14:20:09.253Z</time></trkpt><trkpt lat="41.52488" lon="12.8539744"><ele>29.0</ele><time>2026-03-28T14:20:10.253Z</time></trkpt><trkpt lat="41.524758" lon="12.8538179"><ele>29.0</ele><time>2026-03-28T14:20:12.252Z</time></trkpt><trkpt lat="41.5246676" lon="12.8536696"><ele>29.0</ele><time>2026-03-28T14:20:14.253Z</time></trkpt><trkpt lat="41.5245657" lon="12.8535477"><ele>29.0</ele><time>2026-03-28T14:20:16.252Z</time></trkpt><trkpt lat="41.5244304" lon="12.8533797"><ele>29.0</ele><time>2026-03-28T14:20:18.252Z</time></trkpt><trkpt lat="41.5243711" lon="12.8533014"><ele>29.0</ele><time>2026-03-28T14:20:19.252Z</time></trkpt><trkpt lat="41.5243114" lon="12.8532227"><ele>29.0</ele><time>2026-03-28T14:20:20.252Z</time></trkpt><trkpt lat="41.5242048" lon="12.8530802"><ele>29.0</ele><time>2026-03-28T14:20:22.253Z</time></trkpt><trkpt lat="41.5241515" lon="12.8530266"><ele>29.0</ele><time>2026-03-28T14:20:23.252Z</time></trkpt><trkpt lat="41.5241102" lon="12.8529608"><ele>29.0</ele><time>2026-03-28T14:20:24.252Z</time></trkpt><trkpt lat="41.5240244" lon="12.8528434"><ele>29.0</ele><time>2026-03-28T14:20:26.252Z</time></trkpt><trkpt lat="41.5239219" lon="12.8527072"><ele>28.999999999999996</ele><time>2026-03-28T14:20:29.253Z</time></trkpt><trkpt lat="41.5238667" lon="12.8526579"><ele>29.0</ele><time>2026-03-28T14:20:31.253Z</time></trkpt><trkpt lat="41.5238024" lon="12.8526818"><ele>29.0</ele><time>2026-03-28T14:20:40.253Z</time></trkpt><trkpt lat="41.5237348" lon="12.8527641"><ele>29.0</ele><time>2026-03-28T14:20:45.253Z</time></trkpt><trkpt lat="41.5236727" lon="12.8527878"><ele>28.999999999999996</ele><time>2026-03-28T14:20:48.252Z</time></trkpt><trkpt lat="41.5236183" lon="12.852694"><ele>29.0</ele><time>2026-03-28T14:20:51.252Z</time></trkpt><trkpt lat="41.5235548" lon="12.8526277"><ele>28.799999999999997</ele><time>2026-03-28T14:20:53.252Z</time></trkpt><trkpt lat="41.5235031" lon="12.852561"><ele>28.599999999999998</ele><time>2026-03-28T14:20:55.252Z</time></trkpt><trkpt lat="41.5234603" lon="12.8524701"><ele>28.4</ele><time>2026-03-28T14:20:57.252Z</time></trkpt><trkpt lat="41.5234087" lon="12.852385"><ele>28.2</ele><time>2026-03-28T14:20:59.252Z</time></trkpt><trkpt lat="41.5233473" lon="12.8523179"><ele>28.0</ele><time>2026-03-28T14:21:01.253Z</time></trkpt><trkpt lat="41.523241" lon="12.8522028"><ele>28.0</ele><time>2026-03-28T14:21:04.253Z</time></trkpt><trkpt lat="41.5231682" lon="12.8520894"><ele>27.999999999999996</ele><time>2026-03-28T14:21:06.253Z</time></trkpt><trkpt lat="41.523097" lon="12.8519872"><ele>27.999999999999996</ele><time>2026-03-28T14:21:08.252Z</time></trkpt><trkpt lat="41.5230364" lon="12.8518946"><ele>28.0</ele><time>2026-03-28T14:21:10.253Z</time></trkpt><trkpt lat="41.5229555" lon="12.8517908"><ele>28.0</ele><time>2026-03-28T14:21:12.253Z</time></trkpt><trkpt lat="41.5229079" lon="12.8517349"><ele>28.500000000000004</ele><time>2026-03-28T14:21:13.252Z</time></trkpt><trkpt lat="41.5228552" lon="12.8516726"><ele>29.0</ele><time>2026-03-28T14:21:14.253Z</time></trkpt><trkpt lat="41.5227678" lon="12.8515629"><ele>29.5</ele><time>2026-03-28T14:21:16.252Z</time></trkpt><trkpt lat="41.5227058" lon="12.8514734"><ele>30.0</ele><time>2026-03-28T14:21:17.252Z</time></trkpt><trkpt lat="41.5226549" lon="12.8514046"><ele>30.500000000000004</ele><time>2026-03-28T14:21:18.253Z</time></trkpt><trkpt lat="41.5226109" lon="12.8513415"><ele>31.0</ele><time>2026-03-28T14:21:19.252Z</time></trkpt><trkpt lat="41.5225608" lon="12.8512832"><ele>31.0</ele><time>2026-03-28T14:21:20.253Z</time></trkpt><trkpt lat="41.5224713" lon="12.8511828"><ele>31.0</ele><time>2026-03-28T14:21:22.252Z</time></trkpt><trkpt lat="41.5224381" lon="12.8510895"><ele>31.0</ele><time>2026-03-28T14:21:24.252Z</time></trkpt><trkpt lat="41.522369" lon="12.8510397"><ele>31.0</ele><time>2026-03-28T14:21:30.253Z</time></trkpt><trkpt lat="41.5222685" lon="12.8511048"><ele>31.0</ele><time>2026-03-28T14:21:32.252Z</time></trkpt><trkpt lat="41.5221753" lon="12.851089"><ele>31.0</ele><time>2026-03-28T14:21:34.252Z</time></trkpt><trkpt lat="41.522045" lon="12.8510194"><ele>31.0</ele><time>2026-03-28T14:21:37.252Z</time></trkpt><trkpt lat="41.5219897" lon="12.850937"><ele>31.0</ele><time>2026-03-28T14:21:39.252Z</time></trkpt><trkpt lat="41.5219194" lon="12.8508426"><ele>31.0</ele><time>2026-03-28T14:21:41.252Z</time></trkpt><trkpt lat="41.5218503" lon="12.8507452"><ele>31.0</ele><time>2026-03-28T14:21:43.252Z</time></trkpt><trkpt lat="41.5217926" lon="12.8506795"><ele>30.200000000000003</ele><time>2026-03-28T14:21:45.252Z</time></trkpt><trkpt lat="41.521711" lon="12.8506759"><ele>29.400000000000002</ele><time>2026-03-28T14:21:47.252Z</time></trkpt><trkpt lat="41.5216113" lon="12.8506309"><ele>28.6</ele><time>2026-03-28T14:21:49.253Z</time></trkpt><trkpt lat="41.5215527" lon="12.8505413"><ele>27.8</ele><time>2026-03-28T14:21:51.252Z</time></trkpt><trkpt lat="41.5214734" lon="12.8504426"><ele>27.0</ele><time>2026-03-28T14:21:53.252Z</time></trkpt><trkpt lat="41.5213889" lon="12.8503338"><ele>27.0</ele><time>2026-03-28T14:21:55.253Z</time></trkpt><trkpt lat="41.5213398" lon="12.8502686"><ele>27.000000000000004</ele><time>2026-03-28T14:21:56.252Z</time></trkpt><trkpt lat="41.5212905" lon="12.850202"><ele>27.000000000000004</ele><time>2026-03-28T14:21:57.252Z</time></trkpt><trkpt lat="41.5212118" lon="12.8500845"><ele>27.0</ele><time>2026-03-28T14:21:59.252Z</time></trkpt><trkpt lat="41.5211651" lon="12.8500177"><ele>27.0</ele><time>2026-03-28T14:22:00.252Z</time></trkpt><trkpt lat="41.5210702" lon="12.8498958"><ele>27.333333333333332</ele><time>2026-03-28T14:22:02.252Z</time></trkpt><trkpt lat="41.5209768" lon="12.8497616"><ele>27.666666666666664</ele><time>2026-03-28T14:22:04.252Z</time></trkpt><trkpt lat="41.5209282" lon="12.8496984"><ele>28.0</ele><time>2026-03-28T14:22:05.252Z</time></trkpt><trkpt lat="41.5208783" lon="12.8496324"><ele>28.333333333333332</ele><time>2026-03-28T14:22:06.252Z</time></trkpt><trkpt lat="41.5208343" lon="12.8495672"><ele>28.666666666666664</ele><time>2026-03-28T14:22:07.253Z</time></trkpt><trkpt lat="41.5207559" lon="12.8494697"><ele>29.0</ele><time>2026-03-28T14:22:09.252Z</time></trkpt><trkpt lat="41.5206728" lon="12.8493543"><ele>29.0</ele><time>2026-03-28T14:22:11.252Z</time></trkpt><trkpt lat="41.5205306" lon="12.8491874"><ele>29.0</ele><time>2026-03-28T14:22:14.253Z</time></trkpt><trkpt lat="41.5204386" lon="12.8490754"><ele>29.0</ele><time>2026-03-28T14:22:16.253Z</time></trkpt><trkpt lat="41.5203764" lon="12.8490044"><ele>29.0</ele><time>2026-03-28T14:22:17.252Z</time></trkpt><trkpt lat="41.5203232" lon="12.8489364"><ele>29.0</ele><time>2026-03-28T14:22:18.252Z</time></trkpt><trkpt lat="41.5202171" lon="12.848812"><ele>29.0</ele><time>2026-03-28T14:22:20.252Z</time></trkpt><trkpt lat="41.5201382" lon="12.8487022"><ele>29.0</ele><time>2026-03-28T14:22:22.252Z</time></trkpt><trkpt lat="41.5200521" lon="12.8485975"><ele>29.0</ele><time>2026-03-28T14:22:24.253Z</time></trkpt><trkpt lat="41.5200011" lon="12.848491"><ele>28.666666666666664</ele><time>2026-03-28T14:22:26.252Z</time></trkpt><trkpt lat="41.5199654" lon="12.8483791"><ele>28.333333333333332</ele><time>2026-03-28T14:22:28.252Z</time></trkpt><trkpt lat="41.5199402" lon="12.848282"><ele>28.0</ele><time>2026-03-28T14:22:29.252Z</time></trkpt><trkpt lat="41.5199045" lon="12.8481872"><ele>27.666666666666664</ele><time>2026-03-28T14:22:31.252Z</time></trkpt><trkpt lat="41.5198564" lon="12.848097"><ele>27.333333333333332</ele><time>2026-03-28T14:22:33.252Z</time></trkpt><trkpt lat="41.5198009" lon="12.8480046"><ele>27.0</ele><time>2026-03-28T14:22:35.253Z</time></trkpt><trkpt lat="41.5197612" lon="12.8479291"><ele>27.0</ele><time>2026-03-28T14:22:36.253Z</time></trkpt><trkpt lat="41.519635" lon="12.8477231"><ele>27.000000000000004</ele><time>2026-03-28T14:22:39.252Z</time></trkpt><trkpt lat="41.5195731" lon="12.8476654"><ele>27.000000000000004</ele><time>2026-03-28T14:22:40.253Z</time></trkpt><trkpt lat="41.5195177" lon="12.8475825"><ele>27.0</ele><time>2026-03-28T14:22:41.252Z</time></trkpt><trkpt lat="41.5194671" lon="12.8475127"><ele>27.0</ele><time>2026-03-28T14:22:42.252Z</time></trkpt><trkpt lat="41.5194113" lon="12.8474373"><ele>27.333333333333332</ele><time>2026-03-28T14:22:43.253Z</time></trkpt><trkpt lat="41.5193597" lon="12.8473786"><ele>27.666666666666664</ele><time>2026-03-28T14:22:44.252Z</time></trkpt><trkpt lat="41.5192699" lon="12.8472589"><ele>28.0</ele><time>2026-03-28T14:22:46.252Z</time></trkpt><trkpt lat="41.519215" lon="12.8471933"><ele>28.333333333333332</ele><time>2026-03-28T14:22:47.252Z</time></trkpt><trkpt lat="41.5191705" lon="12.8471258"><ele>28.666666666666664</ele><time>2026-03-28T14:22:48.253Z</time></trkpt><trkpt lat="41.5191222" lon="12.8470628"><ele>29.0</ele><time>2026-03-28T14:22:49.252Z</time></trkpt><trkpt lat="41.519076" lon="12.8469995"><ele>29.0</ele><time>2026-03-28T14:22:50.253Z</time></trkpt><trkpt lat="41.5189659" lon="12.846882"><ele>29.0</ele><time>2026-03-28T14:22:52.252Z</time></trkpt><trkpt lat="41.5188338" lon="12.8467092"><ele>29.0</ele><time>2026-03-28T14:22:55.252Z</time></trkpt><trkpt lat="41.5187321" lon="12.8465948"><ele>29.4</ele><time>2026-03-28T14:22:57.252Z</time></trkpt><trkpt lat="41.5186414" lon="12.846471"><ele>29.799999999999997</ele><time>2026-03-28T14:22:59.253Z</time></trkpt><trkpt lat="41.5185879" lon="12.8463981"><ele>30.200000000000003</ele><time>2026-03-28T14:23:00.252Z</time></trkpt><trkpt lat="41.5184773" lon="12.8462524"><ele>30.6</ele><time>2026-03-28T14:23:02.252Z</time></trkpt><trkpt lat="41.5184269" lon="12.8461704"><ele>31.0</ele><time>2026-03-28T14:23:03.253Z</time></trkpt><trkpt lat="41.5183317" lon="12.8460382"><ele>31.0</ele><time>2026-03-28T14:23:05.252Z</time></trkpt><trkpt lat="41.518282" lon="12.8459801"><ele>31.0</ele><time>2026-03-28T14:23:06.253Z</time></trkpt><trkpt lat="41.5182289" lon="12.8459147"><ele>31.0</ele><time>2026-03-28T14:23:07.252Z</time></trkpt><trkpt lat="41.5181563" lon="12.8457851"><ele>31.0</ele><time>2026-03-28T14:23:09.252Z</time></trkpt><trkpt lat="41.5180744" lon="12.8456493"><ele>31.0</ele><time>2026-03-28T14:23:11.252Z</time></trkpt><trkpt lat="41.5179717" lon="12.8455645"><ele>31.0</ele><time>2026-03-28T14:23:13.253Z</time></trkpt><trkpt lat="41.517882" lon="12.8454457"><ele>31.0</ele><time>2026-03-28T14:23:15.252Z</time></trkpt><trkpt lat="41.5178309" lon="12.8453702"><ele>31.0</ele><time>2026-03-28T14:23:16.252Z</time></trkpt><trkpt lat="41.5177638" lon="12.8452565"><ele>31.0</ele><time>2026-03-28T14:23:18.252Z</time></trkpt><trkpt lat="41.5176679" lon="12.8451436"><ele>31.0</ele><time>2026-03-28T14:23:20.252Z</time></trkpt><trkpt lat="41.5175925" lon="12.8450377"><ele>30.200000000000003</ele><time>2026-03-28T14:23:22.253Z</time></trkpt><trkpt lat="41.5175048" lon="12.8449538"><ele>29.400000000000002</ele><time>2026-03-28T14:23:24.252Z</time></trkpt><trkpt lat="41.5174301" lon="12.8448665"><ele>28.6</ele><time>2026-03-28T14:23:26.253Z</time></trkpt><trkpt lat="41.517348" lon="12.8447605"><ele>27.8</ele><time>2026-03-28T14:23:28.252Z</time></trkpt><trkpt lat="41.5172775" lon="12.8446619"><ele>27.0</ele><time>2026-03-28T14:23:30.252Z</time></trkpt><trkpt lat="41.5172326" lon="12.8445741"><ele>27.0</ele><time>2026-03-28T14:23:32.253Z</time></trkpt><trkpt lat="41.5171906" lon="12.8445088"><ele>27.0</ele><time>2026-03-28T14:23:34.252Z</time></trkpt><trkpt lat="41.5171152" lon="12.844466"><ele>27.0</ele><time>2026-03-28T14:23:37.252Z</time></trkpt><trkpt lat="41.517018" lon="12.8444569"><ele>27.0</ele><time>2026-03-28T14:23:39.252Z</time></trkpt><trkpt lat="41.5169352" lon="12.8444323"><ele>27.0</ele><time>2026-03-28T14:23:41.252Z</time></trkpt><trkpt lat="41.5168581" lon="12.8443755"><ele>27.0</ele><time>2026-03-28T14:23:43.252Z</time></trkpt><trkpt lat="41.5167795" lon="12.8442746"><ele>27.5</ele><time>2026-03-28T14:23:45.252Z</time></trkpt><trkpt lat="41.5166496" lon="12.8441253"><ele>28.0</ele><time>2026-03-28T14:23:48.253Z</time></trkpt><trkpt lat="41.5165622" lon="12.8440057"><ele>28.5</ele><time>2026-03-28T14:23:50.253Z</time></trkpt><trkpt lat="41.51647" lon="12.8438729"><ele>29.0</ele><time>2026-03-28T14:23:52.252Z</time></trkpt><trkpt lat="41.5164088" lon="12.8438058"><ele>28.999999999999996</ele><time>2026-03-28T14:23:53.252Z</time></trkpt><trkpt lat="41.5163601" lon="12.8437348"><ele>29.0</ele><time>2026-03-28T14:23:54.252Z</time></trkpt><trkpt lat="41.5162648" lon="12.8436041"><ele>29.0</ele><time>2026-03-28T14:23:56.252Z</time></trkpt><trkpt lat="41.5162116" lon="12.8435217"><ele>29.0</ele><time>2026-03-28T14:23:58.252Z</time></trkpt><trkpt lat="41.5162517" lon="12.8434512"><ele>28.999999999999996</ele><time>2026-03-28T14:24:03.252Z</time></trkpt><trkpt lat="41.5163164" lon="12.8434305"><ele>29.0</ele><time>2026-03-28T14:24:09.252Z</time></trkpt><trkpt lat="41.5163373" lon="12.8433316"><ele>29.0</ele><time>2026-03-28T14:24:12.252Z</time></trkpt><trkpt lat="41.5163015" lon="12.8431935"><ele>29.0</ele><time>2026-03-28T14:24:14.252Z</time></trkpt><trkpt lat="41.5162534" lon="12.8430724"><ele>29.0</ele><time>2026-03-28T14:24:16.253Z</time></trkpt><trkpt lat="41.5161696" lon="12.8429425"><ele>29.0</ele><time>2026-03-28T14:24:18.252Z</time></trkpt><trkpt lat="41.5161251" lon="12.842874"><ele>29.0</ele><time>2026-03-28T14:24:19.252Z</time></trkpt><trkpt lat="41.5160652" lon="12.8427917"><ele>29.0</ele><time>2026-03-28T14:24:20.252Z</time></trkpt><trkpt lat="41.5159405" lon="12.8426409"><ele>29.0</ele><time>2026-03-28T14:24:22.253Z</time></trkpt><trkpt lat="41.5158133" lon="12.8425048"><ele>29.0</ele><time>2026-03-28T14:24:24.252Z</time></trkpt><trkpt lat="41.5157162" lon="12.8423967"><ele>28.75</ele><time>2026-03-28T14:24:26.252Z</time></trkpt><trkpt lat="41.515626" lon="12.8423021"><ele>28.5</ele><time>2026-03-28T14:24:28.253Z</time></trkpt><trkpt lat="41.5155456" lon="12.8421779"><ele>28.25</ele><time>2026-03-28T14:24:30.253Z</time></trkpt><trkpt lat="41.5154807" lon="12.8420809"><ele>28.0</ele><time>2026-03-28T14:24:32.252Z</time></trkpt><trkpt lat="41.5153953" lon="12.8419718"><ele>27.5</ele><time>2026-03-28T14:24:34.252Z</time></trkpt><trkpt lat="41.5153406" lon="12.8418929"><ele>27.0</ele><time>2026-03-28T14:24:35.252Z</time></trkpt><trkpt lat="41.5152141" lon="12.8417183"><ele>26.5</ele><time>2026-03-28T14:24:37.252Z</time></trkpt><trkpt lat="41.5150836" lon="12.8415619"><ele>26.0</ele><time>2026-03-28T14:24:39.252Z</time></trkpt><trkpt lat="41.5150262" lon="12.8414866"><ele>26.0</ele><time>2026-03-28T14:24:40.253Z</time></trkpt><trkpt lat="41.5149228" lon="12.8413442"><ele>26.0</ele><time>2026-03-28T14:24:42.252Z</time></trkpt><trkpt lat="41.5148596" lon="12.84128"><ele>26.0</ele><time>2026-03-28T14:24:43.251Z</time></trkpt><trkpt lat="41.5148055" lon="12.8412053"><ele>26.0</ele><time>2026-03-28T14:24:44.268Z</time></trkpt><trkpt lat="41.5147438" lon="12.8411272"><ele>26.0</ele><time>2026-03-28T14:24:45.251Z</time></trkpt><trkpt lat="41.5146779" lon="12.8410262"><ele>26.0</ele><time>2026-03-28T14:24:46.251Z</time></trkpt><trkpt lat="41.5146163" lon="12.8409511"><ele>26.0</ele><time>2026-03-28T14:24:47.246Z</time></trkpt><trkpt lat="41.5145603" lon="12.8408808"><ele>26.0</ele><time>2026-03-28T14:24:48.246Z</time></trkpt><trkpt lat="41.5144301" lon="12.8407426"><ele>26.0</ele><time>2026-03-28T14:24:50.246Z</time></trkpt><trkpt lat="41.5143209" lon="12.8406447"><ele>26.4</ele><time>2026-03-28T14:24:52.246Z</time></trkpt><trkpt lat="41.5142607" lon="12.8405713"><ele>26.8</ele><time>2026-03-28T14:24:53.247Z</time></trkpt><trkpt lat="41.5141902" lon="12.8404846"><ele>27.199999999999996</ele><time>2026-03-28T14:24:54.247Z</time></trkpt><trkpt lat="41.5140735" lon="12.8403087"><ele>27.599999999999998</ele><time>2026-03-28T14:24:56.246Z</time></trkpt><trkpt lat="41.514018" lon="12.8402261"><ele>28.0</ele><time>2026-03-28T14:24:57.246Z</time></trkpt><trkpt lat="41.5139654" lon="12.8401415"><ele>28.0</ele><time>2026-03-28T14:24:58.246Z</time></trkpt><trkpt lat="41.5138505" lon="12.8400212"><ele>27.999999999999996</ele><time>2026-03-28T14:25:00.246Z</time></trkpt><trkpt lat="41.5138027" lon="12.8399608"><ele>27.999999999999996</ele><time>2026-03-28T14:25:01.247Z</time></trkpt><trkpt lat="41.5137345" lon="12.8398508"><ele>28.0</ele><time>2026-03-28T14:25:03.246Z</time></trkpt><trkpt lat="41.5136754" lon="12.8397109"><ele>28.0</ele><time>2026-03-28T14:25:05.246Z</time></trkpt><trkpt lat="41.5135775" lon="12.8396158"><ele>28.0</ele><time>2026-03-28T14:25:07.246Z</time></trkpt><trkpt lat="41.5135268" lon="12.8395554"><ele>28.0</ele><time>2026-03-28T14:25:08.247Z</time></trkpt><trkpt lat="41.513431" lon="12.8394786"><ele>28.0</ele><time>2026-03-28T14:25:10.246Z</time></trkpt><trkpt lat="41.5133022" lon="12.8393415"><ele>28.0</ele><time>2026-03-28T14:25:12.246Z</time></trkpt><trkpt lat="41.5131698" lon="12.8391774"><ele>28.0</ele><time>2026-03-28T14:25:14.246Z</time></trkpt><trkpt lat="41.5130279" lon="12.839014"><ele>28.0</ele><time>2026-03-28T14:25:16.247Z</time></trkpt><trkpt lat="41.5129477" lon="12.8389399"><ele>28.0</ele><time>2026-03-28T14:25:17.246Z</time></trkpt><trkpt lat="41.5128819" lon="12.8388708"><ele>28.0</ele><time>2026-03-28T14:25:18.247Z</time></trkpt><trkpt lat="41.5128116" lon="12.8387855"><ele>28.0</ele><time>2026-03-28T14:25:19.246Z</time></trkpt><trkpt lat="41.5127363" lon="12.8387045"><ele>27.999999999999996</ele><time>2026-03-28T14:25:20.247Z</time></trkpt><trkpt lat="41.5126612" lon="12.838639"><ele>27.999999999999996</ele><time>2026-03-28T14:25:21.247Z</time></trkpt><trkpt lat="41.5125811" lon="12.8385625"><ele>28.0</ele><time>2026-03-28T14:25:22.247Z</time></trkpt><trkpt lat="41.5125047" lon="12.8385008"><ele>28.0</ele><time>2026-03-28T14:25:23.246Z</time></trkpt><trkpt lat="41.5124319" lon="12.8384371"><ele>27.799999999999997</ele><time>2026-03-28T14:25:24.246Z</time></trkpt><trkpt lat="41.5123581" lon="12.8383799"><ele>27.599999999999998</ele><time>2026-03-28T14:25:25.246Z</time></trkpt><trkpt lat="41.5123" lon="12.8383138"><ele>27.400000000000002</ele><time>2026-03-28T14:25:26.246Z</time></trkpt><trkpt lat="41.5122445" lon="12.8382339"><ele>27.200000000000003</ele><time>2026-03-28T14:25:27.246Z</time></trkpt><trkpt lat="41.5121254" lon="12.8380969"><ele>27.0</ele><time>2026-03-28T14:25:29.246Z</time></trkpt><trkpt lat="41.512047" lon="12.8380381"><ele>27.666666666666664</ele><time>2026-03-28T14:25:30.246Z</time></trkpt><trkpt lat="41.5118757" lon="12.8379028"><ele>28.333333333333332</ele><time>2026-03-28T14:25:32.246Z</time></trkpt><trkpt lat="41.5117057" lon="12.8377963"><ele>29.0</ele><time>2026-03-28T14:25:34.247Z</time></trkpt><trkpt lat="41.5115659" lon="12.8377188"><ele>29.0</ele><time>2026-03-28T14:25:36.246Z</time></trkpt><trkpt lat="41.5115027" lon="12.8376864"><ele>29.0</ele><time>2026-03-28T14:25:37.247Z</time></trkpt><trkpt lat="41.5114034" lon="12.8376211"><ele>29.0</ele><time>2026-03-28T14:25:39.246Z</time></trkpt><trkpt lat="41.5113034" lon="12.8375735"><ele>29.0</ele><time>2026-03-28T14:25:41.247Z</time></trkpt><trkpt lat="41.5112134" lon="12.8375279"><ele>29.0</ele><time>2026-03-28T14:25:43.246Z</time></trkpt><trkpt lat="41.5111174" lon="12.83746"><ele>28.333333333333332</ele><time>2026-03-28T14:25:45.246Z</time></trkpt><trkpt lat="41.5109911" lon="12.8373756"><ele>27.666666666666664</ele><time>2026-03-28T14:25:47.247Z</time></trkpt><trkpt lat="41.5107906" lon="12.8372966"><ele>27.0</ele><time>2026-03-28T14:25:50.246Z</time></trkpt><trkpt lat="41.5106663" lon="12.8372543"><ele>27.0</ele><time>2026-03-28T14:25:52.247Z</time></trkpt><trkpt lat="41.5105668" lon="12.8372184"><ele>27.0</ele><time>2026-03-28T14:25:54.246Z</time></trkpt><trkpt lat="41.5104832" lon="12.8371876"><ele>27.0</ele><time>2026-03-28T14:25:56.246Z</time></trkpt><trkpt lat="41.5104235" lon="12.8372543"><ele>27.0</ele><time>2026-03-28T14:25:58.246Z</time></trkpt><trkpt lat="41.5103647" lon="12.8373212"><ele>27.0</ele><time>2026-03-28T14:26:00.246Z</time></trkpt><trkpt lat="41.5102935" lon="12.8373786"><ele>27.0</ele><time>2026-03-28T14:26:02.247Z</time></trkpt><trkpt lat="41.5102305" lon="12.8374202"><ele>27.166666666666668</ele><time>2026-03-28T14:26:04.247Z</time></trkpt><trkpt lat="41.5101402" lon="12.837461"><ele>27.333333333333336</ele><time>2026-03-28T14:26:07.246Z</time></trkpt><trkpt lat="41.5100771" lon="12.8374739"><ele>27.5</ele><time>2026-03-28T14:26:09.246Z</time></trkpt><trkpt lat="41.5099975" lon="12.8374726"><ele>27.666666666666668</ele><time>2026-03-28T14:31:04.246Z</time></trkpt><trkpt lat="41.5098911" lon="12.8374559"><ele>27.833333333333336</ele><time>2026-03-28T14:31:06.246Z</time></trkpt><trkpt lat="41.509803" lon="12.8374185"><ele>28.0</ele><time>2026-03-28T14:31:07.246Z</time></trkpt><trkpt lat="41.5097114" lon="12.8373962"><ele>28.0</ele><time>2026-03-28T14:31:08.246Z</time></trkpt><trkpt lat="41.5096053" lon="12.837343"><ele>28.0</ele><time>2026-03-28T14:31:09.246Z</time></trkpt><trkpt lat="41.509502" lon="12.8373207"><ele>28.0</ele><time>2026-03-28T14:31:10.246Z</time></trkpt><trkpt lat="41.5093971" lon="12.8372935"><ele>28.0</ele><time>2026-03-28T14:31:11.246Z</time></trkpt><trkpt lat="41.5091808" lon="12.8372148"><ele>28.25</ele><time>2026-03-28T14:31:13.246Z</time></trkpt><trkpt lat="41.5090702" lon="12.8371723"><ele>28.5</ele><time>2026-03-28T14:31:14.246Z</time></trkpt><trkpt lat="41.5089669" lon="12.8371178"><ele>28.75</ele><time>2026-03-28T14:31:15.246Z</time></trkpt><trkpt lat="41.5087655" lon="12.837011"><ele>29.0</ele><time>2026-03-28T14:31:17.246Z</time></trkpt><trkpt lat="41.5086567" lon="12.836981"><ele>29.0</ele><time>2026-03-28T14:31:18.246Z</time></trkpt><trkpt lat="41.5085415" lon="12.8369432"><ele>29.0</ele><time>2026-03-28T14:31:19.246Z</time></trkpt><trkpt lat="41.5083609" lon="12.8368878"><ele>29.0</ele><time>2026-03-28T14:31:21.246Z</time></trkpt><trkpt lat="41.5082651" lon="12.8368564"><ele>29.0</ele><time>2026-03-28T14:31:22.246Z</time></trkpt><trkpt lat="41.5081743" lon="12.8368338"><ele>28.4</ele><time>2026-03-28T14:31:23.246Z</time></trkpt><trkpt lat="41.5080057" lon="12.836795"><ele>27.799999999999997</ele><time>2026-03-28T14:31:25.247Z</time></trkpt><trkpt lat="41.5079247" lon="12.8367768"><ele>27.200000000000003</ele><time>2026-03-28T14:31:26.246Z</time></trkpt><trkpt lat="41.5078317" lon="12.8367452"><ele>26.6</ele><time>2026-03-28T14:31:27.247Z</time></trkpt><trkpt lat="41.5077455" lon="12.8367201"><ele>26.0</ele><time>2026-03-28T14:31:28.247Z</time></trkpt><trkpt lat="41.507661" lon="12.8367019"><ele>25.75</ele><time>2026-03-28T14:31:29.246Z</time></trkpt><trkpt lat="41.5075705" lon="12.8366782"><ele>25.5</ele><time>2026-03-28T14:31:30.246Z</time></trkpt><trkpt lat="41.5074821" lon="12.8366587"><ele>25.25</ele><time>2026-03-28T14:31:31.247Z</time></trkpt><trkpt lat="41.5072962" lon="12.8366209"><ele>25.0</ele><time>2026-03-28T14:31:33.246Z</time></trkpt><trkpt lat="41.5071072" lon="12.8365757"><ele>25.25</ele><time>2026-03-28T14:31:35.246Z</time></trkpt><trkpt lat="41.507012" lon="12.8365512"><ele>25.5</ele><time>2026-03-28T14:31:36.247Z</time></trkpt><trkpt lat="41.5068464" lon="12.8365187"><ele>25.75</ele><time>2026-03-28T14:31:38.247Z</time></trkpt><trkpt lat="41.5067514" lon="12.8364962"><ele>26.0</ele><time>2026-03-28T14:31:39.247Z</time></trkpt><trkpt lat="41.5066581" lon="12.8364659"><ele>26.0</ele><time>2026-03-28T14:31:40.246Z</time></trkpt><trkpt lat="41.5064925" lon="12.8364203"><ele>26.0</ele><time>2026-03-28T14:31:42.246Z</time></trkpt><trkpt lat="41.5064016" lon="12.8363946"><ele>26.0</ele><time>2026-03-28T14:31:43.247Z</time></trkpt><trkpt lat="41.5063241" lon="12.8363662"><ele>26.0</ele><time>2026-03-28T14:31:44.246Z</time></trkpt><trkpt lat="41.5062381" lon="12.8363389"><ele>26.0</ele><time>2026-03-28T14:31:45.246Z</time></trkpt><trkpt lat="41.5061596" lon="12.836309"><ele>26.200000000000003</ele><time>2026-03-28T14:31:46.246Z</time></trkpt><trkpt lat="41.5060769" lon="12.8362869"><ele>26.400000000000002</ele><time>2026-03-28T14:31:47.247Z</time></trkpt><trkpt lat="41.5059831" lon="12.836268"><ele>26.6</ele><time>2026-03-28T14:31:48.246Z</time></trkpt><trkpt lat="41.5058988" lon="12.8362426"><ele>26.8</ele><time>2026-03-28T14:31:49.246Z</time></trkpt><trkpt lat="41.5058101" lon="12.8362165"><ele>27.0</ele><time>2026-03-28T14:31:50.247Z</time></trkpt><trkpt lat="41.5057157" lon="12.8361941"><ele>27.0</ele><time>2026-03-28T14:31:51.246Z</time></trkpt><trkpt lat="41.5056196" lon="12.836168"><ele>27.000000000000004</ele><time>2026-03-28T14:31:52.246Z</time></trkpt><trkpt lat="41.5055222" lon="12.8361323"><ele>27.000000000000004</ele><time>2026-03-28T14:31:53.246Z</time></trkpt><trkpt lat="41.5054209" lon="12.8361015"><ele>27.0</ele><time>2026-03-28T14:31:54.246Z</time></trkpt><trkpt lat="41.5053319" lon="12.8360843"><ele>27.0</ele><time>2026-03-28T14:31:55.246Z</time></trkpt><trkpt lat="41.5052343" lon="12.8360599"><ele>27.200000000000003</ele><time>2026-03-28T14:31:56.246Z</time></trkpt><trkpt lat="41.5051328" lon="12.8360269"><ele>27.400000000000002</ele><time>2026-03-28T14:31:57.246Z</time></trkpt><trkpt lat="41.5050363" lon="12.836002"><ele>27.599999999999998</ele><time>2026-03-28T14:31:58.246Z</time></trkpt><trkpt lat="41.5049421" lon="12.8359655"><ele>27.799999999999997</ele><time>2026-03-28T14:31:59.247Z</time></trkpt><trkpt lat="41.5048462" lon="12.8359433"><ele>28.0</ele><time>2026-03-28T14:32:00.246Z</time></trkpt><trkpt lat="41.504753" lon="12.8359045"><ele>27.599999999999998</ele><time>2026-03-28T14:32:01.247Z</time></trkpt><trkpt lat="41.5046509" lon="12.83587"><ele>27.199999999999996</ele><time>2026-03-28T14:32:02.246Z</time></trkpt><trkpt lat="41.5045447" lon="12.8358428"><ele>26.8</ele><time>2026-03-28T14:32:03.246Z</time></trkpt><trkpt lat="41.504442" lon="12.8358139"><ele>26.4</ele><time>2026-03-28T14:32:04.246Z</time></trkpt><trkpt lat="41.5043342" lon="12.8357916"><ele>26.0</ele><time>2026-03-28T14:32:05.246Z</time></trkpt><trkpt lat="41.504224" lon="12.8357676"><ele>26.0</ele><time>2026-03-28T14:32:06.246Z</time></trkpt><trkpt lat="41.5041207" lon="12.8357296"><ele>26.0</ele><time>2026-03-28T14:32:07.247Z</time></trkpt><trkpt lat="41.5039137" lon="12.8356707"><ele>26.0</ele><time>2026-03-28T14:32:09.247Z</time></trkpt><trkpt lat="41.5037982" lon="12.835644"><ele>26.0</ele><time>2026-03-28T14:32:10.246Z</time></trkpt><trkpt lat="41.5036884" lon="12.8356062"><ele>26.0</ele><time>2026-03-28T14:32:11.246Z</time></trkpt><trkpt lat="41.5034632" lon="12.8355585"><ele>26.0</ele><time>2026-03-28T14:32:13.246Z</time></trkpt><trkpt lat="41.5033607" lon="12.83552"><ele>26.0</ele><time>2026-03-28T14:32:14.246Z</time></trkpt><trkpt lat="41.5032493" lon="12.8354945"><ele>26.0</ele><time>2026-03-28T14:32:15.246Z</time></trkpt><trkpt lat="41.5030219" lon="12.8354345"><ele>26.0</ele><time>2026-03-28T14:32:17.247Z</time></trkpt><trkpt lat="41.5029015" lon="12.8353993"><ele>26.0</ele><time>2026-03-28T14:32:18.246Z</time></trkpt><trkpt lat="41.502781" lon="12.8353774"><ele>26.0</ele><time>2026-03-28T14:32:19.246Z</time></trkpt><trkpt lat="41.5026659" lon="12.835347"><ele>26.0</ele><time>2026-03-28T14:32:20.246Z</time></trkpt><trkpt lat="41.5025498" lon="12.8353145"><ele>26.0</ele><time>2026-03-28T14:32:21.246Z</time></trkpt><trkpt lat="41.5024375" lon="12.8352838"><ele>26.0</ele><time>2026-03-28T14:32:22.246Z</time></trkpt><trkpt lat="41.5021991" lon="12.835229"><ele>26.0</ele><time>2026-03-28T14:32:24.246Z</time></trkpt><trkpt lat="41.5020848" lon="12.8351864"><ele>26.0</ele><time>2026-03-28T14:32:25.246Z</time></trkpt><trkpt lat="41.5018604" lon="12.8351293"><ele>26.0</ele><time>2026-03-28T14:32:27.246Z</time></trkpt><trkpt lat="41.5017376" lon="12.8350969"><ele>26.0</ele><time>2026-03-28T14:32:28.246Z</time></trkpt><trkpt lat="41.501513" lon="12.8350354"><ele>26.0</ele><time>2026-03-28T14:32:30.246Z</time></trkpt><trkpt lat="41.5012745" lon="12.8349842"><ele>26.0</ele><time>2026-03-28T14:32:32.246Z</time></trkpt><trkpt lat="41.5010493" lon="12.8349094"><ele>26.0</ele><time>2026-03-28T14:32:34.246Z</time></trkpt><trkpt lat="41.5008344" lon="12.8348564"><ele>26.0</ele><time>2026-03-28T14:32:36.246Z</time></trkpt><trkpt lat="41.5007227" lon="12.8348272"><ele>26.0</ele><time>2026-03-28T14:32:37.246Z</time></trkpt><trkpt lat="41.500485" lon="12.8347672"><ele>25.75</ele><time>2026-03-28T14:32:39.246Z</time></trkpt><trkpt lat="41.5003647" lon="12.8347246"><ele>25.5</ele><time>2026-03-28T14:32:40.246Z</time></trkpt><trkpt lat="41.5002385" lon="12.834693"><ele>25.25</ele><time>2026-03-28T14:32:41.247Z</time></trkpt><trkpt lat="41.5001084" lon="12.8346583"><ele>25.0</ele><time>2026-03-28T14:32:42.246Z</time></trkpt><trkpt lat="41.4999846" lon="12.8346217"><ele>25.0</ele><time>2026-03-28T14:32:43.246Z</time></trkpt><trkpt lat="41.4998687" lon="12.8345818"><ele>25.0</ele><time>2026-03-28T14:32:44.246Z</time></trkpt><trkpt lat="41.499639" lon="12.8345188"><ele>25.0</ele><time>2026-03-28T14:32:46.246Z</time></trkpt><trkpt lat="41.499425" lon="12.8344658"><ele>25.25</ele><time>2026-03-28T14:32:48.246Z</time></trkpt><trkpt lat="41.4993177" lon="12.8344226"><ele>25.5</ele><time>2026-03-28T14:32:49.246Z</time></trkpt><trkpt lat="41.4992136" lon="12.8343833"><ele>25.75</ele><time>2026-03-28T14:32:50.246Z</time></trkpt><trkpt lat="41.4990901" lon="12.8343491"><ele>26.0</ele><time>2026-03-28T14:32:51.246Z</time></trkpt><trkpt lat="41.4989576" lon="12.8343309"><ele>26.0</ele><time>2026-03-28T14:32:52.246Z</time></trkpt><trkpt lat="41.4988302" lon="12.8343052"><ele>26.0</ele><time>2026-03-28T14:32:53.246Z</time></trkpt><trkpt lat="41.4987166" lon="12.8342827"><ele>26.0</ele><time>2026-03-28T14:32:54.246Z</time></trkpt><trkpt lat="41.4986021" lon="12.8342544"><ele>26.0</ele><time>2026-03-28T14:32:55.246Z</time></trkpt><trkpt lat="41.4984901" lon="12.8342216"><ele>25.6</ele><time>2026-03-28T14:32:56.246Z</time></trkpt><trkpt lat="41.4983785" lon="12.8341878"><ele>25.200000000000003</ele><time>2026-03-28T14:32:57.246Z</time></trkpt><trkpt lat="41.4982731" lon="12.8341764"><ele>24.799999999999997</ele><time>2026-03-28T14:32:58.246Z</time></trkpt><trkpt lat="41.4981766" lon="12.8341466"><ele>24.4</ele><time>2026-03-28T14:32:59.247Z</time></trkpt><trkpt lat="41.4980892" lon="12.8341206"><ele>24.0</ele><time>2026-03-28T14:33:00.247Z</time></trkpt><trkpt lat="41.4979187" lon="12.8340237"><ele>25.0</ele><time>2026-03-28T14:33:02.246Z</time></trkpt><trkpt lat="41.4977296" lon="12.8339805"><ele>26.0</ele><time>2026-03-28T14:33:04.247Z</time></trkpt><trkpt lat="41.4975562" lon="12.833925"><ele>27.0</ele><time>2026-03-28T14:33:06.246Z</time></trkpt><trkpt lat="41.4974686" lon="12.8338926"><ele>27.0</ele><time>2026-03-28T14:33:07.246Z</time></trkpt><trkpt lat="41.4973716" lon="12.8338765"><ele>27.0</ele><time>2026-03-28T14:33:08.246Z</time></trkpt><trkpt lat="41.4971795" lon="12.8338569"><ele>27.0</ele><time>2026-03-28T14:33:10.247Z</time></trkpt><trkpt lat="41.4970772" lon="12.833839"><ele>27.0</ele><time>2026-03-28T14:33:11.246Z</time></trkpt><trkpt lat="41.4968633" lon="12.8337965"><ele>27.0</ele><time>2026-03-28T14:33:13.246Z</time></trkpt><trkpt lat="41.4966578" lon="12.8337478"><ele>27.0</ele><time>2026-03-28T14:33:15.246Z</time></trkpt><trkpt lat="41.4965387" lon="12.8337324"><ele>27.0</ele><time>2026-03-28T14:33:16.247Z</time></trkpt><trkpt lat="41.4963304" lon="12.8336923"><ele>27.0</ele><time>2026-03-28T14:33:18.246Z</time></trkpt><trkpt lat="41.4960546" lon="12.8336135"><ele>27.0</ele><time>2026-03-28T14:33:20.246Z</time></trkpt><trkpt lat="41.49582" lon="12.8335661"><ele>27.0</ele><time>2026-03-28T14:33:22.246Z</time></trkpt><trkpt lat="41.4955783" lon="12.8335166"><ele>27.0</ele><time>2026-03-28T14:33:24.246Z</time></trkpt><trkpt lat="41.4954733" lon="12.8334936"><ele>27.0</ele><time>2026-03-28T14:33:25.246Z</time></trkpt><trkpt lat="41.4953614" lon="12.8334616"><ele>26.400000000000002</ele><time>2026-03-28T14:33:26.246Z</time></trkpt><trkpt lat="41.4952541" lon="12.8334291"><ele>25.800000000000004</ele><time>2026-03-28T14:33:27.246Z</time></trkpt><trkpt lat="41.4951455" lon="12.8333975"><ele>25.2</ele><time>2026-03-28T14:33:28.246Z</time></trkpt><trkpt lat="41.4950559" lon="12.8333771"><ele>24.6</ele><time>2026-03-28T14:33:29.246Z</time></trkpt><trkpt lat="41.4949593" lon="12.8333555"><ele>24.0</ele><time>2026-03-28T14:33:30.247Z</time></trkpt><trkpt lat="41.4948621" lon="12.8333078"><ele>24.0</ele><time>2026-03-28T14:33:31.246Z</time></trkpt><trkpt lat="41.4947737" lon="12.8332848"><ele>24.0</ele><time>2026-03-28T14:33:32.246Z</time></trkpt><trkpt lat="41.4946041" lon="12.8332448"><ele>24.0</ele><time>2026-03-28T14:33:34.246Z</time></trkpt><trkpt lat="41.4944466" lon="12.833279"><ele>24.0</ele><time>2026-03-28T14:33:36.246Z</time></trkpt><trkpt lat="41.4942823" lon="12.8331619"><ele>25.0</ele><time>2026-03-28T14:33:39.246Z</time></trkpt><trkpt lat="41.4941873" lon="12.8331133"><ele>26.0</ele><time>2026-03-28T14:33:40.246Z</time></trkpt><trkpt lat="41.4941122" lon="12.8330854"><ele>27.0</ele><time>2026-03-28T14:33:41.247Z</time></trkpt><trkpt lat="41.4938428" lon="12.8330029"><ele>27.0</ele><time>2026-03-28T14:33:44.246Z</time></trkpt><trkpt lat="41.4937768" lon="12.8329855"><ele>27.0</ele><time>2026-03-28T14:33:45.246Z</time></trkpt><trkpt lat="41.4936869" lon="12.8329452"><ele>27.0</ele><time>2026-03-28T14:33:47.246Z</time></trkpt><trkpt lat="41.4936155" lon="12.8329233"><ele>27.0</ele><time>2026-03-28T14:34:11.246Z</time></trkpt><trkpt lat="41.4935448" lon="12.8329083"><ele>27.0</ele><time>2026-03-28T14:34:12.246Z</time></trkpt><trkpt lat="41.4934209" lon="12.8328703"><ele>27.0</ele><time>2026-03-28T14:34:14.246Z</time></trkpt><trkpt lat="41.4933085" lon="12.8328431"><ele>27.200000000000003</ele><time>2026-03-28T14:34:16.247Z</time></trkpt><trkpt lat="41.4931959" lon="12.8328099"><ele>27.400000000000002</ele><time>2026-03-28T14:34:18.247Z</time></trkpt><trkpt lat="41.4931294" lon="12.8328319"><ele>27.599999999999998</ele><time>2026-03-28T14:34:19.246Z</time></trkpt><trkpt lat="41.4930497" lon="12.8328465"><ele>27.799999999999997</ele><time>2026-03-28T14:34:20.247Z</time></trkpt><trkpt lat="41.4929192" lon="12.8328137"><ele>28.0</ele><time>2026-03-28T14:34:22.246Z</time></trkpt><trkpt lat="41.4927835" lon="12.8327704"><ele>28.25</ele><time>2026-03-28T14:34:24.246Z</time></trkpt><trkpt lat="41.4926817" lon="12.8328097"><ele>28.5</ele><time>2026-03-28T14:34:26.246Z</time></trkpt><trkpt lat="41.4925893" lon="12.8328807"><ele>28.75</ele><time>2026-03-28T14:34:28.247Z</time></trkpt><trkpt lat="41.4924396" lon="12.8329153"><ele>29.0</ele><time>2026-03-28T14:34:31.247Z</time></trkpt><trkpt lat="41.4923468" lon="12.8329491"><ele>29.0</ele><time>2026-03-28T14:34:33.247Z</time></trkpt><trkpt lat="41.4922544" lon="12.8329587"><ele>29.0</ele><time>2026-03-28T14:34:35.246Z</time></trkpt><trkpt lat="41.4921572" lon="12.8329558"><ele>29.0</ele><time>2026-03-28T14:34:37.247Z</time></trkpt><trkpt lat="41.4920581" lon="12.8329532"><ele>29.0</ele><time>2026-03-28T14:34:39.246Z</time></trkpt><trkpt lat="41.4919167" lon="12.8328947"><ele>29.0</ele><time>2026-03-28T14:34:42.246Z</time></trkpt><trkpt lat="41.4918417" lon="12.8328756"><ele>28.75</ele><time>2026-03-28T14:34:44.246Z</time></trkpt><trkpt lat="41.4917448" lon="12.8328458"><ele>28.5</ele><time>2026-03-28T14:34:46.247Z</time></trkpt><trkpt lat="41.4916199" lon="12.83283"><ele>28.25</ele><time>2026-03-28T14:34:48.246Z</time></trkpt><trkpt lat="41.4915056" lon="12.8328184"><ele>28.0</ele><time>2026-03-28T14:34:50.246Z</time></trkpt><trkpt lat="41.4913872" lon="12.8328059"><ele>28.0</ele><time>2026-03-28T14:34:52.246Z</time></trkpt><trkpt lat="41.4912884" lon="12.8328111"><ele>27.999999999999996</ele><time>2026-03-28T14:34:54.246Z</time></trkpt><trkpt lat="41.4911843" lon="12.8328065"><ele>27.999999999999996</ele><time>2026-03-28T14:34:56.246Z</time></trkpt><trkpt lat="41.4910696" lon="12.8327958"><ele>28.0</ele><time>2026-03-28T14:34:58.247Z</time></trkpt><trkpt lat="41.4909611" lon="12.8327935"><ele>28.0</ele><time>2026-03-28T14:35:00.246Z</time></trkpt><trkpt lat="41.4908575" lon="12.8327938"><ele>28.0</ele><time>2026-03-28T14:35:02.246Z</time></trkpt><trkpt lat="41.4907472" lon="12.8327995"><ele>27.999999999999996</ele><time>2026-03-28T14:35:04.246Z</time></trkpt><trkpt lat="41.4906215" lon="12.8327814"><ele>27.999999999999996</ele><time>2026-03-28T14:35:06.247Z</time></trkpt><trkpt lat="41.4905556" lon="12.8327755"><ele>28.0</ele><time>2026-03-28T14:35:07.246Z</time></trkpt><trkpt lat="41.4904116" lon="12.8327633"><ele>28.0</ele><time>2026-03-28T14:35:09.246Z</time></trkpt><trkpt lat="41.490298" lon="12.8327422"><ele>27.25</ele><time>2026-03-28T14:35:11.246Z</time></trkpt><trkpt lat="41.4901724" lon="12.8327333"><ele>26.5</ele><time>2026-03-28T14:35:13.246Z</time></trkpt><trkpt lat="41.4900395" lon="12.8327383"><ele>25.75</ele><time>2026-03-28T14:35:15.246Z</time></trkpt><trkpt lat="41.4899703" lon="12.8327482"><ele>25.0</ele><time>2026-03-28T14:35:16.246Z</time></trkpt><trkpt lat="41.4898253" lon="12.8327347"><ele>25.000000000000004</ele><time>2026-03-28T14:35:18.247Z</time></trkpt><trkpt lat="41.4897515" lon="12.8327225"><ele>25.0</ele><time>2026-03-28T14:35:19.246Z</time></trkpt><trkpt lat="41.4896787" lon="12.8327169"><ele>25.0</ele><time>2026-03-28T14:35:20.247Z</time></trkpt><trkpt lat="41.4895387" lon="12.8326708"><ele>25.0</ele><time>2026-03-28T14:35:22.246Z</time></trkpt><trkpt lat="41.4894607" lon="12.8326677"><ele>25.000000000000004</ele><time>2026-03-28T14:35:23.247Z</time></trkpt><trkpt lat="41.4893838" lon="12.832654"><ele>25.0</ele><time>2026-03-28T14:35:24.247Z</time></trkpt><trkpt lat="41.4891832" lon="12.8326565"><ele>24.8</ele><time>2026-03-28T14:35:26.246Z</time></trkpt><trkpt lat="41.4890011" lon="12.8326498"><ele>24.6</ele><time>2026-03-28T14:35:28.246Z</time></trkpt><trkpt lat="41.4889141" lon="12.8326496"><ele>24.4</ele><time>2026-03-28T14:35:29.246Z</time></trkpt><trkpt lat="41.488834" lon="12.8326477"><ele>24.2</ele><time>2026-03-28T14:35:30.247Z</time></trkpt><trkpt lat="41.4887659" lon="12.8326424"><ele>24.0</ele><time>2026-03-28T14:35:31.246Z</time></trkpt><trkpt lat="41.4886074" lon="12.8326393"><ele>24.0</ele><time>2026-03-28T14:35:33.246Z</time></trkpt><trkpt lat="41.4885238" lon="12.8326406"><ele>24.0</ele><time>2026-03-28T14:35:34.246Z</time></trkpt><trkpt lat="41.4884284" lon="12.8326404"><ele>24.0</ele><time>2026-03-28T14:35:35.246Z</time></trkpt><trkpt lat="41.4882507" lon="12.8326718"><ele>24.0</ele><time>2026-03-28T14:35:37.246Z</time></trkpt><trkpt lat="41.4881606" lon="12.8326878"><ele>24.0</ele><time>2026-03-28T14:35:38.246Z</time></trkpt><trkpt lat="41.4880701" lon="12.8327035"><ele>24.25</ele><time>2026-03-28T14:35:39.247Z</time></trkpt><trkpt lat="41.4879014" lon="12.8327309"><ele>24.5</ele><time>2026-03-28T14:35:41.246Z</time></trkpt><trkpt lat="41.4878177" lon="12.8327423"><ele>24.75</ele><time>2026-03-28T14:35:42.246Z</time></trkpt><trkpt lat="41.4877386" lon="12.8327535"><ele>25.0</ele><time>2026-03-28T14:35:43.246Z</time></trkpt><trkpt lat="41.4875708" lon="12.8327973"><ele>25.0</ele><time>2026-03-28T14:35:45.246Z</time></trkpt><trkpt lat="41.4874153" lon="12.8328457"><ele>25.0</ele><time>2026-03-28T14:35:47.246Z</time></trkpt><trkpt lat="41.4873389" lon="12.8328849"><ele>25.0</ele><time>2026-03-28T14:35:48.246Z</time></trkpt><trkpt lat="41.4872649" lon="12.8329276"><ele>25.0</ele><time>2026-03-28T14:35:49.246Z</time></trkpt><trkpt lat="41.4871906" lon="12.8329456"><ele>25.0</ele><time>2026-03-28T14:35:50.247Z</time></trkpt><trkpt lat="41.4871226" lon="12.8329866"><ele>25.5</ele><time>2026-03-28T14:35:51.246Z</time></trkpt><trkpt lat="41.4870423" lon="12.8329957"><ele>26.0</ele><time>2026-03-28T14:35:52.246Z</time></trkpt><trkpt lat="41.4868858" lon="12.8330361"><ele>26.5</ele><time>2026-03-28T14:35:54.246Z</time></trkpt><trkpt lat="41.4868071" lon="12.8330731"><ele>27.0</ele><time>2026-03-28T14:35:55.247Z</time></trkpt><trkpt lat="41.4866452" lon="12.8331521"><ele>27.0</ele><time>2026-03-28T14:35:57.246Z</time></trkpt><trkpt lat="41.4864693" lon="12.8332467"><ele>27.0</ele><time>2026-03-28T14:35:59.246Z</time></trkpt><trkpt lat="41.4862955" lon="12.8333223"><ele>27.0</ele><time>2026-03-28T14:36:01.246Z</time></trkpt><trkpt lat="41.4861286" lon="12.8333824"><ele>26.8</ele><time>2026-03-28T14:36:03.246Z</time></trkpt><trkpt lat="41.4860447" lon="12.8334314"><ele>26.6</ele><time>2026-03-28T14:36:04.247Z</time></trkpt><trkpt lat="41.4859609" lon="12.8334628"><ele>26.400000000000002</ele><time>2026-03-28T14:36:05.246Z</time></trkpt><trkpt lat="41.485882" lon="12.8335126"><ele>26.200000000000003</ele><time>2026-03-28T14:36:06.247Z</time></trkpt><trkpt lat="41.4857336" lon="12.8336094"><ele>26.0</ele><time>2026-03-28T14:36:08.247Z</time></trkpt><trkpt lat="41.4856587" lon="12.8336551"><ele>26.0</ele><time>2026-03-28T14:36:09.246Z</time></trkpt><trkpt lat="41.4855077" lon="12.833736"><ele>26.0</ele><time>2026-03-28T14:36:11.247Z</time></trkpt><trkpt lat="41.4853703" lon="12.8338412"><ele>26.0</ele><time>2026-03-28T14:36:13.247Z</time></trkpt><trkpt lat="41.4852332" lon="12.8339382"><ele>25.333333333333332</ele><time>2026-03-28T14:36:15.246Z</time></trkpt><trkpt lat="41.4850815" lon="12.8340072"><ele>24.666666666666664</ele><time>2026-03-28T14:36:17.246Z</time></trkpt><trkpt lat="41.4849253" lon="12.8340735"><ele>24.0</ele><time>2026-03-28T14:36:19.247Z</time></trkpt><trkpt lat="41.4847629" lon="12.8341427"><ele>24.0</ele><time>2026-03-28T14:36:21.246Z</time></trkpt><trkpt lat="41.4846895" lon="12.8341851"><ele>24.0</ele><time>2026-03-28T14:36:22.247Z</time></trkpt><trkpt lat="41.4846149" lon="12.8342192"><ele>24.0</ele><time>2026-03-28T14:36:23.246Z</time></trkpt><trkpt lat="41.4845374" lon="12.8342588"><ele>24.0</ele><time>2026-03-28T14:36:24.247Z</time></trkpt><trkpt lat="41.4844707" lon="12.8342941"><ele>24.0</ele><time>2026-03-28T14:36:25.246Z</time></trkpt><trkpt lat="41.4844022" lon="12.8343358"><ele>24.0</ele><time>2026-03-28T14:36:26.247Z</time></trkpt><trkpt lat="41.4843337" lon="12.8343727"><ele>24.666666666666664</ele><time>2026-03-28T14:36:27.247Z</time></trkpt><trkpt lat="41.4841956" lon="12.8344505"><ele>25.333333333333332</ele><time>2026-03-28T14:36:29.247Z</time></trkpt><trkpt lat="41.4840417" lon="12.8345352"><ele>26.0</ele><time>2026-03-28T14:36:31.247Z</time></trkpt><trkpt lat="41.4838941" lon="12.8346234"><ele>26.0</ele><time>2026-03-28T14:36:33.247Z</time></trkpt><trkpt lat="41.4838203" lon="12.8346658"><ele>26.0</ele><time>2026-03-28T14:36:34.247Z</time></trkpt><trkpt lat="41.4837484" lon="12.8347133"><ele>26.0</ele><time>2026-03-28T14:36:35.246Z</time></trkpt><trkpt lat="41.4836115" lon="12.834796"><ele>26.0</ele><time>2026-03-28T14:36:37.246Z</time></trkpt><trkpt lat="41.4834743" lon="12.8348692"><ele>24.666666666666664</ele><time>2026-03-28T14:36:39.246Z</time></trkpt><trkpt lat="41.48334" lon="12.834942"><ele>23.333333333333332</ele><time>2026-03-28T14:36:41.246Z</time></trkpt><trkpt lat="41.4831939" lon="12.8350245"><ele>22.0</ele><time>2026-03-28T14:36:43.246Z</time></trkpt><trkpt lat="41.4830361" lon="12.8351087"><ele>22.666666666666664</ele><time>2026-03-28T14:36:45.246Z</time></trkpt><trkpt lat="41.48287" lon="12.8352139"><ele>23.333333333333332</ele><time>2026-03-28T14:36:47.246Z</time></trkpt><trkpt lat="41.4826906" lon="12.835329"><ele>24.0</ele><time>2026-03-28T14:36:49.246Z</time></trkpt><trkpt lat="41.4826076" lon="12.8353836"><ele>24.0</ele><time>2026-03-28T14:36:50.246Z</time></trkpt><trkpt lat="41.4824261" lon="12.8354866"><ele>24.0</ele><time>2026-03-28T14:36:52.247Z</time></trkpt><trkpt lat="41.4822659" lon="12.835587"><ele>24.0</ele><time>2026-03-28T14:36:54.246Z</time></trkpt><trkpt lat="41.482172" lon="12.8356309"><ele>23.4</ele><time>2026-03-28T14:36:55.246Z</time></trkpt><trkpt lat="41.4820856" lon="12.8356772"><ele>22.799999999999997</ele><time>2026-03-28T14:36:56.246Z</time></trkpt><trkpt lat="41.4820031" lon="12.8357291"><ele>22.200000000000003</ele><time>2026-03-28T14:36:57.247Z</time></trkpt><trkpt lat="41.4819178" lon="12.8357796"><ele>21.6</ele><time>2026-03-28T14:36:58.246Z</time></trkpt><trkpt lat="41.4818386" lon="12.8358293"><ele>21.0</ele><time>2026-03-28T14:36:59.246Z</time></trkpt><trkpt lat="41.481759" lon="12.8358814"><ele>21.0</ele><time>2026-03-28T14:37:00.247Z</time></trkpt><trkpt lat="41.4816089" lon="12.8359845"><ele>21.0</ele><time>2026-03-28T14:37:02.246Z</time></trkpt><trkpt lat="41.4814627" lon="12.83604"><ele>21.0</ele><time>2026-03-28T14:37:04.247Z</time></trkpt><trkpt lat="41.4812931" lon="12.8361109"><ele>20.666666666666668</ele><time>2026-03-28T14:37:06.246Z</time></trkpt><trkpt lat="41.4811309" lon="12.8361696"><ele>20.333333333333336</ele><time>2026-03-28T14:37:08.247Z</time></trkpt><trkpt lat="41.4809887" lon="12.8362156"><ele>20.0</ele><time>2026-03-28T14:37:10.246Z</time></trkpt><trkpt lat="41.4808375" lon="12.8362669"><ele>20.0</ele><time>2026-03-28T14:37:12.246Z</time></trkpt><trkpt lat="41.4807572" lon="12.8362915"><ele>20.0</ele><time>2026-03-28T14:37:13.246Z</time></trkpt><trkpt lat="41.4806141" lon="12.8363255"><ele>20.0</ele><time>2026-03-28T14:37:15.246Z</time></trkpt><trkpt lat="41.4804629" lon="12.836368"><ele>20.0</ele><time>2026-03-28T14:37:17.247Z</time></trkpt><trkpt lat="41.4803136" lon="12.8364105"><ele>20.4</ele><time>2026-03-28T14:37:19.246Z</time></trkpt><trkpt lat="41.480159" lon="12.8364475"><ele>20.8</ele><time>2026-03-28T14:37:21.247Z</time></trkpt><trkpt lat="41.4800903" lon="12.8364641"><ele>21.200000000000003</ele><time>2026-03-28T14:37:22.246Z</time></trkpt><trkpt lat="41.4800106" lon="12.8364799"><ele>21.6</ele><time>2026-03-28T14:37:23.246Z</time></trkpt><trkpt lat="41.4799327" lon="12.8365003"><ele>22.0</ele><time>2026-03-28T14:37:24.246Z</time></trkpt><trkpt lat="41.4798537" lon="12.836518"><ele>22.0</ele><time>2026-03-28T14:37:25.246Z</time></trkpt><trkpt lat="41.4797728" lon="12.8365329"><ele>22.0</ele><time>2026-03-28T14:37:26.247Z</time></trkpt><trkpt lat="41.479627" lon="12.8365457"><ele>22.0</ele><time>2026-03-28T14:37:28.246Z</time></trkpt><trkpt lat="41.479487" lon="12.8365008"><ele>22.0</ele><time>2026-03-28T14:37:30.247Z</time></trkpt><trkpt lat="41.4794171" lon="12.83647"><ele>22.0</ele><time>2026-03-28T14:37:31.247Z</time></trkpt><trkpt lat="41.4793485" lon="12.8364457"><ele>22.0</ele><time>2026-03-28T14:37:32.246Z</time></trkpt><trkpt lat="41.479275" lon="12.8364274"><ele>22.0</ele><time>2026-03-28T14:37:33.246Z</time></trkpt><trkpt lat="41.4792013" lon="12.8364176"><ele>22.0</ele><time>2026-03-28T14:37:34.246Z</time></trkpt><trkpt lat="41.4791327" lon="12.8364055"><ele>22.0</ele><time>2026-03-28T14:37:35.247Z</time></trkpt><trkpt lat="41.47898" lon="12.8363773"><ele>22.0</ele><time>2026-03-28T14:37:37.246Z</time></trkpt><trkpt lat="41.4789066" lon="12.8363648"><ele>22.0</ele><time>2026-03-28T14:37:38.247Z</time></trkpt><trkpt lat="41.4788385" lon="12.8363466"><ele>21.8</ele><time>2026-03-28T14:37:39.246Z</time></trkpt><trkpt lat="41.478763" lon="12.8363258"><ele>21.6</ele><time>2026-03-28T14:37:40.247Z</time></trkpt><trkpt lat="41.4786848" lon="12.8363073"><ele>21.400000000000002</ele><time>2026-03-28T14:37:41.246Z</time></trkpt><trkpt lat="41.4786106" lon="12.8362954"><ele>21.200000000000003</ele><time>2026-03-28T14:37:42.246Z</time></trkpt><trkpt lat="41.4784547" lon="12.8362614"><ele>21.0</ele><time>2026-03-28T14:37:44.246Z</time></trkpt><trkpt lat="41.4783728" lon="12.8362427"><ele>21.0</ele><time>2026-03-28T14:37:45.246Z</time></trkpt><trkpt lat="41.4783047" lon="12.8362059"><ele>21.0</ele><time>2026-03-28T14:37:46.246Z</time></trkpt><trkpt lat="41.4782303" lon="12.8361716"><ele>21.0</ele><time>2026-03-28T14:37:47.247Z</time></trkpt><trkpt lat="41.4781504" lon="12.8361426"><ele>21.0</ele><time>2026-03-28T14:37:48.247Z</time></trkpt><trkpt lat="41.4780652" lon="12.8361079"><ele>21.0</ele><time>2026-03-28T14:37:49.247Z</time></trkpt><trkpt lat="41.4778868" lon="12.8360338"><ele>21.4</ele><time>2026-03-28T14:37:51.246Z</time></trkpt><trkpt lat="41.4777258" lon="12.8359532"><ele>21.8</ele><time>2026-03-28T14:37:53.246Z</time></trkpt><trkpt lat="41.4776409" lon="12.8359249"><ele>22.2</ele><time>2026-03-28T14:37:54.247Z</time></trkpt><trkpt lat="41.4775677" lon="12.8358985"><ele>22.599999999999998</ele><time>2026-03-28T14:37:55.246Z</time></trkpt><trkpt lat="41.477491" lon="12.8358713"><ele>23.0</ele><time>2026-03-28T14:37:56.247Z</time></trkpt><trkpt lat="41.4774193" lon="12.8358378"><ele>23.0</ele><time>2026-03-28T14:37:57.246Z</time></trkpt><trkpt lat="41.4773455" lon="12.8358163"><ele>23.0</ele><time>2026-03-28T14:37:58.246Z</time></trkpt><trkpt lat="41.4772138" lon="12.8357789"><ele>23.0</ele><time>2026-03-28T14:38:00.246Z</time></trkpt><trkpt lat="41.4771528" lon="12.8357566"><ele>23.0</ele><time>2026-03-28T14:38:01.246Z</time></trkpt><trkpt lat="41.477052" lon="12.8357119"><ele>23.0</ele><time>2026-03-28T14:38:03.246Z</time></trkpt><trkpt lat="41.4769496" lon="12.8356911"><ele>23.0</ele><time>2026-03-28T14:38:05.246Z</time></trkpt><trkpt lat="41.4768595" lon="12.8356891"><ele>23.0</ele><time>2026-03-28T14:38:07.246Z</time></trkpt><trkpt lat="41.4767798" lon="12.8356787"><ele>23.0</ele><time>2026-03-28T14:38:10.246Z</time></trkpt><trkpt lat="41.4767151" lon="12.8356427"><ele>23.0</ele><time>2026-03-28T14:38:54.246Z</time></trkpt><trkpt lat="41.4766466" lon="12.8356142"><ele>23.0</ele><time>2026-03-28T14:38:57.246Z</time></trkpt><trkpt lat="41.4765332" lon="12.8355867"><ele>23.0</ele><time>2026-03-28T14:38:59.246Z</time></trkpt><trkpt lat="41.4764699" lon="12.8355589"><ele>23.0</ele><time>2026-03-28T14:39:00.246Z</time></trkpt><trkpt lat="41.4764031" lon="12.8355249"><ele>23.0</ele><time>2026-03-28T14:39:01.247Z</time></trkpt><trkpt lat="41.4763377" lon="12.8355041"><ele>23.0</ele><time>2026-03-28T14:39:02.246Z</time></trkpt><trkpt lat="41.4762366" lon="12.835463"><ele>23.0</ele><time>2026-03-28T14:39:03.247Z</time></trkpt><trkpt lat="41.4761432" lon="12.835429"><ele>23.0</ele><time>2026-03-28T14:39:04.246Z</time></trkpt><trkpt lat="41.4760539" lon="12.8354009"><ele>23.0</ele><time>2026-03-28T14:39:05.246Z</time></trkpt><trkpt lat="41.4759429" lon="12.8353524"><ele>22.666666666666668</ele><time>2026-03-28T14:39:06.247Z</time></trkpt><trkpt lat="41.4757321" lon="12.8352781"><ele>22.333333333333332</ele><time>2026-03-28T14:39:08.246Z</time></trkpt><trkpt lat="41.4756111" lon="12.8352283"><ele>22.0</ele><time>2026-03-28T14:39:09.246Z</time></trkpt><trkpt lat="41.4753869" lon="12.8351394"><ele>21.666666666666664</ele><time>2026-03-28T14:39:11.246Z</time></trkpt><trkpt lat="41.4752766" lon="12.8350876"><ele>21.333333333333332</ele><time>2026-03-28T14:39:12.246Z</time></trkpt><trkpt lat="41.4750719" lon="12.8349753"><ele>21.0</ele><time>2026-03-28T14:39:14.247Z</time></trkpt><trkpt lat="41.4749761" lon="12.8348879"><ele>21.0</ele><time>2026-03-28T14:39:15.246Z</time></trkpt><trkpt lat="41.474887" lon="12.8348114"><ele>21.0</ele><time>2026-03-28T14:39:16.246Z</time></trkpt><trkpt lat="41.4747168" lon="12.8346185"><ele>21.0</ele><time>2026-03-28T14:39:18.246Z</time></trkpt><trkpt lat="41.4745945" lon="12.8344192"><ele>21.0</ele><time>2026-03-28T14:39:20.246Z</time></trkpt><trkpt lat="41.4745359" lon="12.8343198"><ele>21.0</ele><time>2026-03-28T14:39:21.246Z</time></trkpt><trkpt lat="41.4744863" lon="12.8342176"><ele>21.0</ele><time>2026-03-28T14:39:22.246Z</time></trkpt><trkpt lat="41.4744414" lon="12.8341178"><ele>21.0</ele><time>2026-03-28T14:39:23.247Z</time></trkpt><trkpt lat="41.4743914" lon="12.8340199"><ele>21.0</ele><time>2026-03-28T14:39:24.246Z</time></trkpt><trkpt lat="41.4743555" lon="12.8339156"><ele>21.0</ele><time>2026-03-28T14:39:25.247Z</time></trkpt><trkpt lat="41.4743222" lon="12.833809"><ele>21.0</ele><time>2026-03-28T14:39:26.246Z</time></trkpt><trkpt lat="41.4743064" lon="12.8337018"><ele>21.0</ele><time>2026-03-28T14:39:27.246Z</time></trkpt><trkpt lat="41.4742778" lon="12.8335545"><ele>21.0</ele><time>2026-03-28T14:39:28.246Z</time></trkpt><trkpt lat="41.4742632" lon="12.8334222"><ele>21.0</ele><time>2026-03-28T14:39:29.246Z</time></trkpt><trkpt lat="41.4742607" lon="12.833185"><ele>20.0</ele><time>2026-03-28T14:39:31.246Z</time></trkpt><trkpt lat="41.4742508" lon="12.833055"><ele>19.0</ele><time>2026-03-28T14:39:32.247Z</time></trkpt><trkpt lat="41.4742627" lon="12.8328038"><ele>18.0</ele><time>2026-03-28T14:39:34.246Z</time></trkpt><trkpt lat="41.4743002" lon="12.8325635"><ele>18.0</ele><time>2026-03-28T14:39:36.246Z</time></trkpt><trkpt lat="41.4743313" lon="12.8324398"><ele>18.0</ele><time>2026-03-28T14:39:37.246Z</time></trkpt><trkpt lat="41.4743675" lon="12.8323175"><ele>18.0</ele><time>2026-03-28T14:39:38.246Z</time></trkpt><trkpt lat="41.4744377" lon="12.8320991"><ele>18.0</ele><time>2026-03-28T14:39:40.246Z</time></trkpt><trkpt lat="41.474517" lon="12.8318748"><ele>18.2</ele><time>2026-03-28T14:39:42.247Z</time></trkpt><trkpt lat="41.4745524" lon="12.8317615"><ele>18.4</ele><time>2026-03-28T14:39:43.246Z</time></trkpt><trkpt lat="41.4745914" lon="12.831639"><ele>18.599999999999998</ele><time>2026-03-28T14:39:44.246Z</time></trkpt><trkpt lat="41.4746395" lon="12.8315108"><ele>18.8</ele><time>2026-03-28T14:39:45.246Z</time></trkpt><trkpt lat="41.4746874" lon="12.831379"><ele>19.0</ele><time>2026-03-28T14:39:46.246Z</time></trkpt><trkpt lat="41.4747346" lon="12.8312482"><ele>19.0</ele><time>2026-03-28T14:39:47.247Z</time></trkpt><trkpt lat="41.4747752" lon="12.8311146"><ele>19.0</ele><time>2026-03-28T14:39:48.246Z</time></trkpt><trkpt lat="41.4748212" lon="12.8309904"><ele>19.0</ele><time>2026-03-28T14:39:49.246Z</time></trkpt><trkpt lat="41.4748638" lon="12.8308763"><ele>19.0</ele><time>2026-03-28T14:39:50.247Z</time></trkpt><trkpt lat="41.4748988" lon="12.8307706"><ele>19.0</ele><time>2026-03-28T14:39:51.246Z</time></trkpt><trkpt lat="41.4749257" lon="12.8306752"><ele>18.8</ele><time>2026-03-28T14:39:52.247Z</time></trkpt><trkpt lat="41.4749663" lon="12.8305909"><ele>18.599999999999998</ele><time>2026-03-28T14:39:53.246Z</time></trkpt><trkpt lat="41.4749814" lon="12.8304458"><ele>18.4</ele><time>2026-03-28T14:39:55.246Z</time></trkpt><trkpt lat="41.4749249" lon="12.8303389"><ele>18.2</ele><time>2026-03-28T14:39:57.247Z</time></trkpt><trkpt lat="41.4749312" lon="12.8302235"><ele>18.0</ele><time>2026-03-28T14:39:59.247Z</time></trkpt><trkpt lat="41.4749767" lon="12.8300841"><ele>17.666666666666668</ele><time>2026-03-28T14:40:01.246Z</time></trkpt><trkpt lat="41.4750613" lon="12.8298582"><ele>17.333333333333336</ele><time>2026-03-28T14:40:03.247Z</time></trkpt><trkpt lat="41.4751089" lon="12.8297479"><ele>17.0</ele><time>2026-03-28T14:40:04.246Z</time></trkpt><trkpt lat="41.4751957" lon="12.8294963"><ele>17.25</ele><time>2026-03-28T14:40:06.246Z</time></trkpt><trkpt lat="41.4752837" lon="12.8292592"><ele>17.5</ele><time>2026-03-28T14:40:08.246Z</time></trkpt><trkpt lat="41.4753327" lon="12.8291321"><ele>17.75</ele><time>2026-03-28T14:40:09.246Z</time></trkpt><trkpt lat="41.4753788" lon="12.8290011"><ele>18.0</ele><time>2026-03-28T14:40:10.247Z</time></trkpt><trkpt lat="41.4754598" lon="12.8287493"><ele>18.0</ele><time>2026-03-28T14:40:12.246Z</time></trkpt><trkpt lat="41.4755401" lon="12.8284961"><ele>18.0</ele><time>2026-03-28T14:40:14.247Z</time></trkpt><trkpt lat="41.4755883" lon="12.8283601"><ele>18.0</ele><time>2026-03-28T14:40:15.247Z</time></trkpt><trkpt lat="41.4756295" lon="12.8282237"><ele>18.0</ele><time>2026-03-28T14:40:16.246Z</time></trkpt><trkpt lat="41.4756758" lon="12.8281009"><ele>18.333333333333332</ele><time>2026-03-28T14:40:17.246Z</time></trkpt><trkpt lat="41.4757544" lon="12.82783"><ele>18.666666666666664</ele><time>2026-03-28T14:40:19.246Z</time></trkpt><trkpt lat="41.4758401" lon="12.8275628"><ele>19.0</ele><time>2026-03-28T14:40:21.246Z</time></trkpt><trkpt lat="41.4759029" lon="12.8272905"><ele>19.0</ele><time>2026-03-28T14:40:23.246Z</time></trkpt><trkpt lat="41.4759406" lon="12.8271697"><ele>19.0</ele><time>2026-03-28T14:40:24.246Z</time></trkpt><trkpt lat="41.4759744" lon="12.8270544"><ele>19.0</ele><time>2026-03-28T14:40:25.246Z</time></trkpt><trkpt lat="41.4760557" lon="12.8268053"><ele>19.0</ele><time>2026-03-28T14:40:27.246Z</time></trkpt><trkpt lat="41.476114" lon="12.8265754"><ele>19.0</ele><time>2026-03-28T14:40:29.246Z</time></trkpt><trkpt lat="41.4761556" lon="12.8263367"><ele>19.0</ele><time>2026-03-28T14:40:31.246Z</time></trkpt><trkpt lat="41.4761745" lon="12.8262103"><ele>19.0</ele><time>2026-03-28T14:40:32.246Z</time></trkpt><trkpt lat="41.47619" lon="12.8260709"><ele>19.0</ele><time>2026-03-28T14:40:33.246Z</time></trkpt><trkpt lat="41.4762099" lon="12.8257877"><ele>19.0</ele><time>2026-03-28T14:40:35.246Z</time></trkpt><trkpt lat="41.4762235" lon="12.8256382"><ele>19.0</ele><time>2026-03-28T14:40:36.246Z</time></trkpt><trkpt lat="41.4762371" lon="12.8253697"><ele>19.0</ele><time>2026-03-28T14:40:38.246Z</time></trkpt><trkpt lat="41.4762378" lon="12.8252264"><ele>19.0</ele><time>2026-03-28T14:40:39.247Z</time></trkpt><trkpt lat="41.4762411" lon="12.8249464"><ele>19.0</ele><time>2026-03-28T14:40:41.247Z</time></trkpt><trkpt lat="41.4762349" lon="12.8248193"><ele>19.0</ele><time>2026-03-28T14:40:42.247Z</time></trkpt><trkpt lat="41.4762306" lon="12.8245278"><ele>19.0</ele><time>2026-03-28T14:40:44.246Z</time></trkpt><trkpt lat="41.476254" lon="12.8241656"><ele>18.666666666666664</ele><time>2026-03-28T14:40:46.246Z</time></trkpt><trkpt lat="41.4762684" lon="12.8239508"><ele>18.333333333333332</ele><time>2026-03-28T14:40:47.246Z</time></trkpt><trkpt lat="41.4762708" lon="12.8237531"><ele>18.0</ele><time>2026-03-28T14:40:48.246Z</time></trkpt><trkpt lat="41.4762804" lon="12.8235518"><ele>18.0</ele><time>2026-03-28T14:40:49.246Z</time></trkpt><trkpt lat="41.4762902" lon="12.8233658"><ele>18.0</ele><time>2026-03-28T14:40:50.246Z</time></trkpt><trkpt lat="41.4762822" lon="12.8231824"><ele>18.0</ele><time>2026-03-28T14:40:51.246Z</time></trkpt><trkpt lat="41.4762631" lon="12.8229973"><ele>18.0</ele><time>2026-03-28T14:40:52.247Z</time></trkpt><trkpt lat="41.4762427" lon="12.8227979"><ele>18.0</ele><time>2026-03-28T14:40:53.246Z</time></trkpt><trkpt lat="41.4761958" lon="12.8226554"><ele>18.0</ele><time>2026-03-28T14:40:54.246Z</time></trkpt><trkpt lat="41.4761003" lon="12.8223148"><ele>18.0</ele><time>2026-03-28T14:40:56.246Z</time></trkpt><trkpt lat="41.4760149" lon="12.8221699"><ele>18.0</ele><time>2026-03-28T14:40:57.246Z</time></trkpt><trkpt lat="41.4759264" lon="12.8220378"><ele>18.0</ele><time>2026-03-28T14:40:58.246Z</time></trkpt><trkpt lat="41.4757097" lon="12.821832"><ele>18.0</ele><time>2026-03-28T14:41:00.247Z</time></trkpt><trkpt lat="41.4754954" lon="12.8216569"><ele>18.0</ele><time>2026-03-28T14:41:02.247Z</time></trkpt><trkpt lat="41.4753684" lon="12.8215698"><ele>18.0</ele><time>2026-03-28T14:41:03.247Z</time></trkpt><trkpt lat="41.475255" lon="12.8215267"><ele>18.0</ele><time>2026-03-28T14:41:04.247Z</time></trkpt><trkpt lat="41.4751281" lon="12.8214903"><ele>18.0</ele><time>2026-03-28T14:41:05.247Z</time></trkpt><trkpt lat="41.4749628" lon="12.8215119"><ele>18.0</ele><time>2026-03-28T14:41:06.246Z</time></trkpt><trkpt lat="41.4748293" lon="12.8215138"><ele>18.0</ele><time>2026-03-28T14:41:07.246Z</time></trkpt><trkpt lat="41.4746385" lon="12.8215073"><ele>18.0</ele><time>2026-03-28T14:41:08.246Z</time></trkpt><trkpt lat="41.4744534" lon="12.8215559"><ele>17.5</ele><time>2026-03-28T14:41:09.246Z</time></trkpt><trkpt lat="41.4741204" lon="12.8215619"><ele>17.0</ele><time>2026-03-28T14:41:11.246Z</time></trkpt><trkpt lat="41.4739581" lon="12.8215732"><ele>17.0</ele><time>2026-03-28T14:41:12.246Z</time></trkpt><trkpt lat="41.4738045" lon="12.8216041"><ele>17.0</ele><time>2026-03-28T14:41:13.247Z</time></trkpt><trkpt lat="41.4735013" lon="12.8216562"><ele>17.0</ele><time>2026-03-28T14:41:15.247Z</time></trkpt><trkpt lat="41.4733516" lon="12.8216761"><ele>17.0</ele><time>2026-03-28T14:41:16.246Z</time></trkpt><trkpt lat="41.4732061" lon="12.8216778"><ele>17.0</ele><time>2026-03-28T14:41:17.246Z</time></trkpt><trkpt lat="41.4730673" lon="12.8216891"><ele>17.0</ele><time>2026-03-28T14:41:18.246Z</time></trkpt><trkpt lat="41.4729276" lon="12.8216975"><ele>16.666666666666668</ele><time>2026-03-28T14:41:19.246Z</time></trkpt><trkpt lat="41.4727879" lon="12.8217172"><ele>16.333333333333332</ele><time>2026-03-28T14:41:20.246Z</time></trkpt><trkpt lat="41.4725222" lon="12.8217235"><ele>16.0</ele><time>2026-03-28T14:41:22.247Z</time></trkpt><trkpt lat="41.4723934" lon="12.8217262"><ele>16.0</ele><time>2026-03-28T14:41:23.247Z</time></trkpt><trkpt lat="41.4722725" lon="12.8217155"><ele>16.0</ele><time>2026-03-28T14:41:24.247Z</time></trkpt><trkpt lat="41.4721546" lon="12.8216918"><ele>16.0</ele><time>2026-03-28T14:41:25.247Z</time></trkpt><trkpt lat="41.4719408" lon="12.8216163"><ele>16.25</ele><time>2026-03-28T14:41:27.246Z</time></trkpt><trkpt lat="41.4718343" lon="12.821551"><ele>16.5</ele><time>2026-03-28T14:41:28.246Z</time></trkpt><trkpt lat="41.471652" lon="12.8214094"><ele>16.75</ele><time>2026-03-28T14:41:30.246Z</time></trkpt><trkpt lat="41.4715744" lon="12.8213134"><ele>17.0</ele><time>2026-03-28T14:41:31.246Z</time></trkpt><trkpt lat="41.4714888" lon="12.8212208"><ele>17.0</ele><time>2026-03-28T14:41:32.246Z</time></trkpt><trkpt lat="41.47141" lon="12.8211203"><ele>17.0</ele><time>2026-03-28T14:41:33.247Z</time></trkpt><trkpt lat="41.471325" lon="12.8210466"><ele>17.0</ele><time>2026-03-28T14:41:34.246Z</time></trkpt><trkpt lat="41.4711928" lon="12.820868"><ele>17.0</ele><time>2026-03-28T14:41:36.246Z</time></trkpt><trkpt lat="41.4711361" lon="12.8207797"><ele>17.0</ele><time>2026-03-28T14:41:37.246Z</time></trkpt><trkpt lat="41.4710789" lon="12.8206071"><ele>17.0</ele><time>2026-03-28T14:41:39.246Z</time></trkpt><trkpt lat="41.4710224" lon="12.8204014"><ele>17.0</ele><time>2026-03-28T14:41:41.246Z</time></trkpt><trkpt lat="41.470995" lon="12.8203012"><ele>17.0</ele><time>2026-03-28T14:41:42.246Z</time></trkpt><trkpt lat="41.4709641" lon="12.8201994"><ele>17.0</ele><time>2026-03-28T14:41:43.247Z</time></trkpt><trkpt lat="41.4708848" lon="12.8199965"><ele>17.0</ele><time>2026-03-28T14:41:45.247Z</time></trkpt><trkpt lat="41.470833" lon="12.8198283"><ele>17.0</ele><time>2026-03-28T14:41:47.246Z</time></trkpt><trkpt lat="41.4707461" lon="12.8196485"><ele>17.0</ele><time>2026-03-28T14:41:49.247Z</time></trkpt><trkpt lat="41.4707192" lon="12.8195546"><ele>17.0</ele><time>2026-03-28T14:41:50.246Z</time></trkpt><trkpt lat="41.4706919" lon="12.8194444"><ele>17.0</ele><time>2026-03-28T14:41:51.246Z</time></trkpt><trkpt lat="41.4706279" lon="12.8192559"><ele>17.0</ele><time>2026-03-28T14:41:53.246Z</time></trkpt><trkpt lat="41.4705694" lon="12.8190893"><ele>16.833333333333336</ele><time>2026-03-28T14:41:55.246Z</time></trkpt><trkpt lat="41.4705236" lon="12.8189345"><ele>16.666666666666668</ele><time>2026-03-28T14:41:57.247Z</time></trkpt><trkpt lat="41.4704874" lon="12.8188357"><ele>16.5</ele><time>2026-03-28T14:41:59.246Z</time></trkpt><trkpt lat="41.4704903" lon="12.8187227"><ele>16.333333333333332</ele><time>2026-03-28T14:42:02.246Z</time></trkpt><trkpt lat="41.4705596" lon="12.8186894"><ele>16.166666666666664</ele><time>2026-03-28T14:42:05.247Z</time></trkpt><trkpt lat="41.4705683" lon="12.8185917"><ele>16.0</ele><time>2026-03-28T14:42:10.246Z</time></trkpt><trkpt lat="41.4705231" lon="12.8185153"><ele>16.0</ele><time>2026-03-28T14:42:12.247Z</time></trkpt><trkpt lat="41.4704611" lon="12.8184603"><ele>16.0</ele><time>2026-03-28T14:42:14.246Z</time></trkpt><trkpt lat="41.4704122" lon="12.8183506"><ele>16.0</ele><time>2026-03-28T14:42:16.246Z</time></trkpt><trkpt lat="41.4703499" lon="12.818193"><ele>16.0</ele><time>2026-03-28T14:42:18.246Z</time></trkpt><trkpt lat="41.4703187" lon="12.8181105"><ele>16.0</ele><time>2026-03-28T14:42:19.246Z</time></trkpt><trkpt lat="41.4702891" lon="12.8180137"><ele>15.999999999999998</ele><time>2026-03-28T14:42:20.246Z</time></trkpt><trkpt lat="41.4702567" lon="12.8179279"><ele>16.0</ele><time>2026-03-28T14:42:21.246Z</time></trkpt><trkpt lat="41.4702163" lon="12.8178445"><ele>16.0</ele><time>2026-03-28T14:42:22.247Z</time></trkpt><trkpt lat="41.4701831" lon="12.8177447"><ele>16.0</ele><time>2026-03-28T14:42:23.247Z</time></trkpt><trkpt lat="41.4701515" lon="12.8176413"><ele>15.999999999999998</ele><time>2026-03-28T14:42:24.247Z</time></trkpt><trkpt lat="41.4701184" lon="12.8175431"><ele>16.0</ele><time>2026-03-28T14:42:25.247Z</time></trkpt><trkpt lat="41.4700937" lon="12.8174461"><ele>15.999999999999998</ele><time>2026-03-28T14:42:26.247Z</time></trkpt><trkpt lat="41.470063" lon="12.8173504"><ele>16.0</ele><time>2026-03-28T14:42:27.246Z</time></trkpt><trkpt lat="41.470018" lon="12.8172515"><ele>16.0</ele><time>2026-03-28T14:42:28.246Z</time></trkpt><trkpt lat="41.4699838" lon="12.8171316"><ele>16.0</ele><time>2026-03-28T14:42:29.246Z</time></trkpt><trkpt lat="41.4699527" lon="12.8170296"><ele>15.999999999999998</ele><time>2026-03-28T14:42:30.246Z</time></trkpt><trkpt lat="41.4699148" lon="12.8169168"><ele>16.0</ele><time>2026-03-28T14:42:31.246Z</time></trkpt><trkpt lat="41.4698844" lon="12.8167896"><ele>15.5</ele><time>2026-03-28T14:42:32.246Z</time></trkpt><trkpt lat="41.4698358" lon="12.8166849"><ele>15.0</ele><time>2026-03-28T14:42:33.247Z</time></trkpt><trkpt lat="41.46975" lon="12.8164552"><ele>14.5</ele><time>2026-03-28T14:42:35.246Z</time></trkpt><trkpt lat="41.4696784" lon="12.8162608"><ele>14.0</ele><time>2026-03-28T14:42:37.246Z</time></trkpt><trkpt lat="41.469643" lon="12.8161547"><ele>14.500000000000002</ele><time>2026-03-28T14:42:38.246Z</time></trkpt><trkpt lat="41.4696077" lon="12.8160406"><ele>15.0</ele><time>2026-03-28T14:42:39.246Z</time></trkpt><trkpt lat="41.4695772" lon="12.8159569"><ele>15.5</ele><time>2026-03-28T14:42:40.246Z</time></trkpt><trkpt lat="41.4695493" lon="12.8158507"><ele>16.0</ele><time>2026-03-28T14:42:41.246Z</time></trkpt><trkpt lat="41.4695133" lon="12.8157731"><ele>16.5</ele><time>2026-03-28T14:42:42.246Z</time></trkpt><trkpt lat="41.4694464" lon="12.8156177"><ele>17.0</ele><time>2026-03-28T14:42:44.247Z</time></trkpt><trkpt lat="41.4693827" lon="12.8155002"><ele>17.0</ele><time>2026-03-28T14:42:46.247Z</time></trkpt><trkpt lat="41.4693549" lon="12.8154238"><ele>17.0</ele><time>2026-03-28T14:42:47.246Z</time></trkpt><trkpt lat="41.4693198" lon="12.8153107"><ele>17.0</ele><time>2026-03-28T14:42:49.246Z</time></trkpt><trkpt lat="41.4693104" lon="12.8152209"><ele>17.0</ele><time>2026-03-28T14:43:02.247Z</time></trkpt><trkpt lat="41.4692687" lon="12.8150931"><ele>17.0</ele><time>2026-03-28T14:43:04.247Z</time></trkpt><trkpt lat="41.4692387" lon="12.8150006"><ele>17.0</ele><time>2026-03-28T14:43:05.246Z</time></trkpt><trkpt lat="41.4692045" lon="12.814888"><ele>16.5</ele><time>2026-03-28T14:43:06.246Z</time></trkpt><trkpt lat="41.469165" lon="12.8147734"><ele>16.0</ele><time>2026-03-28T14:43:07.246Z</time></trkpt><trkpt lat="41.4691206" lon="12.8146735"><ele>15.5</ele><time>2026-03-28T14:43:08.247Z</time></trkpt><trkpt lat="41.4690241" lon="12.8144601"><ele>15.0</ele><time>2026-03-28T14:43:10.246Z</time></trkpt><trkpt lat="41.4689888" lon="12.8143549"><ele>15.0</ele><time>2026-03-28T14:43:11.246Z</time></trkpt><trkpt lat="41.4689581" lon="12.8142265"><ele>15.0</ele><time>2026-03-28T14:43:12.246Z</time></trkpt><trkpt lat="41.4689075" lon="12.8141076"><ele>15.0</ele><time>2026-03-28T14:43:13.247Z</time></trkpt><trkpt lat="41.468869" lon="12.8139844"><ele>15.0</ele><time>2026-03-28T14:43:14.246Z</time></trkpt><trkpt lat="41.4688204" lon="12.8138375"><ele>15.0</ele><time>2026-03-28T14:43:15.247Z</time></trkpt><trkpt lat="41.4687745" lon="12.8137109"><ele>15.0</ele><time>2026-03-28T14:43:16.246Z</time></trkpt><trkpt lat="41.4686516" lon="12.8134953"><ele>15.0</ele><time>2026-03-28T14:43:18.246Z</time></trkpt><trkpt lat="41.4685234" lon="12.813287"><ele>15.0</ele><time>2026-03-28T14:43:20.246Z</time></trkpt><trkpt lat="41.4683891" lon="12.8131563"><ele>15.0</ele><time>2026-03-28T14:43:22.247Z</time></trkpt><trkpt lat="41.4683068" lon="12.8130738"><ele>15.0</ele><time>2026-03-28T14:43:24.247Z</time></trkpt><trkpt lat="41.46817" lon="12.8131662"><ele>15.0</ele><time>2026-03-28T14:43:27.246Z</time></trkpt><trkpt lat="41.468139" lon="12.8133192"><ele>15.0</ele><time>2026-03-28T14:43:29.246Z</time></trkpt><trkpt lat="41.467971" lon="12.8133465"><ele>15.2</ele><time>2026-03-28T14:43:32.246Z</time></trkpt><trkpt lat="41.4678994" lon="12.8133445"><ele>15.4</ele><time>2026-03-28T14:43:33.246Z</time></trkpt><trkpt lat="41.4678132" lon="12.8133533"><ele>15.600000000000001</ele><time>2026-03-28T14:43:34.246Z</time></trkpt><trkpt lat="41.467655" lon="12.8133562"><ele>15.8</ele><time>2026-03-28T14:43:36.246Z</time></trkpt><trkpt lat="41.4675586" lon="12.813369"><ele>16.0</ele><time>2026-03-28T14:43:37.246Z</time></trkpt><trkpt lat="41.4673772" lon="12.8133773"><ele>16.0</ele><time>2026-03-28T14:43:39.246Z</time></trkpt><trkpt lat="41.4672819" lon="12.8133916"><ele>16.0</ele><time>2026-03-28T14:43:40.246Z</time></trkpt><trkpt lat="41.4671176" lon="12.8134"><ele>16.0</ele><time>2026-03-28T14:43:42.247Z</time></trkpt><trkpt lat="41.4670467" lon="12.8134031"><ele>16.0</ele><time>2026-03-28T14:43:43.246Z</time></trkpt><trkpt lat="41.4669713" lon="12.8133813"><ele>16.0</ele><time>2026-03-28T14:43:45.246Z</time></trkpt><trkpt lat="41.4669121" lon="12.8133366"><ele>16.0</ele><time>2026-03-28T14:43:46.246Z</time></trkpt><trkpt lat="41.4668493" lon="12.813315"><ele>16.0</ele><time>2026-03-28T14:43:47.247Z</time></trkpt><trkpt lat="41.4666275" lon="12.8133535"><ele>16.0</ele><time>2026-03-28T14:43:49.247Z</time></trkpt><trkpt lat="41.4664125" lon="12.8132983"><ele>15.75</ele><time>2026-03-28T14:43:51.246Z</time></trkpt><trkpt lat="41.4661991" lon="12.8132083"><ele>15.5</ele><time>2026-03-28T14:43:53.247Z</time></trkpt><trkpt lat="41.4660942" lon="12.813162"><ele>15.25</ele><time>2026-03-28T14:43:54.246Z</time></trkpt><trkpt lat="41.4660188" lon="12.8131516"><ele>15.0</ele><time>2026-03-28T14:43:55.246Z</time></trkpt><trkpt lat="41.46594" lon="12.8131108"><ele>15.0</ele><time>2026-03-28T14:43:56.246Z</time></trkpt><trkpt lat="41.4658624" lon="12.8130645"><ele>15.0</ele><time>2026-03-28T14:43:57.247Z</time></trkpt><trkpt lat="41.4657849" lon="12.8130205"><ele>15.0</ele><time>2026-03-28T14:43:58.246Z</time></trkpt><trkpt lat="41.4656384" lon="12.8129443"><ele>15.0</ele><time>2026-03-28T14:44:00.246Z</time></trkpt><trkpt lat="41.4655089" lon="12.8128648"><ele>15.0</ele><time>2026-03-28T14:44:02.246Z</time></trkpt><trkpt lat="41.4653824" lon="12.8127802"><ele>15.0</ele><time>2026-03-28T14:44:04.246Z</time></trkpt><trkpt lat="41.465286" lon="12.8126521"><ele>15.0</ele><time>2026-03-28T14:44:06.246Z</time></trkpt><trkpt lat="41.4652036" lon="12.8125389"><ele>15.0</ele><time>2026-03-28T14:44:08.246Z</time></trkpt><trkpt lat="41.4651472" lon="12.8124727"><ele>14.666666666666668</ele><time>2026-03-28T14:44:09.246Z</time></trkpt><trkpt lat="41.4650841" lon="12.8123798"><ele>14.333333333333334</ele><time>2026-03-28T14:44:10.247Z</time></trkpt><trkpt lat="41.4649437" lon="12.8122328"><ele>14.0</ele><time>2026-03-28T14:44:12.246Z</time></trkpt><trkpt lat="41.4647774" lon="12.8120754"><ele>14.0</ele><time>2026-03-28T14:44:14.247Z</time></trkpt><trkpt lat="41.464614" lon="12.8119097"><ele>14.0</ele><time>2026-03-28T14:44:16.246Z</time></trkpt><trkpt lat="41.464541" lon="12.8118301"><ele>14.0</ele><time>2026-03-28T14:44:17.246Z</time></trkpt><trkpt lat="41.4644901" lon="12.8117502"><ele>14.0</ele><time>2026-03-28T14:44:18.246Z</time></trkpt><trkpt lat="41.4644657" lon="12.8116533"><ele>14.0</ele><time>2026-03-28T14:44:19.246Z</time></trkpt><trkpt lat="41.4644512" lon="12.8115634"><ele>14.0</ele><time>2026-03-28T14:44:20.246Z</time></trkpt><trkpt lat="41.4643818" lon="12.8115317"><ele>14.0</ele><time>2026-03-28T14:44:21.246Z</time></trkpt><trkpt lat="41.4641829" lon="12.8114691"><ele>14.0</ele><time>2026-03-28T14:44:23.247Z</time></trkpt><trkpt lat="41.463986" lon="12.8114485"><ele>14.0</ele><time>2026-03-28T14:44:25.247Z</time></trkpt><trkpt lat="41.4638928" lon="12.8114501"><ele>13.999999999999998</ele><time>2026-03-28T14:44:26.247Z</time></trkpt><trkpt lat="41.4637987" lon="12.8114564"><ele>13.999999999999998</ele><time>2026-03-28T14:44:27.246Z</time></trkpt><trkpt lat="41.4637122" lon="12.8114587"><ele>14.0</ele><time>2026-03-28T14:44:28.246Z</time></trkpt><trkpt lat="41.4636184" lon="12.8114739"><ele>14.0</ele><time>2026-03-28T14:44:29.246Z</time></trkpt><trkpt lat="41.4635286" lon="12.8114806"><ele>14.2</ele><time>2026-03-28T14:44:30.246Z</time></trkpt><trkpt lat="41.4633662" lon="12.8115124"><ele>14.399999999999999</ele><time>2026-03-28T14:44:32.246Z</time></trkpt><trkpt lat="41.4632523" lon="12.8115596"><ele>14.6</ele><time>2026-03-28T14:44:34.246Z</time></trkpt><trkpt lat="41.4631807" lon="12.8115849"><ele>14.8</ele><time>2026-03-28T14:44:36.246Z</time></trkpt><trkpt lat="41.4631213" lon="12.8115168"><ele>15.0</ele><time>2026-03-28T14:44:38.247Z</time></trkpt><trkpt lat="41.4631127" lon="12.8113319"><ele>15.0</ele><time>2026-03-28T14:44:40.246Z</time></trkpt><trkpt lat="41.4630954" lon="12.8110424"><ele>15.0</ele><time>2026-03-28T14:44:42.246Z</time></trkpt><trkpt lat="41.4630847" lon="12.8108947"><ele>15.0</ele><time>2026-03-28T14:44:43.246Z</time></trkpt><trkpt lat="41.4630753" lon="12.8107709"><ele>15.0</ele><time>2026-03-28T14:44:44.246Z</time></trkpt><trkpt lat="41.4630702" lon="12.8106801"><ele>14.833333333333334</ele><time>2026-03-28T14:44:45.246Z</time></trkpt><trkpt lat="41.4630571" lon="12.8105971"><ele>14.666666666666668</ele><time>2026-03-28T14:44:47.247Z</time></trkpt><trkpt lat="41.4629933" lon="12.8105653"><ele>14.5</ele><time>2026-03-28T14:44:49.246Z</time></trkpt><trkpt lat="41.4629105" lon="12.8106005"><ele>14.333333333333334</ele><time>2026-03-28T14:44:50.246Z</time></trkpt><trkpt lat="41.4628331" lon="12.8106146"><ele>14.166666666666668</ele><time>2026-03-28T14:44:51.246Z</time></trkpt><trkpt lat="41.4627136" lon="12.8106493"><ele>14.0</ele><time>2026-03-28T14:44:52.247Z</time></trkpt><trkpt lat="41.4624875" lon="12.8106897"><ele>14.666666666666668</ele><time>2026-03-28T14:44:54.247Z</time></trkpt><trkpt lat="41.4623799" lon="12.8107139"><ele>15.333333333333332</ele><time>2026-03-28T14:44:55.246Z</time></trkpt><trkpt lat="41.4622573" lon="12.8107381"><ele>16.0</ele><time>2026-03-28T14:44:56.246Z</time></trkpt><trkpt lat="41.4620377" lon="12.8108085"><ele>16.333333333333332</ele><time>2026-03-28T14:44:58.246Z</time></trkpt><trkpt lat="41.4619362" lon="12.81084"><ele>16.666666666666668</ele><time>2026-03-28T14:44:59.246Z</time></trkpt><trkpt lat="41.4617516" lon="12.8109259"><ele>17.0</ele><time>2026-03-28T14:45:01.246Z</time></trkpt><trkpt lat="41.4615826" lon="12.8109852"><ele>15.666666666666668</ele><time>2026-03-28T14:45:03.246Z</time></trkpt><trkpt lat="41.4614257" lon="12.8110734"><ele>14.333333333333332</ele><time>2026-03-28T14:45:05.246Z</time></trkpt><trkpt lat="41.4612746" lon="12.811156"><ele>13.0</ele><time>2026-03-28T14:45:07.247Z</time></trkpt><trkpt lat="41.4611095" lon="12.8112682"><ele>13.0</ele><time>2026-03-28T14:45:09.246Z</time></trkpt><trkpt lat="41.4610216" lon="12.8113156"><ele>13.0</ele><time>2026-03-28T14:45:10.246Z</time></trkpt><trkpt lat="41.4609428" lon="12.811369"><ele>13.0</ele><time>2026-03-28T14:45:11.246Z</time></trkpt><trkpt lat="41.4607853" lon="12.8114629"><ele>13.0</ele><time>2026-03-28T14:45:13.246Z</time></trkpt><trkpt lat="41.4606776" lon="12.811485"><ele>13.0</ele><time>2026-03-28T14:45:15.247Z</time></trkpt><trkpt lat="41.4605123" lon="12.8115427"><ele>13.0</ele><time>2026-03-28T14:45:19.247Z</time></trkpt><trkpt lat="41.4604452" lon="12.8116052"><ele>13.0</ele><time>2026-03-28T14:45:20.246Z</time></trkpt><trkpt lat="41.4603911" lon="12.8116609"><ele>13.0</ele><time>2026-03-28T14:45:21.246Z</time></trkpt><trkpt lat="41.4602548" lon="12.8117772"><ele>12.8</ele><time>2026-03-28T14:45:23.247Z</time></trkpt><trkpt lat="41.4601319" lon="12.8118734"><ele>12.600000000000001</ele><time>2026-03-28T14:45:25.246Z</time></trkpt><trkpt lat="41.4600739" lon="12.8119504"><ele>12.399999999999999</ele><time>2026-03-28T14:45:27.246Z</time></trkpt><trkpt lat="41.4600152" lon="12.8119867"><ele>12.2</ele><time>2026-03-28T14:45:31.246Z</time></trkpt><trkpt lat="41.4599498" lon="12.8120103"><ele>12.0</ele><time>2026-03-28T14:45:47.247Z</time></trkpt><trkpt lat="41.4598706" lon="12.8121014"><ele>12.0</ele><time>2026-03-28T14:45:50.246Z</time></trkpt><trkpt lat="41.4597595" lon="12.8121808"><ele>12.0</ele><time>2026-03-28T14:45:52.246Z</time></trkpt><trkpt lat="41.4596954" lon="12.8122357"><ele>12.0</ele><time>2026-03-28T14:45:53.246Z</time></trkpt><trkpt lat="41.4595922" lon="12.8123147"><ele>12.0</ele><time>2026-03-28T14:45:54.246Z</time></trkpt><trkpt lat="41.4594225" lon="12.8124585"><ele>11.8</ele><time>2026-03-28T14:45:56.246Z</time></trkpt><trkpt lat="41.4593493" lon="12.8125282"><ele>11.6</ele><time>2026-03-28T14:45:57.247Z</time></trkpt><trkpt lat="41.4592557" lon="12.8126091"><ele>11.4</ele><time>2026-03-28T14:45:58.246Z</time></trkpt><trkpt lat="41.4591739" lon="12.8126848"><ele>11.200000000000001</ele><time>2026-03-28T14:45:59.246Z</time></trkpt><trkpt lat="41.4590791" lon="12.8127604"><ele>11.0</ele><time>2026-03-28T14:46:00.246Z</time></trkpt><trkpt lat="41.4589819" lon="12.8128428"><ele>11.0</ele><time>2026-03-28T14:46:01.246Z</time></trkpt><trkpt lat="41.4588989" lon="12.8129113"><ele>11.0</ele><time>2026-03-28T14:46:02.246Z</time></trkpt><trkpt lat="41.4588032" lon="12.812996"><ele>11.0</ele><time>2026-03-28T14:46:03.246Z</time></trkpt><trkpt lat="41.4585798" lon="12.8131748"><ele>11.75</ele><time>2026-03-28T14:46:05.246Z</time></trkpt><trkpt lat="41.4584833" lon="12.8132531"><ele>12.5</ele><time>2026-03-28T14:46:06.246Z</time></trkpt><trkpt lat="41.4583881" lon="12.8133199"><ele>13.25</ele><time>2026-03-28T14:46:07.246Z</time></trkpt><trkpt lat="41.4582664" lon="12.8134121"><ele>14.0</ele><time>2026-03-28T14:46:08.246Z</time></trkpt><trkpt lat="41.4581636" lon="12.8134822"><ele>14.0</ele><time>2026-03-28T14:46:09.246Z</time></trkpt><trkpt lat="41.4580642" lon="12.8135755"><ele>14.0</ele><time>2026-03-28T14:46:10.246Z</time></trkpt><trkpt lat="41.4578678" lon="12.8137337"><ele>14.0</ele><time>2026-03-28T14:46:12.246Z</time></trkpt><trkpt lat="41.4577757" lon="12.8138024"><ele>14.0</ele><time>2026-03-28T14:46:13.246Z</time></trkpt><trkpt lat="41.4576055" lon="12.8139499"><ele>14.0</ele><time>2026-03-28T14:46:15.246Z</time></trkpt><trkpt lat="41.4575056" lon="12.814018"><ele>14.0</ele><time>2026-03-28T14:46:16.247Z</time></trkpt><trkpt lat="41.4574108" lon="12.8141028"><ele>14.0</ele><time>2026-03-28T14:46:17.246Z</time></trkpt><trkpt lat="41.4572177" lon="12.81423"><ele>13.25</ele><time>2026-03-28T14:46:19.246Z</time></trkpt><trkpt lat="41.4570564" lon="12.8143556"><ele>12.5</ele><time>2026-03-28T14:46:21.246Z</time></trkpt><trkpt lat="41.4569487" lon="12.8144396"><ele>11.75</ele><time>2026-03-28T14:46:23.246Z</time></trkpt><trkpt lat="41.4568748" lon="12.814514"><ele>11.0</ele><time>2026-03-28T14:46:25.247Z</time></trkpt><trkpt lat="41.4568129" lon="12.8145604"><ele>11.0</ele><time>2026-03-28T14:46:29.247Z</time></trkpt><trkpt lat="41.4567635" lon="12.8147887"><ele>11.0</ele><time>2026-03-28T14:46:37.246Z</time></trkpt><trkpt lat="41.4567006" lon="12.8148813"><ele>11.0</ele><time>2026-03-28T14:46:39.246Z</time></trkpt><trkpt lat="41.4566141" lon="12.8149335"><ele>11.0</ele><time>2026-03-28T14:46:41.247Z</time></trkpt><trkpt lat="41.4565006" lon="12.8150079"><ele>11.0</ele><time>2026-03-28T14:46:43.246Z</time></trkpt><trkpt lat="41.4564374" lon="12.8150446"><ele>11.0</ele><time>2026-03-28T14:46:44.246Z</time></trkpt><trkpt lat="41.4563075" lon="12.8151298"><ele>11.0</ele><time>2026-03-28T14:46:46.246Z</time></trkpt><trkpt lat="41.4561673" lon="12.8151952"><ele>11.0</ele><time>2026-03-28T14:46:48.247Z</time></trkpt><trkpt lat="41.4560347" lon="12.8152402"><ele>10.5</ele><time>2026-03-28T14:46:50.246Z</time></trkpt><trkpt lat="41.455955" lon="12.8152472"><ele>10.0</ele><time>2026-03-28T14:46:51.246Z</time></trkpt><trkpt lat="41.4558661" lon="12.8152587"><ele>9.5</ele><time>2026-03-28T14:46:52.247Z</time></trkpt><trkpt lat="41.4556886" lon="12.8152829"><ele>9.0</ele><time>2026-03-28T14:46:54.246Z</time></trkpt><trkpt lat="41.4555246" lon="12.8153052"><ele>8.8</ele><time>2026-03-28T14:46:56.246Z</time></trkpt><trkpt lat="41.4554378" lon="12.8153163"><ele>8.600000000000001</ele><time>2026-03-28T14:46:57.246Z</time></trkpt><trkpt lat="41.4553541" lon="12.8153015"><ele>8.4</ele><time>2026-03-28T14:46:58.246Z</time></trkpt><trkpt lat="41.4552171" lon="12.8152837"><ele>8.200000000000001</ele><time>2026-03-28T14:47:00.246Z</time></trkpt><trkpt lat="41.4551424" lon="12.8152844"><ele>8.0</ele><time>2026-03-28T14:47:01.246Z</time></trkpt><trkpt lat="41.455032" lon="12.815264"><ele>8.0</ele><time>2026-03-28T14:47:03.247Z</time></trkpt><trkpt lat="41.4549338" lon="12.8152238"><ele>8.0</ele><time>2026-03-28T14:47:05.247Z</time></trkpt><trkpt lat="41.4548687" lon="12.8151967"><ele>8.0</ele><time>2026-03-28T14:47:06.247Z</time></trkpt><trkpt lat="41.4547263" lon="12.8151669"><ele>8.0</ele><time>2026-03-28T14:47:09.246Z</time></trkpt><trkpt lat="41.4546234" lon="12.8151278"><ele>8.0</ele><time>2026-03-28T14:47:11.247Z</time></trkpt><trkpt lat="41.454554" lon="12.8150782"><ele>8.75</ele><time>2026-03-28T14:47:12.247Z</time></trkpt><trkpt lat="41.4544292" lon="12.8150003"><ele>9.5</ele><time>2026-03-28T14:47:14.246Z</time></trkpt><trkpt lat="41.454306" lon="12.8149057"><ele>10.25</ele><time>2026-03-28T14:47:16.246Z</time></trkpt><trkpt lat="41.4542329" lon="12.8148676"><ele>11.0</ele><time>2026-03-28T14:47:17.247Z</time></trkpt><trkpt lat="41.454156" lon="12.8147593"><ele>11.0</ele><time>2026-03-28T14:47:19.247Z</time></trkpt><trkpt lat="41.4541441" lon="12.8146544"><ele>11.0</ele><time>2026-03-28T14:47:21.246Z</time></trkpt><trkpt lat="41.4541608" lon="12.8145457"><ele>11.0</ele><time>2026-03-28T14:47:23.246Z</time></trkpt><trkpt lat="41.4541198" lon="12.8144317"><ele>11.0</ele><time>2026-03-28T14:47:25.247Z</time></trkpt><trkpt lat="41.453919" lon="12.8143585"><ele>10.5</ele><time>2026-03-28T14:47:28.246Z</time></trkpt><trkpt lat="41.453769" lon="12.8142642"><ele>10.0</ele><time>2026-03-28T14:47:30.247Z</time></trkpt><trkpt lat="41.453646" lon="12.8141878"><ele>9.5</ele><time>2026-03-28T14:47:32.247Z</time></trkpt><trkpt lat="41.453542" lon="12.814119"><ele>9.0</ele><time>2026-03-28T14:47:34.246Z</time></trkpt><trkpt lat="41.453401" lon="12.8139939"><ele>9.0</ele><time>2026-03-28T14:47:36.246Z</time></trkpt><trkpt lat="41.4532697" lon="12.8138545"><ele>9.0</ele><time>2026-03-28T14:47:38.246Z</time></trkpt><trkpt lat="41.4532065" lon="12.8137898"><ele>9.0</ele><time>2026-03-28T14:47:39.246Z</time></trkpt><trkpt lat="41.4531436" lon="12.8137181"><ele>9.0</ele><time>2026-03-28T14:47:40.246Z</time></trkpt><trkpt lat="41.45301" lon="12.8135794"><ele>9.25</ele><time>2026-03-28T14:47:42.247Z</time></trkpt><trkpt lat="41.4529471" lon="12.8135073"><ele>9.5</ele><time>2026-03-28T14:47:43.247Z</time></trkpt><trkpt lat="41.452821" lon="12.8133666"><ele>9.75</ele><time>2026-03-28T14:47:45.246Z</time></trkpt><trkpt lat="41.4527005" lon="12.8132279"><ele>10.0</ele><time>2026-03-28T14:47:47.246Z</time></trkpt><trkpt lat="41.45266" lon="12.813158"><ele>9.5</ele><time>2026-03-28T14:47:48.247Z</time></trkpt><trkpt lat="41.4526159" lon="12.8130129"><ele>9.0</ele><time>2026-03-28T14:47:50.247Z</time></trkpt><trkpt lat="41.4526386" lon="12.8128108"><ele>8.5</ele><time>2026-03-28T14:47:52.246Z</time></trkpt><trkpt lat="41.4526574" lon="12.8126983"><ele>8.0</ele><time>2026-03-28T14:47:53.246Z</time></trkpt><trkpt lat="41.4526746" lon="12.8125645"><ele>8.0</ele><time>2026-03-28T14:47:54.246Z</time></trkpt><trkpt lat="41.4526889" lon="12.8124186"><ele>8.0</ele><time>2026-03-28T14:47:55.246Z</time></trkpt><trkpt lat="41.4527122" lon="12.8122695"><ele>8.0</ele><time>2026-03-28T14:47:56.246Z</time></trkpt><trkpt lat="41.4527416" lon="12.8119762"><ele>8.0</ele><time>2026-03-28T14:47:58.246Z</time></trkpt><trkpt lat="41.4527605" lon="12.8118431"><ele>8.333333333333332</ele><time>2026-03-28T14:47:59.246Z</time></trkpt><trkpt lat="41.4527722" lon="12.8117097"><ele>8.666666666666666</ele><time>2026-03-28T14:48:00.246Z</time></trkpt><trkpt lat="41.4527845" lon="12.8115814"><ele>9.0</ele><time>2026-03-28T14:48:01.246Z</time></trkpt><trkpt lat="41.452797" lon="12.8114619"><ele>9.333333333333334</ele><time>2026-03-28T14:48:02.246Z</time></trkpt><trkpt lat="41.4527952" lon="12.8113632"><ele>9.666666666666668</ele><time>2026-03-28T14:48:03.247Z</time></trkpt><trkpt lat="41.452806" lon="12.8112794"><ele>10.0</ele><time>2026-03-28T14:48:04.246Z</time></trkpt><trkpt lat="41.4527807" lon="12.811163"><ele>10.0</ele><time>2026-03-28T14:48:07.247Z</time></trkpt><trkpt lat="41.4527182" lon="12.8111001"><ele>10.0</ele><time>2026-03-28T14:48:09.247Z</time></trkpt><trkpt lat="41.452593" lon="12.8110709"><ele>10.0</ele><time>2026-03-28T14:48:11.246Z</time></trkpt><trkpt lat="41.4524271" lon="12.8110299"><ele>10.0</ele><time>2026-03-28T14:48:13.247Z</time></trkpt><trkpt lat="41.4523475" lon="12.8110159"><ele>10.0</ele><time>2026-03-28T14:48:14.246Z</time></trkpt><trkpt lat="41.4522598" lon="12.8109999"><ele>10.0</ele><time>2026-03-28T14:48:15.246Z</time></trkpt><trkpt lat="41.4520799" lon="12.8109672"><ele>10.0</ele><time>2026-03-28T14:48:17.246Z</time></trkpt><trkpt lat="41.4519813" lon="12.8109507"><ele>10.0</ele><time>2026-03-28T14:48:18.246Z</time></trkpt><trkpt lat="41.4517878" lon="12.8109138"><ele>10.333333333333334</ele><time>2026-03-28T14:48:20.246Z</time></trkpt><trkpt lat="41.451598" lon="12.8108826"><ele>10.666666666666666</ele><time>2026-03-28T14:48:22.247Z</time></trkpt><trkpt lat="41.4513829" lon="12.8108532"><ele>11.0</ele><time>2026-03-28T14:48:24.246Z</time></trkpt><trkpt lat="41.4512844" lon="12.8108308"><ele>10.5</ele><time>2026-03-28T14:48:25.246Z</time></trkpt><trkpt lat="41.4510929" lon="12.810795"><ele>10.0</ele><time>2026-03-28T14:48:27.247Z</time></trkpt><trkpt lat="41.450926" lon="12.810743"><ele>9.5</ele><time>2026-03-28T14:48:29.246Z</time></trkpt><trkpt lat="41.4508546" lon="12.8107319"><ele>9.0</ele><time>2026-03-28T14:48:30.246Z</time></trkpt><trkpt lat="41.4507494" lon="12.8106809"><ele>9.0</ele><time>2026-03-28T14:48:32.246Z</time></trkpt><trkpt lat="41.4506869" lon="12.8105934"><ele>9.0</ele><time>2026-03-28T14:48:34.246Z</time></trkpt><trkpt lat="41.45063" lon="12.8105226"><ele>9.0</ele><time>2026-03-28T14:48:36.246Z</time></trkpt><trkpt lat="41.4505653" lon="12.8104981"><ele>9.0</ele><time>2026-03-28T14:48:38.246Z</time></trkpt><trkpt lat="41.4504745" lon="12.8105255"><ele>9.0</ele><time>2026-03-28T14:48:40.247Z</time></trkpt><trkpt lat="41.4504079" lon="12.8105085"><ele>9.0</ele><time>2026-03-28T14:48:41.247Z</time></trkpt><trkpt lat="41.4503413" lon="12.8104701"><ele>9.0</ele><time>2026-03-28T14:48:42.247Z</time></trkpt><trkpt lat="41.4501787" lon="12.8103751"><ele>9.0</ele><time>2026-03-28T14:48:44.246Z</time></trkpt><trkpt lat="41.4501085" lon="12.810319"><ele>9.0</ele><time>2026-03-28T14:48:45.246Z</time></trkpt><trkpt lat="41.4500368" lon="12.8102403"><ele>9.0</ele><time>2026-03-28T14:48:46.247Z</time></trkpt><trkpt lat="41.4498782" lon="12.8100884"><ele>9.333333333333334</ele><time>2026-03-28T14:48:48.246Z</time></trkpt><trkpt lat="41.4497858" lon="12.8099978"><ele>9.666666666666668</ele><time>2026-03-28T14:48:49.246Z</time></trkpt><trkpt lat="41.4495808" lon="12.8098468"><ele>10.0</ele><time>2026-03-28T14:48:51.246Z</time></trkpt><trkpt lat="41.4494672" lon="12.8097536"><ele>9.25</ele><time>2026-03-28T14:48:52.246Z</time></trkpt><trkpt lat="41.4493454" lon="12.809667"><ele>8.5</ele><time>2026-03-28T14:48:53.247Z</time></trkpt><trkpt lat="41.4492308" lon="12.8095693"><ele>7.75</ele><time>2026-03-28T14:48:54.246Z</time></trkpt><trkpt lat="41.4491189" lon="12.8094923"><ele>7.0</ele><time>2026-03-28T14:48:55.246Z</time></trkpt><trkpt lat="41.4490069" lon="12.8094131"><ele>7.0</ele><time>2026-03-28T14:48:56.247Z</time></trkpt><trkpt lat="41.4489015" lon="12.8093303"><ele>7.0</ele><time>2026-03-28T14:48:57.246Z</time></trkpt><trkpt lat="41.4487146" lon="12.8091655"><ele>7.0</ele><time>2026-03-28T14:48:59.246Z</time></trkpt><trkpt lat="41.4484961" lon="12.8090157"><ele>7.0</ele><time>2026-03-28T14:49:01.246Z</time></trkpt><trkpt lat="41.448389" lon="12.8089475"><ele>6.999999999999999</ele><time>2026-03-28T14:49:02.247Z</time></trkpt><trkpt lat="41.4482813" lon="12.8088724"><ele>6.999999999999999</ele><time>2026-03-28T14:49:03.246Z</time></trkpt><trkpt lat="41.4481799" lon="12.8087924"><ele>7.0</ele><time>2026-03-28T14:49:04.246Z</time></trkpt><trkpt lat="41.4481167" lon="12.8087763"><ele>7.0</ele><time>2026-03-28T14:49:05.246Z</time></trkpt><trkpt lat="41.4480238" lon="12.8087301"><ele>7.000000000000001</ele><time>2026-03-28T14:49:06.246Z</time></trkpt><trkpt lat="41.4479592" lon="12.808674"><ele>7.0</ele><time>2026-03-28T14:49:07.246Z</time></trkpt><trkpt lat="41.4480047" lon="12.8085495"><ele>7.0</ele><time>2026-03-28T14:49:09.246Z</time></trkpt><trkpt lat="41.4479478" lon="12.8084735"><ele>7.0</ele><time>2026-03-28T14:49:11.247Z</time></trkpt><trkpt lat="41.4478773" lon="12.8084611"><ele>7.000000000000001</ele><time>2026-03-28T14:49:12.246Z</time></trkpt><trkpt lat="41.4477975" lon="12.8084533"><ele>7.0</ele><time>2026-03-28T14:49:13.246Z</time></trkpt><trkpt lat="41.4477315" lon="12.8084427"><ele>7.199999999999999</ele><time>2026-03-28T14:49:14.246Z</time></trkpt><trkpt lat="41.4476477" lon="12.8084098"><ele>7.3999999999999995</ele><time>2026-03-28T14:49:15.246Z</time></trkpt><trkpt lat="41.4475467" lon="12.8083555"><ele>7.6000000000000005</ele><time>2026-03-28T14:49:16.247Z</time></trkpt><trkpt lat="41.4474318" lon="12.8083194"><ele>7.800000000000001</ele><time>2026-03-28T14:49:17.246Z</time></trkpt><trkpt lat="41.4473408" lon="12.8082886"><ele>8.0</ele><time>2026-03-28T14:49:18.246Z</time></trkpt><trkpt lat="41.4472441" lon="12.8082389"><ele>7.999999999999999</ele><time>2026-03-28T14:49:19.247Z</time></trkpt><trkpt lat="41.4471616" lon="12.8082057"><ele>8.0</ele><time>2026-03-28T14:49:20.246Z</time></trkpt><trkpt lat="41.4470821" lon="12.8081732"><ele>8.0</ele><time>2026-03-28T14:49:21.247Z</time></trkpt><trkpt lat="41.4470097" lon="12.8081088"><ele>8.0</ele><time>2026-03-28T14:49:22.246Z</time></trkpt><trkpt lat="41.446941" lon="12.8080394"><ele>7.999999999999999</ele><time>2026-03-28T14:49:23.246Z</time></trkpt><trkpt lat="41.4468769" lon="12.8080011"><ele>8.0</ele><time>2026-03-28T14:49:24.246Z</time></trkpt><trkpt lat="41.4467907" lon="12.8079917"><ele>7.800000000000001</ele><time>2026-03-28T14:49:25.246Z</time></trkpt><trkpt lat="41.446706" lon="12.8079772"><ele>7.6000000000000005</ele><time>2026-03-28T14:49:26.246Z</time></trkpt><trkpt lat="41.4466217" lon="12.8079198"><ele>7.3999999999999995</ele><time>2026-03-28T14:49:27.246Z</time></trkpt><trkpt lat="41.4465354" lon="12.8078621"><ele>7.199999999999999</ele><time>2026-03-28T14:49:28.246Z</time></trkpt><trkpt lat="41.4464441" lon="12.807808"><ele>7.0</ele><time>2026-03-28T14:49:29.247Z</time></trkpt><trkpt lat="41.446358" lon="12.807765"><ele>7.0</ele><time>2026-03-28T14:49:30.247Z</time></trkpt><trkpt lat="41.4462659" lon="12.8077021"><ele>6.999999999999999</ele><time>2026-03-28T14:49:31.246Z</time></trkpt><trkpt lat="41.4461695" lon="12.8076523"><ele>6.999999999999999</ele><time>2026-03-28T14:49:32.246Z</time></trkpt><trkpt lat="41.4460695" lon="12.8075878"><ele>7.0</ele><time>2026-03-28T14:49:33.246Z</time></trkpt><trkpt lat="41.4459736" lon="12.8075232"><ele>7.0</ele><time>2026-03-28T14:49:34.246Z</time></trkpt><trkpt lat="41.4457941" lon="12.8074049"><ele>6.75</ele><time>2026-03-28T14:49:36.246Z</time></trkpt><trkpt lat="41.4457115" lon="12.8073556"><ele>6.5</ele><time>2026-03-28T14:49:37.247Z</time></trkpt><trkpt lat="41.4456252" lon="12.807296"><ele>6.25</ele><time>2026-03-28T14:49:38.246Z</time></trkpt><trkpt lat="41.4455401" lon="12.8072336"><ele>6.0</ele><time>2026-03-28T14:49:39.246Z</time></trkpt><trkpt lat="41.445366" lon="12.807128"><ele>6.0</ele><time>2026-03-28T14:49:41.246Z</time></trkpt><trkpt lat="41.4452109" lon="12.8070321"><ele>6.0</ele><time>2026-03-28T14:49:43.246Z</time></trkpt><trkpt lat="41.445125" lon="12.8069642"><ele>6.0</ele><time>2026-03-28T14:49:44.246Z</time></trkpt><trkpt lat="41.4449598" lon="12.8068495"><ele>6.4</ele><time>2026-03-28T14:49:46.247Z</time></trkpt><trkpt lat="41.4448016" lon="12.8067198"><ele>6.8</ele><time>2026-03-28T14:49:48.247Z</time></trkpt><trkpt lat="41.4447348" lon="12.8066564"><ele>7.200000000000001</ele><time>2026-03-28T14:49:49.246Z</time></trkpt><trkpt lat="41.4446506" lon="12.8066286"><ele>7.6000000000000005</ele><time>2026-03-28T14:49:50.246Z</time></trkpt><trkpt lat="41.4445639" lon="12.8065834"><ele>8.0</ele><time>2026-03-28T14:49:51.246Z</time></trkpt><trkpt lat="41.4444003" lon="12.8064843"><ele>7.0</ele><time>2026-03-28T14:49:53.246Z</time></trkpt><trkpt lat="41.4442514" lon="12.8064073"><ele>6.0</ele><time>2026-03-28T14:49:55.246Z</time></trkpt><trkpt lat="41.4441817" lon="12.8063697"><ele>5.0</ele><time>2026-03-28T14:49:56.247Z</time></trkpt><trkpt lat="41.4440447" lon="12.8062793"><ele>4.0</ele><time>2026-03-28T14:49:58.246Z</time></trkpt><trkpt lat="41.4439717" lon="12.8061685"><ele>4.0</ele><time>2026-03-28T14:50:00.246Z</time></trkpt><trkpt lat="41.4439015" lon="12.8060959"><ele>4.0</ele><time>2026-03-28T14:50:02.246Z</time></trkpt><trkpt lat="41.4438159" lon="12.8060622"><ele>4.0</ele><time>2026-03-28T14:50:04.246Z</time></trkpt><trkpt lat="41.4437486" lon="12.8060409"><ele>4.0</ele><time>2026-03-28T14:50:05.247Z</time></trkpt><trkpt lat="41.4436379" lon="12.8059596"><ele>4.0</ele><time>2026-03-28T14:50:06.246Z</time></trkpt><trkpt lat="41.4434459" lon="12.8058457"><ele>4.0</ele><time>2026-03-28T14:50:08.247Z</time></trkpt><trkpt lat="41.4433572" lon="12.8057915"><ele>4.0</ele><time>2026-03-28T14:50:09.246Z</time></trkpt><trkpt lat="41.4432749" lon="12.8057479"><ele>4.0</ele><time>2026-03-28T14:50:10.246Z</time></trkpt><trkpt lat="41.4431076" lon="12.8056459"><ele>4.0</ele><time>2026-03-28T14:50:12.247Z</time></trkpt><trkpt lat="41.442953" lon="12.8055687"><ele>3.9999999999999996</ele><time>2026-03-28T14:50:14.246Z</time></trkpt><trkpt lat="41.4428826" lon="12.8055274"><ele>4.0</ele><time>2026-03-28T14:50:15.246Z</time></trkpt><trkpt lat="41.4427691" lon="12.8054938"><ele>4.0</ele><time>2026-03-28T14:50:18.246Z</time></trkpt><trkpt lat="41.4427113" lon="12.8055486"><ele>4.0</ele><time>2026-03-28T14:50:20.246Z</time></trkpt><trkpt lat="41.4426464" lon="12.8055298"><ele>3.9999999999999996</ele><time>2026-03-28T14:50:22.248Z</time></trkpt><trkpt lat="41.442559" lon="12.8055124"><ele>4.0</ele><time>2026-03-28T14:50:25.276Z</time></trkpt><trkpt lat="41.4424587" lon="12.8054936"><ele>3.9999999999999996</ele><time>2026-03-28T14:50:27.276Z</time></trkpt><trkpt lat="41.4423865" lon="12.8054678"><ele>4.0</ele><time>2026-03-28T14:50:29.276Z</time></trkpt><trkpt lat="41.4423275" lon="12.8053944"><ele>4.0</ele><time>2026-03-28T14:50:31.276Z</time></trkpt><trkpt lat="41.4422632" lon="12.8052889"><ele>4.0</ele><time>2026-03-28T14:50:33.276Z</time></trkpt><trkpt lat="41.4421962" lon="12.8052418"><ele>3.9999999999999996</ele><time>2026-03-28T14:50:35.276Z</time></trkpt><trkpt lat="41.4421125" lon="12.8051979"><ele>4.0</ele><time>2026-03-28T14:50:37.276Z</time></trkpt><trkpt lat="41.4419976" lon="12.8051692"><ele>4.0</ele><time>2026-03-28T14:50:39.276Z</time></trkpt><trkpt lat="41.4419328" lon="12.8051617"><ele>4.0</ele><time>2026-03-28T14:50:40.277Z</time></trkpt><trkpt lat="41.44185" lon="12.805148"><ele>4.0</ele><time>2026-03-28T14:50:41.276Z</time></trkpt><trkpt lat="41.4417484" lon="12.8051287"><ele>4.0</ele><time>2026-03-28T14:50:42.276Z</time></trkpt><trkpt lat="41.4416489" lon="12.8051265"><ele>4.0</ele><time>2026-03-28T14:50:43.276Z</time></trkpt><trkpt lat="41.4414372" lon="12.8051298"><ele>4.25</ele><time>2026-03-28T14:50:45.277Z</time></trkpt><trkpt lat="41.441228" lon="12.805143"><ele>4.5</ele><time>2026-03-28T14:50:47.276Z</time></trkpt><trkpt lat="41.4411333" lon="12.8051474"><ele>4.75</ele><time>2026-03-28T14:50:48.276Z</time></trkpt><trkpt lat="41.4410407" lon="12.8051569"><ele>5.0</ele><time>2026-03-28T14:50:49.276Z</time></trkpt><trkpt lat="41.4409559" lon="12.8051694"><ele>5.0</ele><time>2026-03-28T14:50:50.276Z</time></trkpt><trkpt lat="41.4408731" lon="12.8051788"><ele>5.0</ele><time>2026-03-28T14:50:51.277Z</time></trkpt><trkpt lat="41.4407467" lon="12.8051789"><ele>5.0</ele><time>2026-03-28T14:50:53.276Z</time></trkpt><trkpt lat="41.4406525" lon="12.8051541"><ele>5.0</ele><time>2026-03-28T14:50:55.276Z</time></trkpt><trkpt lat="41.4406263" lon="12.80493"><ele>5.666666666666667</ele><time>2026-03-28T14:50:58.277Z</time></trkpt><trkpt lat="41.4405936" lon="12.8047583"><ele>6.333333333333334</ele><time>2026-03-28T14:51:00.276Z</time></trkpt><trkpt lat="41.4405292" lon="12.8045301"><ele>7.0</ele><time>2026-03-28T14:51:02.276Z</time></trkpt><trkpt lat="41.4404776" lon="12.8043307"><ele>6.833333333333334</ele><time>2026-03-28T14:51:04.277Z</time></trkpt><trkpt lat="41.4404629" lon="12.8042256"><ele>6.666666666666667</ele><time>2026-03-28T14:51:05.277Z</time></trkpt><trkpt lat="41.440444" lon="12.8041398"><ele>6.5</ele><time>2026-03-28T14:51:06.276Z</time></trkpt><trkpt lat="41.4403841" lon="12.8040334"><ele>6.333333333333334</ele><time>2026-03-28T14:51:08.276Z</time></trkpt><trkpt lat="41.4403134" lon="12.8040266"><ele>6.166666666666667</ele><time>2026-03-28T14:51:10.276Z</time></trkpt><trkpt lat="41.4402513" lon="12.8040629"><ele>6.0</ele><time>2026-03-28T14:51:11.276Z</time></trkpt><trkpt lat="41.4401546" lon="12.8040856"><ele>6.0</ele><time>2026-03-28T14:51:13.276Z</time></trkpt><trkpt lat="41.4400534" lon="12.8040141"><ele>6.0</ele><time>2026-03-28T14:51:15.277Z</time></trkpt><trkpt lat="41.439946" lon="12.8039556"><ele>6.0</ele><time>2026-03-28T14:51:17.276Z</time></trkpt><trkpt lat="41.4398317" lon="12.8039102"><ele>6.0</ele><time>2026-03-28T14:51:19.276Z</time></trkpt><trkpt lat="41.4396916" lon="12.8039482"><ele>6.25</ele><time>2026-03-28T14:51:21.277Z</time></trkpt><trkpt lat="41.4396029" lon="12.8040197"><ele>6.5</ele><time>2026-03-28T14:51:22.276Z</time></trkpt><trkpt lat="41.4395294" lon="12.804082"><ele>6.75</ele><time>2026-03-28T14:51:23.276Z</time></trkpt><trkpt lat="41.4393814" lon="12.8042164"><ele>7.0</ele><time>2026-03-28T14:51:25.276Z</time></trkpt><trkpt lat="41.4392534" lon="12.804339"><ele>7.0</ele><time>2026-03-28T14:51:27.276Z</time></trkpt><trkpt lat="41.4391167" lon="12.8044644"><ele>7.0</ele><time>2026-03-28T14:51:29.276Z</time></trkpt><trkpt lat="41.4390265" lon="12.8045092"><ele>7.0</ele><time>2026-03-28T14:51:30.276Z</time></trkpt><trkpt lat="41.4389192" lon="12.804569"><ele>7.0</ele><time>2026-03-28T14:51:31.277Z</time></trkpt><trkpt lat="41.4388352" lon="12.8045993"><ele>6.8</ele><time>2026-03-28T14:51:32.276Z</time></trkpt><trkpt lat="41.438748" lon="12.8046315"><ele>6.6</ele><time>2026-03-28T14:51:33.276Z</time></trkpt><trkpt lat="41.4386257" lon="12.8046842"><ele>6.3999999999999995</ele><time>2026-03-28T14:51:35.276Z</time></trkpt><trkpt lat="41.4385502" lon="12.8046237"><ele>6.199999999999999</ele><time>2026-03-28T14:51:37.276Z</time></trkpt><trkpt lat="41.4384767" lon="12.8045503"><ele>6.0</ele><time>2026-03-28T14:51:39.277Z</time></trkpt><trkpt lat="41.4384109" lon="12.8045624"><ele>6.0</ele><time>2026-03-28T14:51:40.276Z</time></trkpt><trkpt lat="41.4383402" lon="12.804565"><ele>6.0</ele><time>2026-03-28T14:51:41.276Z</time></trkpt><trkpt lat="41.4382588" lon="12.804563"><ele>6.0</ele><time>2026-03-28T14:51:42.276Z</time></trkpt><trkpt lat="41.4381676" lon="12.8045674"><ele>6.0</ele><time>2026-03-28T14:51:43.276Z</time></trkpt><trkpt lat="41.4380697" lon="12.8045653"><ele>6.0</ele><time>2026-03-28T14:51:44.276Z</time></trkpt><trkpt lat="41.4379647" lon="12.8045446"><ele>6.0</ele><time>2026-03-28T14:51:45.276Z</time></trkpt><trkpt lat="41.4377544" lon="12.8045304"><ele>5.666666666666667</ele><time>2026-03-28T14:51:47.277Z</time></trkpt><trkpt lat="41.4376479" lon="12.8045233"><ele>5.333333333333334</ele><time>2026-03-28T14:51:48.276Z</time></trkpt><trkpt lat="41.4374502" lon="12.8045177"><ele>5.0</ele><time>2026-03-28T14:51:50.276Z</time></trkpt><trkpt lat="41.4372656" lon="12.804504"><ele>5.2</ele><time>2026-03-28T14:51:52.276Z</time></trkpt><trkpt lat="41.4371262" lon="12.8045172"><ele>5.4</ele><time>2026-03-28T14:51:54.276Z</time></trkpt><trkpt lat="41.4370794" lon="12.80462"><ele>5.6</ele><time>2026-03-28T14:51:56.276Z</time></trkpt><trkpt lat="41.4370061" lon="12.8046712"><ele>5.8</ele><time>2026-03-28T14:51:58.276Z</time></trkpt><trkpt lat="41.4369724" lon="12.8048191"><ele>6.0</ele><time>2026-03-28T14:52:00.276Z</time></trkpt><trkpt lat="41.4369661" lon="12.804912"><ele>6.0</ele><time>2026-03-28T14:52:01.277Z</time></trkpt><trkpt lat="41.4369721" lon="12.8050427"><ele>6.0</ele><time>2026-03-28T14:52:02.277Z</time></trkpt><trkpt lat="41.4369718" lon="12.805309"><ele>6.0</ele><time>2026-03-28T14:52:04.276Z</time></trkpt><trkpt lat="41.436971" lon="12.8054715"><ele>6.0</ele><time>2026-03-28T14:52:05.277Z</time></trkpt><trkpt lat="41.4369701" lon="12.8056421"><ele>5.666666666666667</ele><time>2026-03-28T14:52:06.277Z</time></trkpt><trkpt lat="41.4369625" lon="12.8059831"><ele>5.333333333333334</ele><time>2026-03-28T14:52:08.276Z</time></trkpt><trkpt lat="41.4369467" lon="12.8061489"><ele>5.0</ele><time>2026-03-28T14:52:09.277Z</time></trkpt><trkpt lat="41.4369417" lon="12.8065107"><ele>5.25</ele><time>2026-03-28T14:52:11.277Z</time></trkpt><trkpt lat="41.4369277" lon="12.8068112"><ele>5.5</ele><time>2026-03-28T14:52:13.276Z</time></trkpt><trkpt lat="41.4369202" lon="12.806943"><ele>5.75</ele><time>2026-03-28T14:52:14.277Z</time></trkpt><trkpt lat="41.4369274" lon="12.8070423"><ele>6.0</ele><time>2026-03-28T14:52:15.276Z</time></trkpt><trkpt lat="41.4369302" lon="12.8071568"><ele>6.0</ele><time>2026-03-28T14:52:16.276Z</time></trkpt><trkpt lat="41.4369439" lon="12.8073434"><ele>6.0</ele><time>2026-03-28T14:52:18.277Z</time></trkpt><trkpt lat="41.4369168" lon="12.8074907"><ele>6.0</ele><time>2026-03-28T14:52:20.276Z</time></trkpt><trkpt lat="41.4368744" lon="12.8075703"><ele>6.0</ele><time>2026-03-28T14:52:21.276Z</time></trkpt><trkpt lat="41.436815" lon="12.8076392"><ele>6.0</ele><time>2026-03-28T14:52:22.276Z</time></trkpt><trkpt lat="41.4366943" lon="12.8078439"><ele>5.5</ele><time>2026-03-28T14:52:24.276Z</time></trkpt><trkpt lat="41.4365679" lon="12.8080658"><ele>5.0</ele><time>2026-03-28T14:52:26.276Z</time></trkpt><trkpt lat="41.436422" lon="12.8083357"><ele>5.0</ele><time>2026-03-28T14:52:28.276Z</time></trkpt><trkpt lat="41.4362873" lon="12.8086081"><ele>5.0</ele><time>2026-03-28T14:52:30.276Z</time></trkpt><trkpt lat="41.4362248" lon="12.8087574"><ele>5.0</ele><time>2026-03-28T14:52:31.277Z</time></trkpt><trkpt lat="41.43617" lon="12.8089003"><ele>5.0</ele><time>2026-03-28T14:52:32.276Z</time></trkpt><trkpt lat="41.4360709" lon="12.8091871"><ele>5.0</ele><time>2026-03-28T14:52:34.276Z</time></trkpt><trkpt lat="41.4360319" lon="12.8093062"><ele>5.0</ele><time>2026-03-28T14:52:35.276Z</time></trkpt><trkpt lat="41.4359955" lon="12.8094403"><ele>5.0</ele><time>2026-03-28T14:52:36.276Z</time></trkpt><trkpt lat="41.435963" lon="12.8095686"><ele>4.5</ele><time>2026-03-28T14:52:37.276Z</time></trkpt><trkpt lat="41.4358762" lon="12.8098195"><ele>4.0</ele><time>2026-03-28T14:52:39.276Z</time></trkpt><trkpt lat="41.4358346" lon="12.8099231"><ele>3.5</ele><time>2026-03-28T14:52:40.276Z</time></trkpt><trkpt lat="41.4358081" lon="12.810038"><ele>3.0</ele><time>2026-03-28T14:52:41.277Z</time></trkpt><trkpt lat="41.4357341" lon="12.8102894"><ele>3.0</ele><time>2026-03-28T14:52:43.277Z</time></trkpt><trkpt lat="41.4356431" lon="12.8105783"><ele>3.0</ele><time>2026-03-28T14:52:45.276Z</time></trkpt><trkpt lat="41.4355988" lon="12.8107162"><ele>3.0</ele><time>2026-03-28T14:52:46.276Z</time></trkpt><trkpt lat="41.4355468" lon="12.8108554"><ele>4.0</ele><time>2026-03-28T14:52:47.276Z</time></trkpt><trkpt lat="41.4354308" lon="12.8111194"><ele>5.0</ele><time>2026-03-28T14:52:49.277Z</time></trkpt><trkpt lat="41.4353161" lon="12.8113743"><ele>5.0</ele><time>2026-03-28T14:52:51.276Z</time></trkpt><trkpt lat="41.4352618" lon="12.8115062"><ele>5.0</ele><time>2026-03-28T14:52:52.277Z</time></trkpt><trkpt lat="41.4351619" lon="12.8117711"><ele>5.0</ele><time>2026-03-28T14:52:54.276Z</time></trkpt><trkpt lat="41.4351196" lon="12.8118808"><ele>5.0</ele><time>2026-03-28T14:52:55.276Z</time></trkpt><trkpt lat="41.4350812" lon="12.8120091"><ele>4.25</ele><time>2026-03-28T14:52:56.276Z</time></trkpt><trkpt lat="41.4350358" lon="12.8121144"><ele>3.5</ele><time>2026-03-28T14:52:57.276Z</time></trkpt><trkpt lat="41.4349894" lon="12.812255"><ele>2.75</ele><time>2026-03-28T14:52:58.276Z</time></trkpt><trkpt lat="41.4349488" lon="12.8123791"><ele>2.0</ele><time>2026-03-28T14:52:59.276Z</time></trkpt><trkpt lat="41.4348718" lon="12.8126573"><ele>2.0</ele><time>2026-03-28T14:53:01.276Z</time></trkpt><trkpt lat="41.4348323" lon="12.8128005"><ele>2.0</ele><time>2026-03-28T14:53:02.276Z</time></trkpt><trkpt lat="41.4347932" lon="12.8129001"><ele>2.0</ele><time>2026-03-28T14:53:03.277Z</time></trkpt><trkpt lat="41.4347609" lon="12.8130383"><ele>2.0</ele><time>2026-03-28T14:53:04.276Z</time></trkpt><trkpt lat="41.4347374" lon="12.8131547"><ele>2.0</ele><time>2026-03-28T14:53:05.276Z</time></trkpt><trkpt lat="41.4347009" lon="12.8132789"><ele>2.0</ele><time>2026-03-28T14:53:06.277Z</time></trkpt><trkpt lat="41.4346642" lon="12.8134258"><ele>2.0</ele><time>2026-03-28T14:53:07.276Z</time></trkpt><trkpt lat="41.4346225" lon="12.8135505"><ele>2.0</ele><time>2026-03-28T14:53:08.276Z</time></trkpt><trkpt lat="41.4345473" lon="12.8138022"><ele>2.0</ele><time>2026-03-28T14:53:10.276Z</time></trkpt><trkpt lat="41.4344298" lon="12.8140661"><ele>2.0</ele><time>2026-03-28T14:53:12.277Z</time></trkpt><trkpt lat="41.4343022" lon="12.8142705"><ele>2.0</ele><time>2026-03-28T14:53:14.276Z</time></trkpt><trkpt lat="41.4342283" lon="12.8143876"><ele>2.0</ele><time>2026-03-28T14:53:15.276Z</time></trkpt><trkpt lat="41.4341497" lon="12.8145009"><ele>2.0</ele><time>2026-03-28T14:53:16.277Z</time></trkpt><trkpt lat="41.4339875" lon="12.8147145"><ele>2.0</ele><time>2026-03-28T14:53:18.277Z</time></trkpt><trkpt lat="41.4339019" lon="12.814818"><ele>2.0</ele><time>2026-03-28T14:53:19.277Z</time></trkpt><trkpt lat="41.4337356" lon="12.8149873"><ele>2.0</ele><time>2026-03-28T14:53:21.277Z</time></trkpt><trkpt lat="41.4335516" lon="12.8151129"><ele>2.333333333333333</ele><time>2026-03-28T14:53:23.276Z</time></trkpt><trkpt lat="41.4334547" lon="12.8151781"><ele>2.6666666666666665</ele><time>2026-03-28T14:53:24.277Z</time></trkpt><trkpt lat="41.43327" lon="12.8153071"><ele>3.0</ele><time>2026-03-28T14:53:26.276Z</time></trkpt><trkpt lat="41.4330812" lon="12.8154218"><ele>3.0</ele><time>2026-03-28T14:53:28.277Z</time></trkpt><trkpt lat="41.43299" lon="12.8154689"><ele>3.0</ele><time>2026-03-28T14:53:29.277Z</time></trkpt><trkpt lat="41.4328757" lon="12.8155103"><ele>3.0</ele><time>2026-03-28T14:53:30.276Z</time></trkpt><trkpt lat="41.4327663" lon="12.8155504"><ele>3.0</ele><time>2026-03-28T14:53:31.276Z</time></trkpt><trkpt lat="41.4326464" lon="12.815576"><ele>2.0</ele><time>2026-03-28T14:53:32.276Z</time></trkpt><trkpt lat="41.4324169" lon="12.8156083"><ele>1.0</ele><time>2026-03-28T14:53:34.276Z</time></trkpt><trkpt lat="41.4321812" lon="12.8155702"><ele>1.0</ele><time>2026-03-28T14:53:36.277Z</time></trkpt><trkpt lat="41.4319478" lon="12.8155164"><ele>1.0</ele><time>2026-03-28T14:53:38.276Z</time></trkpt><trkpt lat="41.4318414" lon="12.8155003"><ele>1.0</ele><time>2026-03-28T14:53:39.276Z</time></trkpt><trkpt lat="41.4317451" lon="12.8154852"><ele>1.0</ele><time>2026-03-28T14:53:40.276Z</time></trkpt><trkpt lat="41.4316393" lon="12.8154465"><ele>1.0</ele><time>2026-03-28T14:53:41.277Z</time></trkpt><trkpt lat="41.4314555" lon="12.8153858"><ele>1.0</ele><time>2026-03-28T14:53:43.276Z</time></trkpt><trkpt lat="41.4313628" lon="12.8153537"><ele>1.0</ele><time>2026-03-28T14:53:44.277Z</time></trkpt><trkpt lat="41.4312707" lon="12.8153406"><ele>1.0</ele><time>2026-03-28T14:53:45.276Z</time></trkpt><trkpt lat="41.4312001" lon="12.8153423"><ele>1.0</ele><time>2026-03-28T14:53:46.277Z</time></trkpt><trkpt lat="41.431045" lon="12.8153756"><ele>1.4</ele><time>2026-03-28T14:53:48.277Z</time></trkpt><trkpt lat="41.4309728" lon="12.8153866"><ele>1.8</ele><time>2026-03-28T14:53:49.276Z</time></trkpt><trkpt lat="41.4308969" lon="12.8153855"><ele>2.1999999999999997</ele><time>2026-03-28T14:53:50.276Z</time></trkpt><trkpt lat="41.4307787" lon="12.8153713"><ele>2.6</ele><time>2026-03-28T14:53:52.276Z</time></trkpt><trkpt lat="41.4306985" lon="12.815382"><ele>3.0</ele><time>2026-03-28T14:53:54.276Z</time></trkpt><trkpt lat="41.4305846" lon="12.8153803"><ele>3.0</ele><time>2026-03-28T14:53:57.276Z</time></trkpt><trkpt lat="41.4304979" lon="12.8153818"><ele>3.0</ele><time>2026-03-28T14:54:00.276Z</time></trkpt><trkpt lat="41.4304283" lon="12.8154263"><ele>3.0</ele><time>2026-03-28T14:54:03.276Z</time></trkpt><trkpt lat="41.4303591" lon="12.8153679"><ele>3.0</ele><time>2026-03-28T14:54:11.276Z</time></trkpt><trkpt lat="41.4302942" lon="12.8152937"><ele>3.0</ele><time>2026-03-28T14:54:24.277Z</time></trkpt><trkpt lat="41.4301935" lon="12.8152642"><ele>3.0</ele><time>2026-03-28T14:54:26.277Z</time></trkpt><trkpt lat="41.4301105" lon="12.8152304"><ele>3.0</ele><time>2026-03-28T14:54:28.276Z</time></trkpt><trkpt lat="41.4300354" lon="12.815158"><ele>3.0</ele><time>2026-03-28T14:54:30.276Z</time></trkpt><trkpt lat="41.4299753" lon="12.8150967"><ele>3.0</ele><time>2026-03-28T14:54:32.276Z</time></trkpt><trkpt lat="41.4298168" lon="12.8149998"><ele>3.0</ele><time>2026-03-28T14:54:35.276Z</time></trkpt><trkpt lat="41.4297177" lon="12.8149326"><ele>3.0</ele><time>2026-03-28T14:54:37.276Z</time></trkpt><trkpt lat="41.4295898" lon="12.8148641"><ele>3.0</ele><time>2026-03-28T14:54:39.277Z</time></trkpt><trkpt lat="41.429518" lon="12.8148246"><ele>3.0</ele><time>2026-03-28T14:54:40.276Z</time></trkpt><trkpt lat="41.4294463" lon="12.8147794"><ele>3.0</ele><time>2026-03-28T14:54:41.277Z</time></trkpt><trkpt lat="41.4293779" lon="12.8147496"><ele>3.0</ele><time>2026-03-28T14:54:42.276Z</time></trkpt><trkpt lat="41.4293029" lon="12.8147044"><ele>3.0</ele><time>2026-03-28T14:54:43.277Z</time></trkpt><trkpt lat="41.4292352" lon="12.8146634"><ele>2.9999999999999996</ele><time>2026-03-28T14:54:44.276Z</time></trkpt><trkpt lat="41.4291653" lon="12.8146193"><ele>3.0</ele><time>2026-03-28T14:54:45.276Z</time></trkpt><trkpt lat="41.4290977" lon="12.8145816"><ele>3.0</ele><time>2026-03-28T14:54:46.276Z</time></trkpt><trkpt lat="41.4290321" lon="12.814538"><ele>3.0</ele><time>2026-03-28T14:54:47.276Z</time></trkpt><trkpt lat="41.4289647" lon="12.8144974"><ele>3.0</ele><time>2026-03-28T14:54:48.276Z</time></trkpt><trkpt lat="41.4288967" lon="12.8144574"><ele>2.9999999999999996</ele><time>2026-03-28T14:54:49.277Z</time></trkpt><trkpt lat="41.4288362" lon="12.814417"><ele>3.0</ele><time>2026-03-28T14:54:50.276Z</time></trkpt><trkpt lat="41.4287687" lon="12.8143793"><ele>2.9999999999999996</ele><time>2026-03-28T14:54:51.277Z</time></trkpt><trkpt lat="41.4287094" lon="12.8143294"><ele>3.0</ele><time>2026-03-28T14:54:52.276Z</time></trkpt><trkpt lat="41.4286456" lon="12.8142801"><ele>3.0</ele><time>2026-03-28T14:54:53.276Z</time></trkpt><trkpt lat="41.4285839" lon="12.8142332"><ele>3.0</ele><time>2026-03-28T14:54:54.277Z</time></trkpt><trkpt lat="41.428521" lon="12.8142052"><ele>3.0</ele><time>2026-03-28T14:54:55.276Z</time></trkpt><trkpt lat="41.4284649" lon="12.8141569"><ele>2.9999999999999996</ele><time>2026-03-28T14:54:56.276Z</time></trkpt><trkpt lat="41.4283948" lon="12.8141116"><ele>3.0</ele><time>2026-03-28T14:54:57.276Z</time></trkpt><trkpt lat="41.4282673" lon="12.8140256"><ele>3.0</ele><time>2026-03-28T14:54:59.276Z</time></trkpt><trkpt lat="41.428151" lon="12.8139953"><ele>3.0</ele><time>2026-03-28T14:55:01.276Z</time></trkpt><trkpt lat="41.4280033" lon="12.813907"><ele>3.0</ele><time>2026-03-28T14:55:03.277Z</time></trkpt><trkpt lat="41.427927" lon="12.8138396"><ele>3.0</ele><time>2026-03-28T14:55:04.277Z</time></trkpt><trkpt lat="41.4278521" lon="12.8137788"><ele>3.1666666666666665</ele><time>2026-03-28T14:55:05.276Z</time></trkpt><trkpt lat="41.4277821" lon="12.8137133"><ele>3.333333333333333</ele><time>2026-03-28T14:55:06.276Z</time></trkpt><trkpt lat="41.427714" lon="12.8136617"><ele>3.5</ele><time>2026-03-28T14:55:07.276Z</time></trkpt><trkpt lat="41.4276506" lon="12.8136013"><ele>3.6666666666666665</ele><time>2026-03-28T14:55:08.276Z</time></trkpt><trkpt lat="41.4275786" lon="12.8135502"><ele>3.833333333333333</ele><time>2026-03-28T14:55:09.276Z</time></trkpt><trkpt lat="41.4274964" lon="12.8134881"><ele>4.0</ele><time>2026-03-28T14:55:10.276Z</time></trkpt><trkpt lat="41.4274302" lon="12.8134314"><ele>4.0</ele><time>2026-03-28T14:55:11.277Z</time></trkpt><trkpt lat="41.4272804" lon="12.8133252"><ele>4.0</ele><time>2026-03-28T14:55:13.277Z</time></trkpt><trkpt lat="41.4271311" lon="12.8132223"><ele>4.0</ele><time>2026-03-28T14:55:15.276Z</time></trkpt><trkpt lat="41.4269907" lon="12.8131281"><ele>3.6666666666666665</ele><time>2026-03-28T14:55:17.274Z</time></trkpt><trkpt lat="41.4268236" lon="12.8130621"><ele>3.333333333333333</ele><time>2026-03-28T14:55:19.276Z</time></trkpt><trkpt lat="41.4266479" lon="12.8129843"><ele>3.0</ele><time>2026-03-28T14:55:21.276Z</time></trkpt><trkpt lat="41.4264557" lon="12.8129554"><ele>3.0</ele><time>2026-03-28T14:55:23.276Z</time></trkpt><trkpt lat="41.4263521" lon="12.8129309"><ele>3.0</ele><time>2026-03-28T14:55:24.276Z</time></trkpt><trkpt lat="41.4262536" lon="12.8129064"><ele>3.0</ele><time>2026-03-28T14:55:25.276Z</time></trkpt><trkpt lat="41.4261615" lon="12.8128677"><ele>3.0</ele><time>2026-03-28T14:55:26.276Z</time></trkpt><trkpt lat="41.4260613" lon="12.812835"><ele>3.0</ele><time>2026-03-28T14:55:27.276Z</time></trkpt><trkpt lat="41.4259695" lon="12.8127906"><ele>2.75</ele><time>2026-03-28T14:55:28.276Z</time></trkpt><trkpt lat="41.4258823" lon="12.8127751"><ele>2.5</ele><time>2026-03-28T14:55:29.276Z</time></trkpt><trkpt lat="41.4257976" lon="12.8127658"><ele>2.25</ele><time>2026-03-28T14:55:30.276Z</time></trkpt><trkpt lat="41.4257016" lon="12.8127526"><ele>2.0</ele><time>2026-03-28T14:55:31.277Z</time></trkpt><trkpt lat="41.4255049" lon="12.8127366"><ele>2.0</ele><time>2026-03-28T14:55:33.277Z</time></trkpt><trkpt lat="41.4254065" lon="12.8127292"><ele>2.0</ele><time>2026-03-28T14:55:34.277Z</time></trkpt><trkpt lat="41.4252108" lon="12.8127198"><ele>2.0</ele><time>2026-03-28T14:55:36.276Z</time></trkpt><trkpt lat="41.4250126" lon="12.8127214"><ele>2.0</ele><time>2026-03-28T14:55:38.276Z</time></trkpt><trkpt lat="41.4249149" lon="12.8127167"><ele>2.0</ele><time>2026-03-28T14:55:39.276Z</time></trkpt><trkpt lat="41.4248198" lon="12.8127138"><ele>2.0</ele><time>2026-03-28T14:55:40.277Z</time></trkpt><trkpt lat="41.4247305" lon="12.8127113"><ele>2.0</ele><time>2026-03-28T14:55:41.276Z</time></trkpt><trkpt lat="41.4245623" lon="12.8127162"><ele>1.75</ele><time>2026-03-28T14:55:43.276Z</time></trkpt><trkpt lat="41.4243924" lon="12.8127115"><ele>1.5</ele><time>2026-03-28T14:55:45.276Z</time></trkpt><trkpt lat="41.4243074" lon="12.8127209"><ele>1.25</ele><time>2026-03-28T14:55:46.276Z</time></trkpt><trkpt lat="41.4242334" lon="12.8127211"><ele>1.0</ele><time>2026-03-28T14:55:47.276Z</time></trkpt><trkpt lat="41.4241071" lon="12.8127093"><ele>0.9999999999999999</ele><time>2026-03-28T14:55:49.277Z</time></trkpt><trkpt lat="41.4240123" lon="12.8126978"><ele>1.0</ele><time>2026-03-28T14:55:51.277Z</time></trkpt><trkpt lat="41.423943" lon="12.8126988"><ele>1.0</ele><time>2026-03-28T14:55:53.276Z</time></trkpt><trkpt lat="41.423867" lon="12.8126962"><ele>1.0</ele><time>2026-03-28T14:55:55.276Z</time></trkpt><trkpt lat="41.4237797" lon="12.8126607"><ele>0.9999999999999999</ele><time>2026-03-28T14:55:57.276Z</time></trkpt><trkpt lat="41.4236821" lon="12.8126486"><ele>1.0</ele><time>2026-03-28T14:55:59.276Z</time></trkpt><trkpt lat="41.423588" lon="12.8126243"><ele>1.75</ele><time>2026-03-28T14:56:01.276Z</time></trkpt><trkpt lat="41.4235146" lon="12.8126123"><ele>2.5</ele><time>2026-03-28T14:56:02.276Z</time></trkpt><trkpt lat="41.4234344" lon="12.812604"><ele>3.25</ele><time>2026-03-28T14:56:03.277Z</time></trkpt><trkpt lat="41.4232725" lon="12.8125922"><ele>4.0</ele><time>2026-03-28T14:56:05.276Z</time></trkpt><trkpt lat="41.4231004" lon="12.8125901"><ele>4.0</ele><time>2026-03-28T14:56:07.276Z</time></trkpt><trkpt lat="41.4229188" lon="12.8125979"><ele>4.0</ele><time>2026-03-28T14:56:09.276Z</time></trkpt><trkpt lat="41.4228264" lon="12.8125992"><ele>4.0</ele><time>2026-03-28T14:56:10.277Z</time></trkpt><trkpt lat="41.4226371" lon="12.8125707"><ele>4.0</ele><time>2026-03-28T14:56:12.276Z</time></trkpt><trkpt lat="41.4224436" lon="12.8125566"><ele>4.0</ele><time>2026-03-28T14:56:14.276Z</time></trkpt><trkpt lat="41.4223396" lon="12.8125753"><ele>4.0</ele><time>2026-03-28T14:56:15.276Z</time></trkpt><trkpt lat="41.4222361" lon="12.8125954"><ele>4.0</ele><time>2026-03-28T14:56:16.276Z</time></trkpt><trkpt lat="41.4220506" lon="12.8126298"><ele>4.0</ele><time>2026-03-28T14:56:18.276Z</time></trkpt><trkpt lat="41.4218421" lon="12.8125797"><ele>4.0</ele><time>2026-03-28T14:56:20.276Z</time></trkpt><trkpt lat="41.42162" lon="12.8125949"><ele>4.0</ele><time>2026-03-28T14:56:22.277Z</time></trkpt><trkpt lat="41.4213968" lon="12.8126561"><ele>4.0</ele><time>2026-03-28T14:56:24.277Z</time></trkpt><trkpt lat="41.4211617" lon="12.8126601"><ele>4.0</ele><time>2026-03-28T14:56:26.276Z</time></trkpt><trkpt lat="41.4210146" lon="12.812661"><ele>4.0</ele><time>2026-03-28T14:56:27.276Z</time></trkpt><trkpt lat="41.4208599" lon="12.8126499"><ele>4.333333333333333</ele><time>2026-03-28T14:56:28.276Z</time></trkpt><trkpt lat="41.4206799" lon="12.8126454"><ele>4.666666666666667</ele><time>2026-03-28T14:56:29.277Z</time></trkpt><trkpt lat="41.4205211" lon="12.8126356"><ele>5.0</ele><time>2026-03-28T14:56:30.276Z</time></trkpt><trkpt lat="41.4203631" lon="12.812636"><ele>5.0</ele><time>2026-03-28T14:56:31.276Z</time></trkpt><trkpt lat="41.4200747" lon="12.812625"><ele>5.0</ele><time>2026-03-28T14:56:33.276Z</time></trkpt><trkpt lat="41.4198155" lon="12.812627"><ele>4.666666666666667</ele><time>2026-03-28T14:56:35.277Z</time></trkpt><trkpt lat="41.4196082" lon="12.8126099"><ele>4.333333333333333</ele><time>2026-03-28T14:56:37.277Z</time></trkpt><trkpt lat="41.4195008" lon="12.8126078"><ele>4.0</ele><time>2026-03-28T14:56:38.276Z</time></trkpt><trkpt lat="41.4193401" lon="12.8125961"><ele>4.0</ele><time>2026-03-28T14:56:40.276Z</time></trkpt><trkpt lat="41.4192609" lon="12.8125785"><ele>4.0</ele><time>2026-03-28T14:56:41.276Z</time></trkpt><trkpt lat="41.4191119" lon="12.8125501"><ele>4.0</ele><time>2026-03-28T14:56:43.277Z</time></trkpt><trkpt lat="41.4189862" lon="12.8125028"><ele>4.0</ele><time>2026-03-28T14:56:45.276Z</time></trkpt><trkpt lat="41.4188766" lon="12.8124783"><ele>4.0</ele><time>2026-03-28T14:56:47.277Z</time></trkpt><trkpt lat="41.4187922" lon="12.8124646"><ele>4.0</ele><time>2026-03-28T14:56:49.277Z</time></trkpt><trkpt lat="41.4187482" lon="12.812254"><ele>4.0</ele><time>2026-03-28T14:56:53.276Z</time></trkpt><trkpt lat="41.4187317" lon="12.8121545"><ele>4.0</ele><time>2026-03-28T14:56:56.277Z</time></trkpt><trkpt lat="41.4186502" lon="12.8121692"><ele>4.0</ele><time>2026-03-28T14:57:20.276Z</time></trkpt><trkpt lat="41.4185688" lon="12.8121588"><ele>4.0</ele><time>2026-03-28T14:57:22.277Z</time></trkpt><trkpt lat="41.4184565" lon="12.8121512"><ele>4.0</ele><time>2026-03-28T14:57:24.276Z</time></trkpt><trkpt lat="41.4183564" lon="12.8121487"><ele>4.0</ele><time>2026-03-28T14:57:26.277Z</time></trkpt><trkpt lat="41.4182411" lon="12.8121355"><ele>4.0</ele><time>2026-03-28T14:57:28.276Z</time></trkpt><trkpt lat="41.4181159" lon="12.8121292"><ele>4.0</ele><time>2026-03-28T14:57:30.276Z</time></trkpt><trkpt lat="41.4179505" lon="12.8121296"><ele>4.0</ele><time>2026-03-28T14:57:32.276Z</time></trkpt><trkpt lat="41.4178687" lon="12.8121196"><ele>4.0</ele><time>2026-03-28T14:57:33.276Z</time></trkpt><trkpt lat="41.4175972" lon="12.8121207"><ele>4.0</ele><time>2026-03-28T14:57:36.277Z</time></trkpt><trkpt lat="41.4174938" lon="12.8121142"><ele>4.0</ele><time>2026-03-28T14:57:37.276Z</time></trkpt><trkpt lat="41.4173867" lon="12.8121007"><ele>4.0</ele><time>2026-03-28T14:57:38.276Z</time></trkpt><trkpt lat="41.417173" lon="12.812108"><ele>4.0</ele><time>2026-03-28T14:57:40.276Z</time></trkpt><trkpt lat="41.4169421" lon="12.8120903"><ele>3.5</ele><time>2026-03-28T14:57:42.276Z</time></trkpt><trkpt lat="41.4167071" lon="12.8120779"><ele>3.0</ele><time>2026-03-28T14:57:44.277Z</time></trkpt><trkpt lat="41.4166036" lon="12.8120708"><ele>2.5</ele><time>2026-03-28T14:57:45.277Z</time></trkpt><trkpt lat="41.416502" lon="12.8120593"><ele>2.0</ele><time>2026-03-28T14:57:46.276Z</time></trkpt><trkpt lat="41.4164004" lon="12.8120466"><ele>2.0</ele><time>2026-03-28T14:57:47.276Z</time></trkpt><trkpt lat="41.4163057" lon="12.812047"><ele>2.0</ele><time>2026-03-28T14:57:48.277Z</time></trkpt><trkpt lat="41.4162118" lon="12.8120436"><ele>2.0</ele><time>2026-03-28T14:57:49.277Z</time></trkpt><trkpt lat="41.4160203" lon="12.8120365"><ele>2.0</ele><time>2026-03-28T14:57:51.276Z</time></trkpt><trkpt lat="41.4158434" lon="12.8120237"><ele>2.0</ele><time>2026-03-28T14:57:53.277Z</time></trkpt><trkpt lat="41.4156964" lon="12.8119732"><ele>2.0</ele><time>2026-03-28T14:57:55.276Z</time></trkpt><trkpt lat="41.4156024" lon="12.8119102"><ele>2.0</ele><time>2026-03-28T14:57:57.276Z</time></trkpt><trkpt lat="41.4155652" lon="12.8117975"><ele>2.0</ele><time>2026-03-28T14:57:59.276Z</time></trkpt><trkpt lat="41.4155734" lon="12.8116169"><ele>3.0</ele><time>2026-03-28T14:58:01.277Z</time></trkpt><trkpt lat="41.415546" lon="12.8114274"><ele>4.0</ele><time>2026-03-28T14:58:02.277Z</time></trkpt><trkpt lat="41.4155845" lon="12.8110749"><ele>5.0</ele><time>2026-03-28T14:58:04.276Z</time></trkpt><trkpt lat="41.4155738" lon="12.810485"><ele>5.0</ele><time>2026-03-28T14:58:06.276Z</time></trkpt><trkpt lat="41.4155792" lon="12.8102353"><ele>5.0</ele><time>2026-03-28T14:58:07.276Z</time></trkpt><trkpt lat="41.4156042" lon="12.8097548"><ele>5.0</ele><time>2026-03-28T14:58:09.276Z</time></trkpt><trkpt lat="41.4156336" lon="12.8093419"><ele>5.0</ele><time>2026-03-28T14:58:11.276Z</time></trkpt><trkpt lat="41.4156589" lon="12.8091537"><ele>4.666666666666667</ele><time>2026-03-28T14:58:12.277Z</time></trkpt><trkpt lat="41.4156688" lon="12.8089667"><ele>4.333333333333333</ele><time>2026-03-28T14:58:13.276Z</time></trkpt><trkpt lat="41.4156687" lon="12.808783"><ele>4.0</ele><time>2026-03-28T14:58:14.276Z</time></trkpt><trkpt lat="41.4156858" lon="12.8084349"><ele>4.0</ele><time>2026-03-28T14:58:16.276Z</time></trkpt><trkpt lat="41.4156988" lon="12.8082663"><ele>4.0</ele><time>2026-03-28T14:58:17.276Z</time></trkpt><trkpt lat="41.4157018" lon="12.8080527"><ele>4.0</ele><time>2026-03-28T14:58:18.277Z</time></trkpt><trkpt lat="41.4157077" lon="12.8078493"><ele>4.0</ele><time>2026-03-28T14:58:19.276Z</time></trkpt><trkpt lat="41.4157405" lon="12.8076694"><ele>4.0</ele><time>2026-03-28T14:58:20.277Z</time></trkpt><trkpt lat="41.4157532" lon="12.807452"><ele>4.0</ele><time>2026-03-28T14:58:21.276Z</time></trkpt><trkpt lat="41.4157564" lon="12.8070308"><ele>4.0</ele><time>2026-03-28T14:58:23.276Z</time></trkpt><trkpt lat="41.4157608" lon="12.8068336"><ele>4.0</ele><time>2026-03-28T14:58:24.277Z</time></trkpt><trkpt lat="41.4158828" lon="12.806528"><ele>4.0</ele><time>2026-03-28T14:58:26.276Z</time></trkpt><trkpt lat="41.4159196" lon="12.8064093"><ele>3.333333333333333</ele><time>2026-03-28T14:58:27.277Z</time></trkpt><trkpt lat="41.4159505" lon="12.8062382"><ele>2.6666666666666665</ele><time>2026-03-28T14:58:28.276Z</time></trkpt><trkpt lat="41.4160414" lon="12.8059392"><ele>2.0</ele><time>2026-03-28T14:58:30.276Z</time></trkpt><trkpt lat="41.4160762" lon="12.8057997"><ele>2.0</ele><time>2026-03-28T14:58:31.276Z</time></trkpt><trkpt lat="41.4161632" lon="12.8055331"><ele>2.0</ele><time>2026-03-28T14:58:33.277Z</time></trkpt><trkpt lat="41.4162361" lon="12.8052722"><ele>2.0</ele><time>2026-03-28T14:58:35.276Z</time></trkpt><trkpt lat="41.4163086" lon="12.8050059"><ele>1.5</ele><time>2026-03-28T14:58:37.276Z</time></trkpt><trkpt lat="41.4163441" lon="12.8048741"><ele>1.0</ele><time>2026-03-28T14:58:38.276Z</time></trkpt><trkpt lat="41.4163884" lon="12.8047421"><ele>0.5</ele><time>2026-03-28T14:58:39.277Z</time></trkpt><trkpt lat="41.4164564" lon="12.8044874"><ele>0.0</ele><time>2026-03-28T14:58:41.277Z</time></trkpt><trkpt lat="41.4164902" lon="12.8043473"><ele>0.0</ele><time>2026-03-28T14:58:42.276Z</time></trkpt><trkpt lat="41.4165242" lon="12.8042054"><ele>0.0</ele><time>2026-03-28T14:58:43.276Z</time></trkpt><trkpt lat="41.4165612" lon="12.8040458"><ele>0.0</ele><time>2026-03-28T14:58:44.276Z</time></trkpt><trkpt lat="41.4166555" lon="12.803799"><ele>0.0</ele><time>2026-03-28T14:58:46.276Z</time></trkpt><trkpt lat="41.4167325" lon="12.8035378"><ele>0.3333333333333333</ele><time>2026-03-28T14:58:48.276Z</time></trkpt><trkpt lat="41.4168214" lon="12.8032217"><ele>0.6666666666666666</ele><time>2026-03-28T14:58:50.277Z</time></trkpt><trkpt lat="41.4168704" lon="12.8030642"><ele>1.0</ele><time>2026-03-28T14:58:51.276Z</time></trkpt><trkpt lat="41.4169316" lon="12.8029023"><ele>1.0</ele><time>2026-03-28T14:58:52.276Z</time></trkpt><trkpt lat="41.416982" lon="12.8027514"><ele>1.0</ele><time>2026-03-28T14:58:53.276Z</time></trkpt><trkpt lat="41.4170435" lon="12.8026066"><ele>1.0</ele><time>2026-03-28T14:58:54.276Z</time></trkpt><trkpt lat="41.4171108" lon="12.8024963"><ele>1.0</ele><time>2026-03-28T14:58:55.276Z</time></trkpt><trkpt lat="41.4172649" lon="12.8023081"><ele>1.0</ele><time>2026-03-28T14:58:57.277Z</time></trkpt><trkpt lat="41.4174313" lon="12.8021434"><ele>1.0</ele><time>2026-03-28T14:58:59.276Z</time></trkpt><trkpt lat="41.4175187" lon="12.8020706"><ele>1.0</ele><time>2026-03-28T14:59:00.276Z</time></trkpt><trkpt lat="41.4175835" lon="12.8019876"><ele>1.0</ele><time>2026-03-28T14:59:01.276Z</time></trkpt><trkpt lat="41.4176501" lon="12.8018997"><ele>1.0</ele><time>2026-03-28T14:59:02.276Z</time></trkpt><trkpt lat="41.4176922" lon="12.8017943"><ele>1.0</ele><time>2026-03-28T14:59:03.277Z</time></trkpt><trkpt lat="41.4177232" lon="12.8016801"><ele>1.0</ele><time>2026-03-28T14:59:04.276Z</time></trkpt><trkpt lat="41.4177507" lon="12.8014347"><ele>1.0</ele><time>2026-03-28T14:59:06.276Z</time></trkpt><trkpt lat="41.4177835" lon="12.8011731"><ele>1.3333333333333333</ele><time>2026-03-28T14:59:08.276Z</time></trkpt><trkpt lat="41.4177907" lon="12.8009365"><ele>1.6666666666666665</ele><time>2026-03-28T14:59:10.277Z</time></trkpt><trkpt lat="41.4177963" lon="12.8006789"><ele>2.0</ele><time>2026-03-28T14:59:12.277Z</time></trkpt><trkpt lat="41.4177959" lon="12.8005535"><ele>2.0</ele><time>2026-03-28T14:59:13.276Z</time></trkpt><trkpt lat="41.417805" lon="12.8004351"><ele>2.0</ele><time>2026-03-28T14:59:14.277Z</time></trkpt><trkpt lat="41.417814" lon="12.8002991"><ele>2.0</ele><time>2026-03-28T14:59:15.277Z</time></trkpt><trkpt lat="41.4178368" lon="12.8001503"><ele>2.0</ele><time>2026-03-28T14:59:16.276Z</time></trkpt><trkpt lat="41.4178839" lon="12.7998603"><ele>2.0</ele><time>2026-03-28T14:59:18.276Z</time></trkpt><trkpt lat="41.4178941" lon="12.7996871"><ele>2.0</ele><time>2026-03-28T14:59:19.277Z</time></trkpt><trkpt lat="41.4179022" lon="12.7995351"><ele>2.0</ele><time>2026-03-28T14:59:20.276Z</time></trkpt><trkpt lat="41.4179377" lon="12.7992507"><ele>1.6666666666666665</ele><time>2026-03-28T14:59:22.277Z</time></trkpt><trkpt lat="41.4179873" lon="12.7991003"><ele>1.3333333333333333</ele><time>2026-03-28T14:59:23.276Z</time></trkpt><trkpt lat="41.4180904" lon="12.7987344"><ele>1.0</ele><time>2026-03-28T14:59:25.276Z</time></trkpt><trkpt lat="41.4181841" lon="12.798251"><ele>1.0</ele><time>2026-03-28T14:59:27.276Z</time></trkpt><trkpt lat="41.4182453" lon="12.7979798"><ele>1.0</ele><time>2026-03-28T14:59:28.276Z</time></trkpt><trkpt lat="41.4182976" lon="12.7977418"><ele>1.0</ele><time>2026-03-28T14:59:29.276Z</time></trkpt><trkpt lat="41.4184336" lon="12.7972183"><ele>1.0</ele><time>2026-03-28T14:59:31.276Z</time></trkpt><trkpt lat="41.4185472" lon="12.7966784"><ele>1.0</ele><time>2026-03-28T14:59:33.277Z</time></trkpt><trkpt lat="41.4186007" lon="12.7964062"><ele>1.0</ele><time>2026-03-28T14:59:34.277Z</time></trkpt><trkpt lat="41.4186421" lon="12.7960861"><ele>1.0</ele><time>2026-03-28T14:59:35.276Z</time></trkpt><trkpt lat="41.4187153" lon="12.7957792"><ele>1.5</ele><time>2026-03-28T14:59:36.276Z</time></trkpt><trkpt lat="41.4187995" lon="12.7954913"><ele>2.0</ele><time>2026-03-28T14:59:37.276Z</time></trkpt><trkpt lat="41.4189409" lon="12.7949372"><ele>2.333333333333333</ele><time>2026-03-28T14:59:39.276Z</time></trkpt><trkpt lat="41.4189883" lon="12.794689"><ele>2.6666666666666665</ele><time>2026-03-28T14:59:40.276Z</time></trkpt><trkpt lat="41.4190384" lon="12.7944355"><ele>3.0</ele><time>2026-03-28T14:59:41.277Z</time></trkpt><trkpt lat="41.4191499" lon="12.7940064"><ele>3.0</ele><time>2026-03-28T14:59:43.277Z</time></trkpt><trkpt lat="41.4192578" lon="12.7935879"><ele>3.0</ele><time>2026-03-28T14:59:45.277Z</time></trkpt><trkpt lat="41.4193033" lon="12.793387"><ele>2.0</ele><time>2026-03-28T14:59:46.277Z</time></trkpt><trkpt lat="41.4193237" lon="12.7931967"><ele>1.0</ele><time>2026-03-28T14:59:47.276Z</time></trkpt><trkpt lat="41.4193685" lon="12.7927626"><ele>1.0</ele><time>2026-03-28T14:59:49.276Z</time></trkpt><trkpt lat="41.4194045" lon="12.7923512"><ele>1.0</ele><time>2026-03-28T14:59:51.276Z</time></trkpt><trkpt lat="41.4194636" lon="12.7919341"><ele>0.3333333333333333</ele><time>2026-03-28T14:59:53.276Z</time></trkpt><trkpt lat="41.4194959" lon="12.7917191"><ele>-0.3333333333333333</ele><time>2026-03-28T14:59:54.276Z</time></trkpt><trkpt lat="41.4195187" lon="12.7915356"><ele>-1.0</ele><time>2026-03-28T14:59:55.276Z</time></trkpt><trkpt lat="41.4195777" lon="12.7911173"><ele>-0.3333333333333333</ele><time>2026-03-28T14:59:57.277Z</time></trkpt><trkpt lat="41.4196105" lon="12.790751"><ele>0.3333333333333333</ele><time>2026-03-28T14:59:59.276Z</time></trkpt><trkpt lat="41.4196205" lon="12.7905687"><ele>1.0</ele><time>2026-03-28T15:00:00.276Z</time></trkpt><trkpt lat="41.4196405" lon="12.7903989"><ele>1.0</ele><time>2026-03-28T15:00:01.276Z</time></trkpt><trkpt lat="41.4196595" lon="12.7902364"><ele>1.0</ele><time>2026-03-28T15:00:02.277Z</time></trkpt><trkpt lat="41.4197028" lon="12.789909"><ele>1.0</ele><time>2026-03-28T15:00:04.276Z</time></trkpt><trkpt lat="41.4197398" lon="12.7895805"><ele>1.0</ele><time>2026-03-28T15:00:06.276Z</time></trkpt><trkpt lat="41.4197572" lon="12.7894171"><ele>1.0</ele><time>2026-03-28T15:00:07.277Z</time></trkpt><trkpt lat="41.4197857" lon="12.789092"><ele>1.0</ele><time>2026-03-28T15:00:09.276Z</time></trkpt><trkpt lat="41.4197744" lon="12.7887782"><ele>1.0</ele><time>2026-03-28T15:00:11.277Z</time></trkpt><trkpt lat="41.4198088" lon="12.7884658"><ele>1.0</ele><time>2026-03-28T15:00:13.277Z</time></trkpt><trkpt lat="41.4198118" lon="12.7883084"><ele>1.0</ele><time>2026-03-28T15:00:14.276Z</time></trkpt><trkpt lat="41.4198111" lon="12.7881361"><ele>1.0</ele><time>2026-03-28T15:00:15.277Z</time></trkpt><trkpt lat="41.419836" lon="12.7878215"><ele>1.0</ele><time>2026-03-28T15:00:17.276Z</time></trkpt><trkpt lat="41.4198448" lon="12.7876609"><ele>1.0</ele><time>2026-03-28T15:00:18.276Z</time></trkpt><trkpt lat="41.419867" lon="12.7873893"><ele>0.75</ele><time>2026-03-28T15:00:20.276Z</time></trkpt><trkpt lat="41.4198738" lon="12.7872602"><ele>0.5</ele><time>2026-03-28T15:00:21.276Z</time></trkpt><trkpt lat="41.4198857" lon="12.7871312"><ele>0.25</ele><time>2026-03-28T15:00:22.276Z</time></trkpt><trkpt lat="41.4199074" lon="12.7868844"><ele>0.0</ele><time>2026-03-28T15:00:24.277Z</time></trkpt><trkpt lat="41.4199086" lon="12.7867656"><ele>0.0</ele><time>2026-03-28T15:00:25.276Z</time></trkpt><trkpt lat="41.4199144" lon="12.7865386"><ele>0.0</ele><time>2026-03-28T15:00:27.276Z</time></trkpt><trkpt lat="41.4199225" lon="12.7864307"><ele>0.0</ele><time>2026-03-28T15:00:28.276Z</time></trkpt><trkpt lat="41.4199375" lon="12.7863163"><ele>0.0</ele><time>2026-03-28T15:00:29.277Z</time></trkpt><trkpt lat="41.419959" lon="12.7862227"><ele>0.0</ele><time>2026-03-28T15:00:30.276Z</time></trkpt><trkpt lat="41.4199657" lon="12.7861308"><ele>0.0</ele><time>2026-03-28T15:00:31.277Z</time></trkpt><trkpt lat="41.420013" lon="12.7860175"><ele>0.0</ele><time>2026-03-28T15:00:33.277Z</time></trkpt><trkpt lat="41.4200838" lon="12.7859827"><ele>0.0</ele><time>2026-03-28T15:00:35.276Z</time></trkpt><trkpt lat="41.4201511" lon="12.7859767"><ele>0.0</ele><time>2026-03-28T15:00:43.276Z</time></trkpt><trkpt lat="41.4202573" lon="12.7860482"><ele>0.0</ele><time>2026-03-28T15:00:45.277Z</time></trkpt><trkpt lat="41.4203232" lon="12.7860835"><ele>0.0</ele><time>2026-03-28T15:00:46.276Z</time></trkpt><trkpt lat="41.4204585" lon="12.7861117"><ele>0.3333333333333333</ele><time>2026-03-28T15:00:48.276Z</time></trkpt><trkpt lat="41.4205273" lon="12.7861201"><ele>0.6666666666666666</ele><time>2026-03-28T15:00:49.277Z</time></trkpt><trkpt lat="41.4206249" lon="12.7861753"><ele>1.0</ele><time>2026-03-28T15:00:51.276Z</time></trkpt><trkpt lat="41.4207405" lon="12.7861891"><ele>1.3333333333333333</ele><time>2026-03-28T15:00:53.276Z</time></trkpt><trkpt lat="41.4208067" lon="12.7862208"><ele>1.6666666666666665</ele><time>2026-03-28T15:00:54.277Z</time></trkpt><trkpt lat="41.4208823" lon="12.7862491"><ele>2.0</ele><time>2026-03-28T15:00:55.276Z</time></trkpt><trkpt lat="41.421005" lon="12.7863086"><ele>1.9999999999999998</ele><time>2026-03-28T15:00:57.276Z</time></trkpt><trkpt lat="41.4210758" lon="12.7863328"><ele>2.0</ele><time>2026-03-28T15:00:58.277Z</time></trkpt><trkpt lat="41.4211604" lon="12.7863579"><ele>2.0</ele><time>2026-03-28T15:00:59.276Z</time></trkpt><trkpt lat="41.4212851" lon="12.7863929"><ele>2.0</ele><time>2026-03-28T15:01:01.276Z</time></trkpt><trkpt lat="41.4213498" lon="12.7864189"><ele>1.9999999999999998</ele><time>2026-03-28T15:01:02.276Z</time></trkpt><trkpt lat="41.4214107" lon="12.7864449"><ele>2.0</ele><time>2026-03-28T15:01:03.277Z</time></trkpt><trkpt lat="41.4214795" lon="12.7864771"><ele>1.75</ele><time>2026-03-28T15:01:04.276Z</time></trkpt><trkpt lat="41.4216034" lon="12.7865115"><ele>1.5</ele><time>2026-03-28T15:01:06.276Z</time></trkpt><trkpt lat="41.4217388" lon="12.7865571"><ele>1.25</ele><time>2026-03-28T15:01:08.276Z</time></trkpt><trkpt lat="41.4218572" lon="12.7866196"><ele>1.0</ele><time>2026-03-28T15:01:10.276Z</time></trkpt><trkpt lat="41.4219179" lon="12.7866427"><ele>1.0</ele><time>2026-03-28T15:01:11.276Z</time></trkpt><trkpt lat="41.4219852" lon="12.7866719"><ele>0.9999999999999999</ele><time>2026-03-28T15:01:12.276Z</time></trkpt><trkpt lat="41.4220501" lon="12.7867021"><ele>1.0</ele><time>2026-03-28T15:01:13.276Z</time></trkpt><trkpt lat="41.4221218" lon="12.7867268"><ele>1.0</ele><time>2026-03-28T15:01:14.276Z</time></trkpt><trkpt lat="41.4221942" lon="12.7867278"><ele>0.9999999999999999</ele><time>2026-03-28T15:01:15.277Z</time></trkpt><trkpt lat="41.4222669" lon="12.7867626"><ele>1.0</ele><time>2026-03-28T15:01:16.277Z</time></trkpt><trkpt lat="41.4223398" lon="12.7867996"><ele>1.0</ele><time>2026-03-28T15:01:17.276Z</time></trkpt><trkpt lat="41.4224103" lon="12.7868407"><ele>0.8333333333333333</ele><time>2026-03-28T15:01:18.276Z</time></trkpt><trkpt lat="41.4225594" lon="12.7868891"><ele>0.6666666666666666</ele><time>2026-03-28T15:01:20.276Z</time></trkpt><trkpt lat="41.4226305" lon="12.7868962"><ele>0.5</ele><time>2026-03-28T15:01:21.276Z</time></trkpt><trkpt lat="41.4227078" lon="12.7869157"><ele>0.3333333333333333</ele><time>2026-03-28T15:01:22.277Z</time></trkpt><trkpt lat="41.4227766" lon="12.7869383"><ele>0.16666666666666666</ele><time>2026-03-28T15:01:23.277Z</time></trkpt><trkpt lat="41.4228448" lon="12.7869527"><ele>0.0</ele><time>2026-03-28T15:01:24.276Z</time></trkpt><trkpt lat="41.4229724" lon="12.7870096"><ele>0.25</ele><time>2026-03-28T15:01:26.277Z</time></trkpt><trkpt lat="41.4231207" lon="12.7870503"><ele>0.5</ele><time>2026-03-28T15:01:28.277Z</time></trkpt><trkpt lat="41.4231829" lon="12.7870773"><ele>0.75</ele><time>2026-03-28T15:01:29.276Z</time></trkpt><trkpt lat="41.4233049" lon="12.7871212"><ele>1.0</ele><time>2026-03-28T15:01:31.276Z</time></trkpt><trkpt lat="41.4234283" lon="12.7871503"><ele>1.0</ele><time>2026-03-28T15:01:33.276Z</time></trkpt><trkpt lat="41.4234867" lon="12.7871889"><ele>1.0</ele><time>2026-03-28T15:01:34.276Z</time></trkpt><trkpt lat="41.4235974" lon="12.7872283"><ele>1.0</ele><time>2026-03-28T15:01:36.276Z</time></trkpt><trkpt lat="41.4236748" lon="12.7872369"><ele>1.0</ele><time>2026-03-28T15:01:38.276Z</time></trkpt><trkpt lat="41.4237119" lon="12.7873309"><ele>1.0</ele><time>2026-03-28T15:02:36.276Z</time></trkpt><trkpt lat="41.4236527" lon="12.7874788"><ele>1.0</ele><time>2026-03-28T15:02:40.276Z</time></trkpt><trkpt lat="41.4237107" lon="12.7875177"><ele>1.0</ele><time>2026-03-28T15:03:24.276Z</time></trkpt><trkpt lat="41.4237724" lon="12.7874861"><ele>1.0</ele><time>2026-03-28T15:03:40.258Z</time></trkpt><trkpt lat="41.423767" lon="12.7874022"><ele>1.0</ele><time>2026-03-28T15:04:07.274Z</time></trkpt><trkpt lat="41.4237047" lon="12.7873564"><ele>1.0</ele><time>2026-03-28T15:04:20.276Z</time></trkpt></trkseg></trk></gpx>